<?xml version='1.0' encoding='UTF-8'?><gpx version="1.1" creator="JPX - https://github.com/jenetics/jpx" xmlns="http://www.topografix.com/GPX/1/1"><trk><trkseg><trkpt lat="43.98727362646153" lon="7.777247166665583"><ele>475.00000000000006</ele><time>2026-05-02T06:16:03.993Z</time></trkpt><trkpt lat="43.98732076218822" lon="7.777177256285141"><ele>475.0</ele><time>2026-05-02T06:16:06.992Z</time></trkpt><trkpt lat="43.98741404728507" lon="7.777135982059502"><ele>475.0</ele><time>2026-05-02T06:16:08.992Z</time></trkpt><trkpt lat="43.98747629385966" lon="7.777103801500689"><ele>475.0</ele><time>2026-05-02T06:16:09.992Z</time></trkpt><trkpt lat="43.98757828051531" lon="7.777030277940661"><ele>475.00000000000006</ele><time>2026-05-02T06:16:11.992Z</time></trkpt><trkpt lat="43.98764680282043" lon="7.776983053794934"><ele>475.0</ele><time>2026-05-02T06:16:12.992Z</time></trkpt><trkpt lat="43.98772138605616" lon="7.7769398292757606"><ele>472.8</ele><time>2026-05-02T06:16:13.992Z</time></trkpt><trkpt lat="43.98778729665281" lon="7.776898813481842"><ele>470.6</ele><time>2026-05-02T06:16:14.992Z</time></trkpt><trkpt lat="43.987858855786286" lon="7.776834569401126"><ele>468.4</ele><time>2026-05-02T06:16:15.992Z</time></trkpt><trkpt lat="43.9879516455673" lon="7.776772687577772"><ele>466.2</ele><time>2026-05-02T06:16:16.992Z</time></trkpt><trkpt lat="43.98812570488037" lon="7.776672468439094"><ele>464.0</ele><time>2026-05-02T06:16:18.992Z</time></trkpt><trkpt lat="43.988228893903276" lon="7.776647048482319"><ele>464.0</ele><time>2026-05-02T06:16:19.992Z</time></trkpt><trkpt lat="43.98833452593458" lon="7.7766136639734755"><ele>464.0</ele><time>2026-05-02T06:16:20.992Z</time></trkpt><trkpt lat="43.98842969910191" lon="7.77657549563057"><ele>464.0</ele><time>2026-05-02T06:16:21.992Z</time></trkpt><trkpt lat="43.98852941908372" lon="7.7765138822007644"><ele>464.0</ele><time>2026-05-02T06:16:22.992Z</time></trkpt><trkpt lat="43.988627693710214" lon="7.776448996827722"><ele>464.0</ele><time>2026-05-02T06:16:23.992Z</time></trkpt><trkpt lat="43.988728601411296" lon="7.776387028994049"><ele>476.3333333333333</ele><time>2026-05-02T06:16:24.992Z</time></trkpt><trkpt lat="43.988821331110486" lon="7.776313486307031"><ele>488.66666666666663</ele><time>2026-05-02T06:16:25.992Z</time></trkpt><trkpt lat="43.98890493123779" lon="7.7762229062649215"><ele>501.0</ele><time>2026-05-02T06:16:26.992Z</time></trkpt><trkpt lat="43.992540364369454" lon="7.774479977635799"><ele>502.0</ele><time>2026-05-02T06:17:27.991Z</time></trkpt><trkpt lat="43.99260790599155" lon="7.774498574258072"><ele>503.0</ele><time>2026-05-02T06:17:28.991Z</time></trkpt><trkpt lat="43.99267007859109" lon="7.774557406282815"><ele>504.0</ele><time>2026-05-02T06:17:29.991Z</time></trkpt><trkpt lat="43.99275327087932" lon="7.7745895382730605"><ele>505.0</ele><time>2026-05-02T06:17:30.991Z</time></trkpt><trkpt lat="43.9928427913322" lon="7.774629072674444"><ele>506.0</ele><time>2026-05-02T06:17:31.991Z</time></trkpt><trkpt lat="43.992932816312894" lon="7.774631870331766"><ele>507.0</ele><time>2026-05-02T06:17:32.991Z</time></trkpt><trkpt lat="43.99303473201106" lon="7.774584425301008"><ele>507.0</ele><time>2026-05-02T06:17:33.991Z</time></trkpt><trkpt lat="43.99313311064793" lon="7.774495879557712"><ele>507.0</ele><time>2026-05-02T06:17:34.991Z</time></trkpt><trkpt lat="43.99324467523794" lon="7.774425704861255"><ele>507.0</ele><time>2026-05-02T06:17:35.991Z</time></trkpt><trkpt lat="43.993357844166304" lon="7.774343466781931"><ele>507.0</ele><time>2026-05-02T06:17:36.991Z</time></trkpt><trkpt lat="43.99348153684559" lon="7.774266364458385"><ele>513.5</ele><time>2026-05-02T06:17:37.991Z</time></trkpt><trkpt lat="43.99360071529576" lon="7.774167672459463"><ele>520.0</ele><time>2026-05-02T06:17:38.991Z</time></trkpt><trkpt lat="43.99371554120305" lon="7.774054782940722"><ele>526.5</ele><time>2026-05-02T06:17:39.991Z</time></trkpt><trkpt lat="43.99381736396263" lon="7.773925194460473"><ele>533.0</ele><time>2026-05-02T06:17:40.991Z</time></trkpt><trkpt lat="43.993899139981835" lon="7.773766266009394"><ele>533.0</ele><time>2026-05-02T06:17:41.991Z</time></trkpt><trkpt lat="43.9939657835006" lon="7.77359460280568"><ele>533.0</ele><time>2026-05-02T06:17:42.991Z</time></trkpt><trkpt lat="43.99401829035276" lon="7.77343608523204"><ele>533.0</ele><time>2026-05-02T06:17:43.991Z</time></trkpt><trkpt lat="43.994086259197275" lon="7.773281535729701"><ele>533.0</ele><time>2026-05-02T06:17:44.991Z</time></trkpt><trkpt lat="43.99417635160187" lon="7.773154104796894"><ele>537.75</ele><time>2026-05-02T06:17:45.991Z</time></trkpt><trkpt lat="43.994265246607526" lon="7.773009423560724"><ele>542.5</ele><time>2026-05-02T06:17:46.991Z</time></trkpt><trkpt lat="43.994353400267784" lon="7.772879785982801"><ele>547.25</ele><time>2026-05-02T06:17:47.991Z</time></trkpt><trkpt lat="43.994437091496806" lon="7.772784823580197"><ele>552.0</ele><time>2026-05-02T06:17:48.991Z</time></trkpt><trkpt lat="43.994537796306645" lon="7.772720385414702"><ele>552.0</ele><time>2026-05-02T06:17:49.991Z</time></trkpt><trkpt lat="43.99464212830485" lon="7.772691368214266"><ele>552.0</ele><time>2026-05-02T06:17:50.99Z</time></trkpt><trkpt lat="43.994767985352105" lon="7.772648298409359"><ele>552.0</ele><time>2026-05-02T06:17:51.992Z</time></trkpt><trkpt lat="43.99491008468519" lon="7.772607687846639"><ele>552.0</ele><time>2026-05-02T06:17:52.993Z</time></trkpt><trkpt lat="43.995028478933406" lon="7.772547840476458"><ele>547.25</ele><time>2026-05-02T06:17:53.993Z</time></trkpt><trkpt lat="43.995159413697586" lon="7.772515126244701"><ele>542.5</ele><time>2026-05-02T06:17:54.993Z</time></trkpt><trkpt lat="43.995300428294144" lon="7.7724780813325305"><ele>537.75</ele><time>2026-05-02T06:17:55.992Z</time></trkpt><trkpt lat="43.99543545418279" lon="7.772443075714584"><ele>533.0</ele><time>2026-05-02T06:17:56.992Z</time></trkpt><trkpt lat="43.99557009317442" lon="7.772426923264782"><ele>533.0</ele><time>2026-05-02T06:17:57.992Z</time></trkpt><trkpt lat="43.99567332673265" lon="7.772367153508316"><ele>533.0</ele><time>2026-05-02T06:17:58.992Z</time></trkpt><trkpt lat="43.99577298887035" lon="7.7722696183875"><ele>533.0</ele><time>2026-05-02T06:17:59.992Z</time></trkpt><trkpt lat="43.995851627151914" lon="7.772123798385131"><ele>533.0</ele><time>2026-05-02T06:18:00.992Z</time></trkpt><trkpt lat="43.995947193037644" lon="7.771983036003918"><ele>535.5</ele><time>2026-05-02T06:18:01.992Z</time></trkpt><trkpt lat="43.996045943650394" lon="7.771854840885871"><ele>538.0</ele><time>2026-05-02T06:18:02.992Z</time></trkpt><trkpt lat="43.99616146505319" lon="7.771740800775665"><ele>540.5</ele><time>2026-05-02T06:18:03.993Z</time></trkpt><trkpt lat="43.9962793621736" lon="7.771647737768008"><ele>543.0</ele><time>2026-05-02T06:18:04.993Z</time></trkpt><trkpt lat="43.99638384910303" lon="7.771550760862175"><ele>543.0</ele><time>2026-05-02T06:18:05.993Z</time></trkpt><trkpt lat="43.9964650933291" lon="7.771429200108753"><ele>543.0</ele><time>2026-05-02T06:18:06.993Z</time></trkpt><trkpt lat="43.99654063147544" lon="7.771316416173638"><ele>543.0</ele><time>2026-05-02T06:18:07.993Z</time></trkpt><trkpt lat="43.99658333881647" lon="7.771171829851611"><ele>543.0</ele><time>2026-05-02T06:18:08.993Z</time></trkpt><trkpt lat="43.99663728519791" lon="7.771076929641466"><ele>543.0</ele><time>2026-05-02T06:18:09.993Z</time></trkpt><trkpt lat="43.99673582769189" lon="7.7710477788222825"><ele>544.75</ele><time>2026-05-02T06:18:10.993Z</time></trkpt><trkpt lat="43.99684385431008" lon="7.770966286727529"><ele>546.5</ele><time>2026-05-02T06:18:11.993Z</time></trkpt><trkpt lat="43.99691768241025" lon="7.770850064780629"><ele>548.25</ele><time>2026-05-02T06:18:12.993Z</time></trkpt><trkpt lat="43.99700829880504" lon="7.770756039911774"><ele>550.0</ele><time>2026-05-02T06:18:13.993Z</time></trkpt><trkpt lat="43.99709250688293" lon="7.7706541003468566"><ele>550.0</ele><time>2026-05-02T06:18:14.993Z</time></trkpt><trkpt lat="43.997192364726324" lon="7.770594990553566"><ele>550.0</ele><time>2026-05-02T06:18:15.993Z</time></trkpt><trkpt lat="43.997296045367" lon="7.770574608166695"><ele>550.0</ele><time>2026-05-02T06:18:16.992Z</time></trkpt><trkpt lat="43.997433244090715" lon="7.770559843340746"><ele>550.0</ele><time>2026-05-02T06:18:17.992Z</time></trkpt><trkpt lat="43.99754410901089" lon="7.770525779536207"><ele>553.5</ele><time>2026-05-02T06:18:18.992Z</time></trkpt><trkpt lat="43.997683042998815" lon="7.770466847758433"><ele>557.0</ele><time>2026-05-02T06:18:19.992Z</time></trkpt><trkpt lat="43.99779076876308" lon="7.770361154207296"><ele>560.5</ele><time>2026-05-02T06:18:20.992Z</time></trkpt><trkpt lat="43.99789635681347" lon="7.770268016293497"><ele>564.0</ele><time>2026-05-02T06:18:21.992Z</time></trkpt><trkpt lat="43.99799953956406" lon="7.770206339406874"><ele>559.75</ele><time>2026-05-02T06:18:22.992Z</time></trkpt><trkpt lat="43.998102937567204" lon="7.770165261125325"><ele>555.5</ele><time>2026-05-02T06:18:23.992Z</time></trkpt><trkpt lat="43.99822605935958" lon="7.770149750049163"><ele>551.25</ele><time>2026-05-02T06:18:24.992Z</time></trkpt><trkpt lat="43.99833748282518" lon="7.770136747550862"><ele>547.0</ele><time>2026-05-02T06:18:25.992Z</time></trkpt><trkpt lat="43.99848033111662" lon="7.770131629183778"><ele>579.0</ele><time>2026-05-02T06:18:26.992Z</time></trkpt><trkpt lat="44.004354032163356" lon="7.766291859733087"><ele>579.0</ele><time>2026-05-02T06:19:29.991Z</time></trkpt><trkpt lat="44.00422852628172" lon="7.766352733135669"><ele>579.0</ele><time>2026-05-02T06:19:30.991Z</time></trkpt><trkpt lat="44.00439338587308" lon="7.766346039868175"><ele>579.0</ele><time>2026-05-02T06:19:31.991Z</time></trkpt><trkpt lat="44.00430530111891" lon="7.766423594898896"><ele>579.0</ele><time>2026-05-02T06:19:32.991Z</time></trkpt><trkpt lat="44.004210405439586" lon="7.7665176980199435"><ele>579.25</ele><time>2026-05-02T06:19:33.991Z</time></trkpt><trkpt lat="44.004110794365424" lon="7.766609532718463"><ele>579.5</ele><time>2026-05-02T06:19:34.991Z</time></trkpt><trkpt lat="44.00400567357851" lon="7.76666423750425"><ele>579.75</ele><time>2026-05-02T06:19:35.991Z</time></trkpt><trkpt lat="44.003887915408505" lon="7.7666811765157115"><ele>580.0</ele><time>2026-05-02T06:19:36.991Z</time></trkpt><trkpt lat="44.00377119851629" lon="7.766663374344087"><ele>580.0</ele><time>2026-05-02T06:19:37.991Z</time></trkpt><trkpt lat="44.00365303763946" lon="7.766606279664827"><ele>580.0</ele><time>2026-05-02T06:19:38.991Z</time></trkpt><trkpt lat="44.00353572396877" lon="7.766516047797426"><ele>580.0</ele><time>2026-05-02T06:19:39.991Z</time></trkpt><trkpt lat="44.003412352543464" lon="7.766444651643115"><ele>580.0</ele><time>2026-05-02T06:19:40.991Z</time></trkpt><trkpt lat="44.00328795538102" lon="7.766373281615222"><ele>583.0</ele><time>2026-05-02T06:19:41.991Z</time></trkpt><trkpt lat="44.00315158520584" lon="7.766348227910979"><ele>586.0</ele><time>2026-05-02T06:19:42.991Z</time></trkpt><trkpt lat="44.00301626454716" lon="7.766342922979482"><ele>589.0</ele><time>2026-05-02T06:19:43.991Z</time></trkpt><trkpt lat="44.00287948073197" lon="7.766348751852718"><ele>592.0</ele><time>2026-05-02T06:19:44.991Z</time></trkpt><trkpt lat="44.00275942463314" lon="7.76637175572692"><ele>592.0</ele><time>2026-05-02T06:19:45.991Z</time></trkpt><trkpt lat="44.00263085884638" lon="7.766430707289988"><ele>592.0</ele><time>2026-05-02T06:19:46.991Z</time></trkpt><trkpt lat="44.00251212892154" lon="7.766509089352363"><ele>592.0</ele><time>2026-05-02T06:19:47.991Z</time></trkpt><trkpt lat="44.00240134433405" lon="7.766584016161254"><ele>592.0</ele><time>2026-05-02T06:19:48.991Z</time></trkpt><trkpt lat="44.002269942072395" lon="7.766634604930932"><ele>588.25</ele><time>2026-05-02T06:19:49.991Z</time></trkpt><trkpt lat="44.002132658899086" lon="7.766623510558522"><ele>584.5</ele><time>2026-05-02T06:19:50.991Z</time></trkpt><trkpt lat="44.001996930355915" lon="7.76668851194633"><ele>580.75</ele><time>2026-05-02T06:19:51.991Z</time></trkpt><trkpt lat="44.00189211580295" lon="7.766816205820374"><ele>577.0</ele><time>2026-05-02T06:19:52.991Z</time></trkpt><trkpt lat="44.001767595921095" lon="7.766923341973624"><ele>581.25</ele><time>2026-05-02T06:19:53.991Z</time></trkpt><trkpt lat="44.001619101621266" lon="7.7669857789334396"><ele>585.5</ele><time>2026-05-02T06:19:54.991Z</time></trkpt><trkpt lat="44.001497387306195" lon="7.7670402404143015"><ele>589.75</ele><time>2026-05-02T06:19:55.991Z</time></trkpt><trkpt lat="44.00135611772191" lon="7.767090867645452"><ele>594.0</ele><time>2026-05-02T06:19:56.991Z</time></trkpt><trkpt lat="44.001214818730624" lon="7.76713209174725"><ele>594.0</ele><time>2026-05-02T06:19:57.992Z</time></trkpt><trkpt lat="44.00107314115335" lon="7.767166626698188"><ele>594.0</ele><time>2026-05-02T06:19:58.992Z</time></trkpt><trkpt lat="44.000930364832634" lon="7.767198173218609"><ele>594.0</ele><time>2026-05-02T06:19:59.992Z</time></trkpt><trkpt lat="44.00077712672877" lon="7.767228044084275"><ele>594.0</ele><time>2026-05-02T06:20:00.992Z</time></trkpt><trkpt lat="44.00062291698657" lon="7.7672610753964735"><ele>598.25</ele><time>2026-05-02T06:20:01.993Z</time></trkpt><trkpt lat="44.00048170604011" lon="7.767296179817015"><ele>602.5</ele><time>2026-05-02T06:20:02.993Z</time></trkpt><trkpt lat="44.000343569211715" lon="7.767358324730194"><ele>606.75</ele><time>2026-05-02T06:20:03.993Z</time></trkpt><trkpt lat="44.000224270659" lon="7.767456837047481"><ele>611.0</ele><time>2026-05-02T06:20:04.993Z</time></trkpt><trkpt lat="44.00009106272898" lon="7.76749746388908"><ele>611.0</ele><time>2026-05-02T06:20:05.993Z</time></trkpt><trkpt lat="43.99996069417352" lon="7.767542678032044"><ele>611.0</ele><time>2026-05-02T06:20:06.993Z</time></trkpt><trkpt lat="43.99982680106435" lon="7.767586017864176"><ele>611.0</ele><time>2026-05-02T06:20:07.992Z</time></trkpt><trkpt lat="43.99969839336407" lon="7.767625706248505"><ele>611.0</ele><time>2026-05-02T06:20:08.992Z</time></trkpt><trkpt lat="43.99958717981339" lon="7.76764075327672"><ele>611.0</ele><time>2026-05-02T06:20:09.992Z</time></trkpt><trkpt lat="43.999476778589546" lon="7.767626743781344"><ele>611.0</ele><time>2026-05-02T06:20:10.992Z</time></trkpt><trkpt lat="43.999389151176324" lon="7.767605621405898"><ele>611.0</ele><time>2026-05-02T06:20:11.992Z</time></trkpt><trkpt lat="43.999339405551474" lon="7.7675401178105306"><ele>611.0</ele><time>2026-05-02T06:20:12.992Z</time></trkpt><trkpt lat="43.99934292530378" lon="7.767451162314362"><ele>611.0</ele><time>2026-05-02T06:20:13.992Z</time></trkpt><trkpt lat="43.99938916759204" lon="7.7673839381732686"><ele>611.0</ele><time>2026-05-02T06:20:14.992Z</time></trkpt><trkpt lat="43.999452650929854" lon="7.7673605071261855"><ele>611.0</ele><time>2026-05-02T06:20:15.992Z</time></trkpt><trkpt lat="43.999536309160625" lon="7.767474019330515"><ele>611.0</ele><time>2026-05-02T06:20:17.992Z</time></trkpt><trkpt lat="43.99957987035866" lon="7.767538580529358"><ele>611.0</ele><time>2026-05-02T06:20:18.992Z</time></trkpt><trkpt lat="43.99966417696665" lon="7.767574797255342"><ele>611.0</ele><time>2026-05-02T06:20:19.992Z</time></trkpt><trkpt lat="43.99976987867087" lon="7.76754976519333"><ele>611.0</ele><time>2026-05-02T06:20:20.992Z</time></trkpt><trkpt lat="43.999861403758395" lon="7.767473932612666"><ele>611.0</ele><time>2026-05-02T06:20:21.992Z</time></trkpt><trkpt lat="43.99997542481846" lon="7.767404378884756"><ele>611.0</ele><time>2026-05-02T06:20:22.992Z</time></trkpt><trkpt lat="44.00005934446963" lon="7.7673418539790955"><ele>611.0</ele><time>2026-05-02T06:20:23.992Z</time></trkpt><trkpt lat="44.00015125506423" lon="7.76727458411849"><ele>611.0</ele><time>2026-05-02T06:20:24.992Z</time></trkpt><trkpt lat="44.00025665674533" lon="7.767161689641324"><ele>611.0</ele><time>2026-05-02T06:20:25.992Z</time></trkpt><trkpt lat="44.000379356722625" lon="7.767071247539687"><ele>611.0</ele><time>2026-05-02T06:20:26.992Z</time></trkpt><trkpt lat="43.99577884864201" lon="7.768226584746969"><ele>625.5</ele><time>2026-05-02T06:21:27.991Z</time></trkpt><trkpt lat="43.99566291424728" lon="7.768249394043202"><ele>640.0</ele><time>2026-05-02T06:21:28.991Z</time></trkpt><trkpt lat="43.99551879550672" lon="7.768293889854943"><ele>654.5</ele><time>2026-05-02T06:21:29.991Z</time></trkpt><trkpt lat="43.99538484311487" lon="7.768332791585189"><ele>669.0</ele><time>2026-05-02T06:21:30.991Z</time></trkpt><trkpt lat="43.99524742116176" lon="7.76834373804077"><ele>669.0</ele><time>2026-05-02T06:21:31.991Z</time></trkpt><trkpt lat="43.995125292115894" lon="7.768318353543035"><ele>669.0</ele><time>2026-05-02T06:21:32.991Z</time></trkpt><trkpt lat="43.995008056467164" lon="7.768223471088722"><ele>669.0</ele><time>2026-05-02T06:21:33.991Z</time></trkpt><trkpt lat="43.99488160404943" lon="7.768136157603836"><ele>669.0</ele><time>2026-05-02T06:21:34.991Z</time></trkpt><trkpt lat="43.99476121678381" lon="7.768048611540184"><ele>669.75</ele><time>2026-05-02T06:21:35.991Z</time></trkpt><trkpt lat="43.99462026742285" lon="7.7679946792016485"><ele>670.5</ele><time>2026-05-02T06:21:36.991Z</time></trkpt><trkpt lat="43.99447716223257" lon="7.767967772434312"><ele>671.25</ele><time>2026-05-02T06:21:37.991Z</time></trkpt><trkpt lat="43.99434373582577" lon="7.767909188336146"><ele>672.0</ele><time>2026-05-02T06:21:38.99Z</time></trkpt><trkpt lat="43.994227606545685" lon="7.767834096790126"><ele>670.4000000000001</ele><time>2026-05-02T06:21:39.99Z</time></trkpt><trkpt lat="43.994157232731126" lon="7.767704253357696"><ele>668.8000000000001</ele><time>2026-05-02T06:21:40.99Z</time></trkpt><trkpt lat="43.99406434645716" lon="7.767622394500967"><ele>667.2</ele><time>2026-05-02T06:21:41.99Z</time></trkpt><trkpt lat="43.99397404721888" lon="7.767573957629922"><ele>665.6</ele><time>2026-05-02T06:21:42.99Z</time></trkpt><trkpt lat="43.9938816995505" lon="7.767598389124431"><ele>664.0</ele><time>2026-05-02T06:21:43.99Z</time></trkpt><trkpt lat="43.99377115595265" lon="7.767671018468675"><ele>664.0</ele><time>2026-05-02T06:21:44.99Z</time></trkpt><trkpt lat="43.993657558652934" lon="7.767694654646728"><ele>664.0</ele><time>2026-05-02T06:21:45.99Z</time></trkpt><trkpt lat="43.99354604080988" lon="7.767731096318647"><ele>664.0</ele><time>2026-05-02T06:21:46.99Z</time></trkpt><trkpt lat="43.99343580153458" lon="7.767785841597597"><ele>664.0</ele><time>2026-05-02T06:21:47.99Z</time></trkpt><trkpt lat="43.99332441992018" lon="7.767886124107368"><ele>672.25</ele><time>2026-05-02T06:21:48.99Z</time></trkpt><trkpt lat="43.99323351535303" lon="7.768007693476295"><ele>680.5</ele><time>2026-05-02T06:21:49.99Z</time></trkpt><trkpt lat="43.99318748397337" lon="7.7681771523039895"><ele>688.75</ele><time>2026-05-02T06:21:50.99Z</time></trkpt><trkpt lat="43.99309204220493" lon="7.768351392530944"><ele>697.0</ele><time>2026-05-02T06:21:51.99Z</time></trkpt><trkpt lat="43.99302816656819" lon="7.7684946276213305"><ele>689.5</ele><time>2026-05-02T06:21:52.99Z</time></trkpt><trkpt lat="43.99294409114835" lon="7.768661416774936"><ele>682.0</ele><time>2026-05-02T06:21:53.99Z</time></trkpt><trkpt lat="43.992860096427414" lon="7.76882698792311"><ele>674.5</ele><time>2026-05-02T06:21:54.99Z</time></trkpt><trkpt lat="43.99279340582601" lon="7.76900467156919"><ele>667.0</ele><time>2026-05-02T06:21:55.99Z</time></trkpt><trkpt lat="43.99272757191276" lon="7.76916050649149"><ele>667.0</ele><time>2026-05-02T06:21:56.988Z</time></trkpt><trkpt lat="43.992671785030176" lon="7.769313327323603"><ele>667.0</ele><time>2026-05-02T06:21:57.985Z</time></trkpt><trkpt lat="43.992609520729424" lon="7.769460892161711"><ele>667.0</ele><time>2026-05-02T06:21:58.983Z</time></trkpt><trkpt lat="43.992528060500405" lon="7.769564031934156"><ele>667.0</ele><time>2026-05-02T06:21:59.98Z</time></trkpt><trkpt lat="43.992429139405154" lon="7.769669333164905"><ele>671.4000000000001</ele><time>2026-05-02T06:22:00.978Z</time></trkpt><trkpt lat="43.99234721361287" lon="7.769749392480813"><ele>675.8000000000001</ele><time>2026-05-02T06:22:01.975Z</time></trkpt><trkpt lat="43.99228494723055" lon="7.769802704530901"><ele>680.2</ele><time>2026-05-02T06:22:02.973Z</time></trkpt><trkpt lat="43.99221432044378" lon="7.769793380005028"><ele>684.6</ele><time>2026-05-02T06:22:03.974Z</time></trkpt><trkpt lat="43.99212888874764" lon="7.769732619546996"><ele>689.0</ele><time>2026-05-02T06:22:04.972Z</time></trkpt><trkpt lat="43.99207223163763" lon="7.769562309834827"><ele>689.0</ele><time>2026-05-02T06:22:05.97Z</time></trkpt><trkpt lat="43.99199071422896" lon="7.769422325949083"><ele>689.0</ele><time>2026-05-02T06:22:06.969Z</time></trkpt><trkpt lat="43.9919167714885" lon="7.769302970083043"><ele>689.0</ele><time>2026-05-02T06:22:07.967Z</time></trkpt><trkpt lat="43.99182752925284" lon="7.769187452703399"><ele>689.0</ele><time>2026-05-02T06:22:08.965Z</time></trkpt><trkpt lat="43.99169184771165" lon="7.769142632230924"><ele>695.25</ele><time>2026-05-02T06:22:09.964Z</time></trkpt><trkpt lat="43.991559983027294" lon="7.76908598498571"><ele>701.5</ele><time>2026-05-02T06:22:10.964Z</time></trkpt><trkpt lat="43.99143352092777" lon="7.7689956561636615"><ele>707.75</ele><time>2026-05-02T06:22:11.962Z</time></trkpt><trkpt lat="43.99132355786444" lon="7.768915764491601"><ele>714.0</ele><time>2026-05-02T06:22:12.961Z</time></trkpt><trkpt lat="43.99121194155391" lon="7.768831466199885"><ele>714.0</ele><time>2026-05-02T06:22:13.959Z</time></trkpt><trkpt lat="43.99111000301315" lon="7.76881385289236"><ele>714.0</ele><time>2026-05-02T06:22:14.958Z</time></trkpt><trkpt lat="43.9909856620496" lon="7.768792090947041"><ele>714.0</ele><time>2026-05-02T06:22:15.958Z</time></trkpt><trkpt lat="43.99087089001209" lon="7.768798424485171"><ele>714.0</ele><time>2026-05-02T06:22:16.957Z</time></trkpt><trkpt lat="43.99074584651279" lon="7.768798612911549"><ele>711.8000000000001</ele><time>2026-05-02T06:22:17.956Z</time></trkpt><trkpt lat="43.990624023100814" lon="7.7688158338843545"><ele>709.6</ele><time>2026-05-02T06:22:18.955Z</time></trkpt><trkpt lat="43.99052146519638" lon="7.768817408107328"><ele>707.4</ele><time>2026-05-02T06:22:19.955Z</time></trkpt><trkpt lat="43.99042686874403" lon="7.768828049055829"><ele>705.2</ele><time>2026-05-02T06:22:20.954Z</time></trkpt><trkpt lat="43.99034434799625" lon="7.768816781783531"><ele>703.0</ele><time>2026-05-02T06:22:21.953Z</time></trkpt><trkpt lat="43.99028811876282" lon="7.768765385198802"><ele>703.0</ele><time>2026-05-02T06:22:22.953Z</time></trkpt><trkpt lat="43.99028575868529" lon="7.768645194682978"><ele>703.0</ele><time>2026-05-02T06:22:23.952Z</time></trkpt><trkpt lat="43.99032742968323" lon="7.76854146067933"><ele>703.0</ele><time>2026-05-02T06:22:24.952Z</time></trkpt><trkpt lat="43.99035415144362" lon="7.768459926403806"><ele>703.0</ele><time>2026-05-02T06:22:25.951Z</time></trkpt><trkpt lat="43.990392369128344" lon="7.768352786477441"><ele>703.0</ele><time>2026-05-02T06:22:26.951Z</time></trkpt><trkpt lat="43.99328656801577" lon="7.7608916096944975"><ele>714.3333333333334</ele><time>2026-05-02T06:23:27.942Z</time></trkpt><trkpt lat="43.99328890519637" lon="7.760762060201663"><ele>725.6666666666667</ele><time>2026-05-02T06:23:28.942Z</time></trkpt><trkpt lat="43.99330777690852" lon="7.760657049665805"><ele>737.0</ele><time>2026-05-02T06:23:29.942Z</time></trkpt><trkpt lat="43.993339443289756" lon="7.760545791805434"><ele>748.3333333333334</ele><time>2026-05-02T06:23:31.942Z</time></trkpt><trkpt lat="43.993351669151444" lon="7.760436125959245"><ele>759.6666666666666</ele><time>2026-05-02T06:23:35.942Z</time></trkpt><trkpt lat="43.993378906510095" lon="7.7603138812558585"><ele>771.0</ele><time>2026-05-02T06:23:37.942Z</time></trkpt><trkpt lat="43.99338130324655" lon="7.760220309940425"><ele>776.5</ele><time>2026-05-02T06:23:38.942Z</time></trkpt><trkpt lat="43.99341597637052" lon="7.760022109339193"><ele>782.0</ele><time>2026-05-02T06:23:40.942Z</time></trkpt><trkpt lat="43.9934640313283" lon="7.759882997773215"><ele>787.5</ele><time>2026-05-02T06:23:41.942Z</time></trkpt><trkpt lat="43.99350751238048" lon="7.759743257586227"><ele>793.0</ele><time>2026-05-02T06:23:42.942Z</time></trkpt><trkpt lat="43.993528434500014" lon="7.759596548683506"><ele>793.0</ele><time>2026-05-02T06:23:43.942Z</time></trkpt><trkpt lat="43.99353324433465" lon="7.759480184179771"><ele>793.0</ele><time>2026-05-02T06:23:44.941Z</time></trkpt><trkpt lat="43.99352965924525" lon="7.759321412579691"><ele>793.0</ele><time>2026-05-02T06:23:45.941Z</time></trkpt><trkpt lat="43.99350439981152" lon="7.759154467240653"><ele>793.0</ele><time>2026-05-02T06:23:46.941Z</time></trkpt><trkpt lat="43.993476557880626" lon="7.758978409821399"><ele>793.0</ele><time>2026-05-02T06:23:47.941Z</time></trkpt><trkpt lat="43.99342070622905" lon="7.758814271007354"><ele>793.0</ele><time>2026-05-02T06:23:48.941Z</time></trkpt><trkpt lat="43.993391452008886" lon="7.758647991946966"><ele>793.0</ele><time>2026-05-02T06:23:49.941Z</time></trkpt><trkpt lat="43.99337652942629" lon="7.758482500762397"><ele>793.0</ele><time>2026-05-02T06:23:50.941Z</time></trkpt><trkpt lat="43.99337794427441" lon="7.7583027233813295"><ele>793.25</ele><time>2026-05-02T06:23:51.941Z</time></trkpt><trkpt lat="43.99339641214342" lon="7.758123532708274"><ele>793.5</ele><time>2026-05-02T06:23:52.941Z</time></trkpt><trkpt lat="43.99341362430629" lon="7.75794620670434"><ele>793.75</ele><time>2026-05-02T06:23:53.941Z</time></trkpt><trkpt lat="43.99342227503619" lon="7.757754551212216"><ele>794.0</ele><time>2026-05-02T06:23:54.941Z</time></trkpt><trkpt lat="43.993419256927815" lon="7.757559168164231"><ele>795.0</ele><time>2026-05-02T06:23:55.941Z</time></trkpt><trkpt lat="43.99339509971203" lon="7.757360881778946"><ele>796.0</ele><time>2026-05-02T06:23:56.941Z</time></trkpt><trkpt lat="43.99336052092837" lon="7.7571733074898175"><ele>797.0</ele><time>2026-05-02T06:23:57.941Z</time></trkpt><trkpt lat="43.99333401625189" lon="7.756999829464181"><ele>798.0</ele><time>2026-05-02T06:23:58.941Z</time></trkpt><trkpt lat="43.99330839508339" lon="7.75685441048191"><ele>790.4</ele><time>2026-05-02T06:23:59.941Z</time></trkpt><trkpt lat="43.99328524246322" lon="7.7567195405095815"><ele>782.8</ele><time>2026-05-02T06:24:00.941Z</time></trkpt><trkpt lat="43.9932657230476" lon="7.756597470867389"><ele>775.2</ele><time>2026-05-02T06:24:01.941Z</time></trkpt><trkpt lat="43.9932437446518" lon="7.75646021324049"><ele>767.6</ele><time>2026-05-02T06:24:02.941Z</time></trkpt><trkpt lat="43.99322537069841" lon="7.7563166626141875"><ele>760.0</ele><time>2026-05-02T06:24:03.941Z</time></trkpt><trkpt lat="43.993213028420016" lon="7.756168974262646"><ele>758.75</ele><time>2026-05-02T06:24:04.941Z</time></trkpt><trkpt lat="43.993203301719284" lon="7.756009531198511"><ele>757.5</ele><time>2026-05-02T06:24:05.941Z</time></trkpt><trkpt lat="43.993195972004635" lon="7.755848486273779"><ele>756.25</ele><time>2026-05-02T06:24:06.941Z</time></trkpt><trkpt lat="43.99319986538407" lon="7.755686108522139"><ele>755.0</ele><time>2026-05-02T06:24:07.941Z</time></trkpt><trkpt lat="43.99321289229489" lon="7.755521542531104"><ele>755.0</ele><time>2026-05-02T06:24:08.943Z</time></trkpt><trkpt lat="43.99324231660109" lon="7.755352797495219"><ele>755.0</ele><time>2026-05-02T06:24:09.943Z</time></trkpt><trkpt lat="43.99326764048909" lon="7.755177336385179"><ele>755.0</ele><time>2026-05-02T06:24:10.943Z</time></trkpt><trkpt lat="43.99330243417595" lon="7.7550131100692"><ele>755.0</ele><time>2026-05-02T06:24:11.943Z</time></trkpt><trkpt lat="43.99333181850811" lon="7.754836654763509"><ele>764.0</ele><time>2026-05-02T06:24:12.943Z</time></trkpt><trkpt lat="43.99336517657327" lon="7.754666816968472"><ele>773.0</ele><time>2026-05-02T06:24:13.943Z</time></trkpt><trkpt lat="43.99338819926978" lon="7.754494706149652"><ele>782.0</ele><time>2026-05-02T06:24:14.943Z</time></trkpt><trkpt lat="43.99340770394235" lon="7.754316540099941"><ele>791.0</ele><time>2026-05-02T06:24:15.943Z</time></trkpt><trkpt lat="43.99343341401332" lon="7.754161496477286"><ele>791.0</ele><time>2026-05-02T06:24:16.943Z</time></trkpt><trkpt lat="43.99345569174486" lon="7.75400831330524"><ele>791.0</ele><time>2026-05-02T06:24:17.942Z</time></trkpt><trkpt lat="43.993480062043545" lon="7.753852335710752"><ele>791.0</ele><time>2026-05-02T06:24:18.943Z</time></trkpt><trkpt lat="43.99350884834515" lon="7.753694725794663"><ele>791.0</ele><time>2026-05-02T06:24:19.943Z</time></trkpt><trkpt lat="43.9935416098524" lon="7.753536805616205"><ele>789.0</ele><time>2026-05-02T06:24:20.943Z</time></trkpt><trkpt lat="43.99354969496495" lon="7.753374793100165"><ele>787.0</ele><time>2026-05-02T06:24:21.942Z</time></trkpt><trkpt lat="43.99354635916973" lon="7.753235904505519"><ele>785.0</ele><time>2026-05-02T06:24:22.942Z</time></trkpt><trkpt lat="43.993507789992435" lon="7.753097874143155"><ele>783.0</ele><time>2026-05-02T06:24:23.942Z</time></trkpt><trkpt lat="43.993444247327616" lon="7.752971609533183"><ele>781.0</ele><time>2026-05-02T06:24:24.942Z</time></trkpt><trkpt lat="43.99340774792551" lon="7.752851047996232"><ele>781.0</ele><time>2026-05-02T06:24:25.942Z</time></trkpt><trkpt lat="43.993361345755325" lon="7.75273244897053"><ele>781.0</ele><time>2026-05-02T06:24:26.942Z</time></trkpt><trkpt lat="43.995088423773154" lon="7.746881543391043"><ele>772.8</ele><time>2026-05-02T06:25:27.94Z</time></trkpt><trkpt lat="43.99513664371946" lon="7.7468064796674945"><ele>764.5999999999999</ele><time>2026-05-02T06:25:28.94Z</time></trkpt><trkpt lat="43.995148152228225" lon="7.746636102261235"><ele>756.4</ele><time>2026-05-02T06:25:30.94Z</time></trkpt><trkpt lat="43.995112101373415" lon="7.746530807732622"><ele>748.2</ele><time>2026-05-02T06:25:31.94Z</time></trkpt><trkpt lat="43.99507807619029" lon="7.746419566844716"><ele>740.0</ele><time>2026-05-02T06:25:32.94Z</time></trkpt><trkpt lat="43.995007412816754" lon="7.746305896698019"><ele>731.2</ele><time>2026-05-02T06:25:33.94Z</time></trkpt><trkpt lat="43.99494085832852" lon="7.746178116172087"><ele>722.4</ele><time>2026-05-02T06:25:34.939Z</time></trkpt><trkpt lat="43.99493058969681" lon="7.746025909547884"><ele>713.5999999999999</ele><time>2026-05-02T06:25:35.939Z</time></trkpt><trkpt lat="43.99490475959116" lon="7.745896910878453"><ele>704.8</ele><time>2026-05-02T06:25:36.939Z</time></trkpt><trkpt lat="43.994909100439756" lon="7.745759505880257"><ele>696.0</ele><time>2026-05-02T06:25:37.939Z</time></trkpt><trkpt lat="43.994935110297156" lon="7.745606219940321"><ele>695.5999999999999</ele><time>2026-05-02T06:25:38.939Z</time></trkpt><trkpt lat="43.99494334805939" lon="7.745474076710073"><ele>695.2</ele><time>2026-05-02T06:25:39.939Z</time></trkpt><trkpt lat="43.994923608454904" lon="7.7453352318421045"><ele>694.8</ele><time>2026-05-02T06:25:40.939Z</time></trkpt><trkpt lat="43.994871276225815" lon="7.745195072230822"><ele>694.4000000000001</ele><time>2026-05-02T06:25:41.939Z</time></trkpt><trkpt lat="43.99478098762212" lon="7.745095554557125"><ele>694.0</ele><time>2026-05-02T06:25:42.939Z</time></trkpt><trkpt lat="43.99467042125242" lon="7.74503157939945"><ele>696.0</ele><time>2026-05-02T06:25:43.939Z</time></trkpt><trkpt lat="43.99455050637965" lon="7.744986780260392"><ele>698.0</ele><time>2026-05-02T06:25:44.939Z</time></trkpt><trkpt lat="43.99444627445851" lon="7.744941355244101"><ele>700.0</ele><time>2026-05-02T06:25:45.939Z</time></trkpt><trkpt lat="43.99435376625804" lon="7.744897713235505"><ele>702.0</ele><time>2026-05-02T06:25:46.939Z</time></trkpt><trkpt lat="43.99426454341972" lon="7.744846764474234"><ele>704.0</ele><time>2026-05-02T06:25:47.939Z</time></trkpt><trkpt lat="43.994179150543594" lon="7.744781855872004"><ele>699.6666666666666</ele><time>2026-05-02T06:25:48.939Z</time></trkpt><trkpt lat="43.99406434280483" lon="7.744697761305591"><ele>695.3333333333334</ele><time>2026-05-02T06:25:49.939Z</time></trkpt><trkpt lat="43.993954930518434" lon="7.744508109696707"><ele>691.0</ele><time>2026-05-02T06:25:50.939Z</time></trkpt><trkpt lat="43.99385925604265" lon="7.744315961787165"><ele>691.0</ele><time>2026-05-02T06:25:51.939Z</time></trkpt><trkpt lat="43.99376482713101" lon="7.744138705023741"><ele>691.0</ele><time>2026-05-02T06:25:54.939Z</time></trkpt><trkpt lat="43.993704378459356" lon="7.744020491945289"><ele>691.0</ele><time>2026-05-02T06:25:55.939Z</time></trkpt><trkpt lat="43.993660118765604" lon="7.7438802977479915"><ele>691.0</ele><time>2026-05-02T06:25:56.939Z</time></trkpt><trkpt lat="43.99361757767984" lon="7.743732505388349"><ele>691.0</ele><time>2026-05-02T06:25:57.939Z</time></trkpt><trkpt lat="43.99359412251956" lon="7.743569832787114"><ele>691.0</ele><time>2026-05-02T06:25:58.939Z</time></trkpt><trkpt lat="43.99357774948584" lon="7.7434017156159465"><ele>691.0</ele><time>2026-05-02T06:25:59.939Z</time></trkpt><trkpt lat="43.99355977572625" lon="7.743232998495992"><ele>691.0</ele><time>2026-05-02T06:26:00.939Z</time></trkpt><trkpt lat="43.9935445472422" lon="7.743063002333891"><ele>691.25</ele><time>2026-05-02T06:26:01.939Z</time></trkpt><trkpt lat="43.99354282660571" lon="7.742892541852084"><ele>691.5</ele><time>2026-05-02T06:26:02.939Z</time></trkpt><trkpt lat="43.99352331387142" lon="7.7427287867311225"><ele>691.75</ele><time>2026-05-02T06:26:03.939Z</time></trkpt><trkpt lat="43.99350841034143" lon="7.742569170206829"><ele>692.0</ele><time>2026-05-02T06:26:04.939Z</time></trkpt><trkpt lat="43.99348915951754" lon="7.742401828198886"><ele>692.0</ele><time>2026-05-02T06:26:05.938Z</time></trkpt><trkpt lat="43.99348683108381" lon="7.742233434958022"><ele>692.0</ele><time>2026-05-02T06:26:06.938Z</time></trkpt><trkpt lat="43.99349984037758" lon="7.7420733664640835"><ele>692.0</ele><time>2026-05-02T06:26:07.938Z</time></trkpt><trkpt lat="43.993523654378116" lon="7.741906693307488"><ele>692.0</ele><time>2026-05-02T06:26:08.938Z</time></trkpt><trkpt lat="43.99356262343325" lon="7.741744690553159"><ele>691.4000000000001</ele><time>2026-05-02T06:26:09.938Z</time></trkpt><trkpt lat="43.99360665005172" lon="7.741587254221049"><ele>690.8000000000001</ele><time>2026-05-02T06:26:10.938Z</time></trkpt><trkpt lat="43.99365286252511" lon="7.741451771352788"><ele>690.2</ele><time>2026-05-02T06:26:11.938Z</time></trkpt><trkpt lat="43.99368421028126" lon="7.741305254863904"><ele>689.6</ele><time>2026-05-02T06:26:12.938Z</time></trkpt><trkpt lat="43.99368879946246" lon="7.741162057425278"><ele>689.0</ele><time>2026-05-02T06:26:13.938Z</time></trkpt><trkpt lat="43.993656383914896" lon="7.741008416747973"><ele>686.0</ele><time>2026-05-02T06:26:14.941Z</time></trkpt><trkpt lat="43.99358854912277" lon="7.740866904051286"><ele>683.0</ele><time>2026-05-02T06:26:15.941Z</time></trkpt><trkpt lat="43.99352907159664" lon="7.740726797854411"><ele>680.0</ele><time>2026-05-02T06:26:16.941Z</time></trkpt><trkpt lat="43.9934839494083" lon="7.740596085306914"><ele>677.0</ele><time>2026-05-02T06:26:17.941Z</time></trkpt><trkpt lat="43.99343716353402" lon="7.7404549663637905"><ele>677.0</ele><time>2026-05-02T06:26:18.941Z</time></trkpt><trkpt lat="43.99339531431553" lon="7.740317384764663"><ele>677.0</ele><time>2026-05-02T06:26:19.941Z</time></trkpt><trkpt lat="43.99335042931699" lon="7.740180658641355"><ele>677.0</ele><time>2026-05-02T06:26:20.941Z</time></trkpt><trkpt lat="43.99332077704736" lon="7.740054391122244"><ele>677.0</ele><time>2026-05-02T06:26:21.941Z</time></trkpt><trkpt lat="43.99329664579028" lon="7.739933298025082"><ele>677.0</ele><time>2026-05-02T06:26:22.941Z</time></trkpt><trkpt lat="43.99329084691663" lon="7.739821951267882"><ele>678.0</ele><time>2026-05-02T06:26:23.941Z</time></trkpt><trkpt lat="43.99330869276007" lon="7.739725495279403"><ele>679.0</ele><time>2026-05-02T06:26:24.941Z</time></trkpt><trkpt lat="43.99334898972477" lon="7.739655992967616"><ele>680.0</ele><time>2026-05-02T06:26:25.941Z</time></trkpt><trkpt lat="43.99680261024457" lon="7.735142099865363"><ele>680.0</ele><time>2026-05-02T06:27:27.939Z</time></trkpt><trkpt lat="43.996838009425936" lon="7.735008316721022"><ele>680.0</ele><time>2026-05-02T06:27:28.939Z</time></trkpt><trkpt lat="43.99687863673617" lon="7.734887293873034"><ele>680.0</ele><time>2026-05-02T06:27:29.939Z</time></trkpt><trkpt lat="43.99693353354019" lon="7.734762135022169"><ele>680.0</ele><time>2026-05-02T06:27:30.939Z</time></trkpt><trkpt lat="43.996992006196024" lon="7.734675690319217"><ele>680.0</ele><time>2026-05-02T06:27:31.939Z</time></trkpt><trkpt lat="43.99706501129914" lon="7.734583042356014"><ele>680.0</ele><time>2026-05-02T06:27:32.939Z</time></trkpt><trkpt lat="43.99714660183581" lon="7.734504125027452"><ele>680.0</ele><time>2026-05-02T06:27:33.939Z</time></trkpt><trkpt lat="43.99724006867375" lon="7.734414251388191"><ele>680.0</ele><time>2026-05-02T06:27:34.939Z</time></trkpt><trkpt lat="43.99732076513262" lon="7.734302721254124"><ele>680.0</ele><time>2026-05-02T06:27:35.939Z</time></trkpt><trkpt lat="43.99740405984213" lon="7.734198501480818"><ele>680.0</ele><time>2026-05-02T06:27:36.939Z</time></trkpt><trkpt lat="43.99743422343941" lon="7.734030641742034"><ele>681.4</ele><time>2026-05-02T06:27:37.939Z</time></trkpt><trkpt lat="43.99748681788401" lon="7.733910971713854"><ele>682.8</ele><time>2026-05-02T06:27:38.939Z</time></trkpt><trkpt lat="43.99756653467919" lon="7.733823538390929"><ele>684.2</ele><time>2026-05-02T06:27:39.939Z</time></trkpt><trkpt lat="43.99764186672241" lon="7.733707861262969"><ele>685.6</ele><time>2026-05-02T06:27:40.939Z</time></trkpt><trkpt lat="43.997719680159875" lon="7.733581467956222"><ele>687.0</ele><time>2026-05-02T06:27:41.939Z</time></trkpt><trkpt lat="43.9978066849215" lon="7.733479038530339"><ele>687.0</ele><time>2026-05-02T06:27:42.939Z</time></trkpt><trkpt lat="43.997895545980455" lon="7.733362858421921"><ele>687.0</ele><time>2026-05-02T06:27:43.938Z</time></trkpt><trkpt lat="43.997970126812746" lon="7.733215668262838"><ele>687.0</ele><time>2026-05-02T06:27:44.938Z</time></trkpt><trkpt lat="43.99806823191869" lon="7.733099014925061"><ele>687.0</ele><time>2026-05-02T06:27:45.938Z</time></trkpt><trkpt lat="43.99818484593466" lon="7.733013342605378"><ele>687.0</ele><time>2026-05-02T06:27:46.938Z</time></trkpt><trkpt lat="43.99829503740072" lon="7.732926028321341"><ele>687.0</ele><time>2026-05-02T06:27:47.938Z</time></trkpt><trkpt lat="43.99837503756273" lon="7.732803250499497"><ele>687.0</ele><time>2026-05-02T06:27:48.938Z</time></trkpt><trkpt lat="43.998448569705886" lon="7.732711799809049"><ele>687.0</ele><time>2026-05-02T06:27:49.938Z</time></trkpt><trkpt lat="43.99851991253154" lon="7.732628483023887"><ele>687.0</ele><time>2026-05-02T06:27:50.938Z</time></trkpt><trkpt lat="43.99859596992118" lon="7.732553878318178"><ele>688.0</ele><time>2026-05-02T06:27:51.938Z</time></trkpt><trkpt lat="43.99868932083114" lon="7.732476974336205"><ele>689.0</ele><time>2026-05-02T06:27:52.938Z</time></trkpt><trkpt lat="43.99875802450604" lon="7.732379905953169"><ele>690.0</ele><time>2026-05-02T06:27:53.938Z</time></trkpt><trkpt lat="43.99882984203889" lon="7.732273307201718"><ele>691.0</ele><time>2026-05-02T06:27:54.938Z</time></trkpt><trkpt lat="43.99890649415076" lon="7.732178583719294"><ele>692.0</ele><time>2026-05-02T06:27:55.938Z</time></trkpt><trkpt lat="43.99899962006051" lon="7.732136072283137"><ele>692.0</ele><time>2026-05-02T06:27:56.938Z</time></trkpt><trkpt lat="43.99911096638275" lon="7.732147777908489"><ele>692.0</ele><time>2026-05-02T06:27:57.938Z</time></trkpt><trkpt lat="43.99922907094742" lon="7.732135216566672"><ele>692.0</ele><time>2026-05-02T06:27:58.938Z</time></trkpt><trkpt lat="43.999336162218285" lon="7.732123281157984"><ele>692.0</ele><time>2026-05-02T06:27:59.938Z</time></trkpt><trkpt lat="43.99946709771907" lon="7.732084039152051"><ele>686.5</ele><time>2026-05-02T06:28:00.938Z</time></trkpt><trkpt lat="43.9996055874929" lon="7.732033602197428"><ele>681.0</ele><time>2026-05-02T06:28:01.938Z</time></trkpt><trkpt lat="43.999706864733305" lon="7.731942398285464"><ele>675.5</ele><time>2026-05-02T06:28:02.938Z</time></trkpt><trkpt lat="43.99979235961062" lon="7.731839186511246"><ele>670.0</ele><time>2026-05-02T06:28:03.938Z</time></trkpt><trkpt lat="43.99988749276896" lon="7.731763283043493"><ele>670.0</ele><time>2026-05-02T06:28:04.938Z</time></trkpt><trkpt lat="44.00000385406015" lon="7.73173624751876"><ele>670.0</ele><time>2026-05-02T06:28:05.938Z</time></trkpt><trkpt lat="44.0001153235842" lon="7.731689775967767"><ele>670.0</ele><time>2026-05-02T06:28:06.938Z</time></trkpt><trkpt lat="44.00021610854846" lon="7.731635566495469"><ele>670.0</ele><time>2026-05-02T06:28:07.938Z</time></trkpt><trkpt lat="44.000308785045426" lon="7.731610830237398"><ele>670.0</ele><time>2026-05-02T06:28:08.938Z</time></trkpt><trkpt lat="44.00039000432077" lon="7.731613838956213"><ele>670.0</ele><time>2026-05-02T06:28:09.938Z</time></trkpt><trkpt lat="44.00045590867018" lon="7.731671261922287"><ele>670.0</ele><time>2026-05-02T06:28:10.938Z</time></trkpt><trkpt lat="44.00049596130331" lon="7.731810287430658"><ele>670.0</ele><time>2026-05-02T06:28:11.938Z</time></trkpt><trkpt lat="44.00056015891725" lon="7.73193458210663"><ele>670.0</ele><time>2026-05-02T06:28:12.938Z</time></trkpt><trkpt lat="44.00061487975417" lon="7.7320463960418"><ele>670.0</ele><time>2026-05-02T06:28:13.937Z</time></trkpt><trkpt lat="44.00067901620608" lon="7.7321774493171205"><ele>677.25</ele><time>2026-05-02T06:28:14.937Z</time></trkpt><trkpt lat="44.000762413746735" lon="7.732304168095367"><ele>684.5</ele><time>2026-05-02T06:28:15.937Z</time></trkpt><trkpt lat="44.000817042694834" lon="7.732463930346318"><ele>691.75</ele><time>2026-05-02T06:28:16.937Z</time></trkpt><trkpt lat="44.00089135831207" lon="7.732600487016498"><ele>699.0</ele><time>2026-05-02T06:28:17.937Z</time></trkpt><trkpt lat="44.00099512742826" lon="7.7327312238279315"><ele>708.75</ele><time>2026-05-02T06:28:18.937Z</time></trkpt><trkpt lat="44.00110676460468" lon="7.732875781921725"><ele>718.5</ele><time>2026-05-02T06:28:19.94Z</time></trkpt><trkpt lat="44.00121335017591" lon="7.733020818531479"><ele>728.25</ele><time>2026-05-02T06:28:20.939Z</time></trkpt><trkpt lat="44.00130430967253" lon="7.733170658479087"><ele>738.0</ele><time>2026-05-02T06:28:21.939Z</time></trkpt><trkpt lat="44.00140442172488" lon="7.733268778727175"><ele>738.0</ele><time>2026-05-02T06:28:22.94Z</time></trkpt><trkpt lat="44.001490615701165" lon="7.733370112727463"><ele>738.0</ele><time>2026-05-02T06:28:23.939Z</time></trkpt><trkpt lat="44.00156696285642" lon="7.733464770832136"><ele>738.0</ele><time>2026-05-02T06:28:24.939Z</time></trkpt><trkpt lat="44.00162204940483" lon="7.73358197490972"><ele>738.0</ele><time>2026-05-02T06:28:25.939Z</time></trkpt><trkpt lat="44.001677743863816" lon="7.7336986026048855"><ele>738.0</ele><time>2026-05-02T06:28:26.939Z</time></trkpt><trkpt lat="44.00284953899439" lon="7.731728695540904"><ele>733.8</ele><time>2026-05-02T06:29:27.938Z</time></trkpt><trkpt lat="44.002762328949714" lon="7.731633162202777"><ele>729.5999999999999</ele><time>2026-05-02T06:29:28.938Z</time></trkpt><trkpt lat="44.00267881770522" lon="7.7315711738267945"><ele>725.4000000000001</ele><time>2026-05-02T06:29:29.938Z</time></trkpt><trkpt lat="44.002587825770405" lon="7.731521783055629"><ele>721.2</ele><time>2026-05-02T06:29:30.938Z</time></trkpt><trkpt lat="44.002487745879385" lon="7.731485420434172"><ele>717.0</ele><time>2026-05-02T06:29:31.937Z</time></trkpt><trkpt lat="44.00239543222223" lon="7.731414889680231"><ele>712.0</ele><time>2026-05-02T06:29:32.937Z</time></trkpt><trkpt lat="44.00231035629888" lon="7.7313623994624665"><ele>707.0</ele><time>2026-05-02T06:29:33.937Z</time></trkpt><trkpt lat="44.00226099005795" lon="7.731231799981116"><ele>702.0</ele><time>2026-05-02T06:29:34.937Z</time></trkpt><trkpt lat="44.002205192382675" lon="7.7311056898754"><ele>697.0</ele><time>2026-05-02T06:29:35.937Z</time></trkpt><trkpt lat="44.002149080075256" lon="7.730974441308742"><ele>692.0</ele><time>2026-05-02T06:29:36.937Z</time></trkpt><trkpt lat="44.00209081777321" lon="7.7308323070487175"><ele>692.0</ele><time>2026-05-02T06:29:37.937Z</time></trkpt><trkpt lat="44.00204484728681" lon="7.730706235763279"><ele>692.0</ele><time>2026-05-02T06:29:38.937Z</time></trkpt><trkpt lat="44.00200470731979" lon="7.730566803658521"><ele>692.0</ele><time>2026-05-02T06:29:39.937Z</time></trkpt><trkpt lat="44.001995695329676" lon="7.7304274615988"><ele>692.0</ele><time>2026-05-02T06:29:40.937Z</time></trkpt><trkpt lat="44.00200943530555" lon="7.730304151857677"><ele>692.0</ele><time>2026-05-02T06:29:41.937Z</time></trkpt><trkpt lat="44.00204791255588" lon="7.7301815528860605"><ele>692.0</ele><time>2026-05-02T06:29:42.937Z</time></trkpt><trkpt lat="44.002094263847255" lon="7.730056516444119"><ele>692.0</ele><time>2026-05-02T06:29:43.937Z</time></trkpt><trkpt lat="44.002160802379265" lon="7.729941141922426"><ele>692.0</ele><time>2026-05-02T06:29:44.937Z</time></trkpt><trkpt lat="44.002231747830464" lon="7.729826407626849"><ele>692.0</ele><time>2026-05-02T06:29:45.937Z</time></trkpt><trkpt lat="44.0023111492823" lon="7.72969989741865"><ele>692.0</ele><time>2026-05-02T06:29:46.937Z</time></trkpt><trkpt lat="44.002382153496484" lon="7.729562137040883"><ele>692.0</ele><time>2026-05-02T06:29:47.937Z</time></trkpt><trkpt lat="44.00242668103551" lon="7.729403486071335"><ele>692.0</ele><time>2026-05-02T06:29:48.937Z</time></trkpt><trkpt lat="44.002460435782" lon="7.7292272500589805"><ele>692.0</ele><time>2026-05-02T06:29:49.937Z</time></trkpt><trkpt lat="44.0025189125627" lon="7.729051808909372"><ele>692.0</ele><time>2026-05-02T06:29:50.937Z</time></trkpt><trkpt lat="44.002541682479134" lon="7.728864282691014"><ele>696.5</ele><time>2026-05-02T06:29:51.937Z</time></trkpt><trkpt lat="44.00258829910107" lon="7.72868163790601"><ele>701.0</ele><time>2026-05-02T06:29:52.937Z</time></trkpt><trkpt lat="44.002626639683655" lon="7.7285015273774516"><ele>705.5</ele><time>2026-05-02T06:29:53.937Z</time></trkpt><trkpt lat="44.002679663665745" lon="7.728335672297002"><ele>710.0</ele><time>2026-05-02T06:29:54.937Z</time></trkpt><trkpt lat="44.002748119848995" lon="7.728176812230967"><ele>710.0</ele><time>2026-05-02T06:29:55.937Z</time></trkpt><trkpt lat="44.00282678697546" lon="7.7280649320743695"><ele>710.0</ele><time>2026-05-02T06:29:56.937Z</time></trkpt><trkpt lat="44.002896005957275" lon="7.727954229218245"><ele>710.0</ele><time>2026-05-02T06:29:57.937Z</time></trkpt><trkpt lat="44.00296950596691" lon="7.727870983484489"><ele>710.0</ele><time>2026-05-02T06:29:58.937Z</time></trkpt><trkpt lat="44.003052368767456" lon="7.727812715215748"><ele>710.0</ele><time>2026-05-02T06:29:59.937Z</time></trkpt><trkpt lat="44.003145748436395" lon="7.727756390764149"><ele>704.6</ele><time>2026-05-02T06:30:00.937Z</time></trkpt><trkpt lat="44.00324441259392" lon="7.727704854778855"><ele>699.2</ele><time>2026-05-02T06:30:01.936Z</time></trkpt><trkpt lat="44.003325759451286" lon="7.727630649944512"><ele>693.8</ele><time>2026-05-02T06:30:02.936Z</time></trkpt><trkpt lat="44.00339298598101" lon="7.727571505390069"><ele>688.4</ele><time>2026-05-02T06:30:03.936Z</time></trkpt><trkpt lat="44.00343305023565" lon="7.727444510437499"><ele>683.0</ele><time>2026-05-02T06:30:04.936Z</time></trkpt><trkpt lat="44.003406325040686" lon="7.7273082724644935"><ele>694.2</ele><time>2026-05-02T06:30:05.936Z</time></trkpt><trkpt lat="44.00338011882248" lon="7.7271465918985935"><ele>705.4</ele><time>2026-05-02T06:30:06.936Z</time></trkpt><trkpt lat="44.00337804787743" lon="7.726998664782623"><ele>716.6</ele><time>2026-05-02T06:30:07.936Z</time></trkpt><trkpt lat="44.00340035974972" lon="7.726893346736593"><ele>727.8000000000001</ele><time>2026-05-02T06:30:08.936Z</time></trkpt><trkpt lat="44.00344812174003" lon="7.726761214490424"><ele>739.0</ele><time>2026-05-02T06:30:09.936Z</time></trkpt><trkpt lat="44.00348064404819" lon="7.726614117968462"><ele>739.0</ele><time>2026-05-02T06:30:10.936Z</time></trkpt><trkpt lat="44.003487763832304" lon="7.726462673713933"><ele>739.0</ele><time>2026-05-02T06:30:11.936Z</time></trkpt><trkpt lat="44.003493632911024" lon="7.726306567393736"><ele>739.0</ele><time>2026-05-02T06:30:12.936Z</time></trkpt><trkpt lat="44.00349771964157" lon="7.7261610812135135"><ele>739.0</ele><time>2026-05-02T06:30:13.936Z</time></trkpt><trkpt lat="44.00356062125716" lon="7.726036968407422"><ele>739.0</ele><time>2026-05-02T06:30:14.936Z</time></trkpt><trkpt lat="44.00361985484409" lon="7.725907625081167"><ele>739.2</ele><time>2026-05-02T06:30:15.936Z</time></trkpt><trkpt lat="44.003674374026694" lon="7.7257674992451175"><ele>739.4000000000001</ele><time>2026-05-02T06:30:16.936Z</time></trkpt><trkpt lat="44.00369226311618" lon="7.725630927391541"><ele>739.6</ele><time>2026-05-02T06:30:17.936Z</time></trkpt><trkpt lat="44.00367675618117" lon="7.725515454167906"><ele>739.8</ele><time>2026-05-02T06:30:18.936Z</time></trkpt><trkpt lat="44.00363692816243" lon="7.725383647716116"><ele>740.0</ele><time>2026-05-02T06:30:19.936Z</time></trkpt><trkpt lat="44.003593339700686" lon="7.7252624235771306"><ele>739.6</ele><time>2026-05-02T06:30:20.936Z</time></trkpt><trkpt lat="44.00355418272231" lon="7.725145591867899"><ele>739.2</ele><time>2026-05-02T06:30:21.936Z</time></trkpt><trkpt lat="44.00355845903645" lon="7.725023499618609"><ele>738.8</ele><time>2026-05-02T06:30:22.936Z</time></trkpt><trkpt lat="44.00357442626446" lon="7.724883504009736"><ele>738.4</ele><time>2026-05-02T06:30:23.936Z</time></trkpt><trkpt lat="44.00365413040823" lon="7.724768669778271"><ele>738.0</ele><time>2026-05-02T06:30:24.936Z</time></trkpt><trkpt lat="44.00370970424847" lon="7.724622485486949"><ele>738.0</ele><time>2026-05-02T06:30:25.937Z</time></trkpt><trkpt lat="44.003776559569154" lon="7.724502541828934"><ele>738.0</ele><time>2026-05-02T06:30:26.938Z</time></trkpt><trkpt lat="44.00618017614658" lon="7.71743712664404"><ele>741.0</ele><time>2026-05-02T06:31:27.935Z</time></trkpt><trkpt lat="44.006223509891655" lon="7.7172891661262355"><ele>744.0</ele><time>2026-05-02T06:31:28.935Z</time></trkpt><trkpt lat="44.00624583186131" lon="7.717134030539503"><ele>747.0</ele><time>2026-05-02T06:31:29.935Z</time></trkpt><trkpt lat="44.006274821401334" lon="7.716981722317417"><ele>750.0</ele><time>2026-05-02T06:31:30.935Z</time></trkpt><trkpt lat="44.00629819476624" lon="7.716837584638534"><ele>753.0</ele><time>2026-05-02T06:31:31.935Z</time></trkpt><trkpt lat="44.006324010257906" lon="7.716703619582137"><ele>753.0</ele><time>2026-05-02T06:31:32.935Z</time></trkpt><trkpt lat="44.00637661555678" lon="7.716573613656424"><ele>753.0</ele><time>2026-05-02T06:31:33.935Z</time></trkpt><trkpt lat="44.006421403645874" lon="7.716435154365101"><ele>753.0</ele><time>2026-05-02T06:31:34.935Z</time></trkpt><trkpt lat="44.006462885064664" lon="7.716325626881301"><ele>753.0</ele><time>2026-05-02T06:31:35.935Z</time></trkpt><trkpt lat="44.00649764773813" lon="7.716219497860411"><ele>753.0</ele><time>2026-05-02T06:31:36.935Z</time></trkpt><trkpt lat="44.00655996010304" lon="7.716177069908482"><ele>753.0</ele><time>2026-05-02T06:31:37.935Z</time></trkpt><trkpt lat="44.00663880262678" lon="7.71616749264883"><ele>753.0</ele><time>2026-05-02T06:31:38.935Z</time></trkpt><trkpt lat="44.006717685843036" lon="7.716163196556632"><ele>753.0</ele><time>2026-05-02T06:31:39.935Z</time></trkpt><trkpt lat="44.006821653966746" lon="7.716229026547749"><ele>753.0</ele><time>2026-05-02T06:31:40.935Z</time></trkpt><trkpt lat="44.00691220332829" lon="7.716257832324998"><ele>753.0</ele><time>2026-05-02T06:31:41.935Z</time></trkpt><trkpt lat="44.0070076633604" lon="7.716305467824512"><ele>762.4</ele><time>2026-05-02T06:31:42.935Z</time></trkpt><trkpt lat="44.00712204446247" lon="7.716354899396182"><ele>771.8</ele><time>2026-05-02T06:31:43.935Z</time></trkpt><trkpt lat="44.00721953419433" lon="7.71639657488715"><ele>781.2</ele><time>2026-05-02T06:31:44.935Z</time></trkpt><trkpt lat="44.00732265649226" lon="7.716449097761282"><ele>790.6</ele><time>2026-05-02T06:31:45.935Z</time></trkpt><trkpt lat="44.007402969249654" lon="7.716462326378716"><ele>800.0</ele><time>2026-05-02T06:31:46.935Z</time></trkpt><trkpt lat="44.007496020778255" lon="7.716505839475093"><ele>801.3333333333334</ele><time>2026-05-02T06:31:47.935Z</time></trkpt><trkpt lat="44.00757346523558" lon="7.716540118576403"><ele>802.6666666666667</ele><time>2026-05-02T06:31:48.935Z</time></trkpt><trkpt lat="44.00764646585142" lon="7.716577169930413"><ele>804.0</ele><time>2026-05-02T06:31:49.935Z</time></trkpt><trkpt lat="44.00772466496807" lon="7.716534005471571"><ele>805.3333333333333</ele><time>2026-05-02T06:31:50.935Z</time></trkpt><trkpt lat="44.00778254161842" lon="7.716446234943944"><ele>806.6666666666666</ele><time>2026-05-02T06:31:51.934Z</time></trkpt><trkpt lat="44.00780714016309" lon="7.716330094001029"><ele>808.0</ele><time>2026-05-02T06:31:52.934Z</time></trkpt><trkpt lat="44.00778739298889" lon="7.716208243655359"><ele>808.0</ele><time>2026-05-02T06:31:53.934Z</time></trkpt><trkpt lat="44.00774239828187" lon="7.716107926659687"><ele>808.0</ele><time>2026-05-02T06:31:54.934Z</time></trkpt><trkpt lat="44.00768727474771" lon="7.716011430806852"><ele>808.0</ele><time>2026-05-02T06:31:55.934Z</time></trkpt><trkpt lat="44.007614966839704" lon="7.715901180526467"><ele>808.0</ele><time>2026-05-02T06:31:56.934Z</time></trkpt><trkpt lat="44.00754750499723" lon="7.715798762464137"><ele>808.0</ele><time>2026-05-02T06:31:57.934Z</time></trkpt><trkpt lat="44.00747267234222" lon="7.715718854719005"><ele>802.5999999999999</ele><time>2026-05-02T06:31:58.934Z</time></trkpt><trkpt lat="44.00742435950753" lon="7.715626001228296"><ele>797.1999999999999</ele><time>2026-05-02T06:31:59.934Z</time></trkpt><trkpt lat="44.007378640946264" lon="7.715555067196273"><ele>791.8</ele><time>2026-05-02T06:32:00.934Z</time></trkpt><trkpt lat="44.0073015111603" lon="7.715419176240381"><ele>786.4</ele><time>2026-05-02T06:32:02.934Z</time></trkpt><trkpt lat="44.00729906180121" lon="7.71524297009991"><ele>781.0</ele><time>2026-05-02T06:32:04.934Z</time></trkpt><trkpt lat="44.00732051482619" lon="7.7151459387105525"><ele>780.0</ele><time>2026-05-02T06:32:05.934Z</time></trkpt><trkpt lat="44.007383915506765" lon="7.715086959783851"><ele>779.0</ele><time>2026-05-02T06:32:06.934Z</time></trkpt><trkpt lat="44.00744488666582" lon="7.715020936542654"><ele>778.0</ele><time>2026-05-02T06:32:07.934Z</time></trkpt><trkpt lat="44.00754665529483" lon="7.714926138540351"><ele>777.0</ele><time>2026-05-02T06:32:08.934Z</time></trkpt><trkpt lat="44.00765401940877" lon="7.714908068556206"><ele>776.0</ele><time>2026-05-02T06:32:09.934Z</time></trkpt><trkpt lat="44.007770135535424" lon="7.71485735400204"><ele>776.0</ele><time>2026-05-02T06:32:10.934Z</time></trkpt><trkpt lat="44.00787567920437" lon="7.714761558169219"><ele>776.0</ele><time>2026-05-02T06:32:11.934Z</time></trkpt><trkpt lat="44.00797921556793" lon="7.714643701105758"><ele>776.0</ele><time>2026-05-02T06:32:12.934Z</time></trkpt><trkpt lat="44.00808639076364" lon="7.714502868757249"><ele>776.0</ele><time>2026-05-02T06:32:13.934Z</time></trkpt><trkpt lat="44.00818940003268" lon="7.714371507533106"><ele>778.0</ele><time>2026-05-02T06:32:14.934Z</time></trkpt><trkpt lat="44.008304733649524" lon="7.714235312637358"><ele>780.0</ele><time>2026-05-02T06:32:15.934Z</time></trkpt><trkpt lat="44.008420237084174" lon="7.71410084123881"><ele>782.0</ele><time>2026-05-02T06:32:16.934Z</time></trkpt><trkpt lat="44.008532901382196" lon="7.71397543284184"><ele>784.0</ele><time>2026-05-02T06:32:17.934Z</time></trkpt><trkpt lat="44.008638623968345" lon="7.7138501741807755"><ele>784.0</ele><time>2026-05-02T06:32:18.934Z</time></trkpt><trkpt lat="44.00874654481366" lon="7.713731585047802"><ele>784.0</ele><time>2026-05-02T06:32:19.934Z</time></trkpt><trkpt lat="44.00885980552887" lon="7.7136108066559155"><ele>784.0</ele><time>2026-05-02T06:32:20.934Z</time></trkpt><trkpt lat="44.00896761034627" lon="7.713490217804781"><ele>784.0</ele><time>2026-05-02T06:32:21.933Z</time></trkpt><trkpt lat="44.00908224930144" lon="7.7133777263185275"><ele>785.0</ele><time>2026-05-02T06:32:22.933Z</time></trkpt><trkpt lat="44.00922086188348" lon="7.713304520462583"><ele>786.0</ele><time>2026-05-02T06:32:23.933Z</time></trkpt><trkpt lat="44.00935146715573" lon="7.713190955621068"><ele>787.0</ele><time>2026-05-02T06:32:24.933Z</time></trkpt><trkpt lat="44.00948330905969" lon="7.7131012781742445"><ele>788.0</ele><time>2026-05-02T06:32:25.933Z</time></trkpt><trkpt lat="44.00960904932916" lon="7.713010602902466"><ele>816.0</ele><time>2026-05-02T06:32:26.933Z</time></trkpt><trkpt lat="44.017146893333" lon="7.712550635298604"><ele>816.0</ele><time>2026-05-02T06:33:27.934Z</time></trkpt><trkpt lat="44.01727132199756" lon="7.712630635291965"><ele>816.0</ele><time>2026-05-02T06:33:28.934Z</time></trkpt><trkpt lat="44.017404370003746" lon="7.712706691349305"><ele>816.0</ele><time>2026-05-02T06:33:29.934Z</time></trkpt><trkpt lat="44.01752480244835" lon="7.712794133269636"><ele>816.0</ele><time>2026-05-02T06:33:30.934Z</time></trkpt><trkpt lat="44.01764141362768" lon="7.71288409125238"><ele>822.25</ele><time>2026-05-02T06:33:31.934Z</time></trkpt><trkpt lat="44.01774759877492" lon="7.712985409677583"><ele>828.5</ele><time>2026-05-02T06:33:32.934Z</time></trkpt><trkpt lat="44.017836738832536" lon="7.7131086523029335"><ele>834.75</ele><time>2026-05-02T06:33:33.934Z</time></trkpt><trkpt lat="44.01788873680442" lon="7.713251014879426"><ele>841.0</ele><time>2026-05-02T06:33:34.934Z</time></trkpt><trkpt lat="44.01793836648585" lon="7.713374544765643"><ele>841.0</ele><time>2026-05-02T06:33:35.934Z</time></trkpt><trkpt lat="44.01799384556369" lon="7.713475126131542"><ele>841.0</ele><time>2026-05-02T06:33:36.934Z</time></trkpt><trkpt lat="44.0180702685766" lon="7.713532063349132"><ele>841.0</ele><time>2026-05-02T06:33:37.934Z</time></trkpt><trkpt lat="44.01818064916851" lon="7.713555941491863"><ele>841.0</ele><time>2026-05-02T06:33:38.934Z</time></trkpt><trkpt lat="44.018294652537705" lon="7.713553907695157"><ele>841.0</ele><time>2026-05-02T06:33:39.934Z</time></trkpt><trkpt lat="44.018400881293864" lon="7.713525266450224"><ele>845.4</ele><time>2026-05-02T06:33:40.934Z</time></trkpt><trkpt lat="44.01850392028105" lon="7.713524863586773"><ele>849.8</ele><time>2026-05-02T06:33:41.934Z</time></trkpt><trkpt lat="44.01861267688366" lon="7.71354575878184"><ele>854.1999999999999</ele><time>2026-05-02T06:33:42.934Z</time></trkpt><trkpt lat="44.018705311936" lon="7.713619712668924"><ele>858.5999999999999</ele><time>2026-05-02T06:33:43.934Z</time></trkpt><trkpt lat="44.01880348648374" lon="7.713709489101608"><ele>863.0</ele><time>2026-05-02T06:33:44.933Z</time></trkpt><trkpt lat="44.01890053526558" lon="7.713809211328649"><ele>863.0</ele><time>2026-05-02T06:33:45.933Z</time></trkpt><trkpt lat="44.018996148627366" lon="7.713911233803343"><ele>863.0</ele><time>2026-05-02T06:33:46.933Z</time></trkpt><trkpt lat="44.01910608481968" lon="7.714019078492964"><ele>863.0</ele><time>2026-05-02T06:33:47.933Z</time></trkpt><trkpt lat="44.019214095142104" lon="7.714144200431249"><ele>863.0</ele><time>2026-05-02T06:33:48.933Z</time></trkpt><trkpt lat="44.01931938696603" lon="7.714283323968583"><ele>856.5</ele><time>2026-05-02T06:33:49.933Z</time></trkpt><trkpt lat="44.019432623634714" lon="7.714387347038958"><ele>850.0</ele><time>2026-05-02T06:33:50.933Z</time></trkpt><trkpt lat="44.01954899104311" lon="7.714496402406011"><ele>843.5</ele><time>2026-05-02T06:33:51.933Z</time></trkpt><trkpt lat="44.01967235811691" lon="7.714582240537459"><ele>837.0</ele><time>2026-05-02T06:33:52.933Z</time></trkpt><trkpt lat="44.01977512532961" lon="7.714661386920357"><ele>838.0</ele><time>2026-05-02T06:33:53.933Z</time></trkpt><trkpt lat="44.01986190881824" lon="7.714734276315947"><ele>839.0</ele><time>2026-05-02T06:33:54.933Z</time></trkpt><trkpt lat="44.01994445577765" lon="7.714806118311502"><ele>840.0</ele><time>2026-05-02T06:33:55.933Z</time></trkpt><trkpt lat="44.020028805843765" lon="7.714881023832827"><ele>841.0</ele><time>2026-05-02T06:33:56.933Z</time></trkpt><trkpt lat="44.020107013353815" lon="7.714967120295073"><ele>842.0</ele><time>2026-05-02T06:33:57.933Z</time></trkpt><trkpt lat="44.02017320704036" lon="7.715050112921366"><ele>842.0000000000001</ele><time>2026-05-02T06:33:58.933Z</time></trkpt><trkpt lat="44.020214130985764" lon="7.715155097534439"><ele>842.0</ele><time>2026-05-02T06:33:59.933Z</time></trkpt><trkpt lat="44.02024251129816" lon="7.715256143726836"><ele>842.0</ele><time>2026-05-02T06:34:00.933Z</time></trkpt><trkpt lat="44.02022898420204" lon="7.715381677165782"><ele>842.0</ele><time>2026-05-02T06:34:01.933Z</time></trkpt><trkpt lat="44.020185877582996" lon="7.715493026980194"><ele>842.0000000000001</ele><time>2026-05-02T06:34:02.933Z</time></trkpt><trkpt lat="44.02014194231345" lon="7.7155970578639534"><ele>842.0</ele><time>2026-05-02T06:34:03.933Z</time></trkpt><trkpt lat="44.02009887393418" lon="7.715716414275266"><ele>851.8</ele><time>2026-05-02T06:34:04.933Z</time></trkpt><trkpt lat="44.02008147230896" lon="7.715836404355021"><ele>861.6</ele><time>2026-05-02T06:34:05.933Z</time></trkpt><trkpt lat="44.02008305969611" lon="7.715941095718628"><ele>871.3999999999999</ele><time>2026-05-02T06:34:06.933Z</time></trkpt><trkpt lat="44.02009842943341" lon="7.7160498563048625"><ele>881.1999999999999</ele><time>2026-05-02T06:34:07.933Z</time></trkpt><trkpt lat="44.020154020262645" lon="7.716105049047444"><ele>891.0</ele><time>2026-05-02T06:34:08.933Z</time></trkpt><trkpt lat="44.02032251456852" lon="7.716082502514495"><ele>891.0</ele><time>2026-05-02T06:34:09.933Z</time></trkpt><trkpt lat="44.02039481910485" lon="7.715996582362362"><ele>891.0</ele><time>2026-05-02T06:34:10.933Z</time></trkpt><trkpt lat="44.02053278457738" lon="7.715905586792932"><ele>891.0</ele><time>2026-05-02T06:34:11.933Z</time></trkpt><trkpt lat="44.020603428786885" lon="7.71580724751972"><ele>891.0</ele><time>2026-05-02T06:34:12.933Z</time></trkpt><trkpt lat="44.02070962883994" lon="7.715703100354018"><ele>891.0</ele><time>2026-05-02T06:34:13.933Z</time></trkpt><trkpt lat="44.02078463398181" lon="7.715610654241575"><ele>890.9999999999999</ele><time>2026-05-02T06:34:14.933Z</time></trkpt><trkpt lat="44.02086991612659" lon="7.7155265717833545"><ele>890.9999999999999</ele><time>2026-05-02T06:34:15.932Z</time></trkpt><trkpt lat="44.020967156067925" lon="7.715426889620026"><ele>891.0</ele><time>2026-05-02T06:34:16.932Z</time></trkpt><trkpt lat="44.021059442646546" lon="7.715348880541253"><ele>891.0</ele><time>2026-05-02T06:34:17.932Z</time></trkpt><trkpt lat="44.02115757882807" lon="7.715292423741785"><ele>883.8</ele><time>2026-05-02T06:34:18.932Z</time></trkpt><trkpt lat="44.02122319928901" lon="7.71527048873067"><ele>876.5999999999999</ele><time>2026-05-02T06:34:19.932Z</time></trkpt><trkpt lat="44.021340450093675" lon="7.715259838940125"><ele>869.4</ele><time>2026-05-02T06:34:20.932Z</time></trkpt><trkpt lat="44.02145068025852" lon="7.715270399537131"><ele>862.2</ele><time>2026-05-02T06:34:21.932Z</time></trkpt><trkpt lat="44.02154576564312" lon="7.71526921280236"><ele>855.0</ele><time>2026-05-02T06:34:22.932Z</time></trkpt><trkpt lat="44.021640956331844" lon="7.715254549286678"><ele>862.5</ele><time>2026-05-02T06:34:23.932Z</time></trkpt><trkpt lat="44.021748145945544" lon="7.7152600389364565"><ele>870.0</ele><time>2026-05-02T06:34:24.932Z</time></trkpt><trkpt lat="44.02184767601533" lon="7.7153025049593476"><ele>877.5</ele><time>2026-05-02T06:34:25.932Z</time></trkpt><trkpt lat="44.02196185257419" lon="7.715340356666309"><ele>885.0</ele><time>2026-05-02T06:34:26.932Z</time></trkpt><trkpt lat="44.027492150896656" lon="7.718984552680041"><ele>893.6</ele><time>2026-05-02T06:35:27.932Z</time></trkpt><trkpt lat="44.02758863071285" lon="7.7190253557739235"><ele>902.2</ele><time>2026-05-02T06:35:28.932Z</time></trkpt><trkpt lat="44.027677615382714" lon="7.719038022104412"><ele>910.8</ele><time>2026-05-02T06:35:29.932Z</time></trkpt><trkpt lat="44.02775785888381" lon="7.718966944672211"><ele>919.4</ele><time>2026-05-02T06:35:30.932Z</time></trkpt><trkpt lat="44.02783181803149" lon="7.718889454292897"><ele>928.0</ele><time>2026-05-02T06:35:31.932Z</time></trkpt><trkpt lat="44.0279080043018" lon="7.718768798821429"><ele>928.0</ele><time>2026-05-02T06:35:32.932Z</time></trkpt><trkpt lat="44.027988773298745" lon="7.718668667755985"><ele>928.0</ele><time>2026-05-02T06:35:33.932Z</time></trkpt><trkpt lat="44.028064336226066" lon="7.718581803716946"><ele>928.0</ele><time>2026-05-02T06:35:34.932Z</time></trkpt><trkpt lat="44.02816026152402" lon="7.718528414999147"><ele>928.0</ele><time>2026-05-02T06:35:35.932Z</time></trkpt><trkpt lat="44.028268791115906" lon="7.718526925591037"><ele>928.0</ele><time>2026-05-02T06:35:36.932Z</time></trkpt><trkpt lat="44.02838750367166" lon="7.718546015549415"><ele>931.0</ele><time>2026-05-02T06:35:37.932Z</time></trkpt><trkpt lat="44.02848882945459" lon="7.7185984854886405"><ele>934.0</ele><time>2026-05-02T06:35:38.932Z</time></trkpt><trkpt lat="44.02858388041305" lon="7.718646499313065"><ele>937.0</ele><time>2026-05-02T06:35:39.932Z</time></trkpt><trkpt lat="44.0286892513611" lon="7.718713469638031"><ele>940.0</ele><time>2026-05-02T06:35:40.931Z</time></trkpt><trkpt lat="44.028790620935695" lon="7.718816801570893"><ele>940.0</ele><time>2026-05-02T06:35:41.931Z</time></trkpt><trkpt lat="44.028878070251935" lon="7.718904495297008"><ele>940.0</ele><time>2026-05-02T06:35:42.931Z</time></trkpt><trkpt lat="44.02898002544761" lon="7.719004717142635"><ele>940.0</ele><time>2026-05-02T06:35:43.931Z</time></trkpt><trkpt lat="44.029074670543956" lon="7.719090497130209"><ele>940.0</ele><time>2026-05-02T06:35:44.931Z</time></trkpt><trkpt lat="44.029183283161764" lon="7.719184943155283"><ele>930.0</ele><time>2026-05-02T06:35:45.931Z</time></trkpt><trkpt lat="44.02929675237193" lon="7.7192764055674825"><ele>920.0</ele><time>2026-05-02T06:35:46.931Z</time></trkpt><trkpt lat="44.029395111782044" lon="7.719380886700896"><ele>910.0</ele><time>2026-05-02T06:35:47.931Z</time></trkpt><trkpt lat="44.02949069676374" lon="7.719474646279537"><ele>900.0</ele><time>2026-05-02T06:35:48.931Z</time></trkpt><trkpt lat="44.02957676178788" lon="7.719565863050001"><ele>924.75</ele><time>2026-05-02T06:35:49.931Z</time></trkpt><trkpt lat="44.02967863048904" lon="7.719641525479544"><ele>949.5</ele><time>2026-05-02T06:35:50.931Z</time></trkpt><trkpt lat="44.02979715958616" lon="7.719678337748217"><ele>974.25</ele><time>2026-05-02T06:35:51.931Z</time></trkpt><trkpt lat="44.029905271314036" lon="7.719721476070271"><ele>999.0</ele><time>2026-05-02T06:35:52.931Z</time></trkpt><trkpt lat="44.03003331101409" lon="7.719761310878194"><ele>999.0</ele><time>2026-05-02T06:35:53.931Z</time></trkpt><trkpt lat="44.030167939161174" lon="7.719784876123827"><ele>999.0</ele><time>2026-05-02T06:35:54.931Z</time></trkpt><trkpt lat="44.03029621549977" lon="7.7198079256123755"><ele>999.0</ele><time>2026-05-02T06:35:55.931Z</time></trkpt><trkpt lat="44.03040768062342" lon="7.719844034639196"><ele>999.0</ele><time>2026-05-02T06:35:56.931Z</time></trkpt><trkpt lat="44.03053178388743" lon="7.719847011104378"><ele>999.0</ele><time>2026-05-02T06:35:57.931Z</time></trkpt><trkpt lat="44.03065699434251" lon="7.719819750216187"><ele>999.0</ele><time>2026-05-02T06:35:58.931Z</time></trkpt><trkpt lat="44.03082748750393" lon="7.719764578570639"><ele>999.0</ele><time>2026-05-02T06:35:59.931Z</time></trkpt><trkpt lat="44.03097873931393" lon="7.719662590529082"><ele>994.2</ele><time>2026-05-02T06:36:00.931Z</time></trkpt><trkpt lat="44.03112933987201" lon="7.71966611679023"><ele>989.4000000000001</ele><time>2026-05-02T06:36:01.931Z</time></trkpt><trkpt lat="44.031249968957646" lon="7.7196562538274485"><ele>984.6</ele><time>2026-05-02T06:36:02.931Z</time></trkpt><trkpt lat="44.03116661736279" lon="7.719589630548677"><ele>979.8</ele><time>2026-05-02T06:36:03.931Z</time></trkpt><trkpt lat="44.03123855509424" lon="7.719638624166817"><ele>975.0</ele><time>2026-05-02T06:36:04.931Z</time></trkpt><trkpt lat="44.03131458760137" lon="7.719690753362436"><ele>975.0</ele><time>2026-05-02T06:36:05.931Z</time></trkpt><trkpt lat="44.03137571644168" lon="7.719784906932346"><ele>975.0</ele><time>2026-05-02T06:36:06.931Z</time></trkpt><trkpt lat="44.03141800564489" lon="7.719916232029775"><ele>975.0</ele><time>2026-05-02T06:36:07.931Z</time></trkpt><trkpt lat="44.031437501936814" lon="7.7200582690334345"><ele>975.0</ele><time>2026-05-02T06:36:08.931Z</time></trkpt><trkpt lat="44.03145979788161" lon="7.720202299461917"><ele>975.0</ele><time>2026-05-02T06:36:09.931Z</time></trkpt><trkpt lat="44.031498191983225" lon="7.720352736645352"><ele>976.8</ele><time>2026-05-02T06:36:10.931Z</time></trkpt><trkpt lat="44.03156340178503" lon="7.72046884254234"><ele>978.6</ele><time>2026-05-02T06:36:11.93Z</time></trkpt><trkpt lat="44.03163481503147" lon="7.720592916478223"><ele>980.4000000000001</ele><time>2026-05-02T06:36:12.93Z</time></trkpt><trkpt lat="44.031712805192804" lon="7.720708397781069"><ele>982.2</ele><time>2026-05-02T06:36:13.93Z</time></trkpt><trkpt lat="44.03179224652762" lon="7.720792147773711"><ele>984.0</ele><time>2026-05-02T06:36:14.93Z</time></trkpt><trkpt lat="44.03188314999015" lon="7.720822141541991"><ele>974.4000000000001</ele><time>2026-05-02T06:36:15.93Z</time></trkpt><trkpt lat="44.031974688532" lon="7.720787981999884"><ele>964.8000000000001</ele><time>2026-05-02T06:36:16.93Z</time></trkpt><trkpt lat="44.03205511801208" lon="7.7207586675846365"><ele>955.1999999999999</ele><time>2026-05-02T06:36:17.93Z</time></trkpt><trkpt lat="44.03214277334927" lon="7.720698277259798"><ele>945.5999999999999</ele><time>2026-05-02T06:36:18.93Z</time></trkpt><trkpt lat="44.03223427471685" lon="7.720622317522543"><ele>936.0</ele><time>2026-05-02T06:36:19.93Z</time></trkpt><trkpt lat="44.032354392787425" lon="7.720561018705313"><ele>936.0</ele><time>2026-05-02T06:36:20.93Z</time></trkpt><trkpt lat="44.03245071130399" lon="7.720503652034661"><ele>936.0</ele><time>2026-05-02T06:36:21.93Z</time></trkpt><trkpt lat="44.03254591918725" lon="7.720418677142769"><ele>936.0</ele><time>2026-05-02T06:36:22.93Z</time></trkpt><trkpt lat="44.032655691413304" lon="7.720334263454834"><ele>936.0</ele><time>2026-05-02T06:36:23.93Z</time></trkpt><trkpt lat="44.03276038731656" lon="7.720256739405616"><ele>936.0</ele><time>2026-05-02T06:36:24.93Z</time></trkpt><trkpt lat="44.03286478271687" lon="7.72019447972795"><ele>936.0</ele><time>2026-05-02T06:36:25.93Z</time></trkpt><trkpt lat="44.03299487548631" lon="7.720106144350535"><ele>936.0</ele><time>2026-05-02T06:36:26.93Z</time></trkpt><trkpt lat="44.03921539672484" lon="7.71796750044397"><ele>951.8</ele><time>2026-05-02T06:37:27.931Z</time></trkpt><trkpt lat="44.03913104182454" lon="7.717992372679786"><ele>967.5999999999999</ele><time>2026-05-02T06:37:28.931Z</time></trkpt><trkpt lat="44.03903244275256" lon="7.718036773673197"><ele>983.4</ele><time>2026-05-02T06:37:29.931Z</time></trkpt><trkpt lat="44.0389284629542" lon="7.718101753625763"><ele>999.2</ele><time>2026-05-02T06:37:30.931Z</time></trkpt><trkpt lat="44.038819930121505" lon="7.718155555595357"><ele>1015.0</ele><time>2026-05-02T06:37:31.931Z</time></trkpt><trkpt lat="44.03870529859367" lon="7.7181951176934"><ele>1015.0</ele><time>2026-05-02T06:37:32.931Z</time></trkpt><trkpt lat="44.038584054261506" lon="7.718230617767035"><ele>1015.0</ele><time>2026-05-02T06:37:33.931Z</time></trkpt><trkpt lat="44.03847180195452" lon="7.7182444545275"><ele>1015.0</ele><time>2026-05-02T06:37:34.93Z</time></trkpt><trkpt lat="44.038346832778394" lon="7.718260473527321"><ele>1015.0</ele><time>2026-05-02T06:37:35.93Z</time></trkpt><trkpt lat="44.03822597408169" lon="7.7182742955727734"><ele>1014.75</ele><time>2026-05-02T06:37:36.93Z</time></trkpt><trkpt lat="44.03810791015194" lon="7.718268189919663"><ele>1014.5</ele><time>2026-05-02T06:37:37.93Z</time></trkpt><trkpt lat="44.03798611154062" lon="7.718259744462672"><ele>1014.25</ele><time>2026-05-02T06:37:38.93Z</time></trkpt><trkpt lat="44.03786680088061" lon="7.718228494951078"><ele>1014.0</ele><time>2026-05-02T06:37:39.93Z</time></trkpt><trkpt lat="44.03773965410919" lon="7.718210653051401"><ele>1014.0</ele><time>2026-05-02T06:37:40.93Z</time></trkpt><trkpt lat="44.03761019186242" lon="7.718166109338402"><ele>1014.0</ele><time>2026-05-02T06:37:41.93Z</time></trkpt><trkpt lat="44.03747798566135" lon="7.718116944082674"><ele>1014.0</ele><time>2026-05-02T06:37:42.93Z</time></trkpt><trkpt lat="44.03733031282869" lon="7.718069891480419"><ele>1014.0</ele><time>2026-05-02T06:37:43.93Z</time></trkpt><trkpt lat="44.03717762316766" lon="7.717989480669681"><ele>1009.0</ele><time>2026-05-02T06:37:44.93Z</time></trkpt><trkpt lat="44.03702992675198" lon="7.717899674774715"><ele>1004.0</ele><time>2026-05-02T06:37:45.93Z</time></trkpt><trkpt lat="44.03687566932112" lon="7.717837019119391"><ele>999.0</ele><time>2026-05-02T06:37:46.93Z</time></trkpt><trkpt lat="44.03673849380471" lon="7.717760400348144"><ele>1001.25</ele><time>2026-05-02T06:37:47.93Z</time></trkpt><trkpt lat="44.0366000572722" lon="7.717678744627368"><ele>1003.5</ele><time>2026-05-02T06:37:48.93Z</time></trkpt><trkpt lat="44.036475961700454" lon="7.717583964667985"><ele>1005.75</ele><time>2026-05-02T06:37:49.93Z</time></trkpt><trkpt lat="44.036357162866615" lon="7.717487373202711"><ele>1008.0</ele><time>2026-05-02T06:37:50.93Z</time></trkpt><trkpt lat="44.03623904707052" lon="7.717409912329154"><ele>1008.0</ele><time>2026-05-02T06:37:51.93Z</time></trkpt><trkpt lat="44.036133486972766" lon="7.717324709386137"><ele>1008.0</ele><time>2026-05-02T06:37:52.93Z</time></trkpt><trkpt lat="44.03603130980523" lon="7.717252887154911"><ele>1008.0</ele><time>2026-05-02T06:37:53.93Z</time></trkpt><trkpt lat="44.035952967003" lon="7.717202790860884"><ele>1008.0</ele><time>2026-05-02T06:37:54.93Z</time></trkpt><trkpt lat="44.035869825635025" lon="7.717136957965488"><ele>1008.0</ele><time>2026-05-02T06:37:55.93Z</time></trkpt><trkpt lat="44.03581053412481" lon="7.717040596085981"><ele>1005.75</ele><time>2026-05-02T06:37:56.93Z</time></trkpt><trkpt lat="44.03578652761513" lon="7.716936306402542"><ele>1003.5</ele><time>2026-05-02T06:37:57.93Z</time></trkpt><trkpt lat="44.03576308445319" lon="7.7168324803940695"><ele>1001.25</ele><time>2026-05-02T06:37:58.93Z</time></trkpt><trkpt lat="44.03573971761893" lon="7.716533940526627"><ele>999.0</ele><time>2026-05-02T06:38:00.93Z</time></trkpt><trkpt lat="44.03577142853955" lon="7.7163797019433575"><ele>1006.25</ele><time>2026-05-02T06:38:01.93Z</time></trkpt><trkpt lat="44.03580626841181" lon="7.716236945395949"><ele>1013.5</ele><time>2026-05-02T06:38:02.93Z</time></trkpt><trkpt lat="44.03583467227997" lon="7.716084109261787"><ele>1020.75</ele><time>2026-05-02T06:38:03.93Z</time></trkpt><trkpt lat="44.03587002892068" lon="7.715902150585585"><ele>1028.0</ele><time>2026-05-02T06:38:04.93Z</time></trkpt><trkpt lat="44.03591405510603" lon="7.715704738074937"><ele>1028.5</ele><time>2026-05-02T06:38:05.929Z</time></trkpt><trkpt lat="44.03595065021189" lon="7.715511447732062"><ele>1029.0</ele><time>2026-05-02T06:38:06.929Z</time></trkpt><trkpt lat="44.035977578148135" lon="7.715317310467516"><ele>1029.5</ele><time>2026-05-02T06:38:07.929Z</time></trkpt><trkpt lat="44.0360070544444" lon="7.715128592433999"><ele>1030.0</ele><time>2026-05-02T06:38:08.929Z</time></trkpt><trkpt lat="44.03602251931382" lon="7.714962310987983"><ele>1030.6</ele><time>2026-05-02T06:38:09.929Z</time></trkpt><trkpt lat="44.03603979948676" lon="7.714810278718188"><ele>1031.2</ele><time>2026-05-02T06:38:10.929Z</time></trkpt><trkpt lat="44.036049801758594" lon="7.714671355282602"><ele>1031.8</ele><time>2026-05-02T06:38:11.929Z</time></trkpt><trkpt lat="44.036042367718245" lon="7.714542665990125"><ele>1032.4</ele><time>2026-05-02T06:38:12.929Z</time></trkpt><trkpt lat="44.03600038195516" lon="7.714455698611533"><ele>1033.0</ele><time>2026-05-02T06:38:13.929Z</time></trkpt><trkpt lat="44.0359165992449" lon="7.714384602834332"><ele>1035.5</ele><time>2026-05-02T06:38:14.929Z</time></trkpt><trkpt lat="44.03583117742395" lon="7.71433613912001"><ele>1038.0</ele><time>2026-05-02T06:38:15.929Z</time></trkpt><trkpt lat="44.035755889662425" lon="7.714314523846841"><ele>1040.5</ele><time>2026-05-02T06:38:16.929Z</time></trkpt><trkpt lat="44.035681591823355" lon="7.714342066591977"><ele>1043.0</ele><time>2026-05-02T06:38:17.929Z</time></trkpt><trkpt lat="44.03562924491556" lon="7.7144210059125555"><ele>1045.5</ele><time>2026-05-02T06:38:18.929Z</time></trkpt><trkpt lat="44.03558461793964" lon="7.71451285424971"><ele>1048.0</ele><time>2026-05-02T06:38:19.929Z</time></trkpt><trkpt lat="44.035529248454345" lon="7.714621591331436"><ele>1048.0</ele><time>2026-05-02T06:38:20.929Z</time></trkpt><trkpt lat="44.03545753647123" lon="7.7147303606099795"><ele>1048.0</ele><time>2026-05-02T06:38:21.929Z</time></trkpt><trkpt lat="44.03538822309524" lon="7.714847955586608"><ele>1048.0</ele><time>2026-05-02T06:38:22.929Z</time></trkpt><trkpt lat="44.035296072452944" lon="7.715026289343766"><ele>1048.0</ele><time>2026-05-02T06:38:23.929Z</time></trkpt><trkpt lat="44.0352243708337" lon="7.715143420751204"><ele>1048.0</ele><time>2026-05-02T06:38:24.929Z</time></trkpt><trkpt lat="44.035129562340884" lon="7.715215675513101"><ele>1048.0</ele><time>2026-05-02T06:38:25.929Z</time></trkpt><trkpt lat="44.03501715411904" lon="7.715319650322242"><ele>1048.0</ele><time>2026-05-02T06:38:26.929Z</time></trkpt><trkpt lat="44.03189648459391" lon="7.714855305379249"><ele>1048.0</ele><time>2026-05-02T06:39:27.928Z</time></trkpt><trkpt lat="44.031961812863564" lon="7.714720066883161"><ele>1048.0</ele><time>2026-05-02T06:39:28.928Z</time></trkpt><trkpt lat="44.03202808575993" lon="7.714603937804604"><ele>1048.0</ele><time>2026-05-02T06:39:29.928Z</time></trkpt><trkpt lat="44.03209090359354" lon="7.71449733414077"><ele>1048.0</ele><time>2026-05-02T06:39:30.928Z</time></trkpt><trkpt lat="44.03215364813712" lon="7.714406319826034"><ele>1048.0</ele><time>2026-05-02T06:39:31.928Z</time></trkpt><trkpt lat="44.0322316480344" lon="7.7143160003391955"><ele>1048.0</ele><time>2026-05-02T06:39:32.928Z</time></trkpt><trkpt lat="44.03229364496166" lon="7.714224098013976"><ele>1048.0</ele><time>2026-05-02T06:39:33.928Z</time></trkpt><trkpt lat="44.03236372501761" lon="7.714140144005931"><ele>1048.0</ele><time>2026-05-02T06:39:34.928Z</time></trkpt><trkpt lat="44.03243723389589" lon="7.7140499570933745"><ele>1048.0</ele><time>2026-05-02T06:39:35.928Z</time></trkpt><trkpt lat="44.032495569546995" lon="7.713957998488562"><ele>1048.0</ele><time>2026-05-02T06:39:36.928Z</time></trkpt><trkpt lat="44.03254269139469" lon="7.713848954392327"><ele>1052.0</ele><time>2026-05-02T06:39:37.928Z</time></trkpt><trkpt lat="44.032567548393054" lon="7.713703025933317"><ele>1056.0</ele><time>2026-05-02T06:39:38.928Z</time></trkpt><trkpt lat="44.03258388331953" lon="7.713570369566949"><ele>1060.0</ele><time>2026-05-02T06:39:39.928Z</time></trkpt><trkpt lat="44.03259842242077" lon="7.713443548100343"><ele>1064.0</ele><time>2026-05-02T06:39:40.928Z</time></trkpt><trkpt lat="44.03262228425337" lon="7.713333339484798"><ele>1068.0</ele><time>2026-05-02T06:39:41.928Z</time></trkpt><trkpt lat="44.03264178407992" lon="7.713209437427719"><ele>1068.0</ele><time>2026-05-02T06:39:43.928Z</time></trkpt><trkpt lat="44.03265599151404" lon="7.713104275647983"><ele>1068.0</ele><time>2026-05-02T06:39:47.928Z</time></trkpt><trkpt lat="44.032648397102065" lon="7.712965368705622"><ele>1068.0</ele><time>2026-05-02T06:49:12.918Z</time></trkpt><trkpt lat="44.032661314920325" lon="7.712856537882516"><ele>1068.0</ele><time>2026-05-02T06:49:14.918Z</time></trkpt><trkpt lat="44.032677864942634" lon="7.712728056337284"><ele>1068.0</ele><time>2026-05-02T06:49:16.921Z</time></trkpt><trkpt lat="44.032698806104506" lon="7.712577053260492"><ele>1068.0</ele><time>2026-05-02T06:49:18.921Z</time></trkpt><trkpt lat="44.032730653254234" lon="7.712491628572788"><ele>1068.0</ele><time>2026-05-02T06:49:19.92Z</time></trkpt><trkpt lat="44.03277663089067" lon="7.712328733132345"><ele>1068.0</ele><time>2026-05-02T06:49:21.92Z</time></trkpt><trkpt lat="44.03280892491183" lon="7.712238983815175"><ele>1068.0</ele><time>2026-05-02T06:49:22.92Z</time></trkpt><trkpt lat="44.0327705464163" lon="7.71211415658867"><ele>1068.0</ele><time>2026-05-02T06:49:24.92Z</time></trkpt><trkpt lat="44.032679665178" lon="7.712071373114102"><ele>1115.0</ele><time>2026-05-02T06:49:26.921Z</time></trkpt><trkpt lat="44.0315669493851" lon="7.712646404859123"><ele>1115.0</ele><time>2026-05-02T06:50:27.919Z</time></trkpt><trkpt lat="44.03152810645979" lon="7.712576966685579"><ele>1115.0</ele><time>2026-05-02T06:50:54.918Z</time></trkpt><trkpt lat="44.03149021183781" lon="7.712498634560395"><ele>1115.0</ele><time>2026-05-02T06:50:55.918Z</time></trkpt><trkpt lat="44.031421361681026" lon="7.712371359462253"><ele>1115.0</ele><time>2026-05-02T06:50:57.918Z</time></trkpt><trkpt lat="44.03136099788881" lon="7.712297173721815"><ele>1115.0</ele><time>2026-05-02T06:50:59.917Z</time></trkpt><trkpt lat="44.03125583728818" lon="7.712367787287795"><ele>1115.0</ele><time>2026-05-02T06:51:01.917Z</time></trkpt><trkpt lat="44.03120917804952" lon="7.7124451383924715"><ele>1115.0</ele><time>2026-05-02T06:51:02.917Z</time></trkpt><trkpt lat="44.03112973737028" lon="7.712583138139153"><ele>1115.0</ele><time>2026-05-02T06:51:04.917Z</time></trkpt><trkpt lat="44.03106792504335" lon="7.712697481645359"><ele>1115.0</ele><time>2026-05-02T06:51:05.917Z</time></trkpt><trkpt lat="44.03101817542595" lon="7.712800275596907"><ele>1115.0</ele><time>2026-05-02T06:51:06.917Z</time></trkpt><trkpt lat="44.030939786254756" lon="7.712978127894904"><ele>1117.8</ele><time>2026-05-02T06:51:08.917Z</time></trkpt><trkpt lat="44.030880460968426" lon="7.713077475136962"><ele>1120.6</ele><time>2026-05-02T06:51:09.917Z</time></trkpt><trkpt lat="44.03080741782195" lon="7.713178629702324"><ele>1123.4</ele><time>2026-05-02T06:51:10.917Z</time></trkpt><trkpt lat="44.0307442493531" lon="7.713240147860099"><ele>1126.2</ele><time>2026-05-02T06:51:11.917Z</time></trkpt><trkpt lat="44.03066003081042" lon="7.713283410204343"><ele>1129.0</ele><time>2026-05-02T06:51:12.917Z</time></trkpt><trkpt lat="44.03055986620831" lon="7.713300324973955"><ele>1129.0</ele><time>2026-05-02T06:51:13.917Z</time></trkpt><trkpt lat="44.030468910969894" lon="7.71332388033357"><ele>1129.0</ele><time>2026-05-02T06:51:14.917Z</time></trkpt><trkpt lat="44.03039747373615" lon="7.713374596302368"><ele>1129.0</ele><time>2026-05-02T06:51:15.917Z</time></trkpt><trkpt lat="44.03033450157453" lon="7.713462862061815"><ele>1129.0</ele><time>2026-05-02T06:51:16.917Z</time></trkpt><trkpt lat="44.03027375390629" lon="7.713578321769931"><ele>1129.0</ele><time>2026-05-02T06:51:17.917Z</time></trkpt><trkpt lat="44.03020544374761" lon="7.713722743205116"><ele>1129.0</ele><time>2026-05-02T06:51:18.917Z</time></trkpt><trkpt lat="44.03011839658549" lon="7.713849750884287"><ele>1129.0</ele><time>2026-05-02T06:51:19.917Z</time></trkpt><trkpt lat="44.030032053172256" lon="7.713964491401753"><ele>1129.0</ele><time>2026-05-02T06:51:20.917Z</time></trkpt><trkpt lat="44.029940458087545" lon="7.714082561884288"><ele>1129.0</ele><time>2026-05-02T06:51:21.917Z</time></trkpt><trkpt lat="44.02986083622441" lon="7.714177657988248"><ele>1133.6000000000001</ele><time>2026-05-02T06:51:22.919Z</time></trkpt><trkpt lat="44.029783475950644" lon="7.71426855895727"><ele>1138.2</ele><time>2026-05-02T06:51:23.919Z</time></trkpt><trkpt lat="44.029704606004316" lon="7.714346076088348"><ele>1142.8000000000002</ele><time>2026-05-02T06:51:24.919Z</time></trkpt><trkpt lat="44.02960401522644" lon="7.7144179956681755"><ele>1147.4</ele><time>2026-05-02T06:51:25.919Z</time></trkpt><trkpt lat="44.029505641421345" lon="7.7144792205418256"><ele>1152.0</ele><time>2026-05-02T06:51:26.919Z</time></trkpt><trkpt lat="44.03234645566226" lon="7.710339158882622"><ele>1152.0</ele><time>2026-05-02T06:52:27.917Z</time></trkpt><trkpt lat="44.03242941265393" lon="7.71029897942846"><ele>1152.0</ele><time>2026-05-02T06:52:28.917Z</time></trkpt><trkpt lat="44.032521849385944" lon="7.710261806802996"><ele>1152.0</ele><time>2026-05-02T06:52:29.917Z</time></trkpt><trkpt lat="44.032613496326015" lon="7.7102625655798125"><ele>1152.0</ele><time>2026-05-02T06:52:30.917Z</time></trkpt><trkpt lat="44.03269308051221" lon="7.710275902263758"><ele>1152.0</ele><time>2026-05-02T06:52:31.917Z</time></trkpt><trkpt lat="44.03277675324388" lon="7.710268139799469"><ele>1152.0</ele><time>2026-05-02T06:52:32.917Z</time></trkpt><trkpt lat="44.03286625822429" lon="7.710224111849556"><ele>1155.6</ele><time>2026-05-02T06:52:33.917Z</time></trkpt><trkpt lat="44.03296907572388" lon="7.710162542164673"><ele>1159.2</ele><time>2026-05-02T06:52:34.917Z</time></trkpt><trkpt lat="44.03304794153566" lon="7.710093628875115"><ele>1162.8</ele><time>2026-05-02T06:52:35.917Z</time></trkpt><trkpt lat="44.033130859917286" lon="7.710027723042505"><ele>1166.4</ele><time>2026-05-02T06:52:36.917Z</time></trkpt><trkpt lat="44.033194816450475" lon="7.709945155950345"><ele>1170.0</ele><time>2026-05-02T06:52:37.917Z</time></trkpt><trkpt lat="44.0332605438652" lon="7.709867598004914"><ele>1167.5</ele><time>2026-05-02T06:52:38.917Z</time></trkpt><trkpt lat="44.03331957932854" lon="7.709780924052872"><ele>1165.0</ele><time>2026-05-02T06:52:39.917Z</time></trkpt><trkpt lat="44.03337227500463" lon="7.709684706807116"><ele>1162.5</ele><time>2026-05-02T06:52:40.917Z</time></trkpt><trkpt lat="44.03343132130658" lon="7.70956885449256"><ele>1160.0</ele><time>2026-05-02T06:52:41.916Z</time></trkpt><trkpt lat="44.03346982410535" lon="7.709489899113874"><ele>1157.5</ele><time>2026-05-02T06:52:42.916Z</time></trkpt><trkpt lat="44.03354224970334" lon="7.709419744704175"><ele>1155.0</ele><time>2026-05-02T06:52:43.916Z</time></trkpt><trkpt lat="44.033618505473775" lon="7.709340214770524"><ele>1162.0</ele><time>2026-05-02T06:52:44.916Z</time></trkpt><trkpt lat="44.033703176034294" lon="7.709324693936521"><ele>1169.0</ele><time>2026-05-02T06:52:45.916Z</time></trkpt><trkpt lat="44.03379669779066" lon="7.709277911926537"><ele>1176.0</ele><time>2026-05-02T06:52:46.916Z</time></trkpt><trkpt lat="44.03390842078786" lon="7.709232635841402"><ele>1183.0</ele><time>2026-05-02T06:52:47.916Z</time></trkpt><trkpt lat="44.03400990147384" lon="7.709178347374732"><ele>1190.0</ele><time>2026-05-02T06:52:48.916Z</time></trkpt><trkpt lat="44.03410379470657" lon="7.7091160888221335"><ele>1187.0</ele><time>2026-05-02T06:52:49.916Z</time></trkpt><trkpt lat="44.03419224037796" lon="7.709056180261608"><ele>1184.0</ele><time>2026-05-02T06:52:50.916Z</time></trkpt><trkpt lat="44.03428303978473" lon="7.7090166088573655"><ele>1181.0</ele><time>2026-05-02T06:52:51.916Z</time></trkpt><trkpt lat="44.03437466008895" lon="7.708980221072315"><ele>1178.0</ele><time>2026-05-02T06:52:52.916Z</time></trkpt><trkpt lat="44.034467009191026" lon="7.708928925133193"><ele>1175.0</ele><time>2026-05-02T06:52:53.916Z</time></trkpt><trkpt lat="44.03455207583003" lon="7.708866472211502"><ele>1175.0</ele><time>2026-05-02T06:52:54.916Z</time></trkpt><trkpt lat="44.034629346391235" lon="7.708794413225006"><ele>1175.0</ele><time>2026-05-02T06:52:55.916Z</time></trkpt><trkpt lat="44.034711608014135" lon="7.7087786271821575"><ele>1175.0</ele><time>2026-05-02T06:52:56.916Z</time></trkpt><trkpt lat="44.03478639306345" lon="7.708770908932977"><ele>1175.0</ele><time>2026-05-02T06:52:57.916Z</time></trkpt><trkpt lat="44.03485922380374" lon="7.708822614098132"><ele>1175.0</ele><time>2026-05-02T06:52:58.916Z</time></trkpt><trkpt lat="44.03489062969576" lon="7.708910601034647"><ele>1175.0</ele><time>2026-05-02T06:52:59.916Z</time></trkpt><trkpt lat="44.03490976958479" lon="7.709012232754259"><ele>1175.0</ele><time>2026-05-02T06:53:00.916Z</time></trkpt><trkpt lat="44.034897079041116" lon="7.709121414793451"><ele>1175.0</ele><time>2026-05-02T06:53:01.916Z</time></trkpt><trkpt lat="44.03488559006731" lon="7.709227281006654"><ele>1175.0</ele><time>2026-05-02T06:53:02.916Z</time></trkpt><trkpt lat="44.03486606453211" lon="7.709343144343616"><ele>1175.0</ele><time>2026-05-02T06:53:03.916Z</time></trkpt><trkpt lat="44.03485844409886" lon="7.7094639988988565"><ele>1175.0</ele><time>2026-05-02T06:53:04.916Z</time></trkpt><trkpt lat="44.03484323959346" lon="7.709591930140185"><ele>1175.0</ele><time>2026-05-02T06:53:05.916Z</time></trkpt><trkpt lat="44.03483861886446" lon="7.70972179964096"><ele>1170.8</ele><time>2026-05-02T06:53:06.916Z</time></trkpt><trkpt lat="44.03484529736139" lon="7.709859746734161"><ele>1166.6</ele><time>2026-05-02T06:53:07.916Z</time></trkpt><trkpt lat="44.03484677530974" lon="7.709997679275298"><ele>1162.4</ele><time>2026-05-02T06:53:08.916Z</time></trkpt><trkpt lat="44.03484606778315" lon="7.710142076787576"><ele>1158.2</ele><time>2026-05-02T06:53:09.916Z</time></trkpt><trkpt lat="44.03483647295871" lon="7.710278986207783"><ele>1154.0</ele><time>2026-05-02T06:53:10.916Z</time></trkpt><trkpt lat="44.03484684603269" lon="7.7104249706502594"><ele>1153.0</ele><time>2026-05-02T06:53:11.916Z</time></trkpt><trkpt lat="44.03485952022231" lon="7.7105392007597615"><ele>1152.0</ele><time>2026-05-02T06:53:12.915Z</time></trkpt><trkpt lat="44.034876370010096" lon="7.7106678228353855"><ele>1151.0</ele><time>2026-05-02T06:53:13.915Z</time></trkpt><trkpt lat="44.034890427289355" lon="7.710767931191177"><ele>1150.0</ele><time>2026-05-02T06:53:14.915Z</time></trkpt><trkpt lat="44.03492295706805" lon="7.710843583308219"><ele>1149.0</ele><time>2026-05-02T06:53:15.915Z</time></trkpt><trkpt lat="44.035030829355144" lon="7.7109023049377114"><ele>1148.0</ele><time>2026-05-02T06:53:17.915Z</time></trkpt><trkpt lat="44.03509697641276" lon="7.71083302123958"><ele>1154.6</ele><time>2026-05-02T06:53:18.915Z</time></trkpt><trkpt lat="44.035143008697936" lon="7.710752732282752"><ele>1161.1999999999998</ele><time>2026-05-02T06:53:19.915Z</time></trkpt><trkpt lat="44.03522017567707" lon="7.710605890392065"><ele>1167.8</ele><time>2026-05-02T06:53:21.915Z</time></trkpt><trkpt lat="44.035262540944636" lon="7.7104964141030905"><ele>1174.3999999999999</ele><time>2026-05-02T06:53:23.915Z</time></trkpt><trkpt lat="44.03520415048223" lon="7.710370592955331"><ele>1181.0</ele><time>2026-05-02T06:53:25.915Z</time></trkpt><trkpt lat="44.03516007873008" lon="7.7103071836562425"><ele>1263.0</ele><time>2026-05-02T06:53:26.915Z</time></trkpt><trkpt lat="44.03169811220025" lon="7.708338273901146"><ele>1262.4</ele><time>2026-05-02T06:54:27.916Z</time></trkpt><trkpt lat="44.03162034891967" lon="7.70837848757325"><ele>1261.8</ele><time>2026-05-02T06:54:28.915Z</time></trkpt><trkpt lat="44.03151941509624" lon="7.708406400632454"><ele>1261.2</ele><time>2026-05-02T06:54:29.915Z</time></trkpt><trkpt lat="44.031417482360936" lon="7.708403309817661"><ele>1260.6</ele><time>2026-05-02T06:54:30.915Z</time></trkpt><trkpt lat="44.031312995646694" lon="7.708357221944593"><ele>1260.0</ele><time>2026-05-02T06:54:31.915Z</time></trkpt><trkpt lat="44.03121440250502" lon="7.708288928771087"><ele>1260.0</ele><time>2026-05-02T06:54:32.915Z</time></trkpt><trkpt lat="44.03111371163165" lon="7.708239582178469"><ele>1260.0</ele><time>2026-05-02T06:54:33.915Z</time></trkpt><trkpt lat="44.03101902350684" lon="7.708185213907454"><ele>1260.0</ele><time>2026-05-02T06:54:34.915Z</time></trkpt><trkpt lat="44.03092026806067" lon="7.708119233951286"><ele>1260.0</ele><time>2026-05-02T06:54:35.915Z</time></trkpt><trkpt lat="44.03085292573203" lon="7.708053588730084"><ele>1260.0</ele><time>2026-05-02T06:54:36.915Z</time></trkpt><trkpt lat="44.030794933052796" lon="7.707993053000577"><ele>1262.0</ele><time>2026-05-02T06:54:37.915Z</time></trkpt><trkpt lat="44.030705089427784" lon="7.707967199870535"><ele>1264.0</ele><time>2026-05-02T06:54:38.915Z</time></trkpt><trkpt lat="44.030624392322544" lon="7.708006700847701"><ele>1266.0</ele><time>2026-05-02T06:54:39.915Z</time></trkpt><trkpt lat="44.03052906152215" lon="7.708065022232416"><ele>1268.0</ele><time>2026-05-02T06:54:40.915Z</time></trkpt><trkpt lat="44.03043395647109" lon="7.7081358019153114"><ele>1270.0</ele><time>2026-05-02T06:54:41.915Z</time></trkpt><trkpt lat="44.03034134341013" lon="7.708172330815325"><ele>1270.0</ele><time>2026-05-02T06:54:42.915Z</time></trkpt><trkpt lat="44.03025112431855" lon="7.708224497385948"><ele>1270.0</ele><time>2026-05-02T06:54:43.915Z</time></trkpt><trkpt lat="44.03019071133855" lon="7.708264796580057"><ele>1270.0</ele><time>2026-05-02T06:54:44.915Z</time></trkpt><trkpt lat="44.03006404052273" lon="7.708382669926957"><ele>1270.0</ele><time>2026-05-02T06:54:46.915Z</time></trkpt><trkpt lat="44.03000716241077" lon="7.7082716908975115"><ele>1270.0</ele><time>2026-05-02T06:54:48.915Z</time></trkpt><trkpt lat="44.03003728299992" lon="7.708159549052073"><ele>1270.0</ele><time>2026-05-02T06:54:49.915Z</time></trkpt><trkpt lat="44.030085564146766" lon="7.708053200598846"><ele>1270.0</ele><time>2026-05-02T06:54:50.915Z</time></trkpt><trkpt lat="44.03013134709799" lon="7.7079447489754465"><ele>1270.0</ele><time>2026-05-02T06:54:51.915Z</time></trkpt><trkpt lat="44.03017101843388" lon="7.707816923049097"><ele>1270.0</ele><time>2026-05-02T06:54:52.915Z</time></trkpt><trkpt lat="44.030215940972504" lon="7.707688238727253"><ele>1270.0</ele><time>2026-05-02T06:54:53.915Z</time></trkpt><trkpt lat="44.03025737776467" lon="7.707571699082156"><ele>1273.0</ele><time>2026-05-02T06:54:54.915Z</time></trkpt><trkpt lat="44.03028863118833" lon="7.707473769926749"><ele>1276.0</ele><time>2026-05-02T06:54:55.915Z</time></trkpt><trkpt lat="44.03023525660663" lon="7.7073444906954744"><ele>1279.0</ele><time>2026-05-02T06:54:57.915Z</time></trkpt><trkpt lat="44.03015349194279" lon="7.707273522368215"><ele>1282.0</ele><time>2026-05-02T06:54:58.915Z</time></trkpt><trkpt lat="44.03007822777564" lon="7.707226250555682"><ele>1285.0</ele><time>2026-05-02T06:54:59.914Z</time></trkpt><trkpt lat="44.029980586429545" lon="7.707172698101908"><ele>1289.2</ele><time>2026-05-02T06:55:00.914Z</time></trkpt><trkpt lat="44.029896171130574" lon="7.707149105845073"><ele>1293.4</ele><time>2026-05-02T06:55:01.914Z</time></trkpt><trkpt lat="44.02982201074697" lon="7.707140760266452"><ele>1297.6</ele><time>2026-05-02T06:55:02.914Z</time></trkpt><trkpt lat="44.02975085672978" lon="7.707175192547922"><ele>1301.8</ele><time>2026-05-02T06:55:03.914Z</time></trkpt><trkpt lat="44.02966898398999" lon="7.7072280304584835"><ele>1306.0</ele><time>2026-05-02T06:55:05.914Z</time></trkpt><trkpt lat="44.02953413144915" lon="7.707391184865047"><ele>1306.0</ele><time>2026-05-02T06:55:07.914Z</time></trkpt><trkpt lat="44.02944098332267" lon="7.707519918263549"><ele>1306.0</ele><time>2026-05-02T06:55:08.914Z</time></trkpt><trkpt lat="44.0293521760536" lon="7.707636714279469"><ele>1306.0</ele><time>2026-05-02T06:55:09.914Z</time></trkpt><trkpt lat="44.0292627058359" lon="7.707772914692346"><ele>1306.0</ele><time>2026-05-02T06:55:10.914Z</time></trkpt><trkpt lat="44.029167638397865" lon="7.707892901091926"><ele>1302.6666666666665</ele><time>2026-05-02T06:55:11.914Z</time></trkpt><trkpt lat="44.02908141845862" lon="7.707998181045967"><ele>1299.3333333333333</ele><time>2026-05-02T06:55:12.914Z</time></trkpt><trkpt lat="44.029007416906495" lon="7.708071050560758"><ele>1296.0</ele><time>2026-05-02T06:55:13.914Z</time></trkpt><trkpt lat="44.028955312977956" lon="7.708175399617889"><ele>1292.6666666666667</ele><time>2026-05-02T06:55:14.914Z</time></trkpt><trkpt lat="44.02890992818735" lon="7.708246519275908"><ele>1289.3333333333335</ele><time>2026-05-02T06:55:15.914Z</time></trkpt><trkpt lat="44.02884882036123" lon="7.708319174099406"><ele>1286.0</ele><time>2026-05-02T06:55:16.914Z</time></trkpt><trkpt lat="44.02878108208085" lon="7.708358461885637"><ele>1286.0</ele><time>2026-05-02T06:55:17.914Z</time></trkpt><trkpt lat="44.028697169216365" lon="7.708334955002563"><ele>1286.0</ele><time>2026-05-02T06:55:18.914Z</time></trkpt><trkpt lat="44.02860211277108" lon="7.708315797747432"><ele>1286.0</ele><time>2026-05-02T06:55:19.914Z</time></trkpt><trkpt lat="44.028509369036385" lon="7.708285114089902"><ele>1286.0</ele><time>2026-05-02T06:55:20.914Z</time></trkpt><trkpt lat="44.028405590281444" lon="7.70827289072888"><ele>1286.0</ele><time>2026-05-02T06:55:21.914Z</time></trkpt><trkpt lat="44.028319237471536" lon="7.708258333051928"><ele>1289.0</ele><time>2026-05-02T06:55:22.914Z</time></trkpt><trkpt lat="44.02823970163742" lon="7.70822937652611"><ele>1292.0</ele><time>2026-05-02T06:55:23.914Z</time></trkpt><trkpt lat="44.02816138782942" lon="7.708166286420724"><ele>1295.0</ele><time>2026-05-02T06:55:24.914Z</time></trkpt><trkpt lat="44.0281106364681" lon="7.7080694338184355"><ele>1298.0</ele><time>2026-05-02T06:55:25.914Z</time></trkpt><trkpt lat="44.028088021525484" lon="7.707952811748568"><ele>1301.0</ele><time>2026-05-02T06:55:26.914Z</time></trkpt><trkpt lat="44.02626891040337" lon="7.702198912684797"><ele>1301.0</ele><time>2026-05-02T06:56:27.913Z</time></trkpt><trkpt lat="44.02632639918136" lon="7.702103820062546"><ele>1301.0</ele><time>2026-05-02T06:56:28.913Z</time></trkpt><trkpt lat="44.02635749406192" lon="7.70200894464435"><ele>1301.0</ele><time>2026-05-02T06:56:29.913Z</time></trkpt><trkpt lat="44.02636798051243" lon="7.701916230188962"><ele>1301.0</ele><time>2026-05-02T06:56:30.913Z</time></trkpt><trkpt lat="44.026360907681536" lon="7.701801424443465"><ele>1301.0</ele><time>2026-05-02T06:56:31.913Z</time></trkpt><trkpt lat="44.02637315124774" lon="7.701666028946007"><ele>1301.0</ele><time>2026-05-02T06:56:32.913Z</time></trkpt><trkpt lat="44.02641881865904" lon="7.70155665041832"><ele>1299.0</ele><time>2026-05-02T06:56:33.913Z</time></trkpt><trkpt lat="44.0264854311692" lon="7.701462995744444"><ele>1297.0</ele><time>2026-05-02T06:56:34.913Z</time></trkpt><trkpt lat="44.02656318902479" lon="7.7013532419528525"><ele>1295.0</ele><time>2026-05-02T06:56:35.913Z</time></trkpt><trkpt lat="44.02662585493339" lon="7.701242083765612"><ele>1293.0</ele><time>2026-05-02T06:56:36.913Z</time></trkpt><trkpt lat="44.02669451333454" lon="7.7011624743113485"><ele>1291.0</ele><time>2026-05-02T06:56:37.913Z</time></trkpt><trkpt lat="44.02676606004759" lon="7.701110773264243"><ele>1293.8333333333333</ele><time>2026-05-02T06:56:38.913Z</time></trkpt><trkpt lat="44.02685638387956" lon="7.701071689926105"><ele>1296.6666666666665</ele><time>2026-05-02T06:56:39.913Z</time></trkpt><trkpt lat="44.02693818685192" lon="7.701051907584123"><ele>1299.5</ele><time>2026-05-02T06:56:40.913Z</time></trkpt><trkpt lat="44.02702785808989" lon="7.701051611464301"><ele>1302.3333333333333</ele><time>2026-05-02T06:56:41.913Z</time></trkpt><trkpt lat="44.02712297072998" lon="7.70107897871355"><ele>1305.1666666666667</ele><time>2026-05-02T06:56:42.913Z</time></trkpt><trkpt lat="44.0271931927517" lon="7.701128121324912"><ele>1308.0</ele><time>2026-05-02T06:56:43.913Z</time></trkpt><trkpt lat="44.027272803615155" lon="7.70116508000537"><ele>1312.4</ele><time>2026-05-02T06:56:44.913Z</time></trkpt><trkpt lat="44.0273538366149" lon="7.70121410592745"><ele>1316.8000000000002</ele><time>2026-05-02T06:56:45.913Z</time></trkpt><trkpt lat="44.02744097065148" lon="7.701270647722805"><ele>1321.2</ele><time>2026-05-02T06:56:46.913Z</time></trkpt><trkpt lat="44.0275457385531" lon="7.701318696166675"><ele>1325.6</ele><time>2026-05-02T06:56:47.913Z</time></trkpt><trkpt lat="44.02765832114306" lon="7.701359202666798"><ele>1330.0</ele><time>2026-05-02T06:56:48.913Z</time></trkpt><trkpt lat="44.02776034042381" lon="7.701391155662331"><ele>1335.5</ele><time>2026-05-02T06:56:49.913Z</time></trkpt><trkpt lat="44.02786471010216" lon="7.701447909115124"><ele>1341.0</ele><time>2026-05-02T06:56:50.913Z</time></trkpt><trkpt lat="44.02796956670457" lon="7.701518321408096"><ele>1346.5</ele><time>2026-05-02T06:56:51.913Z</time></trkpt><trkpt lat="44.02807616061687" lon="7.701574379634462"><ele>1352.0</ele><time>2026-05-02T06:56:52.913Z</time></trkpt><trkpt lat="44.0281913691333" lon="7.701620748631823"><ele>1352.0</ele><time>2026-05-02T06:56:53.913Z</time></trkpt><trkpt lat="44.02830736066097" lon="7.701700870874777"><ele>1352.0</ele><time>2026-05-02T06:56:54.912Z</time></trkpt><trkpt lat="44.02842042713225" lon="7.701757842445249"><ele>1352.0</ele><time>2026-05-02T06:56:55.912Z</time></trkpt><trkpt lat="44.02851406679775" lon="7.701826784235752"><ele>1352.0</ele><time>2026-05-02T06:56:56.912Z</time></trkpt><trkpt lat="44.02860858421496" lon="7.70191652521671"><ele>1356.75</ele><time>2026-05-02T06:56:57.912Z</time></trkpt><trkpt lat="44.028710919291285" lon="7.701993791876543"><ele>1361.5</ele><time>2026-05-02T06:56:58.912Z</time></trkpt><trkpt lat="44.02880554779024" lon="7.70206896679204"><ele>1366.25</ele><time>2026-05-02T06:56:59.912Z</time></trkpt><trkpt lat="44.028913919696805" lon="7.7021540337766865"><ele>1371.0</ele><time>2026-05-02T06:57:00.912Z</time></trkpt><trkpt lat="44.029014629279665" lon="7.70222948361543"><ele>1371.0</ele><time>2026-05-02T06:57:01.912Z</time></trkpt><trkpt lat="44.0291204813313" lon="7.702299468700354"><ele>1371.0</ele><time>2026-05-02T06:57:02.912Z</time></trkpt><trkpt lat="44.02924345347285" lon="7.702380933327056"><ele>1371.0</ele><time>2026-05-02T06:57:03.912Z</time></trkpt><trkpt lat="44.029342025003466" lon="7.702437856084642"><ele>1371.0</ele><time>2026-05-02T06:57:04.912Z</time></trkpt><trkpt lat="44.029444447510286" lon="7.702491689860632"><ele>1367.0</ele><time>2026-05-02T06:57:05.912Z</time></trkpt><trkpt lat="44.02955987412261" lon="7.702529715107744"><ele>1363.0</ele><time>2026-05-02T06:57:06.912Z</time></trkpt><trkpt lat="44.02970154606654" lon="7.702566001908589"><ele>1359.0</ele><time>2026-05-02T06:57:07.912Z</time></trkpt><trkpt lat="44.02982990013602" lon="7.702591573861766"><ele>1355.0</ele><time>2026-05-02T06:57:08.912Z</time></trkpt><trkpt lat="44.02995031030754" lon="7.702599420989917"><ele>1353.0</ele><time>2026-05-02T06:57:09.912Z</time></trkpt><trkpt lat="44.03010593242903" lon="7.702602093629064"><ele>1351.0</ele><time>2026-05-02T06:57:10.912Z</time></trkpt><trkpt lat="44.030242783037906" lon="7.702610318961314"><ele>1349.0</ele><time>2026-05-02T06:57:11.912Z</time></trkpt><trkpt lat="44.030374477717956" lon="7.702596505819161"><ele>1347.0</ele><time>2026-05-02T06:57:12.912Z</time></trkpt><trkpt lat="44.030496269184134" lon="7.7025964578651545"><ele>1347.0</ele><time>2026-05-02T06:57:13.912Z</time></trkpt><trkpt lat="44.03060966900729" lon="7.702578635633962"><ele>1347.0</ele><time>2026-05-02T06:57:14.912Z</time></trkpt><trkpt lat="44.03072449676954" lon="7.702558180491772"><ele>1347.0</ele><time>2026-05-02T06:57:15.912Z</time></trkpt><trkpt lat="44.030828704698855" lon="7.702534879432131"><ele>1347.0</ele><time>2026-05-02T06:57:16.912Z</time></trkpt><trkpt lat="44.03093655813122" lon="7.702527890378869"><ele>1347.0</ele><time>2026-05-02T06:57:17.912Z</time></trkpt><trkpt lat="44.0310438488724" lon="7.702529248905262"><ele>1348.3999999999999</ele><time>2026-05-02T06:57:18.912Z</time></trkpt><trkpt lat="44.03114982584339" lon="7.702539306315834"><ele>1349.8</ele><time>2026-05-02T06:57:19.912Z</time></trkpt><trkpt lat="44.03125226062847" lon="7.702554905800479"><ele>1351.2</ele><time>2026-05-02T06:57:20.912Z</time></trkpt><trkpt lat="44.03135107521622" lon="7.702561391227377"><ele>1352.6</ele><time>2026-05-02T06:57:21.912Z</time></trkpt><trkpt lat="44.03146125450837" lon="7.702580600461017"><ele>1354.0</ele><time>2026-05-02T06:57:22.912Z</time></trkpt><trkpt lat="44.0315599524489" lon="7.702624421113565"><ele>1356.0</ele><time>2026-05-02T06:57:23.912Z</time></trkpt><trkpt lat="44.0316816589894" lon="7.702674208691329"><ele>1358.0</ele><time>2026-05-02T06:57:24.911Z</time></trkpt><trkpt lat="44.03177772895442" lon="7.7027497582064415"><ele>1360.0</ele><time>2026-05-02T06:57:25.911Z</time></trkpt><trkpt lat="44.031889707160495" lon="7.702776541756374"><ele>1362.0</ele><time>2026-05-02T06:57:26.911Z</time></trkpt><trkpt lat="44.03080207485484" lon="7.698471116383351"><ele>1370.6</ele><time>2026-05-02T06:58:27.913Z</time></trkpt><trkpt lat="44.030724595308655" lon="7.698449084949261"><ele>1379.1999999999998</ele><time>2026-05-02T06:58:28.913Z</time></trkpt><trkpt lat="44.0306396103748" lon="7.6984416602684345"><ele>1387.8</ele><time>2026-05-02T06:58:29.913Z</time></trkpt><trkpt lat="44.03054728108767" lon="7.698466519139465"><ele>1396.4</ele><time>2026-05-02T06:58:30.913Z</time></trkpt><trkpt lat="44.03042857226689" lon="7.698496998966711"><ele>1405.0</ele><time>2026-05-02T06:58:31.913Z</time></trkpt><trkpt lat="44.030314791723285" lon="7.698529797942169"><ele>1405.0</ele><time>2026-05-02T06:58:32.913Z</time></trkpt><trkpt lat="44.03019265472373" lon="7.6985512511262355"><ele>1405.0</ele><time>2026-05-02T06:58:33.913Z</time></trkpt><trkpt lat="44.03008557304315" lon="7.69855878288011"><ele>1405.0</ele><time>2026-05-02T06:58:34.913Z</time></trkpt><trkpt lat="44.02997267669673" lon="7.698573137216336"><ele>1405.0</ele><time>2026-05-02T06:58:35.912Z</time></trkpt><trkpt lat="44.02987489541158" lon="7.6985849280997725"><ele>1405.0</ele><time>2026-05-02T06:58:36.912Z</time></trkpt><trkpt lat="44.02977323811494" lon="7.698595083846133"><ele>1403.0</ele><time>2026-05-02T06:58:37.912Z</time></trkpt><trkpt lat="44.02966175815065" lon="7.698603068598133"><ele>1401.0</ele><time>2026-05-02T06:58:38.912Z</time></trkpt><trkpt lat="44.029565100571986" lon="7.698620364782377"><ele>1399.0</ele><time>2026-05-02T06:58:39.912Z</time></trkpt><trkpt lat="44.02945286407182" lon="7.698589164929763"><ele>1397.0</ele><time>2026-05-02T06:58:40.912Z</time></trkpt><trkpt lat="44.029337207803245" lon="7.698551577059491"><ele>1395.0</ele><time>2026-05-02T06:58:41.912Z</time></trkpt><trkpt lat="44.029228021714786" lon="7.698505123189421"><ele>1389.0</ele><time>2026-05-02T06:58:42.912Z</time></trkpt><trkpt lat="44.02912717946619" lon="7.698446713245726"><ele>1383.0</ele><time>2026-05-02T06:58:43.912Z</time></trkpt><trkpt lat="44.02904399678426" lon="7.69837953277375"><ele>1377.0</ele><time>2026-05-02T06:58:44.912Z</time></trkpt><trkpt lat="44.028965014517546" lon="7.6982994464361685"><ele>1371.0</ele><time>2026-05-02T06:58:45.912Z</time></trkpt><trkpt lat="44.02889929063252" lon="7.698201952760624"><ele>1365.0</ele><time>2026-05-02T06:58:46.912Z</time></trkpt><trkpt lat="44.02886630872598" lon="7.698082903112319"><ele>1365.0</ele><time>2026-05-02T06:58:47.912Z</time></trkpt><trkpt lat="44.028866829348566" lon="7.697951587102333"><ele>1365.0</ele><time>2026-05-02T06:58:48.912Z</time></trkpt><trkpt lat="44.02887985567578" lon="7.697824518286896"><ele>1365.0</ele><time>2026-05-02T06:58:49.912Z</time></trkpt><trkpt lat="44.02888909996044" lon="7.697695164129901"><ele>1365.0</ele><time>2026-05-02T06:58:50.912Z</time></trkpt><trkpt lat="44.02888595619538" lon="7.6975497317164105"><ele>1365.0</ele><time>2026-05-02T06:58:51.912Z</time></trkpt><trkpt lat="44.02887847607078" lon="7.697419051576629"><ele>1365.1666666666667</ele><time>2026-05-02T06:58:52.912Z</time></trkpt><trkpt lat="44.028867614593096" lon="7.697298454408202"><ele>1365.3333333333333</ele><time>2026-05-02T06:58:53.912Z</time></trkpt><trkpt lat="44.02883826282555" lon="7.6971961339104435"><ele>1365.5</ele><time>2026-05-02T06:58:54.912Z</time></trkpt><trkpt lat="44.02878786464234" lon="7.697125026094561"><ele>1365.6666666666665</ele><time>2026-05-02T06:58:55.912Z</time></trkpt><trkpt lat="44.028714704522066" lon="7.697072212982151"><ele>1365.8333333333333</ele><time>2026-05-02T06:58:56.912Z</time></trkpt><trkpt lat="44.02866796212827" lon="7.696991070001058"><ele>1366.0</ele><time>2026-05-02T06:58:57.912Z</time></trkpt><trkpt lat="44.02864267929268" lon="7.696874179116071"><ele>1368.0</ele><time>2026-05-02T06:58:58.912Z</time></trkpt><trkpt lat="44.028640814058484" lon="7.696741996584377"><ele>1370.0</ele><time>2026-05-02T06:58:59.912Z</time></trkpt><trkpt lat="44.02863874876572" lon="7.6966108425123565"><ele>1372.0</ele><time>2026-05-02T06:59:00.912Z</time></trkpt><trkpt lat="44.02861820277121" lon="7.696504185124406"><ele>1374.0</ele><time>2026-05-02T06:59:01.912Z</time></trkpt><trkpt lat="44.0285696744108" lon="7.6964194767810135"><ele>1376.0</ele><time>2026-05-02T06:59:02.912Z</time></trkpt><trkpt lat="44.02849758143752" lon="7.6963651461415115"><ele>1378.0</ele><time>2026-05-02T06:59:03.912Z</time></trkpt><trkpt lat="44.02836087085263" lon="7.696323759744756"><ele>1373.8333333333333</ele><time>2026-05-02T06:59:05.912Z</time></trkpt><trkpt lat="44.028282459621856" lon="7.696340976753906"><ele>1369.6666666666665</ele><time>2026-05-02T06:59:06.911Z</time></trkpt><trkpt lat="44.02820576132566" lon="7.696356435716432"><ele>1365.5</ele><time>2026-05-02T06:59:07.911Z</time></trkpt><trkpt lat="44.0281263673055" lon="7.696376535000965"><ele>1361.3333333333333</ele><time>2026-05-02T06:59:08.911Z</time></trkpt><trkpt lat="44.028028319508614" lon="7.6963036989760365"><ele>1357.1666666666667</ele><time>2026-05-02T06:59:10.911Z</time></trkpt><trkpt lat="44.02799856816153" lon="7.6962081620160046"><ele>1353.0</ele><time>2026-05-02T06:59:11.911Z</time></trkpt><trkpt lat="44.027962811520354" lon="7.6960896210654335"><ele>1355.6666666666667</ele><time>2026-05-02T06:59:12.911Z</time></trkpt><trkpt lat="44.027926074191164" lon="7.696006036147402"><ele>1358.3333333333333</ele><time>2026-05-02T06:59:13.911Z</time></trkpt><trkpt lat="44.02786387648178" lon="7.6959383860942125"><ele>1361.0</ele><time>2026-05-02T06:59:14.911Z</time></trkpt><trkpt lat="44.027775024008854" lon="7.695883040411152"><ele>1363.6666666666665</ele><time>2026-05-02T06:59:15.911Z</time></trkpt><trkpt lat="44.02768075177061" lon="7.69585559966881"><ele>1366.3333333333333</ele><time>2026-05-02T06:59:16.911Z</time></trkpt><trkpt lat="44.027587425490246" lon="7.695833918540989"><ele>1369.0</ele><time>2026-05-02T06:59:17.911Z</time></trkpt><trkpt lat="44.02752328548164" lon="7.695792311071163"><ele>1364.1666666666665</ele><time>2026-05-02T06:59:18.911Z</time></trkpt><trkpt lat="44.02747211369222" lon="7.695718120404498"><ele>1359.3333333333333</ele><time>2026-05-02T06:59:19.911Z</time></trkpt><trkpt lat="44.02742965024839" lon="7.695629653313229"><ele>1354.5</ele><time>2026-05-02T06:59:20.911Z</time></trkpt><trkpt lat="44.02739989249542" lon="7.695522447143963"><ele>1349.6666666666667</ele><time>2026-05-02T06:59:21.911Z</time></trkpt><trkpt lat="44.027389538892166" lon="7.695424758355651"><ele>1344.8333333333335</ele><time>2026-05-02T06:59:22.911Z</time></trkpt><trkpt lat="44.02739237073289" lon="7.6953086757757845"><ele>1340.0</ele><time>2026-05-02T06:59:23.911Z</time></trkpt><trkpt lat="44.027390895565" lon="7.695180031043112"><ele>1338.6666666666667</ele><time>2026-05-02T06:59:24.911Z</time></trkpt><trkpt lat="44.02738628838947" lon="7.695054231565325"><ele>1337.3333333333333</ele><time>2026-05-02T06:59:25.911Z</time></trkpt><trkpt lat="44.02738357297781" lon="7.69494208224851"><ele>1336.0</ele><time>2026-05-02T06:59:26.911Z</time></trkpt><trkpt lat="44.03001336581471" lon="7.6914415923792365"><ele>1345.5</ele><time>2026-05-02T07:00:27.911Z</time></trkpt><trkpt lat="44.029982684334016" lon="7.691351794604769"><ele>1355.0</ele><time>2026-05-02T07:00:28.911Z</time></trkpt><trkpt lat="44.02995657574048" lon="7.691270505377791"><ele>1364.5</ele><time>2026-05-02T07:00:29.911Z</time></trkpt><trkpt lat="44.029925503038136" lon="7.691167068517829"><ele>1374.0</ele><time>2026-05-02T07:00:30.911Z</time></trkpt><trkpt lat="44.02990637453643" lon="7.691055113220715"><ele>1383.5</ele><time>2026-05-02T07:00:31.911Z</time></trkpt><trkpt lat="44.02988262501034" lon="7.69094067427301"><ele>1393.0</ele><time>2026-05-02T07:00:32.911Z</time></trkpt><trkpt lat="44.02987609629977" lon="7.690824801024813"><ele>1393.0</ele><time>2026-05-02T07:00:33.911Z</time></trkpt><trkpt lat="44.02986730964663" lon="7.690722558674546"><ele>1393.0</ele><time>2026-05-02T07:00:34.911Z</time></trkpt><trkpt lat="44.02984654153124" lon="7.69063390321625"><ele>1393.0</ele><time>2026-05-02T07:00:35.911Z</time></trkpt><trkpt lat="44.029762905876666" lon="7.690500465903232"><ele>1393.0</ele><time>2026-05-02T07:00:37.911Z</time></trkpt><trkpt lat="44.02966292793234" lon="7.690474337667412"><ele>1393.0</ele><time>2026-05-02T07:00:39.911Z</time></trkpt><trkpt lat="44.029552370478" lon="7.690501025328401"><ele>1393.0</ele><time>2026-05-02T07:00:41.911Z</time></trkpt><trkpt lat="44.02947094042822" lon="7.690487837546573"><ele>1393.0</ele><time>2026-05-02T07:00:42.911Z</time></trkpt><trkpt lat="44.029392135948555" lon="7.690433031049366"><ele>1393.0</ele><time>2026-05-02T07:00:43.911Z</time></trkpt><trkpt lat="44.029309618080305" lon="7.690375971636631"><ele>1393.0</ele><time>2026-05-02T07:00:44.911Z</time></trkpt><trkpt lat="44.02922911257761" lon="7.690320046097736"><ele>1393.0</ele><time>2026-05-02T07:00:45.911Z</time></trkpt><trkpt lat="44.02913881076961" lon="7.690265538363842"><ele>1394.1666666666665</ele><time>2026-05-02T07:00:46.911Z</time></trkpt><trkpt lat="44.02906314458427" lon="7.690215769173348"><ele>1395.3333333333333</ele><time>2026-05-02T07:00:47.911Z</time></trkpt><trkpt lat="44.02900451211351" lon="7.6901590463175395"><ele>1396.5</ele><time>2026-05-02T07:00:48.911Z</time></trkpt><trkpt lat="44.02894919496174" lon="7.690115445835347"><ele>1397.6666666666667</ele><time>2026-05-02T07:00:49.911Z</time></trkpt><trkpt lat="44.02892834221834" lon="7.689969035143072"><ele>1398.8333333333335</ele><time>2026-05-02T07:00:51.911Z</time></trkpt><trkpt lat="44.02895853573327" lon="7.6898825633945345"><ele>1400.0</ele><time>2026-05-02T07:00:52.911Z</time></trkpt><trkpt lat="44.02898102991956" lon="7.689797520892935"><ele>1400.0</ele><time>2026-05-02T07:00:53.911Z</time></trkpt><trkpt lat="44.02897943926089" lon="7.689703445940818"><ele>1400.0</ele><time>2026-05-02T07:00:54.911Z</time></trkpt><trkpt lat="44.02892854189634" lon="7.689633978489936"><ele>1400.0</ele><time>2026-05-02T07:00:55.91Z</time></trkpt><trkpt lat="44.02884638474335" lon="7.689598192557585"><ele>1400.0</ele><time>2026-05-02T07:00:56.91Z</time></trkpt><trkpt lat="44.02876290000659" lon="7.689595635783333"><ele>1400.0</ele><time>2026-05-02T07:00:57.91Z</time></trkpt><trkpt lat="44.02867178508737" lon="7.689587444756697"><ele>1400.0</ele><time>2026-05-02T07:00:58.91Z</time></trkpt><trkpt lat="44.0285825427964" lon="7.689545358217686"><ele>1400.0</ele><time>2026-05-02T07:00:59.91Z</time></trkpt><trkpt lat="44.028478147773214" lon="7.6895057296020095"><ele>1400.0</ele><time>2026-05-02T07:01:00.91Z</time></trkpt><trkpt lat="44.02837635105205" lon="7.689435114883442"><ele>1400.0</ele><time>2026-05-02T07:01:01.91Z</time></trkpt><trkpt lat="44.02828347459242" lon="7.68937079380192"><ele>1400.0</ele><time>2026-05-02T07:01:02.91Z</time></trkpt><trkpt lat="44.02820134285883" lon="7.689295436179557"><ele>1400.0</ele><time>2026-05-02T07:01:03.91Z</time></trkpt><trkpt lat="44.028118620261544" lon="7.6892348090312215"><ele>1402.5</ele><time>2026-05-02T07:01:04.91Z</time></trkpt><trkpt lat="44.028025809026396" lon="7.689191304035997"><ele>1405.0</ele><time>2026-05-02T07:01:05.91Z</time></trkpt><trkpt lat="44.02795039319571" lon="7.689150906509362"><ele>1407.5</ele><time>2026-05-02T07:01:06.91Z</time></trkpt><trkpt lat="44.027894281980096" lon="7.689080641188747"><ele>1410.0</ele><time>2026-05-02T07:01:07.91Z</time></trkpt><trkpt lat="44.02785028304496" lon="7.689003242839741"><ele>1412.5</ele><time>2026-05-02T07:01:08.91Z</time></trkpt><trkpt lat="44.02782409914414" lon="7.688909996128684"><ele>1415.0</ele><time>2026-05-02T07:01:09.91Z</time></trkpt><trkpt lat="44.02781635587367" lon="7.688796367260169"><ele>1415.0</ele><time>2026-05-02T07:01:10.91Z</time></trkpt><trkpt lat="44.02774357285969" lon="7.688733840073035"><ele>1415.0</ele><time>2026-05-02T07:01:12.91Z</time></trkpt><trkpt lat="44.02761034831334" lon="7.688752767801502"><ele>1415.0</ele><time>2026-05-02T07:01:14.91Z</time></trkpt><trkpt lat="44.02752831857394" lon="7.688785590039951"><ele>1415.0</ele><time>2026-05-02T07:01:15.91Z</time></trkpt><trkpt lat="44.027440787347295" lon="7.688822784126478"><ele>1415.0</ele><time>2026-05-02T07:01:16.91Z</time></trkpt><trkpt lat="44.027371595848436" lon="7.688871397439648"><ele>1416.1666666666667</ele><time>2026-05-02T07:01:17.91Z</time></trkpt><trkpt lat="44.02731369870066" lon="7.688926150059301"><ele>1417.3333333333335</ele><time>2026-05-02T07:01:18.91Z</time></trkpt><trkpt lat="44.02724977555732" lon="7.688965449317203"><ele>1418.5</ele><time>2026-05-02T07:01:19.91Z</time></trkpt><trkpt lat="44.027178027502266" lon="7.688986100166381"><ele>1419.6666666666667</ele><time>2026-05-02T07:01:20.91Z</time></trkpt><trkpt lat="44.027089085834014" lon="7.68900415597352"><ele>1420.8333333333333</ele><time>2026-05-02T07:01:21.91Z</time></trkpt><trkpt lat="44.026989656977115" lon="7.688991602461085"><ele>1422.0</ele><time>2026-05-02T07:01:22.91Z</time></trkpt><trkpt lat="44.02689803622777" lon="7.688984867600088"><ele>1422.0</ele><time>2026-05-02T07:01:23.91Z</time></trkpt><trkpt lat="44.02681030741523" lon="7.688992788398897"><ele>1422.0</ele><time>2026-05-02T07:01:24.91Z</time></trkpt><trkpt lat="44.026701810998375" lon="7.6889788567774895"><ele>1422.0</ele><time>2026-05-02T07:01:25.91Z</time></trkpt><trkpt lat="44.02660999068372" lon="7.688978254049266"><ele>1422.0</ele><time>2026-05-02T07:01:26.909Z</time></trkpt><trkpt lat="44.028734682660414" lon="7.685361964870156"><ele>1432.3999999999999</ele><time>2026-05-02T07:02:27.91Z</time></trkpt><trkpt lat="44.02885826097392" lon="7.685272030892974"><ele>1442.8</ele><time>2026-05-02T07:02:29.91Z</time></trkpt><trkpt lat="44.028909295797675" lon="7.685175277321179"><ele>1453.2</ele><time>2026-05-02T07:02:30.909Z</time></trkpt><trkpt lat="44.0289528553447" lon="7.685063540749414"><ele>1463.6</ele><time>2026-05-02T07:02:31.909Z</time></trkpt><trkpt lat="44.029019049154655" lon="7.684969396431691"><ele>1474.0</ele><time>2026-05-02T07:02:32.909Z</time></trkpt><trkpt lat="44.02908762539671" lon="7.684867221427464"><ele>1476.0</ele><time>2026-05-02T07:02:33.909Z</time></trkpt><trkpt lat="44.029168833367805" lon="7.684783377792987"><ele>1478.0</ele><time>2026-05-02T07:02:34.909Z</time></trkpt><trkpt lat="44.02925641456585" lon="7.684704703253105"><ele>1480.0</ele><time>2026-05-02T07:02:35.909Z</time></trkpt><trkpt lat="44.029331462762585" lon="7.684623813410173"><ele>1482.0</ele><time>2026-05-02T07:02:36.909Z</time></trkpt><trkpt lat="44.02938692349733" lon="7.684556048574033"><ele>1484.0</ele><time>2026-05-02T07:02:37.909Z</time></trkpt><trkpt lat="44.02943787136357" lon="7.6844554553824915"><ele>1487.6</ele><time>2026-05-02T07:02:38.909Z</time></trkpt><trkpt lat="44.02948449696433" lon="7.684320950842494"><ele>1491.2</ele><time>2026-05-02T07:02:39.909Z</time></trkpt><trkpt lat="44.02953562782448" lon="7.68418831508574"><ele>1494.8</ele><time>2026-05-02T07:02:40.909Z</time></trkpt><trkpt lat="44.02958077831161" lon="7.684073644815374"><ele>1498.3999999999999</ele><time>2026-05-02T07:02:41.909Z</time></trkpt><trkpt lat="44.02962353990241" lon="7.683968806317713"><ele>1502.0</ele><time>2026-05-02T07:02:42.909Z</time></trkpt><trkpt lat="44.02971808028918" lon="7.68391459761868"><ele>1502.0</ele><time>2026-05-02T07:02:44.909Z</time></trkpt><trkpt lat="44.0298043247818" lon="7.684030218849031"><ele>1502.0</ele><time>2026-05-02T07:02:46.909Z</time></trkpt><trkpt lat="44.02981646303357" lon="7.684143717191374"><ele>1502.0</ele><time>2026-05-02T07:02:48.909Z</time></trkpt><trkpt lat="44.02981202731506" lon="7.684359528176052"><ele>1502.0</ele><time>2026-05-02T07:02:50.909Z</time></trkpt><trkpt lat="44.02980830960315" lon="7.684501257642781"><ele>1497.5</ele><time>2026-05-02T07:02:51.909Z</time></trkpt><trkpt lat="44.029797291602144" lon="7.684660719243276"><ele>1493.0</ele><time>2026-05-02T07:02:52.909Z</time></trkpt><trkpt lat="44.02977374508749" lon="7.684804984984805"><ele>1488.5</ele><time>2026-05-02T07:02:53.909Z</time></trkpt><trkpt lat="44.02973697056585" lon="7.684952392673528"><ele>1484.0</ele><time>2026-05-02T07:02:54.909Z</time></trkpt><trkpt lat="44.02969878634941" lon="7.685105266141617"><ele>1484.0</ele><time>2026-05-02T07:02:55.909Z</time></trkpt><trkpt lat="44.02965148395875" lon="7.685253326409743"><ele>1484.0</ele><time>2026-05-02T07:02:56.909Z</time></trkpt><trkpt lat="44.02961669086148" lon="7.685404004805713"><ele>1484.0</ele><time>2026-05-02T07:02:57.909Z</time></trkpt><trkpt lat="44.02958357556027" lon="7.685554792213018"><ele>1484.0</ele><time>2026-05-02T07:02:58.909Z</time></trkpt><trkpt lat="44.02956345948994" lon="7.685703957303211"><ele>1483.2</ele><time>2026-05-02T07:02:59.909Z</time></trkpt><trkpt lat="44.02955080025539" lon="7.685855185353334"><ele>1482.4</ele><time>2026-05-02T07:03:00.909Z</time></trkpt><trkpt lat="44.02954044864886" lon="7.6860065893853164"><ele>1481.6</ele><time>2026-05-02T07:03:01.908Z</time></trkpt><trkpt lat="44.02952536556182" lon="7.686146951760201"><ele>1480.8</ele><time>2026-05-02T07:03:02.908Z</time></trkpt><trkpt lat="44.029527409391015" lon="7.686299163910688"><ele>1480.0</ele><time>2026-05-02T07:03:03.908Z</time></trkpt><trkpt lat="44.02953499157718" lon="7.686439935730733"><ele>1481.3333333333333</ele><time>2026-05-02T07:03:04.908Z</time></trkpt><trkpt lat="44.02954765410683" lon="7.686572455802992"><ele>1482.6666666666665</ele><time>2026-05-02T07:03:05.908Z</time></trkpt><trkpt lat="44.02955105082529" lon="7.686693014357091"><ele>1484.0</ele><time>2026-05-02T07:03:06.908Z</time></trkpt><trkpt lat="44.02956636939584" lon="7.686797139998613"><ele>1485.3333333333333</ele><time>2026-05-02T07:03:07.908Z</time></trkpt><trkpt lat="44.02963679852887" lon="7.686892201310941"><ele>1486.6666666666667</ele><time>2026-05-02T07:03:09.908Z</time></trkpt><trkpt lat="44.02969380403406" lon="7.686853099766702"><ele>1488.0</ele><time>2026-05-02T07:03:10.908Z</time></trkpt><trkpt lat="44.029731400107906" lon="7.686774056667452"><ele>1488.0</ele><time>2026-05-02T07:03:11.908Z</time></trkpt><trkpt lat="44.029730185020675" lon="7.686672556468719"><ele>1488.0</ele><time>2026-05-02T07:03:12.908Z</time></trkpt><trkpt lat="44.0297125279995" lon="7.686541418455901"><ele>1488.0</ele><time>2026-05-02T07:03:13.908Z</time></trkpt><trkpt lat="44.02970774506406" lon="7.686410324836177"><ele>1488.0</ele><time>2026-05-02T07:03:14.908Z</time></trkpt><trkpt lat="44.029736501419585" lon="7.686280566561012"><ele>1488.0</ele><time>2026-05-02T07:03:15.908Z</time></trkpt><trkpt lat="44.02977891804256" lon="7.686154833358195"><ele>1486.4</ele><time>2026-05-02T07:03:16.908Z</time></trkpt><trkpt lat="44.02982674122061" lon="7.686033422634807"><ele>1484.8000000000002</ele><time>2026-05-02T07:03:17.908Z</time></trkpt><trkpt lat="44.02988025750694" lon="7.6859048016748055"><ele>1483.2</ele><time>2026-05-02T07:03:18.908Z</time></trkpt><trkpt lat="44.029931506281514" lon="7.6858117795008525"><ele>1481.6</ele><time>2026-05-02T07:03:19.908Z</time></trkpt><trkpt lat="44.02996706622116" lon="7.685706831210538"><ele>1480.0</ele><time>2026-05-02T07:03:20.908Z</time></trkpt><trkpt lat="44.0300097707482" lon="7.685600704233811"><ele>1484.4</ele><time>2026-05-02T07:03:21.908Z</time></trkpt><trkpt lat="44.03004135941415" lon="7.685506646043256"><ele>1488.8</ele><time>2026-05-02T07:03:22.908Z</time></trkpt><trkpt lat="44.030089919431745" lon="7.68539864328084"><ele>1493.1999999999998</ele><time>2026-05-02T07:03:23.908Z</time></trkpt><trkpt lat="44.0301324856115" lon="7.685268254120929"><ele>1497.6</ele><time>2026-05-02T07:03:24.908Z</time></trkpt><trkpt lat="44.03019383219711" lon="7.685168199803026"><ele>1502.0</ele><time>2026-05-02T07:03:25.908Z</time></trkpt><trkpt lat="44.03024315314444" lon="7.685046732340801"><ele>1538.0</ele><time>2026-05-02T07:03:26.908Z</time></trkpt><trkpt lat="44.032421505224434" lon="7.682828942211591"><ele>1540.4285714285713</ele><time>2026-05-02T07:04:27.908Z</time></trkpt><trkpt lat="44.03250258990222" lon="7.6828199982545975"><ele>1542.857142857143</ele><time>2026-05-02T07:04:28.908Z</time></trkpt><trkpt lat="44.03256502246135" lon="7.682845070131172"><ele>1545.2857142857142</ele><time>2026-05-02T07:04:29.908Z</time></trkpt><trkpt lat="44.032608861913154" lon="7.682913680368834"><ele>1547.7142857142858</ele><time>2026-05-02T07:04:30.908Z</time></trkpt><trkpt lat="44.03264295631159" lon="7.683014234991005"><ele>1550.1428571428573</ele><time>2026-05-02T07:04:31.908Z</time></trkpt><trkpt lat="44.03267531641251" lon="7.683094073813492"><ele>1552.5714285714287</ele><time>2026-05-02T07:04:32.908Z</time></trkpt><trkpt lat="44.032727990431844" lon="7.683143673440008"><ele>1555.0</ele><time>2026-05-02T07:04:34.908Z</time></trkpt><trkpt lat="44.03278848783366" lon="7.683089506740771"><ele>1555.0</ele><time>2026-05-02T07:04:36.908Z</time></trkpt><trkpt lat="44.03278610396665" lon="7.682926448906318"><ele>1555.0</ele><time>2026-05-02T07:04:38.908Z</time></trkpt><trkpt lat="44.032736245834414" lon="7.6827829502697025"><ele>1555.0</ele><time>2026-05-02T07:04:40.908Z</time></trkpt><trkpt lat="44.03273183971575" lon="7.682676594172396"><ele>1555.0</ele><time>2026-05-02T07:04:42.908Z</time></trkpt><trkpt lat="44.03272053645215" lon="7.682537037143717"><ele>1555.0</ele><time>2026-05-02T07:04:44.908Z</time></trkpt><trkpt lat="44.03261948907841" lon="7.682548148765569"><ele>1553.8333333333335</ele><time>2026-05-02T07:04:47.908Z</time></trkpt><trkpt lat="44.032549673241654" lon="7.682559238559926"><ele>1552.6666666666667</ele><time>2026-05-02T07:04:48.908Z</time></trkpt><trkpt lat="44.032478075101814" lon="7.682570053519896"><ele>1551.5</ele><time>2026-05-02T07:04:49.908Z</time></trkpt><trkpt lat="44.03239094933445" lon="7.6825492533476245"><ele>1550.3333333333335</ele><time>2026-05-02T07:04:50.908Z</time></trkpt><trkpt lat="44.03231423419217" lon="7.682506427990993"><ele>1549.1666666666667</ele><time>2026-05-02T07:04:51.908Z</time></trkpt><trkpt lat="44.032256400536795" lon="7.682455559045959"><ele>1548.0</ele><time>2026-05-02T07:04:52.908Z</time></trkpt><trkpt lat="44.03216904469407" lon="7.682338308144011"><ele>1548.0</ele><time>2026-05-02T07:04:54.908Z</time></trkpt><trkpt lat="44.032090990511335" lon="7.682220705273372"><ele>1548.0</ele><time>2026-05-02T07:04:56.907Z</time></trkpt><trkpt lat="44.032038962408" lon="7.682048658803982"><ele>1548.0</ele><time>2026-05-02T07:04:58.907Z</time></trkpt><trkpt lat="44.03199006568225" lon="7.681940478263421"><ele>1548.0</ele><time>2026-05-02T07:04:59.907Z</time></trkpt><trkpt lat="44.0319685955614" lon="7.681816359791993"><ele>1548.0</ele><time>2026-05-02T07:05:00.907Z</time></trkpt><trkpt lat="44.03195177200784" lon="7.681685075760251"><ele>1550.0</ele><time>2026-05-02T07:05:01.907Z</time></trkpt><trkpt lat="44.03192882089014" lon="7.681575907854045"><ele>1552.0</ele><time>2026-05-02T07:05:02.907Z</time></trkpt><trkpt lat="44.03191884172395" lon="7.6814760328935705"><ele>1554.0</ele><time>2026-05-02T07:05:03.907Z</time></trkpt><trkpt lat="44.03189855461634" lon="7.681365236235503"><ele>1556.0</ele><time>2026-05-02T07:05:04.907Z</time></trkpt><trkpt lat="44.0318957708167" lon="7.681244774996376"><ele>1558.0</ele><time>2026-05-02T07:05:05.907Z</time></trkpt><trkpt lat="44.03188698967262" lon="7.681112638202706"><ele>1560.0</ele><time>2026-05-02T07:05:06.907Z</time></trkpt><trkpt lat="44.03188036988323" lon="7.681001379510351"><ele>1561.8</ele><time>2026-05-02T07:05:07.907Z</time></trkpt><trkpt lat="44.03187925223652" lon="7.680876348401555"><ele>1563.6</ele><time>2026-05-02T07:05:08.907Z</time></trkpt><trkpt lat="44.03188855411388" lon="7.680751212384156"><ele>1565.4</ele><time>2026-05-02T07:05:09.907Z</time></trkpt><trkpt lat="44.03189494145707" lon="7.680604335162174"><ele>1567.2</ele><time>2026-05-02T07:05:10.907Z</time></trkpt><trkpt lat="44.03189552300142" lon="7.680470470414462"><ele>1569.0</ele><time>2026-05-02T07:05:11.907Z</time></trkpt><trkpt lat="44.03189000332839" lon="7.680351449996516"><ele>1570.3333333333333</ele><time>2026-05-02T07:05:12.907Z</time></trkpt><trkpt lat="44.03188276924135" lon="7.680232720890494"><ele>1571.6666666666665</ele><time>2026-05-02T07:05:13.907Z</time></trkpt><trkpt lat="44.03188405653223" lon="7.680114402695661"><ele>1573.0</ele><time>2026-05-02T07:05:14.907Z</time></trkpt><trkpt lat="44.03183560461481" lon="7.679990630714686"><ele>1574.3333333333333</ele><time>2026-05-02T07:05:16.907Z</time></trkpt><trkpt lat="44.03177928113679" lon="7.679939316135041"><ele>1575.6666666666665</ele><time>2026-05-02T07:05:17.907Z</time></trkpt><trkpt lat="44.03170104140343" lon="7.6798719530538095"><ele>1577.0</ele><time>2026-05-02T07:05:18.907Z</time></trkpt><trkpt lat="44.031615549910704" lon="7.6798230164306585"><ele>1576.9999999999998</ele><time>2026-05-02T07:05:19.907Z</time></trkpt><trkpt lat="44.03154203180135" lon="7.679778575145829"><ele>1577.0</ele><time>2026-05-02T07:05:20.907Z</time></trkpt><trkpt lat="44.03148011522373" lon="7.679715701308214"><ele>1577.0</ele><time>2026-05-02T07:05:21.907Z</time></trkpt><trkpt lat="44.031414392936924" lon="7.679659296325832"><ele>1577.0</ele><time>2026-05-02T07:05:22.907Z</time></trkpt><trkpt lat="44.03134623579705" lon="7.679581575370974"><ele>1576.9999999999998</ele><time>2026-05-02T07:05:23.907Z</time></trkpt><trkpt lat="44.031296763427086" lon="7.679497883321936"><ele>1577.0</ele><time>2026-05-02T07:05:24.907Z</time></trkpt><trkpt lat="44.03124310769566" lon="7.679418965997774"><ele>1588.5</ele><time>2026-05-02T07:05:25.906Z</time></trkpt><trkpt lat="44.03118640359826" lon="7.679342583965963"><ele>1600.0</ele><time>2026-05-02T07:05:26.906Z</time></trkpt><trkpt lat="44.0282717874659" lon="7.6805762055029225"><ele>1605.1666666666667</ele><time>2026-05-02T07:06:27.906Z</time></trkpt><trkpt lat="44.02819305972547" lon="7.68063170001558"><ele>1610.3333333333335</ele><time>2026-05-02T07:06:28.906Z</time></trkpt><trkpt lat="44.02812587282096" lon="7.680672465469969"><ele>1615.5</ele><time>2026-05-02T07:06:29.906Z</time></trkpt><trkpt lat="44.02804985704395" lon="7.680734990753744"><ele>1620.6666666666665</ele><time>2026-05-02T07:06:30.906Z</time></trkpt><trkpt lat="44.02797624935694" lon="7.680805236885598"><ele>1625.8333333333333</ele><time>2026-05-02T07:06:31.906Z</time></trkpt><trkpt lat="44.02790663067742" lon="7.680867343659702"><ele>1631.0</ele><time>2026-05-02T07:06:32.906Z</time></trkpt><trkpt lat="44.02782888350324" lon="7.680926429681026"><ele>1630.9999999999998</ele><time>2026-05-02T07:06:33.906Z</time></trkpt><trkpt lat="44.02775691478641" lon="7.680973104765592"><ele>1631.0</ele><time>2026-05-02T07:06:34.906Z</time></trkpt><trkpt lat="44.027686023005266" lon="7.681023900321475"><ele>1631.0</ele><time>2026-05-02T07:06:35.906Z</time></trkpt><trkpt lat="44.027611197643395" lon="7.681072337282249"><ele>1631.0</ele><time>2026-05-02T07:06:36.906Z</time></trkpt><trkpt lat="44.027541889805406" lon="7.681129229871137"><ele>1630.9999999999998</ele><time>2026-05-02T07:06:37.906Z</time></trkpt><trkpt lat="44.02747059879651" lon="7.681181245199068"><ele>1631.0</ele><time>2026-05-02T07:06:38.906Z</time></trkpt><trkpt lat="44.02739536602867" lon="7.681221524781333"><ele>1629.1666666666665</ele><time>2026-05-02T07:06:39.906Z</time></trkpt><trkpt lat="44.02731502727305" lon="7.681269640354748"><ele>1627.3333333333333</ele><time>2026-05-02T07:06:40.906Z</time></trkpt><trkpt lat="44.02723593358868" lon="7.681294088656154"><ele>1625.5</ele><time>2026-05-02T07:06:41.906Z</time></trkpt><trkpt lat="44.02717315956803" lon="7.681341545551281"><ele>1623.6666666666665</ele><time>2026-05-02T07:06:42.905Z</time></trkpt><trkpt lat="44.02710468980672" lon="7.681394145312819"><ele>1621.8333333333333</ele><time>2026-05-02T07:06:43.905Z</time></trkpt><trkpt lat="44.0270260349106" lon="7.681426874578049"><ele>1620.0</ele><time>2026-05-02T07:06:44.905Z</time></trkpt><trkpt lat="44.02694336942675" lon="7.681453619389575"><ele>1620.0</ele><time>2026-05-02T07:06:45.905Z</time></trkpt><trkpt lat="44.026871987079666" lon="7.681470669603186"><ele>1620.0</ele><time>2026-05-02T07:06:46.905Z</time></trkpt><trkpt lat="44.02679398969596" lon="7.681487335156192"><ele>1620.0</ele><time>2026-05-02T07:06:47.905Z</time></trkpt><trkpt lat="44.026716321561544" lon="7.681508185713989"><ele>1620.0</ele><time>2026-05-02T07:06:48.905Z</time></trkpt><trkpt lat="44.02665398495611" lon="7.6815376250688345"><ele>1620.0</ele><time>2026-05-02T07:06:49.905Z</time></trkpt><trkpt lat="44.02656406794564" lon="7.681601236842746"><ele>1620.0</ele><time>2026-05-02T07:06:51.905Z</time></trkpt><trkpt lat="44.026480009701764" lon="7.681626374182144"><ele>1618.5</ele><time>2026-05-02T07:06:53.905Z</time></trkpt><trkpt lat="44.026388442589436" lon="7.681628415410172"><ele>1617.0</ele><time>2026-05-02T07:06:55.905Z</time></trkpt><trkpt lat="44.02633932627988" lon="7.681559588913782"><ele>1615.5</ele><time>2026-05-02T07:06:57.905Z</time></trkpt><trkpt lat="44.02638657878913" lon="7.681500182346747"><ele>1614.0</ele><time>2026-05-02T07:06:59.905Z</time></trkpt><trkpt lat="44.02646939236567" lon="7.681498817357506"><ele>1612.5</ele><time>2026-05-02T07:07:01.905Z</time></trkpt><trkpt lat="44.026555829394056" lon="7.681463597449927"><ele>1611.0</ele><time>2026-05-02T07:07:03.904Z</time></trkpt><trkpt lat="44.02663954959303" lon="7.6813848713836945"><ele>1612.8</ele><time>2026-05-02T07:07:05.901Z</time></trkpt><trkpt lat="44.02672540888538" lon="7.681308833216382"><ele>1614.6</ele><time>2026-05-02T07:07:07.898Z</time></trkpt><trkpt lat="44.02680622804926" lon="7.681225969245128"><ele>1616.4</ele><time>2026-05-02T07:07:09.895Z</time></trkpt><trkpt lat="44.02685177727289" lon="7.681159562586217"><ele>1618.2</ele><time>2026-05-02T07:07:10.894Z</time></trkpt><trkpt lat="44.0269481893406" lon="7.681039072619175"><ele>1620.0</ele><time>2026-05-02T07:07:12.892Z</time></trkpt><trkpt lat="44.02702633258034" lon="7.680923141440136"><ele>1622.6</ele><time>2026-05-02T07:07:14.89Z</time></trkpt><trkpt lat="44.02707618733562" lon="7.680863888102037"><ele>1625.2</ele><time>2026-05-02T07:07:15.89Z</time></trkpt><trkpt lat="44.027121063171734" lon="7.680801102249847"><ele>1627.8000000000002</ele><time>2026-05-02T07:07:16.889Z</time></trkpt><trkpt lat="44.02718911870187" lon="7.6806880746693755"><ele>1630.4</ele><time>2026-05-02T07:07:18.887Z</time></trkpt><trkpt lat="44.02724518192976" lon="7.680557468493393"><ele>1633.0</ele><time>2026-05-02T07:07:20.886Z</time></trkpt><trkpt lat="44.02734198520868" lon="7.680413702073882"><ele>1633.0</ele><time>2026-05-02T07:07:22.885Z</time></trkpt><trkpt lat="44.027391511861474" lon="7.680344661871591"><ele>1633.0</ele><time>2026-05-02T07:07:23.885Z</time></trkpt><trkpt lat="44.027509782279324" lon="7.680239912163552"><ele>1633.0</ele><time>2026-05-02T07:07:25.884Z</time></trkpt><trkpt lat="44.030978042793755" lon="7.677034914622171"><ele>1636.3333333333335</ele><time>2026-05-02T07:08:27.878Z</time></trkpt><trkpt lat="44.0310633315836" lon="7.6770409604292835"><ele>1639.6666666666667</ele><time>2026-05-02T07:08:28.878Z</time></trkpt><trkpt lat="44.03115346170827" lon="7.6770458650227535"><ele>1643.0</ele><time>2026-05-02T07:08:29.878Z</time></trkpt><trkpt lat="44.031242152459726" lon="7.677035426724091"><ele>1646.3333333333335</ele><time>2026-05-02T07:08:30.878Z</time></trkpt><trkpt lat="44.03130551685694" lon="7.677012094987449"><ele>1649.6666666666667</ele><time>2026-05-02T07:08:31.878Z</time></trkpt><trkpt lat="44.03141664757415" lon="7.676977740616211"><ele>1653.0</ele><time>2026-05-02T07:08:33.878Z</time></trkpt><trkpt lat="44.031539722393376" lon="7.676991205900744"><ele>1655.2</ele><time>2026-05-02T07:08:35.877Z</time></trkpt><trkpt lat="44.031655410119484" lon="7.677049393277608"><ele>1657.4</ele><time>2026-05-02T07:08:37.877Z</time></trkpt><trkpt lat="44.03173030235967" lon="7.677089983684348"><ele>1659.6000000000001</ele><time>2026-05-02T07:08:38.877Z</time></trkpt><trkpt lat="44.03179400419323" lon="7.677141135272263"><ele>1661.8000000000002</ele><time>2026-05-02T07:08:39.877Z</time></trkpt><trkpt lat="44.03186354199437" lon="7.677210370407422"><ele>1664.0</ele><time>2026-05-02T07:08:40.877Z</time></trkpt><trkpt lat="44.03192043333784" lon="7.677305113459296"><ele>1664.0</ele><time>2026-05-02T07:08:41.877Z</time></trkpt><trkpt lat="44.03197478509796" lon="7.677411171773311"><ele>1664.0</ele><time>2026-05-02T07:08:42.877Z</time></trkpt><trkpt lat="44.03202357223707" lon="7.677505979592719"><ele>1664.0</ele><time>2026-05-02T07:08:43.877Z</time></trkpt><trkpt lat="44.032065855334054" lon="7.677580412706851"><ele>1664.0</ele><time>2026-05-02T07:08:44.877Z</time></trkpt><trkpt lat="44.0321045594198" lon="7.677650153342274"><ele>1664.0</ele><time>2026-05-02T07:08:45.877Z</time></trkpt><trkpt lat="44.03215368956257" lon="7.677712607466261"><ele>1664.0</ele><time>2026-05-02T07:08:46.877Z</time></trkpt><trkpt lat="44.03220963426487" lon="7.6777742707496675"><ele>1664.0</ele><time>2026-05-02T07:08:47.877Z</time></trkpt><trkpt lat="44.032281384299615" lon="7.677827286434223"><ele>1664.3333333333333</ele><time>2026-05-02T07:08:48.877Z</time></trkpt><trkpt lat="44.03237018138107" lon="7.677869495270813"><ele>1664.6666666666665</ele><time>2026-05-02T07:08:49.877Z</time></trkpt><trkpt lat="44.032446924948125" lon="7.677918466302032"><ele>1665.0</ele><time>2026-05-02T07:08:50.877Z</time></trkpt><trkpt lat="44.03253612736695" lon="7.677964747000608"><ele>1665.3333333333335</ele><time>2026-05-02T07:08:51.877Z</time></trkpt><trkpt lat="44.032610433872804" lon="7.677997695207656"><ele>1665.6666666666667</ele><time>2026-05-02T07:08:52.877Z</time></trkpt><trkpt lat="44.03267642135263" lon="7.678010282124955"><ele>1666.0</ele><time>2026-05-02T07:08:53.877Z</time></trkpt><trkpt lat="44.032754256158164" lon="7.678016706487823"><ele>1666.0000000000002</ele><time>2026-05-02T07:08:54.877Z</time></trkpt><trkpt lat="44.0328326421155" lon="7.678061949536677"><ele>1666.0</ele><time>2026-05-02T07:08:55.877Z</time></trkpt><trkpt lat="44.032908883533466" lon="7.678109508866147"><ele>1666.0</ele><time>2026-05-02T07:08:56.877Z</time></trkpt><trkpt lat="44.03298305823229" lon="7.678149415436986"><ele>1666.0</ele><time>2026-05-02T07:08:57.877Z</time></trkpt><trkpt lat="44.033051722699575" lon="7.678193224974541"><ele>1666.0000000000002</ele><time>2026-05-02T07:08:58.877Z</time></trkpt><trkpt lat="44.033122085120226" lon="7.6782659868892145"><ele>1666.0</ele><time>2026-05-02T07:08:59.877Z</time></trkpt><trkpt lat="44.03318204162925" lon="7.678344647041452"><ele>1666.0000000000002</ele><time>2026-05-02T07:09:00.876Z</time></trkpt><trkpt lat="44.03325855927114" lon="7.678423045658572"><ele>1666.0</ele><time>2026-05-02T07:09:01.876Z</time></trkpt><trkpt lat="44.03333873571074" lon="7.67848825636925"><ele>1666.0</ele><time>2026-05-02T07:09:02.876Z</time></trkpt><trkpt lat="44.03340425370601" lon="7.678563720293582"><ele>1666.0</ele><time>2026-05-02T07:09:03.876Z</time></trkpt><trkpt lat="44.033469627846735" lon="7.678643839997717"><ele>1666.0000000000002</ele><time>2026-05-02T07:09:04.876Z</time></trkpt><trkpt lat="44.033525818982184" lon="7.678737537650199"><ele>1666.0</ele><time>2026-05-02T07:09:05.876Z</time></trkpt><trkpt lat="44.033572796783865" lon="7.678836238568748"><ele>1667.0000000000002</ele><time>2026-05-02T07:09:06.876Z</time></trkpt><trkpt lat="44.03361072298227" lon="7.6789389518008635"><ele>1668.0</ele><time>2026-05-02T07:09:07.876Z</time></trkpt><trkpt lat="44.033633863145006" lon="7.6790355695961905"><ele>1669.0</ele><time>2026-05-02T07:09:08.876Z</time></trkpt><trkpt lat="44.03366799718671" lon="7.679192194053114"><ele>1670.0</ele><time>2026-05-02T07:09:10.876Z</time></trkpt><trkpt lat="44.03372011105189" lon="7.679268449809199"><ele>1671.0000000000002</ele><time>2026-05-02T07:09:12.876Z</time></trkpt><trkpt lat="44.03378393028091" lon="7.6792792751640215"><ele>1672.0</ele><time>2026-05-02T07:09:14.876Z</time></trkpt><trkpt lat="44.033811294186826" lon="7.679161673562282"><ele>1728.0</ele><time>2026-05-02T07:09:26.875Z</time></trkpt><trkpt lat="44.030573028828584" lon="7.675399125866207"><ele>1728.0</ele><time>2026-05-02T07:10:27.876Z</time></trkpt><trkpt lat="44.03049171783671" lon="7.675367132117356"><ele>1728.0</ele><time>2026-05-02T07:10:28.876Z</time></trkpt><trkpt lat="44.03041402904767" lon="7.675360697151539"><ele>1728.0</ele><time>2026-05-02T07:10:29.876Z</time></trkpt><trkpt lat="44.03033929542818" lon="7.67535391865358"><ele>1728.0</ele><time>2026-05-02T07:10:30.875Z</time></trkpt><trkpt lat="44.03021925709851" lon="7.675415713259232"><ele>1728.0</ele><time>2026-05-02T07:10:32.875Z</time></trkpt><trkpt lat="44.03014820168906" lon="7.675422403741932"><ele>1728.0</ele><time>2026-05-02T07:10:33.875Z</time></trkpt><trkpt lat="44.03005233504803" lon="7.675459475025416"><ele>1726.5</ele><time>2026-05-02T07:10:35.875Z</time></trkpt><trkpt lat="44.02995503957804" lon="7.675466795219001"><ele>1725.0</ele><time>2026-05-02T07:10:37.875Z</time></trkpt><trkpt lat="44.02987034249687" lon="7.675490226230736"><ele>1723.5</ele><time>2026-05-02T07:10:39.875Z</time></trkpt><trkpt lat="44.02973266405553" lon="7.675551840516057"><ele>1722.0</ele><time>2026-05-02T07:10:41.875Z</time></trkpt><trkpt lat="44.02961195068585" lon="7.675588268730062"><ele>1722.0</ele><time>2026-05-02T07:10:43.875Z</time></trkpt><trkpt lat="44.0295162785034" lon="7.675542391211028"><ele>1722.0</ele><time>2026-05-02T07:10:45.875Z</time></trkpt><trkpt lat="44.02946061026511" lon="7.675403412079194"><ele>1722.0</ele><time>2026-05-02T07:10:47.875Z</time></trkpt><trkpt lat="44.029450877197505" lon="7.675301393452856"><ele>1722.0</ele><time>2026-05-02T07:10:48.875Z</time></trkpt><trkpt lat="44.02943960587822" lon="7.67519869006711"><ele>1722.0</ele><time>2026-05-02T07:10:49.875Z</time></trkpt><trkpt lat="44.029419524632424" lon="7.675095276864357"><ele>1722.0</ele><time>2026-05-02T07:10:50.875Z</time></trkpt><trkpt lat="44.02940482386537" lon="7.674994693095645"><ele>1723.3333333333333</ele><time>2026-05-02T07:10:51.875Z</time></trkpt><trkpt lat="44.029384297312866" lon="7.674891555260272"><ele>1724.6666666666665</ele><time>2026-05-02T07:10:52.875Z</time></trkpt><trkpt lat="44.029368018512564" lon="7.674795460707213"><ele>1726.0</ele><time>2026-05-02T07:10:53.875Z</time></trkpt><trkpt lat="44.02937208980355" lon="7.67468469386238"><ele>1727.3333333333333</ele><time>2026-05-02T07:10:54.875Z</time></trkpt><trkpt lat="44.02937680482423" lon="7.6745870207040285"><ele>1728.6666666666665</ele><time>2026-05-02T07:10:55.875Z</time></trkpt><trkpt lat="44.02940554788269" lon="7.674488457114757"><ele>1730.0</ele><time>2026-05-02T07:10:56.874Z</time></trkpt><trkpt lat="44.02943731293542" lon="7.674393022998021"><ele>1729.9999999999998</ele><time>2026-05-02T07:10:57.874Z</time></trkpt><trkpt lat="44.029470975604845" lon="7.67431804002942"><ele>1730.0</ele><time>2026-05-02T07:10:58.874Z</time></trkpt><trkpt lat="44.0295130079865" lon="7.674172317847617"><ele>1730.0</ele><time>2026-05-02T07:11:00.874Z</time></trkpt><trkpt lat="44.029543735576205" lon="7.674083546716197"><ele>1730.0</ele><time>2026-05-02T07:11:01.874Z</time></trkpt><trkpt lat="44.02957784460756" lon="7.673993912671481"><ele>1729.9999999999998</ele><time>2026-05-02T07:11:02.874Z</time></trkpt><trkpt lat="44.02962003049094" lon="7.67389954798709"><ele>1730.0</ele><time>2026-05-02T07:11:03.874Z</time></trkpt><trkpt lat="44.02965989222969" lon="7.673794627280953"><ele>1729.9999999999998</ele><time>2026-05-02T07:11:04.874Z</time></trkpt><trkpt lat="44.02968918064242" lon="7.673692221746451"><ele>1730.0</ele><time>2026-05-02T07:11:05.874Z</time></trkpt><trkpt lat="44.029711959426166" lon="7.673592601738949"><ele>1730.0</ele><time>2026-05-02T07:11:06.874Z</time></trkpt><trkpt lat="44.02971687712176" lon="7.67349568720234"><ele>1730.0</ele><time>2026-05-02T07:11:07.874Z</time></trkpt><trkpt lat="44.02973081635514" lon="7.673391468683582"><ele>1729.9999999999998</ele><time>2026-05-02T07:11:08.874Z</time></trkpt><trkpt lat="44.02972737755513" lon="7.673280782547585"><ele>1730.0</ele><time>2026-05-02T07:11:09.874Z</time></trkpt><trkpt lat="44.02973409679903" lon="7.673170928975918"><ele>1729.4</ele><time>2026-05-02T07:11:10.874Z</time></trkpt><trkpt lat="44.02973315170267" lon="7.673076143167324"><ele>1728.8</ele><time>2026-05-02T07:11:11.874Z</time></trkpt><trkpt lat="44.02973794885279" lon="7.672906439909465"><ele>1728.1999999999998</ele><time>2026-05-02T07:11:13.874Z</time></trkpt><trkpt lat="44.02973107146404" lon="7.672811905407242"><ele>1727.6</ele><time>2026-05-02T07:11:14.874Z</time></trkpt><trkpt lat="44.029723964766625" lon="7.672722335535276"><ele>1727.0</ele><time>2026-05-02T07:11:15.874Z</time></trkpt><trkpt lat="44.02974591269436" lon="7.6725475539348125"><ele>1727.0</ele><time>2026-05-02T07:11:17.874Z</time></trkpt><trkpt lat="44.02977649700452" lon="7.672465194679693"><ele>1727.0</ele><time>2026-05-02T07:11:18.874Z</time></trkpt><trkpt lat="44.029793934798164" lon="7.672362187986064"><ele>1727.0</ele><time>2026-05-02T07:11:19.874Z</time></trkpt><trkpt lat="44.02982184430901" lon="7.67227825919303"><ele>1727.0</ele><time>2026-05-02T07:11:20.874Z</time></trkpt><trkpt lat="44.02984587217871" lon="7.672188389877457"><ele>1727.0</ele><time>2026-05-02T07:11:21.874Z</time></trkpt><trkpt lat="44.02986458890114" lon="7.672095099147174"><ele>1727.0</ele><time>2026-05-02T07:11:22.873Z</time></trkpt><trkpt lat="44.029886862217545" lon="7.67199764044405"><ele>1727.0</ele><time>2026-05-02T07:11:23.873Z</time></trkpt><trkpt lat="44.02991765774819" lon="7.671911337311115"><ele>1724.6666666666665</ele><time>2026-05-02T07:11:24.873Z</time></trkpt><trkpt lat="44.02997448041078" lon="7.671833411794586"><ele>1722.3333333333335</ele><time>2026-05-02T07:11:25.873Z</time></trkpt><trkpt lat="44.03003757134296" lon="7.6717413896186395"><ele>1720.0</ele><time>2026-05-02T07:11:26.873Z</time></trkpt><trkpt lat="44.03057739248455" lon="7.6697062357571415"><ele>1741.0</ele><time>2026-05-02T07:12:48.873Z</time></trkpt><trkpt lat="44.0303280964045" lon="7.6710655272356405"><ele>1742.6666666666667</ele><time>2026-05-02T07:20:27.863Z</time></trkpt><trkpt lat="44.030276661829234" lon="7.671188003081176"><ele>1744.3333333333335</ele><time>2026-05-02T07:20:29.863Z</time></trkpt><trkpt lat="44.030231386570186" lon="7.6712968370608365"><ele>1746.0</ele><time>2026-05-02T07:20:31.863Z</time></trkpt><trkpt lat="44.0301930022348" lon="7.6713799879482405"><ele>1747.6666666666665</ele><time>2026-05-02T07:20:32.862Z</time></trkpt><trkpt lat="44.030156100722486" lon="7.671462526725096"><ele>1749.3333333333333</ele><time>2026-05-02T07:20:33.862Z</time></trkpt><trkpt lat="44.03011801475942" lon="7.671538897531504"><ele>1751.0</ele><time>2026-05-02T07:20:34.862Z</time></trkpt><trkpt lat="44.030078908762334" lon="7.671612998492424"><ele>1751.0</ele><time>2026-05-02T07:20:35.862Z</time></trkpt><trkpt lat="44.03003540935173" lon="7.671690374108155"><ele>1751.0</ele><time>2026-05-02T07:20:36.862Z</time></trkpt><trkpt lat="44.029997177319665" lon="7.671764412104321"><ele>1751.0</ele><time>2026-05-02T07:20:37.862Z</time></trkpt><trkpt lat="44.029925189873474" lon="7.671894112370212"><ele>1751.0</ele><time>2026-05-02T07:20:39.862Z</time></trkpt><trkpt lat="44.029870121902334" lon="7.672014418231948"><ele>1751.0</ele><time>2026-05-02T07:20:41.862Z</time></trkpt><trkpt lat="44.02983274205134" lon="7.672151952824907"><ele>1746.1999999999998</ele><time>2026-05-02T07:20:43.862Z</time></trkpt><trkpt lat="44.029804974552384" lon="7.672296379746985"><ele>1741.3999999999999</ele><time>2026-05-02T07:20:45.864Z</time></trkpt><trkpt lat="44.02975978405405" lon="7.672446268337786"><ele>1736.6</ele><time>2026-05-02T07:20:47.864Z</time></trkpt><trkpt lat="44.029734217043654" lon="7.672581430492242"><ele>1731.8</ele><time>2026-05-02T07:20:49.864Z</time></trkpt><trkpt lat="44.02971912472307" lon="7.672746329536818"><ele>1727.0</ele><time>2026-05-02T07:20:51.864Z</time></trkpt><trkpt lat="44.02972270291628" lon="7.6728408673949"><ele>1726.25</ele><time>2026-05-02T07:20:52.864Z</time></trkpt><trkpt lat="44.029724328577245" lon="7.6729941814680265"><ele>1725.5</ele><time>2026-05-02T07:20:54.864Z</time></trkpt><trkpt lat="44.02972551403818" lon="7.6731539615157685"><ele>1724.75</ele><time>2026-05-02T07:20:56.864Z</time></trkpt><trkpt lat="44.0297198217858" lon="7.673320529210115"><ele>1724.0</ele><time>2026-05-02T07:20:58.864Z</time></trkpt><trkpt lat="44.02972028751842" lon="7.673480173057237"><ele>1725.2</ele><time>2026-05-02T07:21:00.864Z</time></trkpt><trkpt lat="44.029698949730616" lon="7.673623788286189"><ele>1726.4</ele><time>2026-05-02T07:21:02.864Z</time></trkpt><trkpt lat="44.02966285607214" lon="7.673749786303748"><ele>1727.6</ele><time>2026-05-02T07:21:04.864Z</time></trkpt><trkpt lat="44.029646673941635" lon="7.673839070858357"><ele>1728.8</ele><time>2026-05-02T07:21:05.864Z</time></trkpt><trkpt lat="44.02958931169913" lon="7.673940246585016"><ele>1730.0</ele><time>2026-05-02T07:21:07.864Z</time></trkpt><trkpt lat="44.029521796274594" lon="7.6740787994617525"><ele>1730.0</ele><time>2026-05-02T07:21:09.863Z</time></trkpt><trkpt lat="44.029487515095155" lon="7.674158355956503"><ele>1730.0</ele><time>2026-05-02T07:21:10.863Z</time></trkpt><trkpt lat="44.02943937983596" lon="7.674295700565079"><ele>1730.0</ele><time>2026-05-02T07:21:12.863Z</time></trkpt><trkpt lat="44.029398336560675" lon="7.674427040182584"><ele>1730.0</ele><time>2026-05-02T07:21:14.863Z</time></trkpt><trkpt lat="44.02936321700167" lon="7.674570104303495"><ele>1730.0</ele><time>2026-05-02T07:21:16.863Z</time></trkpt><trkpt lat="44.02933467973643" lon="7.674744944697361"><ele>1730.1666666666665</ele><time>2026-05-02T07:21:18.863Z</time></trkpt><trkpt lat="44.02935347252399" lon="7.6749320490584685"><ele>1730.3333333333333</ele><time>2026-05-02T07:21:20.863Z</time></trkpt><trkpt lat="44.02935094676431" lon="7.675030874280433"><ele>1730.5</ele><time>2026-05-02T07:21:21.863Z</time></trkpt><trkpt lat="44.029348213433806" lon="7.675127756658301"><ele>1730.6666666666665</ele><time>2026-05-02T07:21:22.863Z</time></trkpt><trkpt lat="44.029358219153" lon="7.675222908894966"><ele>1730.8333333333333</ele><time>2026-05-02T07:21:23.863Z</time></trkpt><trkpt lat="44.029380621652486" lon="7.6753087512131595"><ele>1731.0</ele><time>2026-05-02T07:21:24.863Z</time></trkpt><trkpt lat="44.02939033715442" lon="7.675395371424538"><ele>1693.0</ele><time>2026-05-02T07:21:25.863Z</time></trkpt><trkpt lat="44.03227434604386" lon="7.676214957386055"><ele>1697.3333333333335</ele><time>2026-05-02T07:22:27.861Z</time></trkpt><trkpt lat="44.032301763556156" lon="7.676100613375706"><ele>1701.6666666666667</ele><time>2026-05-02T07:22:29.86Z</time></trkpt><trkpt lat="44.0323189902906" lon="7.675969067705901"><ele>1706.0</ele><time>2026-05-02T07:22:31.86Z</time></trkpt><trkpt lat="44.03233765212178" lon="7.6758396806874325"><ele>1710.3333333333335</ele><time>2026-05-02T07:22:33.86Z</time></trkpt><trkpt lat="44.032324330160044" lon="7.675719055375687"><ele>1714.6666666666667</ele><time>2026-05-02T07:22:35.86Z</time></trkpt><trkpt lat="44.03231798487164" lon="7.6756304898213035"><ele>1719.0</ele><time>2026-05-02T07:22:37.86Z</time></trkpt><trkpt lat="44.032285723999735" lon="7.675522462235876"><ele>1719.0</ele><time>2026-05-02T07:22:39.86Z</time></trkpt><trkpt lat="44.03224660861352" lon="7.675404816298602"><ele>1719.0</ele><time>2026-05-02T07:22:41.86Z</time></trkpt><trkpt lat="44.03218425124957" lon="7.675246355238637"><ele>1719.0</ele><time>2026-05-02T07:22:43.86Z</time></trkpt><trkpt lat="44.03213267239086" lon="7.675116599661982"><ele>1719.0</ele><time>2026-05-02T07:22:45.86Z</time></trkpt><trkpt lat="44.03208291928004" lon="7.674978038892981"><ele>1719.0</ele><time>2026-05-02T07:22:47.86Z</time></trkpt><trkpt lat="44.03203363008149" lon="7.67485029405526"><ele>1720.0</ele><time>2026-05-02T07:22:49.86Z</time></trkpt><trkpt lat="44.031982883211285" lon="7.674759714909421"><ele>1721.0</ele><time>2026-05-02T07:22:51.862Z</time></trkpt><trkpt lat="44.03191539006306" lon="7.674638442255702"><ele>1722.0</ele><time>2026-05-02T07:22:53.861Z</time></trkpt><trkpt lat="44.03183070716514" lon="7.674477576049943"><ele>1723.0</ele><time>2026-05-02T07:22:55.861Z</time></trkpt><trkpt lat="44.03178856057938" lon="7.674399872474744"><ele>1724.0</ele><time>2026-05-02T07:22:56.861Z</time></trkpt><trkpt lat="44.03171338435001" lon="7.674282545549046"><ele>1721.0</ele><time>2026-05-02T07:22:58.861Z</time></trkpt><trkpt lat="44.03164333201129" lon="7.674145453665594"><ele>1718.0</ele><time>2026-05-02T07:23:00.861Z</time></trkpt><trkpt lat="44.03159765349309" lon="7.674026933098754"><ele>1715.0</ele><time>2026-05-02T07:23:02.861Z</time></trkpt><trkpt lat="44.031587667175984" lon="7.673911010875064"><ele>1712.0</ele><time>2026-05-02T07:23:04.862Z</time></trkpt><trkpt lat="44.03155392029234" lon="7.673795272791407"><ele>1709.0</ele><time>2026-05-02T07:23:06.862Z</time></trkpt><trkpt lat="44.0315149160773" lon="7.673661355321754"><ele>1713.8000000000002</ele><time>2026-05-02T07:23:08.862Z</time></trkpt><trkpt lat="44.031449331287696" lon="7.6735384029389255"><ele>1718.6000000000001</ele><time>2026-05-02T07:23:10.862Z</time></trkpt><trkpt lat="44.03140996665786" lon="7.673447921964412"><ele>1723.4</ele><time>2026-05-02T07:23:12.862Z</time></trkpt><trkpt lat="44.03137253828046" lon="7.673368987285652"><ele>1728.2</ele><time>2026-05-02T07:23:14.861Z</time></trkpt><trkpt lat="44.03132929697591" lon="7.673301549841918"><ele>1733.0</ele><time>2026-05-02T07:23:17.861Z</time></trkpt><trkpt lat="44.03319079453728" lon="7.670860916352658"><ele>1723.4</ele><time>2026-05-02T07:26:27.856Z</time></trkpt><trkpt lat="44.03325512310113" lon="7.670924692680049"><ele>1713.8000000000002</ele><time>2026-05-02T07:26:28.856Z</time></trkpt><trkpt lat="44.033313993432074" lon="7.67096932504636"><ele>1704.2</ele><time>2026-05-02T07:26:29.856Z</time></trkpt><trkpt lat="44.03338989972207" lon="7.671052492927594"><ele>1694.6</ele><time>2026-05-02T07:26:31.856Z</time></trkpt><trkpt lat="44.03346184691044" lon="7.671135344004043"><ele>1685.0</ele><time>2026-05-02T07:26:33.856Z</time></trkpt><trkpt lat="44.03357376985794" lon="7.671198682144734"><ele>1682.6</ele><time>2026-05-02T07:26:35.856Z</time></trkpt><trkpt lat="44.03370277241462" lon="7.671207992878381"><ele>1680.2</ele><time>2026-05-02T07:26:37.856Z</time></trkpt><trkpt lat="44.033771477478844" lon="7.671191310845816"><ele>1677.8000000000002</ele><time>2026-05-02T07:26:38.855Z</time></trkpt><trkpt lat="44.03387869334423" lon="7.671146040134087"><ele>1675.4</ele><time>2026-05-02T07:26:39.855Z</time></trkpt><trkpt lat="44.033964100384566" lon="7.671116777530827"><ele>1673.0</ele><time>2026-05-02T07:26:40.855Z</time></trkpt><trkpt lat="44.03405944506069" lon="7.671086819499217"><ele>1672.9999999999998</ele><time>2026-05-02T07:26:41.855Z</time></trkpt><trkpt lat="44.03412201407688" lon="7.671045868461033"><ele>1673.0</ele><time>2026-05-02T07:26:42.855Z</time></trkpt><trkpt lat="44.03425286560552" lon="7.671046600628079"><ele>1673.0</ele><time>2026-05-02T07:26:44.855Z</time></trkpt><trkpt lat="44.03431914478675" lon="7.671036714306253"><ele>1673.0</ele><time>2026-05-02T07:26:45.855Z</time></trkpt><trkpt lat="44.03438448138126" lon="7.671032148499874"><ele>1672.9999999999998</ele><time>2026-05-02T07:26:46.855Z</time></trkpt><trkpt lat="44.03445604044791" lon="7.671023163900348"><ele>1673.0</ele><time>2026-05-02T07:26:47.855Z</time></trkpt><trkpt lat="44.03457199713529" lon="7.671011253923509"><ele>1674.2</ele><time>2026-05-02T07:26:49.855Z</time></trkpt><trkpt lat="44.03466429697741" lon="7.670973334471166"><ele>1675.4</ele><time>2026-05-02T07:26:50.855Z</time></trkpt><trkpt lat="44.03476185859424" lon="7.67091490589891"><ele>1676.6000000000001</ele><time>2026-05-02T07:26:51.855Z</time></trkpt><trkpt lat="44.03483203624172" lon="7.670862296642064"><ele>1677.8000000000002</ele><time>2026-05-02T07:26:52.855Z</time></trkpt><trkpt lat="44.03489516232227" lon="7.670834586336139"><ele>1679.0</ele><time>2026-05-02T07:26:53.855Z</time></trkpt><trkpt lat="44.03500477138836" lon="7.670815046392252"><ele>1676.9999999999998</ele><time>2026-05-02T07:26:55.855Z</time></trkpt><trkpt lat="44.0350666373272" lon="7.670776349560531"><ele>1675.0</ele><time>2026-05-02T07:26:56.855Z</time></trkpt><trkpt lat="44.035125730720694" lon="7.670730149928508"><ele>1673.0</ele><time>2026-05-02T07:26:57.855Z</time></trkpt><trkpt lat="44.03523122616933" lon="7.670662883870365"><ele>1671.0</ele><time>2026-05-02T07:26:59.855Z</time></trkpt><trkpt lat="44.03534819328719" lon="7.6706274948353315"><ele>1668.9999999999998</ele><time>2026-05-02T07:27:01.855Z</time></trkpt><trkpt lat="44.0354119656622" lon="7.670599299706229"><ele>1667.0</ele><time>2026-05-02T07:27:02.857Z</time></trkpt><trkpt lat="44.035467744506555" lon="7.670556860602538"><ele>1667.0</ele><time>2026-05-02T07:27:03.856Z</time></trkpt><trkpt lat="44.035599697826875" lon="7.6704718676776364"><ele>1667.0</ele><time>2026-05-02T07:27:05.857Z</time></trkpt><trkpt lat="44.03570521385881" lon="7.670440276595839"><ele>1667.0</ele><time>2026-05-02T07:27:07.857Z</time></trkpt><trkpt lat="44.03577667353612" lon="7.670422284359184"><ele>1667.0</ele><time>2026-05-02T07:27:09.857Z</time></trkpt><trkpt lat="44.035839716309866" lon="7.670391366651631"><ele>1667.0</ele><time>2026-05-02T07:27:10.857Z</time></trkpt><trkpt lat="44.03592371905937" lon="7.670338457979246"><ele>1668.0</ele><time>2026-05-02T07:27:12.857Z</time></trkpt><trkpt lat="44.0359973236237" lon="7.670275863264308"><ele>1669.0</ele><time>2026-05-02T07:27:15.857Z</time></trkpt><trkpt lat="44.03605455129948" lon="7.670218293451901"><ele>1670.0</ele><time>2026-05-02T07:27:19.857Z</time></trkpt><trkpt lat="44.036118127245715" lon="7.670140873583617"><ele>1671.0</ele><time>2026-05-02T07:27:23.856Z</time></trkpt><trkpt lat="44.036193445274584" lon="7.670069844404806"><ele>1672.0</ele><time>2026-05-02T07:27:26.856Z</time></trkpt><trkpt lat="44.038430959875065" lon="7.668034940560828"><ele>1665.0000000000002</ele><time>2026-05-02T07:28:27.854Z</time></trkpt><trkpt lat="44.03849494594706" lon="7.668056660991034"><ele>1658.0</ele><time>2026-05-02T07:28:28.854Z</time></trkpt><trkpt lat="44.03857517436318" lon="7.668087656399778"><ele>1651.0</ele><time>2026-05-02T07:28:30.854Z</time></trkpt><trkpt lat="44.03865807978436" lon="7.6680794960353165"><ele>1644.0</ele><time>2026-05-02T07:28:32.854Z</time></trkpt><trkpt lat="44.038770379361615" lon="7.668093971295602"><ele>1637.0000000000002</ele><time>2026-05-02T07:28:33.854Z</time></trkpt><trkpt lat="44.03886996685142" lon="7.668108612621413"><ele>1630.0</ele><time>2026-05-02T07:28:34.854Z</time></trkpt><trkpt lat="44.038971488397614" lon="7.668108974197272"><ele>1630.0</ele><time>2026-05-02T07:28:35.854Z</time></trkpt><trkpt lat="44.0390801020846" lon="7.668095931889315"><ele>1630.0</ele><time>2026-05-02T07:28:36.854Z</time></trkpt><trkpt lat="44.039194898679284" lon="7.668094445379721"><ele>1630.0</ele><time>2026-05-02T07:28:37.854Z</time></trkpt><trkpt lat="44.03930467796195" lon="7.668094097063069"><ele>1630.0</ele><time>2026-05-02T07:28:38.854Z</time></trkpt><trkpt lat="44.03939317441438" lon="7.668073860313027"><ele>1630.0</ele><time>2026-05-02T07:28:39.854Z</time></trkpt><trkpt lat="44.039482013007586" lon="7.668082599345854"><ele>1629.0</ele><time>2026-05-02T07:28:40.854Z</time></trkpt><trkpt lat="44.03956397089973" lon="7.6680988379034165"><ele>1628.0</ele><time>2026-05-02T07:28:41.853Z</time></trkpt><trkpt lat="44.039656417796174" lon="7.668138902583207"><ele>1627.0</ele><time>2026-05-02T07:28:42.853Z</time></trkpt><trkpt lat="44.03973671993252" lon="7.668199429751466"><ele>1626.0</ele><time>2026-05-02T07:28:43.853Z</time></trkpt><trkpt lat="44.0397975438321" lon="7.6682493969116035"><ele>1625.0</ele><time>2026-05-02T07:28:44.853Z</time></trkpt><trkpt lat="44.03993633091445" lon="7.6683042035508375"><ele>1627.1666666666665</ele><time>2026-05-02T07:28:46.853Z</time></trkpt><trkpt lat="44.040006843314764" lon="7.668353824729447"><ele>1629.3333333333333</ele><time>2026-05-02T07:28:47.853Z</time></trkpt><trkpt lat="44.04008141566826" lon="7.668411358860269"><ele>1631.5</ele><time>2026-05-02T07:28:48.853Z</time></trkpt><trkpt lat="44.0401675939349" lon="7.668456411193712"><ele>1633.6666666666665</ele><time>2026-05-02T07:28:49.853Z</time></trkpt><trkpt lat="44.04025344390142" lon="7.668503587555559"><ele>1635.8333333333333</ele><time>2026-05-02T07:28:50.853Z</time></trkpt><trkpt lat="44.04032482417332" lon="7.668557759119751"><ele>1638.0</ele><time>2026-05-02T07:28:51.853Z</time></trkpt><trkpt lat="44.04042100238648" lon="7.668612269866242"><ele>1634.0</ele><time>2026-05-02T07:28:52.853Z</time></trkpt><trkpt lat="44.0405076632195" lon="7.668658021870663"><ele>1630.0</ele><time>2026-05-02T07:28:53.853Z</time></trkpt><trkpt lat="44.04060196863327" lon="7.6686680668273155"><ele>1626.0</ele><time>2026-05-02T07:28:54.853Z</time></trkpt><trkpt lat="44.040689716226126" lon="7.668702552045013"><ele>1622.0</ele><time>2026-05-02T07:28:55.853Z</time></trkpt><trkpt lat="44.04079278477497" lon="7.668713352380447"><ele>1618.0</ele><time>2026-05-02T07:28:56.853Z</time></trkpt><trkpt lat="44.04087598962454" lon="7.668743317141529"><ele>1618.0000000000002</ele><time>2026-05-02T07:28:57.853Z</time></trkpt><trkpt lat="44.040955460499646" lon="7.668779944888903"><ele>1618.0</ele><time>2026-05-02T07:28:58.853Z</time></trkpt><trkpt lat="44.0410350911698" lon="7.6688248717047545"><ele>1618.0</ele><time>2026-05-02T07:28:59.853Z</time></trkpt><trkpt lat="44.041119226303316" lon="7.66887069425938"><ele>1618.0</ele><time>2026-05-02T07:29:00.853Z</time></trkpt><trkpt lat="44.041193884465365" lon="7.668909133096777"><ele>1618.0000000000002</ele><time>2026-05-02T07:29:01.853Z</time></trkpt><trkpt lat="44.04126388854383" lon="7.66895389654315"><ele>1618.0</ele><time>2026-05-02T07:29:02.853Z</time></trkpt><trkpt lat="44.041358102484786" lon="7.669033298589073"><ele>1618.0</ele><time>2026-05-02T07:29:04.853Z</time></trkpt><trkpt lat="44.04143756363926" lon="7.669035658498319"><ele>1618.0</ele><time>2026-05-02T07:29:06.853Z</time></trkpt><trkpt lat="44.04151298867237" lon="7.668971156875083"><ele>1618.0</ele><time>2026-05-02T07:29:08.854Z</time></trkpt><trkpt lat="44.04154836208378" lon="7.668838175362264"><ele>1618.0</ele><time>2026-05-02T07:29:10.854Z</time></trkpt><trkpt lat="44.041524243675234" lon="7.668718324474472"><ele>1618.0</ele><time>2026-05-02T07:29:12.855Z</time></trkpt><trkpt lat="44.04145906201752" lon="7.6686173048798665"><ele>1621.1666666666667</ele><time>2026-05-02T07:29:14.855Z</time></trkpt><trkpt lat="44.041373753739734" lon="7.668505854657297"><ele>1624.3333333333335</ele><time>2026-05-02T07:29:16.854Z</time></trkpt><trkpt lat="44.0413219780936" lon="7.668434966196355"><ele>1627.5</ele><time>2026-05-02T07:29:17.855Z</time></trkpt><trkpt lat="44.04126863759511" lon="7.6683561043545865"><ele>1630.6666666666665</ele><time>2026-05-02T07:29:18.855Z</time></trkpt><trkpt lat="44.04122660263205" lon="7.6682810976793565"><ele>1633.8333333333333</ele><time>2026-05-02T07:29:19.855Z</time></trkpt><trkpt lat="44.04116273841185" lon="7.668152575319523"><ele>1637.0</ele><time>2026-05-02T07:29:21.854Z</time></trkpt><trkpt lat="44.041095129229426" lon="7.6679967887164855"><ele>1637.0</ele><time>2026-05-02T07:29:23.854Z</time></trkpt><trkpt lat="44.041078619740254" lon="7.6679055457000755"><ele>1637.0</ele><time>2026-05-02T07:29:24.854Z</time></trkpt><trkpt lat="44.04106271931015" lon="7.667763213929265"><ele>1637.0</ele><time>2026-05-02T07:29:26.854Z</time></trkpt><trkpt lat="44.04085628503738" lon="7.663961213182849"><ele>1631.5714285714284</ele><time>2026-05-02T07:30:27.852Z</time></trkpt><trkpt lat="44.04087021579033" lon="7.663854428804808"><ele>1626.142857142857</ele><time>2026-05-02T07:30:29.852Z</time></trkpt><trkpt lat="44.040885957521766" lon="7.663750373792894"><ele>1620.7142857142858</ele><time>2026-05-02T07:30:31.852Z</time></trkpt><trkpt lat="44.04087704917091" lon="7.663658253942255"><ele>1615.2857142857142</ele><time>2026-05-02T07:30:32.852Z</time></trkpt><trkpt lat="44.04087775768781" lon="7.663564093729117"><ele>1609.857142857143</ele><time>2026-05-02T07:30:33.852Z</time></trkpt><trkpt lat="44.04088562332825" lon="7.6634581643010735"><ele>1604.4285714285713</ele><time>2026-05-02T07:30:34.852Z</time></trkpt><trkpt lat="44.040885319677464" lon="7.663365978194004"><ele>1599.0</ele><time>2026-05-02T07:30:35.852Z</time></trkpt><trkpt lat="44.040908498421224" lon="7.663277364010202"><ele>1598.0</ele><time>2026-05-02T07:30:36.852Z</time></trkpt><trkpt lat="44.040924901617" lon="7.663177609389348"><ele>1597.0</ele><time>2026-05-02T07:30:37.852Z</time></trkpt><trkpt lat="44.04094650266953" lon="7.663072764733138"><ele>1596.0</ele><time>2026-05-02T07:30:38.852Z</time></trkpt><trkpt lat="44.04097134485889" lon="7.662967268767187"><ele>1595.0</ele><time>2026-05-02T07:30:39.852Z</time></trkpt><trkpt lat="44.041039494418676" lon="7.66281674075511"><ele>1594.0</ele><time>2026-05-02T07:30:41.851Z</time></trkpt><trkpt lat="44.04111526111717" lon="7.662676936985237"><ele>1594.0</ele><time>2026-05-02T07:30:43.851Z</time></trkpt><trkpt lat="44.041196731610455" lon="7.662542787563301"><ele>1594.0</ele><time>2026-05-02T07:30:45.851Z</time></trkpt><trkpt lat="44.041228688088516" lon="7.66246420159109"><ele>1594.0</ele><time>2026-05-02T07:30:46.851Z</time></trkpt><trkpt lat="44.041303974086354" lon="7.662337213658077"><ele>1594.0</ele><time>2026-05-02T07:30:48.851Z</time></trkpt><trkpt lat="44.041383530880644" lon="7.662199221035386"><ele>1594.0</ele><time>2026-05-02T07:30:50.851Z</time></trkpt><trkpt lat="44.04141713785995" lon="7.6621196653907635"><ele>1594.0</ele><time>2026-05-02T07:30:51.851Z</time></trkpt><trkpt lat="44.04146114908503" lon="7.661967233729077"><ele>1594.0</ele><time>2026-05-02T07:30:53.851Z</time></trkpt><trkpt lat="44.04149502078504" lon="7.661879370543836"><ele>1594.0</ele><time>2026-05-02T07:30:54.851Z</time></trkpt><trkpt lat="44.04156168065405" lon="7.661719903639112"><ele>1594.0</ele><time>2026-05-02T07:30:56.851Z</time></trkpt><trkpt lat="44.041591610667346" lon="7.661633058818795"><ele>1594.0</ele><time>2026-05-02T07:30:57.851Z</time></trkpt><trkpt lat="44.04162994025815" lon="7.661554680446128"><ele>1592.4285714285713</ele><time>2026-05-02T07:30:58.851Z</time></trkpt><trkpt lat="44.04167855907875" lon="7.6614810771815405"><ele>1590.857142857143</ele><time>2026-05-02T07:30:59.851Z</time></trkpt><trkpt lat="44.04171952642212" lon="7.661411807744213"><ele>1589.2857142857142</ele><time>2026-05-02T07:31:00.851Z</time></trkpt><trkpt lat="44.04176328818614" lon="7.661339506079862"><ele>1587.7142857142858</ele><time>2026-05-02T07:31:01.851Z</time></trkpt><trkpt lat="44.04181724699872" lon="7.6612484306768875"><ele>1586.1428571428573</ele><time>2026-05-02T07:31:02.851Z</time></trkpt><trkpt lat="44.04187024342053" lon="7.66118355670229"><ele>1584.5714285714287</ele><time>2026-05-02T07:31:03.851Z</time></trkpt><trkpt lat="44.04191247743736" lon="7.661104495813907"><ele>1583.0</ele><time>2026-05-02T07:31:04.851Z</time></trkpt><trkpt lat="44.042007440590986" lon="7.660957749117371"><ele>1582.9999999999998</ele><time>2026-05-02T07:31:06.851Z</time></trkpt><trkpt lat="44.0420624657718" lon="7.660862575172658"><ele>1583.0</ele><time>2026-05-02T07:31:07.85Z</time></trkpt><trkpt lat="44.042114479700366" lon="7.660777796907172"><ele>1583.0</ele><time>2026-05-02T07:31:08.85Z</time></trkpt><trkpt lat="44.042157595331076" lon="7.660703216258656"><ele>1583.0</ele><time>2026-05-02T07:31:09.85Z</time></trkpt><trkpt lat="44.04222065381757" lon="7.660631134490994"><ele>1582.9999999999998</ele><time>2026-05-02T07:31:10.85Z</time></trkpt><trkpt lat="44.0422720909203" lon="7.660565903820272"><ele>1583.0</ele><time>2026-05-02T07:31:11.85Z</time></trkpt><trkpt lat="44.04231867836316" lon="7.660491770157117"><ele>1583.0</ele><time>2026-05-02T07:31:12.85Z</time></trkpt><trkpt lat="44.042360008890775" lon="7.660416146430388"><ele>1583.0</ele><time>2026-05-02T07:31:13.85Z</time></trkpt><trkpt lat="44.04240404607462" lon="7.66034574095675"><ele>1583.0</ele><time>2026-05-02T07:31:14.852Z</time></trkpt><trkpt lat="44.042450977678776" lon="7.660269899634734"><ele>1583.0</ele><time>2026-05-02T07:31:15.852Z</time></trkpt><trkpt lat="44.042502032732266" lon="7.660187541634161"><ele>1583.0</ele><time>2026-05-02T07:31:16.852Z</time></trkpt><trkpt lat="44.04256117017355" lon="7.66009833978141"><ele>1583.0</ele><time>2026-05-02T07:31:17.852Z</time></trkpt><trkpt lat="44.04260942176598" lon="7.660028607566357"><ele>1583.0</ele><time>2026-05-02T07:31:18.852Z</time></trkpt><trkpt lat="44.04265875539735" lon="7.659954945330919"><ele>1579.6666666666665</ele><time>2026-05-02T07:31:19.852Z</time></trkpt><trkpt lat="44.042715559758726" lon="7.659876418015133"><ele>1576.3333333333333</ele><time>2026-05-02T07:31:20.852Z</time></trkpt><trkpt lat="44.042770750031764" lon="7.659795961922319"><ele>1573.0</ele><time>2026-05-02T07:31:21.852Z</time></trkpt><trkpt lat="44.04282327922672" lon="7.659714288067014"><ele>1569.6666666666665</ele><time>2026-05-02T07:31:22.852Z</time></trkpt><trkpt lat="44.042881137845015" lon="7.659650179360974"><ele>1566.3333333333333</ele><time>2026-05-02T07:31:23.853Z</time></trkpt><trkpt lat="44.042933353143354" lon="7.659576885970831"><ele>1563.0</ele><time>2026-05-02T07:31:24.853Z</time></trkpt><trkpt lat="44.04299700686555" lon="7.659502436820458"><ele>1564.0</ele><time>2026-05-02T07:31:25.852Z</time></trkpt><trkpt lat="44.04306317020596" lon="7.6594390378085295"><ele>1565.0</ele><time>2026-05-02T07:31:26.852Z</time></trkpt><trkpt lat="44.04671063240484" lon="7.657061271965839"><ele>1559.1428571428573</ele><time>2026-05-02T07:32:27.85Z</time></trkpt><trkpt lat="44.04675696532924" lon="7.656992800398886"><ele>1553.2857142857142</ele><time>2026-05-02T07:32:28.85Z</time></trkpt><trkpt lat="44.04681908859705" lon="7.656919383990189"><ele>1547.4285714285716</ele><time>2026-05-02T07:32:29.85Z</time></trkpt><trkpt lat="44.046876214466835" lon="7.656861821527738"><ele>1541.5714285714287</ele><time>2026-05-02T07:32:30.85Z</time></trkpt><trkpt lat="44.046936139674486" lon="7.656802853712662"><ele>1535.7142857142858</ele><time>2026-05-02T07:32:31.85Z</time></trkpt><trkpt lat="44.04699635292826" lon="7.656745203180042"><ele>1529.857142857143</ele><time>2026-05-02T07:32:32.85Z</time></trkpt><trkpt lat="44.047046972377295" lon="7.656683996837722"><ele>1524.0</ele><time>2026-05-02T07:32:33.85Z</time></trkpt><trkpt lat="44.04709365337893" lon="7.656611873329403"><ele>1524.0</ele><time>2026-05-02T07:32:34.85Z</time></trkpt><trkpt lat="44.04714514608166" lon="7.656471869300025"><ele>1524.0</ele><time>2026-05-02T07:32:36.85Z</time></trkpt><trkpt lat="44.04716321070056" lon="7.656316617991786"><ele>1524.0</ele><time>2026-05-02T07:32:38.85Z</time></trkpt><trkpt lat="44.047230983360315" lon="7.656235011033944"><ele>1524.0</ele><time>2026-05-02T07:32:40.85Z</time></trkpt><trkpt lat="44.04735839850685" lon="7.656224965121212"><ele>1524.0</ele><time>2026-05-02T07:32:42.85Z</time></trkpt><trkpt lat="44.047419778565526" lon="7.656261090405276"><ele>1518.0</ele><time>2026-05-02T07:32:43.85Z</time></trkpt><trkpt lat="44.047550711753324" lon="7.6563122177406795"><ele>1512.0</ele><time>2026-05-02T07:32:45.85Z</time></trkpt><trkpt lat="44.04762442415115" lon="7.656308639135117"><ele>1506.0</ele><time>2026-05-02T07:32:46.849Z</time></trkpt><trkpt lat="44.047692469591276" lon="7.656300759813406"><ele>1500.0</ele><time>2026-05-02T07:32:47.849Z</time></trkpt><trkpt lat="44.04782304491728" lon="7.656296852358662"><ele>1494.0</ele><time>2026-05-02T07:32:49.849Z</time></trkpt><trkpt lat="44.047953042533315" lon="7.656261974531589"><ele>1493.9999999999998</ele><time>2026-05-02T07:32:51.849Z</time></trkpt><trkpt lat="44.04800599449831" lon="7.6561984748304495"><ele>1494.0</ele><time>2026-05-02T07:32:52.849Z</time></trkpt><trkpt lat="44.04806365077839" lon="7.6561476152554615"><ele>1494.0</ele><time>2026-05-02T07:32:53.849Z</time></trkpt><trkpt lat="44.04812216778079" lon="7.6560781325180125"><ele>1494.0</ele><time>2026-05-02T07:32:54.849Z</time></trkpt><trkpt lat="44.04818406013045" lon="7.656010790000691"><ele>1494.0</ele><time>2026-05-02T07:32:55.849Z</time></trkpt><trkpt lat="44.04824046433036" lon="7.655940216751137"><ele>1493.9999999999998</ele><time>2026-05-02T07:32:56.849Z</time></trkpt><trkpt lat="44.04830007461115" lon="7.65586879823611"><ele>1494.0</ele><time>2026-05-02T07:32:57.849Z</time></trkpt><trkpt lat="44.04836820671516" lon="7.655813175946954"><ele>1494.2</ele><time>2026-05-02T07:32:58.849Z</time></trkpt><trkpt lat="44.04843220312363" lon="7.655750774820287"><ele>1494.4</ele><time>2026-05-02T07:32:59.849Z</time></trkpt><trkpt lat="44.048526964597265" lon="7.655685650902514"><ele>1494.6</ele><time>2026-05-02T07:33:01.849Z</time></trkpt><trkpt lat="44.04859202458303" lon="7.6556671294658045"><ele>1494.8</ele><time>2026-05-02T07:33:02.849Z</time></trkpt><trkpt lat="44.04872468666902" lon="7.655631564291447"><ele>1495.0</ele><time>2026-05-02T07:33:04.849Z</time></trkpt><trkpt lat="44.04879252359586" lon="7.655619268117863"><ele>1495.0</ele><time>2026-05-02T07:33:05.849Z</time></trkpt><trkpt lat="44.04885929938948" lon="7.655626942745498"><ele>1495.0</ele><time>2026-05-02T07:33:06.849Z</time></trkpt><trkpt lat="44.04900248319196" lon="7.655627730939479"><ele>1495.0</ele><time>2026-05-02T07:33:08.849Z</time></trkpt><trkpt lat="44.049079517021454" lon="7.65559226068449"><ele>1495.0</ele><time>2026-05-02T07:33:09.849Z</time></trkpt><trkpt lat="44.04916376135993" lon="7.655555059876781"><ele>1495.0</ele><time>2026-05-02T07:33:10.849Z</time></trkpt><trkpt lat="44.04930172518514" lon="7.655503712281476"><ele>1495.4</ele><time>2026-05-02T07:33:12.849Z</time></trkpt><trkpt lat="44.04936857685245" lon="7.655482631002702"><ele>1495.8</ele><time>2026-05-02T07:33:13.848Z</time></trkpt><trkpt lat="44.049478574317085" lon="7.655408854383702"><ele>1496.1999999999998</ele><time>2026-05-02T07:33:15.848Z</time></trkpt><trkpt lat="44.049568602604076" lon="7.655305115222958"><ele>1496.6</ele><time>2026-05-02T07:33:17.848Z</time></trkpt><trkpt lat="44.049639773786055" lon="7.65518651617641"><ele>1497.0</ele><time>2026-05-02T07:33:19.849Z</time></trkpt><trkpt lat="44.04968110750206" lon="7.655063048849936"><ele>1497.0</ele><time>2026-05-02T07:33:21.849Z</time></trkpt><trkpt lat="44.049717250201894" lon="7.6549122951969215"><ele>1497.0</ele><time>2026-05-02T07:33:23.85Z</time></trkpt><trkpt lat="44.0497508776826" lon="7.6547869338860846"><ele>1497.0</ele><time>2026-05-02T07:33:25.85Z</time></trkpt><trkpt lat="44.04977001164227" lon="7.654701910879618"><ele>1497.0</ele><time>2026-05-02T07:33:26.85Z</time></trkpt><trkpt lat="44.0522253507815" lon="7.651837877750568"><ele>1486.5</ele><time>2026-05-02T07:34:27.847Z</time></trkpt><trkpt lat="44.0522874025261" lon="7.651793722179389"><ele>1476.0</ele><time>2026-05-02T07:34:28.847Z</time></trkpt><trkpt lat="44.05238032547345" lon="7.651744466370586"><ele>1465.5</ele><time>2026-05-02T07:34:29.847Z</time></trkpt><trkpt lat="44.05246198881947" lon="7.651702325195827"><ele>1455.0</ele><time>2026-05-02T07:34:30.847Z</time></trkpt><trkpt lat="44.052550813312976" lon="7.651656681310707"><ele>1444.5</ele><time>2026-05-02T07:34:31.847Z</time></trkpt><trkpt lat="44.05263694059086" lon="7.651614992214464"><ele>1434.0</ele><time>2026-05-02T07:34:32.847Z</time></trkpt><trkpt lat="44.05272362518613" lon="7.651590412213773"><ele>1433.2</ele><time>2026-05-02T07:34:33.847Z</time></trkpt><trkpt lat="44.05282277513401" lon="7.651526658305561"><ele>1432.4</ele><time>2026-05-02T07:34:34.847Z</time></trkpt><trkpt lat="44.05291224724613" lon="7.651457663718438"><ele>1431.6</ele><time>2026-05-02T07:34:35.847Z</time></trkpt><trkpt lat="44.05298807962346" lon="7.651397597278814"><ele>1430.8</ele><time>2026-05-02T07:34:36.847Z</time></trkpt><trkpt lat="44.05305596277043" lon="7.651326602118792"><ele>1430.0</ele><time>2026-05-02T07:34:37.847Z</time></trkpt><trkpt lat="44.05313515950707" lon="7.651277367231536"><ele>1430.0</ele><time>2026-05-02T07:34:38.847Z</time></trkpt><trkpt lat="44.05321661094901" lon="7.6512306749635615"><ele>1430.0</ele><time>2026-05-02T07:34:39.847Z</time></trkpt><trkpt lat="44.05332019773181" lon="7.651186904392653"><ele>1430.0</ele><time>2026-05-02T07:34:40.847Z</time></trkpt><trkpt lat="44.05340266938067" lon="7.651104971952003"><ele>1430.0</ele><time>2026-05-02T07:34:41.847Z</time></trkpt><trkpt lat="44.05348509875953" lon="7.651028311873801"><ele>1430.0</ele><time>2026-05-02T07:34:42.847Z</time></trkpt><trkpt lat="44.053551291760684" lon="7.650958475454007"><ele>1427.25</ele><time>2026-05-02T07:34:43.846Z</time></trkpt><trkpt lat="44.05363293716627" lon="7.650857929467468"><ele>1424.5</ele><time>2026-05-02T07:34:44.846Z</time></trkpt><trkpt lat="44.05371871296287" lon="7.650748442760543"><ele>1421.75</ele><time>2026-05-02T07:34:45.846Z</time></trkpt><trkpt lat="44.05382726714123" lon="7.650664804624789"><ele>1419.0</ele><time>2026-05-02T07:34:46.846Z</time></trkpt><trkpt lat="44.053898669832314" lon="7.650552551637044"><ele>1419.0</ele><time>2026-05-02T07:34:47.846Z</time></trkpt><trkpt lat="44.05394602691106" lon="7.650454585343497"><ele>1419.0</ele><time>2026-05-02T07:34:48.846Z</time></trkpt><trkpt lat="44.05397647670046" lon="7.650340827850938"><ele>1419.0</ele><time>2026-05-02T07:34:49.846Z</time></trkpt><trkpt lat="44.05402407611781" lon="7.650238027322644"><ele>1419.0</ele><time>2026-05-02T07:34:50.846Z</time></trkpt><trkpt lat="44.054061566948626" lon="7.650127443451363"><ele>1419.0</ele><time>2026-05-02T07:34:51.846Z</time></trkpt><trkpt lat="44.05408363879936" lon="7.650000859947349"><ele>1419.0</ele><time>2026-05-02T07:34:52.846Z</time></trkpt><trkpt lat="44.05410930654119" lon="7.649869865207325"><ele>1422.0</ele><time>2026-05-02T07:34:53.846Z</time></trkpt><trkpt lat="44.05413299999282" lon="7.649723355395721"><ele>1425.0</ele><time>2026-05-02T07:34:54.846Z</time></trkpt><trkpt lat="44.05414751685175" lon="7.6495634755568815"><ele>1428.0</ele><time>2026-05-02T07:34:55.846Z</time></trkpt><trkpt lat="44.05418550324406" lon="7.649426802995659"><ele>1431.0</ele><time>2026-05-02T07:34:56.846Z</time></trkpt><trkpt lat="44.05420721521964" lon="7.649289778519914"><ele>1434.0</ele><time>2026-05-02T07:34:57.846Z</time></trkpt><trkpt lat="44.05421176848832" lon="7.649151716117412"><ele>1434.0</ele><time>2026-05-02T07:34:58.846Z</time></trkpt><trkpt lat="44.05422947650726" lon="7.64903439364573"><ele>1434.0</ele><time>2026-05-02T07:34:59.846Z</time></trkpt><trkpt lat="44.05424515021866" lon="7.648909207058738"><ele>1434.0</ele><time>2026-05-02T07:35:00.846Z</time></trkpt><trkpt lat="44.054241552270874" lon="7.648776538889892"><ele>1434.0</ele><time>2026-05-02T07:35:01.846Z</time></trkpt><trkpt lat="44.05421223412" lon="7.648634476444616"><ele>1434.0</ele><time>2026-05-02T07:35:02.846Z</time></trkpt><trkpt lat="44.05419764164787" lon="7.64849504906503"><ele>1434.0</ele><time>2026-05-02T07:35:03.846Z</time></trkpt><trkpt lat="44.05416715208962" lon="7.648357917832643"><ele>1434.0</ele><time>2026-05-02T07:35:04.846Z</time></trkpt><trkpt lat="44.05414522817429" lon="7.64823518341973"><ele>1434.0</ele><time>2026-05-02T07:35:05.846Z</time></trkpt><trkpt lat="44.054099510632696" lon="7.648124073905012"><ele>1434.0</ele><time>2026-05-02T07:35:06.846Z</time></trkpt><trkpt lat="44.054080861317615" lon="7.647997991738248"><ele>1434.0</ele><time>2026-05-02T07:35:07.846Z</time></trkpt><trkpt lat="44.05404880266716" lon="7.647819237241251"><ele>1433.0</ele><time>2026-05-02T07:35:09.846Z</time></trkpt><trkpt lat="44.05406097245537" lon="7.647658801336619"><ele>1432.0</ele><time>2026-05-02T07:35:11.845Z</time></trkpt><trkpt lat="44.05414688128119" lon="7.647500011660308"><ele>1431.0</ele><time>2026-05-02T07:35:13.845Z</time></trkpt><trkpt lat="44.054210032778634" lon="7.6474090610352246"><ele>1430.0</ele><time>2026-05-02T07:35:14.845Z</time></trkpt><trkpt lat="44.05427755836893" lon="7.6473152251561665"><ele>1429.0</ele><time>2026-05-02T07:35:15.845Z</time></trkpt><trkpt lat="44.05433382586892" lon="7.6472120622342326"><ele>1429.0</ele><time>2026-05-02T07:35:16.845Z</time></trkpt><trkpt lat="44.0544062674267" lon="7.647127932611066"><ele>1429.0</ele><time>2026-05-02T07:35:17.845Z</time></trkpt><trkpt lat="44.05447551835525" lon="7.6470308859513665"><ele>1429.0</ele><time>2026-05-02T07:35:18.845Z</time></trkpt><trkpt lat="44.05454491884839" lon="7.6469296900415"><ele>1429.0</ele><time>2026-05-02T07:35:19.845Z</time></trkpt><trkpt lat="44.0546080069932" lon="7.646833731597829"><ele>1429.0</ele><time>2026-05-02T07:35:20.845Z</time></trkpt><trkpt lat="44.05467055037699" lon="7.646729222732954"><ele>1424.0</ele><time>2026-05-02T07:35:21.845Z</time></trkpt><trkpt lat="44.05471509288987" lon="7.646625707329397"><ele>1419.0</ele><time>2026-05-02T07:35:22.845Z</time></trkpt><trkpt lat="44.0547545855387" lon="7.646519163382889"><ele>1414.0</ele><time>2026-05-02T07:35:23.845Z</time></trkpt><trkpt lat="44.05478378843718" lon="7.646407298279029"><ele>1409.0</ele><time>2026-05-02T07:35:24.848Z</time></trkpt><trkpt lat="44.054819513848194" lon="7.6462948740168795"><ele>1404.0</ele><time>2026-05-02T07:35:25.848Z</time></trkpt><trkpt lat="44.05483340763172" lon="7.646170329650419"><ele>1399.0</ele><time>2026-05-02T07:35:26.848Z</time></trkpt><trkpt lat="44.05462588832819" lon="7.642012818289139"><ele>1394.0</ele><time>2026-05-02T07:36:27.846Z</time></trkpt><trkpt lat="44.054545147502026" lon="7.642003367230044"><ele>1389.0</ele><time>2026-05-02T07:36:32.846Z</time></trkpt><trkpt lat="44.05456618895892" lon="7.641848534056235"><ele>1384.0</ele><time>2026-05-02T07:36:34.845Z</time></trkpt><trkpt lat="44.05459241367349" lon="7.641698116467321"><ele>1379.0</ele><time>2026-05-02T07:36:36.845Z</time></trkpt><trkpt lat="44.05462525965729" lon="7.641528874653478"><ele>1374.0</ele><time>2026-05-02T07:36:38.845Z</time></trkpt><trkpt lat="44.05461781960816" lon="7.641427660537191"><ele>1372.0</ele><time>2026-05-02T07:36:39.845Z</time></trkpt><trkpt lat="44.05462973659052" lon="7.641328404060507"><ele>1370.0</ele><time>2026-05-02T07:36:40.845Z</time></trkpt><trkpt lat="44.054638526861986" lon="7.641232978716849"><ele>1368.0</ele><time>2026-05-02T07:36:41.845Z</time></trkpt><trkpt lat="44.05465502351019" lon="7.641063296010589"><ele>1366.0</ele><time>2026-05-02T07:36:43.845Z</time></trkpt><trkpt lat="44.05468993571637" lon="7.640906124556034"><ele>1364.0</ele><time>2026-05-02T07:36:45.845Z</time></trkpt><trkpt lat="44.054700511942315" lon="7.640815939616761"><ele>1362.0</ele><time>2026-05-02T07:36:46.845Z</time></trkpt><trkpt lat="44.05471164170896" lon="7.6407210345659236"><ele>1359.3333333333333</ele><time>2026-05-02T07:36:47.845Z</time></trkpt><trkpt lat="44.05470625631888" lon="7.64062412549332"><ele>1356.6666666666667</ele><time>2026-05-02T07:36:48.845Z</time></trkpt><trkpt lat="44.05472316883249" lon="7.6405330036358166"><ele>1354.0</ele><time>2026-05-02T07:36:49.845Z</time></trkpt><trkpt lat="44.05474124026769" lon="7.640378280306794"><ele>1351.3333333333335</ele><time>2026-05-02T07:36:51.845Z</time></trkpt><trkpt lat="44.05475240273172" lon="7.640291469589888"><ele>1348.6666666666667</ele><time>2026-05-02T07:36:52.845Z</time></trkpt><trkpt lat="44.054764244551365" lon="7.640196562969386"><ele>1346.0</ele><time>2026-05-02T07:36:53.845Z</time></trkpt><trkpt lat="44.05478338912598" lon="7.640015693329575"><ele>1344.1666666666667</ele><time>2026-05-02T07:36:55.845Z</time></trkpt><trkpt lat="44.05479917511907" lon="7.639921329182092"><ele>1342.3333333333335</ele><time>2026-05-02T07:36:56.845Z</time></trkpt><trkpt lat="44.05481825020787" lon="7.639834214305045"><ele>1340.5</ele><time>2026-05-02T07:36:57.845Z</time></trkpt><trkpt lat="44.05482932213324" lon="7.639747189811092"><ele>1338.6666666666667</ele><time>2026-05-02T07:36:58.845Z</time></trkpt><trkpt lat="44.05483849484589" lon="7.639660116324298"><ele>1336.8333333333333</ele><time>2026-05-02T07:36:59.845Z</time></trkpt><trkpt lat="44.05489074625797" lon="7.639495788638033"><ele>1335.0</ele><time>2026-05-02T07:37:01.844Z</time></trkpt><trkpt lat="44.05493922588429" lon="7.6393436584858865"><ele>1333.1666666666667</ele><time>2026-05-02T07:37:03.844Z</time></trkpt><trkpt lat="44.055015532068786" lon="7.639245121676175"><ele>1331.3333333333333</ele><time>2026-05-02T07:37:05.844Z</time></trkpt><trkpt lat="44.055031583814184" lon="7.639158334691809"><ele>1329.5</ele><time>2026-05-02T07:37:07.844Z</time></trkpt><trkpt lat="44.05496067057136" lon="7.639104111675514"><ele>1327.6666666666665</ele><time>2026-05-02T07:37:09.844Z</time></trkpt><trkpt lat="44.054857125532074" lon="7.639166740073676"><ele>1325.8333333333333</ele><time>2026-05-02T07:37:11.844Z</time></trkpt><trkpt lat="44.05480230280508" lon="7.639257115323629"><ele>1324.0</ele><time>2026-05-02T07:37:12.844Z</time></trkpt><trkpt lat="44.05476350593187" lon="7.6393671792796205"><ele>1324.0</ele><time>2026-05-02T07:37:13.844Z</time></trkpt><trkpt lat="44.054712333242314" lon="7.639460571960708"><ele>1324.0</ele><time>2026-05-02T07:37:14.844Z</time></trkpt><trkpt lat="44.05466997184567" lon="7.639548326548248"><ele>1324.0</ele><time>2026-05-02T07:37:15.844Z</time></trkpt><trkpt lat="44.05463773854695" lon="7.639624915466877"><ele>1324.0</ele><time>2026-05-02T07:37:16.844Z</time></trkpt><trkpt lat="44.05461248785287" lon="7.639705686579933"><ele>1324.0</ele><time>2026-05-02T07:37:17.844Z</time></trkpt><trkpt lat="44.05456977064876" lon="7.639778430077327"><ele>1324.0</ele><time>2026-05-02T07:37:18.844Z</time></trkpt><trkpt lat="44.05452626130945" lon="7.639902140863496"><ele>1327.6666666666665</ele><time>2026-05-02T07:37:20.844Z</time></trkpt><trkpt lat="44.0544645058808" lon="7.639981835271472"><ele>1331.3333333333333</ele><time>2026-05-02T07:37:23.844Z</time></trkpt><trkpt lat="44.05443979891494" lon="7.639872782349123"><ele>1335.0</ele><time>2026-05-02T07:37:26.844Z</time></trkpt><trkpt lat="44.0540595073842" lon="7.638320882557623"><ele>1325.0</ele><time>2026-05-02T07:38:27.844Z</time></trkpt><trkpt lat="44.054026057216404" lon="7.63840066497877"><ele>1315.0</ele><time>2026-05-02T07:38:28.844Z</time></trkpt><trkpt lat="44.05397661467384" lon="7.638461436500385"><ele>1305.0</ele><time>2026-05-02T07:38:29.844Z</time></trkpt><trkpt lat="44.05393604325845" lon="7.638529601640849"><ele>1295.0</ele><time>2026-05-02T07:38:30.843Z</time></trkpt><trkpt lat="44.053890175297454" lon="7.638673755281855"><ele>1285.0</ele><time>2026-05-02T07:38:32.843Z</time></trkpt><trkpt lat="44.053868156101245" lon="7.6387946263736435"><ele>1275.0</ele><time>2026-05-02T07:38:34.843Z</time></trkpt><trkpt lat="44.05383279877583" lon="7.63887911019551"><ele>1275.0</ele><time>2026-05-02T07:38:36.843Z</time></trkpt><trkpt lat="44.05377757921935" lon="7.638829012855308"><ele>1275.0</ele><time>2026-05-02T07:38:39.843Z</time></trkpt><trkpt lat="44.053802338512774" lon="7.6387108379268325"><ele>1275.0</ele><time>2026-05-02T07:38:41.843Z</time></trkpt><trkpt lat="44.05382253241663" lon="7.63856584987092"><ele>1275.0</ele><time>2026-05-02T07:38:43.843Z</time></trkpt><trkpt lat="44.053826517613714" lon="7.638409127493231"><ele>1275.0</ele><time>2026-05-02T07:38:45.843Z</time></trkpt><trkpt lat="44.053852550278705" lon="7.638246306648168"><ele>1274.75</ele><time>2026-05-02T07:38:47.843Z</time></trkpt><trkpt lat="44.053841631783555" lon="7.638091206440701"><ele>1274.5</ele><time>2026-05-02T07:38:49.843Z</time></trkpt><trkpt lat="44.05384326232756" lon="7.637914255488063"><ele>1274.25</ele><time>2026-05-02T07:38:51.843Z</time></trkpt><trkpt lat="44.05381729759518" lon="7.637760850350082"><ele>1274.0</ele><time>2026-05-02T07:38:53.843Z</time></trkpt><trkpt lat="44.053756012684445" lon="7.637604604688681"><ele>1274.0</ele><time>2026-05-02T07:38:55.843Z</time></trkpt><trkpt lat="44.05373853775002" lon="7.6375151741271825"><ele>1274.0</ele><time>2026-05-02T07:38:56.842Z</time></trkpt><trkpt lat="44.05368901697843" lon="7.637441419536675"><ele>1274.0</ele><time>2026-05-02T07:38:57.842Z</time></trkpt><trkpt lat="44.053656342958995" lon="7.637356689804145"><ele>1274.0</ele><time>2026-05-02T07:38:58.842Z</time></trkpt><trkpt lat="44.05359936023268" lon="7.63721102920036"><ele>1274.0</ele><time>2026-05-02T07:39:00.842Z</time></trkpt><trkpt lat="44.05354924827563" lon="7.637061357799079"><ele>1274.0</ele><time>2026-05-02T07:39:02.842Z</time></trkpt><trkpt lat="44.05351432680281" lon="7.636905027102686"><ele>1274.75</ele><time>2026-05-02T07:39:04.842Z</time></trkpt><trkpt lat="44.05349529947816" lon="7.636769692933969"><ele>1275.5</ele><time>2026-05-02T07:39:06.842Z</time></trkpt><trkpt lat="44.053470602439766" lon="7.636611325284627"><ele>1276.25</ele><time>2026-05-02T07:39:08.842Z</time></trkpt><trkpt lat="44.053499393959136" lon="7.636435108423983"><ele>1277.0</ele><time>2026-05-02T07:39:10.842Z</time></trkpt><trkpt lat="44.053525697205146" lon="7.6362537539767"><ele>1277.0</ele><time>2026-05-02T07:39:12.842Z</time></trkpt><trkpt lat="44.05354105964478" lon="7.636158939132309"><ele>1277.0</ele><time>2026-05-02T07:39:13.842Z</time></trkpt><trkpt lat="44.053555651047716" lon="7.636071236435249"><ele>1277.0</ele><time>2026-05-02T07:39:14.842Z</time></trkpt><trkpt lat="44.0535610745322" lon="7.6359717065170996"><ele>1277.0</ele><time>2026-05-02T07:39:15.842Z</time></trkpt><trkpt lat="44.0535739371971" lon="7.635876157594845"><ele>1277.0</ele><time>2026-05-02T07:39:16.842Z</time></trkpt><trkpt lat="44.05360176883329" lon="7.635708045096115"><ele>1277.0</ele><time>2026-05-02T07:39:18.842Z</time></trkpt><trkpt lat="44.05362741125931" lon="7.635572740466"><ele>1274.0</ele><time>2026-05-02T07:39:20.842Z</time></trkpt><trkpt lat="44.053645580342845" lon="7.635436830312581"><ele>1271.0</ele><time>2026-05-02T07:39:22.842Z</time></trkpt><trkpt lat="44.05364766764609" lon="7.635296708765014"><ele>1268.0</ele><time>2026-05-02T07:39:24.841Z</time></trkpt><trkpt lat="44.05365402164648" lon="7.635162960003963"><ele>1265.0</ele><time>2026-05-02T07:39:26.841Z</time></trkpt><trkpt lat="44.0512025462974" lon="7.632528912249567"><ele>1259.0</ele><time>2026-05-02T07:40:27.841Z</time></trkpt><trkpt lat="44.051141819102256" lon="7.632481546706765"><ele>1253.0</ele><time>2026-05-02T07:40:30.841Z</time></trkpt><trkpt lat="44.05115624362375" lon="7.632375515547532"><ele>1247.0</ele><time>2026-05-02T07:40:33.841Z</time></trkpt><trkpt lat="44.051222115528276" lon="7.63233806185369"><ele>1241.0</ele><time>2026-05-02T07:40:35.841Z</time></trkpt><trkpt lat="44.0513013789844" lon="7.632372077995318"><ele>1235.0</ele><time>2026-05-02T07:40:37.841Z</time></trkpt><trkpt lat="44.05140200361513" lon="7.632351861064729"><ele>1229.0</ele><time>2026-05-02T07:40:39.841Z</time></trkpt><trkpt lat="44.05149565486471" lon="7.632330475798585"><ele>1229.0</ele><time>2026-05-02T07:40:41.841Z</time></trkpt><trkpt lat="44.0516117919723" lon="7.6323140802209215"><ele>1229.0</ele><time>2026-05-02T07:40:43.841Z</time></trkpt><trkpt lat="44.05167694518285" lon="7.632294254908403"><ele>1229.0</ele><time>2026-05-02T07:40:44.841Z</time></trkpt><trkpt lat="44.051741111680236" lon="7.63227433495099"><ele>1229.0</ele><time>2026-05-02T07:40:45.84Z</time></trkpt><trkpt lat="44.051799451607955" lon="7.632232047023477"><ele>1229.0</ele><time>2026-05-02T07:40:46.84Z</time></trkpt><trkpt lat="44.051865704721365" lon="7.632236310865995"><ele>1229.0</ele><time>2026-05-02T07:40:47.84Z</time></trkpt><trkpt lat="44.051980114142914" lon="7.632180937049701"><ele>1229.0000000000002</ele><time>2026-05-02T07:40:49.84Z</time></trkpt><trkpt lat="44.05204801425631" lon="7.632150414448852"><ele>1229.0</ele><time>2026-05-02T07:40:50.84Z</time></trkpt><trkpt lat="44.05211140997906" lon="7.632132700507814"><ele>1229.0</ele><time>2026-05-02T07:40:51.84Z</time></trkpt><trkpt lat="44.052177423949594" lon="7.632112013899906"><ele>1229.0</ele><time>2026-05-02T07:40:52.84Z</time></trkpt><trkpt lat="44.05224504504445" lon="7.632092539951516"><ele>1229.0</ele><time>2026-05-02T07:40:53.84Z</time></trkpt><trkpt lat="44.052311268657625" lon="7.632070729287595"><ele>1229.0000000000002</ele><time>2026-05-02T07:40:54.84Z</time></trkpt><trkpt lat="44.05238262234609" lon="7.63204101068244"><ele>1229.0</ele><time>2026-05-02T07:40:55.84Z</time></trkpt><trkpt lat="44.05245033834139" lon="7.632012846471998"><ele>1229.2857142857144</ele><time>2026-05-02T07:40:56.84Z</time></trkpt><trkpt lat="44.0525181975183" lon="7.632000218656274"><ele>1229.5714285714287</ele><time>2026-05-02T07:40:57.84Z</time></trkpt><trkpt lat="44.05258243019878" lon="7.631980442757705"><ele>1229.857142857143</ele><time>2026-05-02T07:40:58.84Z</time></trkpt><trkpt lat="44.052641717155076" lon="7.631950372877627"><ele>1230.1428571428573</ele><time>2026-05-02T07:40:59.84Z</time></trkpt><trkpt lat="44.05272515234309" lon="7.631928781002201"><ele>1230.4285714285716</ele><time>2026-05-02T07:41:00.84Z</time></trkpt><trkpt lat="44.05279043899379" lon="7.631904324120429"><ele>1230.7142857142858</ele><time>2026-05-02T07:41:01.84Z</time></trkpt><trkpt lat="44.05285266864021" lon="7.6318846239355915"><ele>1231.0</ele><time>2026-05-02T07:41:02.84Z</time></trkpt><trkpt lat="44.05291442005459" lon="7.631862632910403"><ele>1229.0</ele><time>2026-05-02T07:41:03.84Z</time></trkpt><trkpt lat="44.05298200666137" lon="7.631838011208742"><ele>1227.0</ele><time>2026-05-02T07:41:04.84Z</time></trkpt><trkpt lat="44.0530527135186" lon="7.631805145171952"><ele>1225.0</ele><time>2026-05-02T07:41:05.84Z</time></trkpt><trkpt lat="44.05311932860741" lon="7.631784288733489"><ele>1223.0</ele><time>2026-05-02T07:41:06.84Z</time></trkpt><trkpt lat="44.0531848465464" lon="7.631759074271652"><ele>1221.0</ele><time>2026-05-02T07:41:07.84Z</time></trkpt><trkpt lat="44.05325162426709" lon="7.63173325833995"><ele>1219.0</ele><time>2026-05-02T07:41:08.84Z</time></trkpt><trkpt lat="44.05332441588899" lon="7.631716981803766"><ele>1217.0</ele><time>2026-05-02T07:41:09.84Z</time></trkpt><trkpt lat="44.05338559837659" lon="7.631680466432912"><ele>1217.0</ele><time>2026-05-02T07:41:10.84Z</time></trkpt><trkpt lat="44.053454177963296" lon="7.631649870735998"><ele>1217.0</ele><time>2026-05-02T07:41:11.84Z</time></trkpt><trkpt lat="44.05356615014434" lon="7.631584286587243"><ele>1217.0</ele><time>2026-05-02T07:41:13.839Z</time></trkpt><trkpt lat="44.053628042519996" lon="7.631555968002246"><ele>1217.0</ele><time>2026-05-02T07:41:14.839Z</time></trkpt><trkpt lat="44.05374687834441" lon="7.631510745233976"><ele>1217.0</ele><time>2026-05-02T07:41:16.839Z</time></trkpt><trkpt lat="44.05381378653943" lon="7.631484807876503"><ele>1217.0</ele><time>2026-05-02T07:41:17.839Z</time></trkpt><trkpt lat="44.0538792408015" lon="7.631460095660587"><ele>1217.0</ele><time>2026-05-02T07:41:18.839Z</time></trkpt><trkpt lat="44.05394984094027" lon="7.631436858346762"><ele>1217.0</ele><time>2026-05-02T07:41:19.839Z</time></trkpt><trkpt lat="44.05402155110126" lon="7.631402935123401"><ele>1217.0</ele><time>2026-05-02T07:41:20.839Z</time></trkpt><trkpt lat="44.05409370635801" lon="7.631377316335086"><ele>1217.0</ele><time>2026-05-02T07:41:21.839Z</time></trkpt><trkpt lat="44.05416148525674" lon="7.631344988480524"><ele>1217.0</ele><time>2026-05-02T07:41:22.839Z</time></trkpt><trkpt lat="44.05422942063216" lon="7.631309512852031"><ele>1217.0</ele><time>2026-05-02T07:41:23.839Z</time></trkpt><trkpt lat="44.054291795951215" lon="7.631270643283787"><ele>1215.3333333333335</ele><time>2026-05-02T07:41:24.839Z</time></trkpt><trkpt lat="44.05435445038533" lon="7.6312303768183565"><ele>1213.6666666666667</ele><time>2026-05-02T07:41:25.839Z</time></trkpt><trkpt lat="44.05442586667531" lon="7.631183689658438"><ele>1212.0</ele><time>2026-05-02T07:41:26.839Z</time></trkpt><trkpt lat="44.05695807317251" lon="7.634269956876283"><ele>1212.0</ele><time>2026-05-02T07:42:27.838Z</time></trkpt><trkpt lat="44.056981846442014" lon="7.634401558016926"><ele>1212.0</ele><time>2026-05-02T07:42:28.838Z</time></trkpt><trkpt lat="44.05700591986396" lon="7.634538200889957"><ele>1212.0</ele><time>2026-05-02T07:42:29.838Z</time></trkpt><trkpt lat="44.057005772442224" lon="7.634676546123829"><ele>1212.0</ele><time>2026-05-02T07:42:30.838Z</time></trkpt><trkpt lat="44.057017770091285" lon="7.634827751701824"><ele>1212.0</ele><time>2026-05-02T07:42:31.838Z</time></trkpt><trkpt lat="44.05704240451193" lon="7.634966469630413"><ele>1215.75</ele><time>2026-05-02T07:42:32.838Z</time></trkpt><trkpt lat="44.057057955945474" lon="7.635112897091942"><ele>1219.5</ele><time>2026-05-02T07:42:33.838Z</time></trkpt><trkpt lat="44.05707574084656" lon="7.635268895182702"><ele>1223.25</ele><time>2026-05-02T07:42:34.838Z</time></trkpt><trkpt lat="44.057109321597366" lon="7.63542958463615"><ele>1227.0</ele><time>2026-05-02T07:42:35.838Z</time></trkpt><trkpt lat="44.05714459129813" lon="7.635577161956436"><ele>1229.0</ele><time>2026-05-02T07:42:36.838Z</time></trkpt><trkpt lat="44.05716723093949" lon="7.6357236122079035"><ele>1231.0</ele><time>2026-05-02T07:42:37.838Z</time></trkpt><trkpt lat="44.05718628867459" lon="7.6358712005239555"><ele>1233.0</ele><time>2026-05-02T07:42:38.838Z</time></trkpt><trkpt lat="44.05720959002031" lon="7.636024773214702"><ele>1235.0</ele><time>2026-05-02T07:42:39.838Z</time></trkpt><trkpt lat="44.0572271985726" lon="7.6361820369975035"><ele>1237.0</ele><time>2026-05-02T07:42:40.838Z</time></trkpt><trkpt lat="44.05724493744931" lon="7.636332333821128"><ele>1239.0</ele><time>2026-05-02T07:42:41.838Z</time></trkpt><trkpt lat="44.05726959758068" lon="7.636469799164795"><ele>1241.0</ele><time>2026-05-02T07:42:42.838Z</time></trkpt><trkpt lat="44.05728735076007" lon="7.636602690068432"><ele>1243.0</ele><time>2026-05-02T07:42:43.838Z</time></trkpt><trkpt lat="44.05731179980422" lon="7.636739598230794"><ele>1245.0</ele><time>2026-05-02T07:42:44.838Z</time></trkpt><trkpt lat="44.05732956450325" lon="7.636871092187227"><ele>1247.0</ele><time>2026-05-02T07:42:45.838Z</time></trkpt><trkpt lat="44.05735447387176" lon="7.6370187500100295"><ele>1248.8333333333335</ele><time>2026-05-02T07:42:46.838Z</time></trkpt><trkpt lat="44.05737550375071" lon="7.637149238946649"><ele>1250.6666666666667</ele><time>2026-05-02T07:42:47.838Z</time></trkpt><trkpt lat="44.057402884662416" lon="7.637262291107247"><ele>1252.5</ele><time>2026-05-02T07:42:48.838Z</time></trkpt><trkpt lat="44.05744615490317" lon="7.637360565506243"><ele>1254.3333333333333</ele><time>2026-05-02T07:42:49.838Z</time></trkpt><trkpt lat="44.05748885238637" lon="7.637461793350434"><ele>1256.1666666666665</ele><time>2026-05-02T07:42:50.838Z</time></trkpt><trkpt lat="44.05752900023642" lon="7.637575152792837"><ele>1258.0</ele><time>2026-05-02T07:42:51.838Z</time></trkpt><trkpt lat="44.05759771591774" lon="7.6376587765112705"><ele>1249.4</ele><time>2026-05-02T07:42:52.838Z</time></trkpt><trkpt lat="44.05767533246721" lon="7.637736301123376"><ele>1240.8</ele><time>2026-05-02T07:42:53.837Z</time></trkpt><trkpt lat="44.05776111036533" lon="7.637794557655986"><ele>1232.2</ele><time>2026-05-02T07:42:54.837Z</time></trkpt><trkpt lat="44.057847687323026" lon="7.637834439049221"><ele>1223.6</ele><time>2026-05-02T07:42:55.837Z</time></trkpt><trkpt lat="44.057933771604645" lon="7.63786090678069"><ele>1215.0</ele><time>2026-05-02T07:42:56.837Z</time></trkpt><trkpt lat="44.0580179715656" lon="7.637883133066539"><ele>1215.0</ele><time>2026-05-02T07:42:57.837Z</time></trkpt><trkpt lat="44.05810931851086" lon="7.637898323469524"><ele>1215.0</ele><time>2026-05-02T07:42:58.837Z</time></trkpt><trkpt lat="44.05819036986481" lon="7.637927311806476"><ele>1215.0</ele><time>2026-05-02T07:42:59.837Z</time></trkpt><trkpt lat="44.0582664634729" lon="7.637987207694623"><ele>1215.0</ele><time>2026-05-02T07:43:00.837Z</time></trkpt><trkpt lat="44.05833213393192" lon="7.638048580367958"><ele>1215.0</ele><time>2026-05-02T07:43:01.837Z</time></trkpt><trkpt lat="44.0584077232655" lon="7.6381270718490395"><ele>1215.0</ele><time>2026-05-02T07:43:02.837Z</time></trkpt><trkpt lat="44.05847288187724" lon="7.638217846981999"><ele>1212.8333333333333</ele><time>2026-05-02T07:43:03.837Z</time></trkpt><trkpt lat="44.05853316370282" lon="7.63831029824921"><ele>1210.6666666666667</ele><time>2026-05-02T07:43:04.837Z</time></trkpt><trkpt lat="44.058598118227636" lon="7.638397644601934"><ele>1208.5</ele><time>2026-05-02T07:43:05.837Z</time></trkpt><trkpt lat="44.05866381370642" lon="7.638474001389978"><ele>1206.3333333333335</ele><time>2026-05-02T07:43:06.837Z</time></trkpt><trkpt lat="44.05872675410851" lon="7.638551843136078"><ele>1204.1666666666667</ele><time>2026-05-02T07:43:07.837Z</time></trkpt><trkpt lat="44.058783773500224" lon="7.638621942279818"><ele>1202.0</ele><time>2026-05-02T07:43:08.837Z</time></trkpt><trkpt lat="44.05883882848994" lon="7.638692528862438"><ele>1202.0</ele><time>2026-05-02T07:43:09.837Z</time></trkpt><trkpt lat="44.0588959174814" lon="7.638763734734957"><ele>1202.0</ele><time>2026-05-02T07:43:10.837Z</time></trkpt><trkpt lat="44.058955768307015" lon="7.638836934229322"><ele>1202.0</ele><time>2026-05-02T07:43:11.837Z</time></trkpt><trkpt lat="44.05900812593685" lon="7.638920561302026"><ele>1202.0</ele><time>2026-05-02T07:43:12.837Z</time></trkpt><trkpt lat="44.059059261910086" lon="7.6390105117814056"><ele>1202.0</ele><time>2026-05-02T07:43:13.837Z</time></trkpt><trkpt lat="44.059095728783404" lon="7.639107234857308"><ele>1202.0</ele><time>2026-05-02T07:43:14.837Z</time></trkpt><trkpt lat="44.05913357181456" lon="7.639214781893713"><ele>1201.5</ele><time>2026-05-02T07:43:15.837Z</time></trkpt><trkpt lat="44.059159146651545" lon="7.639311024355336"><ele>1201.0</ele><time>2026-05-02T07:43:16.837Z</time></trkpt><trkpt lat="44.05919558701233" lon="7.639401331108344"><ele>1200.5</ele><time>2026-05-02T07:43:17.837Z</time></trkpt><trkpt lat="44.05923743244446" lon="7.639486576317585"><ele>1200.0</ele><time>2026-05-02T07:43:18.837Z</time></trkpt><trkpt lat="44.0592904661849" lon="7.63956383870168"><ele>1199.5</ele><time>2026-05-02T07:43:19.836Z</time></trkpt><trkpt lat="44.05934848059839" lon="7.639642859263874"><ele>1199.0</ele><time>2026-05-02T07:43:20.836Z</time></trkpt><trkpt lat="44.059406471246746" lon="7.6397175509850435"><ele>1199.0</ele><time>2026-05-02T07:43:21.836Z</time></trkpt><trkpt lat="44.05946408733686" lon="7.63977610977241"><ele>1199.0</ele><time>2026-05-02T07:43:22.836Z</time></trkpt><trkpt lat="44.059524560743306" lon="7.639836133736883"><ele>1199.0</ele><time>2026-05-02T07:43:23.836Z</time></trkpt><trkpt lat="44.059582831526605" lon="7.639892299519472"><ele>1199.0</ele><time>2026-05-02T07:43:24.836Z</time></trkpt><trkpt lat="44.059643633585104" lon="7.639929495572487"><ele>1199.0</ele><time>2026-05-02T07:43:25.836Z</time></trkpt><trkpt lat="44.060972099209835" lon="7.644719447876853"><ele>1189.3333333333335</ele><time>2026-05-02T07:44:27.837Z</time></trkpt><trkpt lat="44.06095945102888" lon="7.644819743966241"><ele>1179.6666666666667</ele><time>2026-05-02T07:44:28.837Z</time></trkpt><trkpt lat="44.06096326897897" lon="7.6449229657195925"><ele>1170.0</ele><time>2026-05-02T07:44:29.837Z</time></trkpt><trkpt lat="44.060919622483986" lon="7.645029882424926"><ele>1160.3333333333333</ele><time>2026-05-02T07:44:30.836Z</time></trkpt><trkpt lat="44.060885512499354" lon="7.6451483354736895"><ele>1150.6666666666665</ele><time>2026-05-02T07:44:31.836Z</time></trkpt><trkpt lat="44.06084078182028" lon="7.6452612890705085"><ele>1141.0</ele><time>2026-05-02T07:44:32.836Z</time></trkpt><trkpt lat="44.06080028200648" lon="7.645357936741169"><ele>1145.6666666666665</ele><time>2026-05-02T07:44:33.836Z</time></trkpt><trkpt lat="44.060760832367166" lon="7.645464803911612"><ele>1150.3333333333333</ele><time>2026-05-02T07:44:34.836Z</time></trkpt><trkpt lat="44.06072584671825" lon="7.6455689680561285"><ele>1155.0</ele><time>2026-05-02T07:44:35.836Z</time></trkpt><trkpt lat="44.06069624285966" lon="7.6456870341149425"><ele>1159.6666666666667</ele><time>2026-05-02T07:44:36.836Z</time></trkpt><trkpt lat="44.060688547758744" lon="7.645808033508586"><ele>1164.3333333333335</ele><time>2026-05-02T07:44:37.836Z</time></trkpt><trkpt lat="44.06067082331755" lon="7.645923646045314"><ele>1169.0</ele><time>2026-05-02T07:44:38.836Z</time></trkpt><trkpt lat="44.06063660470795" lon="7.646018151238606"><ele>1169.0</ele><time>2026-05-02T07:44:39.836Z</time></trkpt><trkpt lat="44.06062031693922" lon="7.646116058546432"><ele>1169.0</ele><time>2026-05-02T07:44:40.836Z</time></trkpt><trkpt lat="44.06060122552816" lon="7.646217773390392"><ele>1169.0</ele><time>2026-05-02T07:44:41.836Z</time></trkpt><trkpt lat="44.0605817377811" lon="7.6463152590758785"><ele>1169.0</ele><time>2026-05-02T07:44:42.836Z</time></trkpt><trkpt lat="44.060543730015404" lon="7.646394125981404"><ele>1169.0</ele><time>2026-05-02T07:44:43.836Z</time></trkpt><trkpt lat="44.060486874174565" lon="7.6464357044612274"><ele>1169.0</ele><time>2026-05-02T07:44:44.836Z</time></trkpt><trkpt lat="44.06043133356007" lon="7.646502222688382"><ele>1169.0</ele><time>2026-05-02T07:44:45.836Z</time></trkpt><trkpt lat="44.06038320432403" lon="7.64656428640643"><ele>1165.2</ele><time>2026-05-02T07:44:46.836Z</time></trkpt><trkpt lat="44.060323242522045" lon="7.646645848626206"><ele>1161.4</ele><time>2026-05-02T07:44:47.836Z</time></trkpt><trkpt lat="44.06026277217977" lon="7.6467533367018685"><ele>1157.6</ele><time>2026-05-02T07:44:48.836Z</time></trkpt><trkpt lat="44.060218440297575" lon="7.646863721233801"><ele>1153.8</ele><time>2026-05-02T07:44:49.836Z</time></trkpt><trkpt lat="44.06019512360946" lon="7.646994635572594"><ele>1150.0</ele><time>2026-05-02T07:44:50.836Z</time></trkpt><trkpt lat="44.06017179677231" lon="7.647115504568618"><ele>1145.6</ele><time>2026-05-02T07:44:51.836Z</time></trkpt><trkpt lat="44.06015283785922" lon="7.647261052648643"><ele>1141.2</ele><time>2026-05-02T07:44:52.836Z</time></trkpt><trkpt lat="44.060141716210644" lon="7.647391038295804"><ele>1136.8</ele><time>2026-05-02T07:44:53.836Z</time></trkpt><trkpt lat="44.06013705627732" lon="7.647516203354641"><ele>1132.4</ele><time>2026-05-02T07:44:54.836Z</time></trkpt><trkpt lat="44.06011576816932" lon="7.647631344196349"><ele>1128.0</ele><time>2026-05-02T07:44:55.836Z</time></trkpt><trkpt lat="44.06009034550294" lon="7.64773303881785"><ele>1124.8333333333333</ele><time>2026-05-02T07:44:56.835Z</time></trkpt><trkpt lat="44.06004500446133" lon="7.647810636142416"><ele>1121.6666666666667</ele><time>2026-05-02T07:44:57.835Z</time></trkpt><trkpt lat="44.06000466314381" lon="7.647885083804682"><ele>1118.5</ele><time>2026-05-02T07:44:58.835Z</time></trkpt><trkpt lat="44.05993890967089" lon="7.647934368344955"><ele>1115.3333333333335</ele><time>2026-05-02T07:44:59.835Z</time></trkpt><trkpt lat="44.059876994357" lon="7.64804522756458"><ele>1112.1666666666667</ele><time>2026-05-02T07:45:01.835Z</time></trkpt><trkpt lat="44.059914257042074" lon="7.648189169929025"><ele>1109.0</ele><time>2026-05-02T07:45:03.835Z</time></trkpt><trkpt lat="44.05999445090454" lon="7.64821548894436"><ele>1108.9999999999998</ele><time>2026-05-02T07:45:05.835Z</time></trkpt><trkpt lat="44.06006049799436" lon="7.648185171580709"><ele>1109.0</ele><time>2026-05-02T07:45:06.835Z</time></trkpt><trkpt lat="44.06010724782726" lon="7.648119195239332"><ele>1109.0</ele><time>2026-05-02T07:45:07.835Z</time></trkpt><trkpt lat="44.060143081218946" lon="7.648025904137017"><ele>1109.0</ele><time>2026-05-02T07:45:08.835Z</time></trkpt><trkpt lat="44.0601743563473" lon="7.647941502398041"><ele>1109.0</ele><time>2026-05-02T07:45:09.835Z</time></trkpt><trkpt lat="44.06021226776921" lon="7.647847676947534"><ele>1108.9999999999998</ele><time>2026-05-02T07:45:10.835Z</time></trkpt><trkpt lat="44.06024926644686" lon="7.647758478686617"><ele>1109.0</ele><time>2026-05-02T07:45:11.835Z</time></trkpt><trkpt lat="44.06028503547673" lon="7.647676740201246"><ele>1112.1666666666667</ele><time>2026-05-02T07:45:12.835Z</time></trkpt><trkpt lat="44.06032253151327" lon="7.647590511855974"><ele>1115.3333333333335</ele><time>2026-05-02T07:45:13.835Z</time></trkpt><trkpt lat="44.06039786912707" lon="7.647454556809941"><ele>1118.5</ele><time>2026-05-02T07:45:15.835Z</time></trkpt><trkpt lat="44.06043153437314" lon="7.647378961463358"><ele>1121.6666666666667</ele><time>2026-05-02T07:45:16.835Z</time></trkpt><trkpt lat="44.06045527366296" lon="7.647297345861055"><ele>1124.8333333333333</ele><time>2026-05-02T07:45:17.835Z</time></trkpt><trkpt lat="44.060513931952016" lon="7.6471699189166715"><ele>1128.0</ele><time>2026-05-02T07:45:19.835Z</time></trkpt><trkpt lat="44.060588832024145" lon="7.647050761168482"><ele>1128.0</ele><time>2026-05-02T07:45:21.835Z</time></trkpt><trkpt lat="44.06064855304431" lon="7.64701977721082"><ele>1128.0</ele><time>2026-05-02T07:45:22.835Z</time></trkpt><trkpt lat="44.06071593676371" lon="7.6469983717075145"><ele>1128.0</ele><time>2026-05-02T07:45:23.834Z</time></trkpt><trkpt lat="44.06078874752861" lon="7.647000848266495"><ele>1128.0</ele><time>2026-05-02T07:45:24.834Z</time></trkpt><trkpt lat="44.06086402375465" lon="7.647013266864776"><ele>1128.0</ele><time>2026-05-02T07:45:25.834Z</time></trkpt><trkpt lat="44.060927836234" lon="7.647020918941831"><ele>1128.0</ele><time>2026-05-02T07:45:26.834Z</time></trkpt><trkpt lat="44.063341309100984" lon="7.642140596752359"><ele>1116.3333333333333</ele><time>2026-05-02T07:46:27.834Z</time></trkpt><trkpt lat="44.06337856820624" lon="7.642041235767272"><ele>1104.6666666666667</ele><time>2026-05-02T07:46:28.834Z</time></trkpt><trkpt lat="44.06342582868943" lon="7.641960266211957"><ele>1093.0</ele><time>2026-05-02T07:46:29.834Z</time></trkpt><trkpt lat="44.063472994364325" lon="7.6418721476461124"><ele>1081.3333333333335</ele><time>2026-05-02T07:46:30.834Z</time></trkpt><trkpt lat="44.063515507649385" lon="7.641784527757321"><ele>1069.6666666666667</ele><time>2026-05-02T07:46:31.834Z</time></trkpt><trkpt lat="44.06354096518971" lon="7.641693879944587"><ele>1058.0</ele><time>2026-05-02T07:46:32.834Z</time></trkpt><trkpt lat="44.06358995778161" lon="7.641617455368079"><ele>1058.0</ele><time>2026-05-02T07:46:33.834Z</time></trkpt><trkpt lat="44.06364089910338" lon="7.641543759201902"><ele>1058.0</ele><time>2026-05-02T07:46:34.833Z</time></trkpt><trkpt lat="44.06369565625954" lon="7.641467409644845"><ele>1058.0</ele><time>2026-05-02T07:46:35.833Z</time></trkpt><trkpt lat="44.06374126802018" lon="7.641404837405371"><ele>1058.0</ele><time>2026-05-02T07:46:36.833Z</time></trkpt><trkpt lat="44.06378948761894" lon="7.641327223605215"><ele>1058.0</ele><time>2026-05-02T07:46:37.833Z</time></trkpt><trkpt lat="44.06383518856842" lon="7.64125296970777"><ele>1058.0</ele><time>2026-05-02T07:46:38.833Z</time></trkpt><trkpt lat="44.06387417242609" lon="7.641179467271334"><ele>1058.0</ele><time>2026-05-02T07:46:39.833Z</time></trkpt><trkpt lat="44.063911889718675" lon="7.641096533109672"><ele>1054.1666666666667</ele><time>2026-05-02T07:46:40.833Z</time></trkpt><trkpt lat="44.06393671492498" lon="7.641012433504591"><ele>1050.3333333333335</ele><time>2026-05-02T07:46:41.833Z</time></trkpt><trkpt lat="44.06395547719589" lon="7.640927976832686"><ele>1046.5</ele><time>2026-05-02T07:46:42.833Z</time></trkpt><trkpt lat="44.06400050468617" lon="7.640805166551846"><ele>1042.6666666666667</ele><time>2026-05-02T07:46:44.833Z</time></trkpt><trkpt lat="44.06407138031369" lon="7.64080143947899"><ele>1038.8333333333333</ele><time>2026-05-02T07:46:46.833Z</time></trkpt><trkpt lat="44.0641162595881" lon="7.640901336332394"><ele>1035.0</ele><time>2026-05-02T07:46:48.833Z</time></trkpt><trkpt lat="44.064039578880696" lon="7.641012088074786"><ele>1035.0</ele><time>2026-05-02T07:46:50.833Z</time></trkpt><trkpt lat="44.063998650695915" lon="7.641079478638069"><ele>1035.0</ele><time>2026-05-02T07:46:51.833Z</time></trkpt><trkpt lat="44.06396129188006" lon="7.641165957665006"><ele>1035.0</ele><time>2026-05-02T07:46:52.833Z</time></trkpt><trkpt lat="44.063902828731734" lon="7.641235320111536"><ele>1035.0</ele><time>2026-05-02T07:46:53.833Z</time></trkpt><trkpt lat="44.06386319560104" lon="7.641311232614761"><ele>1035.0</ele><time>2026-05-02T07:46:54.833Z</time></trkpt><trkpt lat="44.063827070757114" lon="7.641393851072423"><ele>1035.0</ele><time>2026-05-02T07:46:55.833Z</time></trkpt><trkpt lat="44.063794321395974" lon="7.641479336217338"><ele>1035.0</ele><time>2026-05-02T07:46:56.833Z</time></trkpt><trkpt lat="44.06375913570046" lon="7.64158569125732"><ele>1036.5</ele><time>2026-05-02T07:46:57.833Z</time></trkpt><trkpt lat="44.06372247991236" lon="7.6416997570360525"><ele>1038.0</ele><time>2026-05-02T07:46:58.833Z</time></trkpt><trkpt lat="44.06368729642133" lon="7.6417933916481005"><ele>1039.5</ele><time>2026-05-02T07:46:59.833Z</time></trkpt><trkpt lat="44.0636629683955" lon="7.641905183794772"><ele>1041.0</ele><time>2026-05-02T07:47:00.832Z</time></trkpt><trkpt lat="44.06363532418061" lon="7.642001025659779"><ele>1042.5</ele><time>2026-05-02T07:47:01.832Z</time></trkpt><trkpt lat="44.06360709586891" lon="7.642105141424675"><ele>1044.0</ele><time>2026-05-02T07:47:02.832Z</time></trkpt><trkpt lat="44.06358843228472" lon="7.642211013056022"><ele>1044.0</ele><time>2026-05-02T07:47:03.832Z</time></trkpt><trkpt lat="44.063547809827426" lon="7.642317175786287"><ele>1044.0</ele><time>2026-05-02T07:47:04.832Z</time></trkpt><trkpt lat="44.06353000494067" lon="7.6424227146552175"><ele>1044.0</ele><time>2026-05-02T07:47:05.832Z</time></trkpt><trkpt lat="44.063512608891" lon="7.642524349297379"><ele>1044.0</ele><time>2026-05-02T07:47:06.832Z</time></trkpt><trkpt lat="44.06349319403172" lon="7.642647001384961"><ele>1044.0</ele><time>2026-05-02T07:47:07.832Z</time></trkpt><trkpt lat="44.063481491210354" lon="7.642753264662242"><ele>1044.0</ele><time>2026-05-02T07:47:08.832Z</time></trkpt><trkpt lat="44.06345941262121" lon="7.6428534002705755"><ele>1042.1666666666667</ele><time>2026-05-02T07:47:09.832Z</time></trkpt><trkpt lat="44.063445334227936" lon="7.6429472901490305"><ele>1040.3333333333333</ele><time>2026-05-02T07:47:10.832Z</time></trkpt><trkpt lat="44.06342498512578" lon="7.643057476109459"><ele>1038.5</ele><time>2026-05-02T07:47:11.832Z</time></trkpt><trkpt lat="44.06342057032795" lon="7.643151995883816"><ele>1036.6666666666665</ele><time>2026-05-02T07:47:12.832Z</time></trkpt><trkpt lat="44.06341645635984" lon="7.643255276182728"><ele>1034.8333333333333</ele><time>2026-05-02T07:47:13.832Z</time></trkpt><trkpt lat="44.063420084557286" lon="7.643368602542497"><ele>1033.0</ele><time>2026-05-02T07:47:14.832Z</time></trkpt><trkpt lat="44.06343330681765" lon="7.643478049045943"><ele>1033.0</ele><time>2026-05-02T07:47:15.832Z</time></trkpt><trkpt lat="44.06343714580017" lon="7.643589425712386"><ele>1033.0</ele><time>2026-05-02T07:47:16.832Z</time></trkpt><trkpt lat="44.06345537621303" lon="7.643706249120835"><ele>1033.0</ele><time>2026-05-02T07:47:17.832Z</time></trkpt><trkpt lat="44.06347650420467" lon="7.643819792686087"><ele>1033.0</ele><time>2026-05-02T07:47:18.832Z</time></trkpt><trkpt lat="44.06351068241235" lon="7.643933936200064"><ele>1033.0</ele><time>2026-05-02T07:47:19.832Z</time></trkpt><trkpt lat="44.06354336376871" lon="7.644039345084616"><ele>1033.0</ele><time>2026-05-02T07:47:20.832Z</time></trkpt><trkpt lat="44.06357957160383" lon="7.644149099473444"><ele>1033.0</ele><time>2026-05-02T07:47:21.832Z</time></trkpt><trkpt lat="44.063618630454265" lon="7.644256088504299"><ele>1033.0</ele><time>2026-05-02T07:47:22.832Z</time></trkpt><trkpt lat="44.06365575865292" lon="7.644357358247321"><ele>1033.0</ele><time>2026-05-02T07:47:23.832Z</time></trkpt><trkpt lat="44.06369693916712" lon="7.644469383750594"><ele>1033.0</ele><time>2026-05-02T07:47:24.832Z</time></trkpt><trkpt lat="44.06373087264266" lon="7.644565320066395"><ele>1033.0</ele><time>2026-05-02T07:47:25.832Z</time></trkpt><trkpt lat="44.06377535100739" lon="7.644646949565299"><ele>1033.0</ele><time>2026-05-02T07:47:26.831Z</time></trkpt><trkpt lat="44.062876279158154" lon="7.648866870330655"><ele>1023.6666666666666</ele><time>2026-05-02T07:48:27.831Z</time></trkpt><trkpt lat="44.062811313977136" lon="7.648951670485947"><ele>1014.3333333333333</ele><time>2026-05-02T07:48:28.831Z</time></trkpt><trkpt lat="44.06275436756728" lon="7.649044125174979"><ele>1005.0</ele><time>2026-05-02T07:48:29.831Z</time></trkpt><trkpt lat="44.06271092937261" lon="7.649141114810335"><ele>995.6666666666667</ele><time>2026-05-02T07:48:30.831Z</time></trkpt><trkpt lat="44.06267221069439" lon="7.649255401947958"><ele>986.3333333333334</ele><time>2026-05-02T07:48:31.831Z</time></trkpt><trkpt lat="44.06263953012193" lon="7.649356934094594"><ele>977.0</ele><time>2026-05-02T07:48:32.831Z</time></trkpt><trkpt lat="44.062625019258064" lon="7.649478419563684"><ele>976.8333333333334</ele><time>2026-05-02T07:48:33.831Z</time></trkpt><trkpt lat="44.06260850176425" lon="7.649568658935923"><ele>976.6666666666667</ele><time>2026-05-02T07:48:34.831Z</time></trkpt><trkpt lat="44.06254721421503" lon="7.649708892374695"><ele>976.5</ele><time>2026-05-02T07:48:36.831Z</time></trkpt><trkpt lat="44.06246921411392" lon="7.649729881270473"><ele>976.3333333333333</ele><time>2026-05-02T07:48:37.831Z</time></trkpt><trkpt lat="44.062407885458384" lon="7.649751759247728"><ele>976.1666666666666</ele><time>2026-05-02T07:48:38.831Z</time></trkpt><trkpt lat="44.0623369070133" lon="7.6497502339100025"><ele>976.0</ele><time>2026-05-02T07:48:39.831Z</time></trkpt><trkpt lat="44.062272418741145" lon="7.649758580058757"><ele>975.9999999999999</ele><time>2026-05-02T07:48:40.831Z</time></trkpt><trkpt lat="44.062195371908786" lon="7.649790085655931"><ele>976.0</ele><time>2026-05-02T07:48:41.831Z</time></trkpt><trkpt lat="44.062114521377374" lon="7.6497949747820995"><ele>976.0</ele><time>2026-05-02T07:48:42.831Z</time></trkpt><trkpt lat="44.062030519103736" lon="7.649823407493901"><ele>976.0</ele><time>2026-05-02T07:48:43.831Z</time></trkpt><trkpt lat="44.0619569894142" lon="7.6498596730640465"><ele>975.9999999999999</ele><time>2026-05-02T07:48:44.831Z</time></trkpt><trkpt lat="44.061890658375525" lon="7.649915563049381"><ele>976.0</ele><time>2026-05-02T07:48:45.831Z</time></trkpt><trkpt lat="44.06184470214426" lon="7.649977870283035"><ele>975.9999999999999</ele><time>2026-05-02T07:48:46.831Z</time></trkpt><trkpt lat="44.061838733731484" lon="7.650096363195762"><ele>976.0</ele><time>2026-05-02T07:48:47.831Z</time></trkpt><trkpt lat="44.06184047792266" lon="7.650226015760931"><ele>976.0</ele><time>2026-05-02T07:48:48.831Z</time></trkpt><trkpt lat="44.06186696367333" lon="7.65034164264723"><ele>976.0</ele><time>2026-05-02T07:48:49.831Z</time></trkpt><trkpt lat="44.06188130694571" lon="7.650463681046371"><ele>975.9999999999999</ele><time>2026-05-02T07:48:50.831Z</time></trkpt><trkpt lat="44.061861851350976" lon="7.650575154591069"><ele>976.0</ele><time>2026-05-02T07:48:51.831Z</time></trkpt><trkpt lat="44.06186476107774" lon="7.650683429403424"><ele>974.8333333333333</ele><time>2026-05-02T07:48:52.831Z</time></trkpt><trkpt lat="44.06183687601366" lon="7.65079639594648"><ele>973.6666666666666</ele><time>2026-05-02T07:48:53.83Z</time></trkpt><trkpt lat="44.06183651825168" lon="7.650904899647048"><ele>972.5</ele><time>2026-05-02T07:48:54.83Z</time></trkpt><trkpt lat="44.061855391979556" lon="7.651023730783737"><ele>971.3333333333333</ele><time>2026-05-02T07:48:55.83Z</time></trkpt><trkpt lat="44.061905493606055" lon="7.651121631177786"><ele>970.1666666666666</ele><time>2026-05-02T07:48:56.83Z</time></trkpt><trkpt lat="44.061928454398206" lon="7.651229422550981"><ele>969.0</ele><time>2026-05-02T07:48:57.83Z</time></trkpt><trkpt lat="44.06196061931167" lon="7.6513251546168535"><ele>968.8000000000001</ele><time>2026-05-02T07:48:58.83Z</time></trkpt><trkpt lat="44.06199870651622" lon="7.651416257350621"><ele>968.6000000000001</ele><time>2026-05-02T07:48:59.83Z</time></trkpt><trkpt lat="44.06205109780841" lon="7.651493956321712"><ele>968.4</ele><time>2026-05-02T07:49:00.83Z</time></trkpt><trkpt lat="44.06210478331537" lon="7.651554549552865"><ele>968.2</ele><time>2026-05-02T07:49:01.83Z</time></trkpt><trkpt lat="44.06218785801173" lon="7.651678452865287"><ele>968.0</ele><time>2026-05-02T07:49:03.83Z</time></trkpt><trkpt lat="44.0622134723934" lon="7.651829831655488"><ele>968.0000000000001</ele><time>2026-05-02T07:49:05.83Z</time></trkpt><trkpt lat="44.062201506507684" lon="7.651916792123687"><ele>968.0</ele><time>2026-05-02T07:49:06.83Z</time></trkpt><trkpt lat="44.06208299331776" lon="7.652015106706213"><ele>968.0</ele><time>2026-05-02T07:49:08.83Z</time></trkpt><trkpt lat="44.06202538016623" lon="7.65207518963532"><ele>968.0</ele><time>2026-05-02T07:49:09.83Z</time></trkpt><trkpt lat="44.0619743575316" lon="7.652134257660951"><ele>968.0000000000001</ele><time>2026-05-02T07:49:10.83Z</time></trkpt><trkpt lat="44.061917947807416" lon="7.652216686759586"><ele>968.0</ele><time>2026-05-02T07:49:11.83Z</time></trkpt><trkpt lat="44.06188103412876" lon="7.652335184225479"><ele>965.3333333333334</ele><time>2026-05-02T07:49:12.83Z</time></trkpt><trkpt lat="44.061816451661066" lon="7.652434676511763"><ele>962.6666666666667</ele><time>2026-05-02T07:49:13.83Z</time></trkpt><trkpt lat="44.06177156156315" lon="7.6525374827719554"><ele>960.0</ele><time>2026-05-02T07:49:14.83Z</time></trkpt><trkpt lat="44.061727926933145" lon="7.652644385359311"><ele>957.3333333333333</ele><time>2026-05-02T07:49:15.83Z</time></trkpt><trkpt lat="44.06169205510607" lon="7.652736699089552"><ele>954.6666666666666</ele><time>2026-05-02T07:49:16.83Z</time></trkpt><trkpt lat="44.06167606523698" lon="7.652838325036947"><ele>952.0</ele><time>2026-05-02T07:49:17.83Z</time></trkpt><trkpt lat="44.061645643305056" lon="7.652947044004072"><ele>947.9999999999999</ele><time>2026-05-02T07:49:18.83Z</time></trkpt><trkpt lat="44.06161858266307" lon="7.6530542621923265"><ele>944.0</ele><time>2026-05-02T07:49:19.829Z</time></trkpt><trkpt lat="44.0615930028802" lon="7.653166680226242"><ele>940.0</ele><time>2026-05-02T07:49:20.829Z</time></trkpt><trkpt lat="44.06158129091897" lon="7.653274171316491"><ele>936.0</ele><time>2026-05-02T07:49:21.829Z</time></trkpt><trkpt lat="44.06157447170829" lon="7.653372108695087"><ele>931.9999999999999</ele><time>2026-05-02T07:49:22.829Z</time></trkpt><trkpt lat="44.06156877826888" lon="7.653463071422972"><ele>928.0</ele><time>2026-05-02T07:49:23.829Z</time></trkpt><trkpt lat="44.06157339338317" lon="7.653564008214211"><ele>934.0</ele><time>2026-05-02T07:49:24.829Z</time></trkpt><trkpt lat="44.06157736442907" lon="7.653653083963647"><ele>940.0</ele><time>2026-05-02T07:49:25.829Z</time></trkpt><trkpt lat="44.06122514401899" lon="7.659033028352061"><ele>939.9999999999999</ele><time>2026-05-02T07:50:27.829Z</time></trkpt><trkpt lat="44.06123596270982" lon="7.659122999610657"><ele>940.0</ele><time>2026-05-02T07:50:28.829Z</time></trkpt><trkpt lat="44.061225802032" lon="7.65922319038738"><ele>940.0</ele><time>2026-05-02T07:50:29.829Z</time></trkpt><trkpt lat="44.06123207689099" lon="7.659373199158771"><ele>940.0</ele><time>2026-05-02T07:50:31.829Z</time></trkpt><trkpt lat="44.06129060408205" lon="7.659418501927347"><ele>939.9999999999999</ele><time>2026-05-02T07:50:32.829Z</time></trkpt><trkpt lat="44.06137662050349" lon="7.659434123098727"><ele>940.0</ele><time>2026-05-02T07:50:34.828Z</time></trkpt><trkpt lat="44.06140396077899" lon="7.659334685375721"><ele>940.0</ele><time>2026-05-02T07:50:36.828Z</time></trkpt><trkpt lat="44.06141320761705" lon="7.659220497388568"><ele>940.0</ele><time>2026-05-02T07:50:39.828Z</time></trkpt><trkpt lat="44.06139423856777" lon="7.659075474414408"><ele>940.0</ele><time>2026-05-02T07:50:41.828Z</time></trkpt><trkpt lat="44.06136786838372" lon="7.65899232463322"><ele>940.0</ele><time>2026-05-02T07:50:42.828Z</time></trkpt><trkpt lat="44.061333170807124" lon="7.658839182211891"><ele>940.0</ele><time>2026-05-02T07:50:44.828Z</time></trkpt><trkpt lat="44.06132546389237" lon="7.658660614814029"><ele>937.6666666666666</ele><time>2026-05-02T07:50:46.828Z</time></trkpt><trkpt lat="44.06130240736662" lon="7.65854595821635"><ele>935.3333333333333</ele><time>2026-05-02T07:50:47.828Z</time></trkpt><trkpt lat="44.0612698503108" lon="7.658441094836453"><ele>933.0</ele><time>2026-05-02T07:50:48.828Z</time></trkpt><trkpt lat="44.06123463693045" lon="7.658340241467674"><ele>930.6666666666667</ele><time>2026-05-02T07:50:49.828Z</time></trkpt><trkpt lat="44.06118810661575" lon="7.658249359284953"><ele>928.3333333333334</ele><time>2026-05-02T07:50:50.828Z</time></trkpt><trkpt lat="44.061158241349226" lon="7.6581217017965795"><ele>926.0</ele><time>2026-05-02T07:50:51.828Z</time></trkpt><trkpt lat="44.061108025204035" lon="7.65801272853958"><ele>926.0000000000001</ele><time>2026-05-02T07:50:52.828Z</time></trkpt><trkpt lat="44.06106304725342" lon="7.657911896925495"><ele>926.0</ele><time>2026-05-02T07:50:53.828Z</time></trkpt><trkpt lat="44.06103218175433" lon="7.65780938637212"><ele>926.0</ele><time>2026-05-02T07:50:54.828Z</time></trkpt><trkpt lat="44.06101015463934" lon="7.657725065191133"><ele>926.0</ele><time>2026-05-02T07:50:55.828Z</time></trkpt><trkpt lat="44.060998967364704" lon="7.657610879343173"><ele>926.0000000000001</ele><time>2026-05-02T07:50:56.828Z</time></trkpt><trkpt lat="44.06100885677421" lon="7.657506967152449"><ele>926.0</ele><time>2026-05-02T07:50:57.828Z</time></trkpt><trkpt lat="44.06101004078827" lon="7.657399801888619"><ele>925.5000000000001</ele><time>2026-05-02T07:50:58.828Z</time></trkpt><trkpt lat="44.06101909984392" lon="7.6572896439939715"><ele>925.0</ele><time>2026-05-02T07:50:59.828Z</time></trkpt><trkpt lat="44.06101661191777" lon="7.657185087937227"><ele>924.5</ele><time>2026-05-02T07:51:00.827Z</time></trkpt><trkpt lat="44.06103713162014" lon="7.657062938519824"><ele>924.0</ele><time>2026-05-02T07:51:01.827Z</time></trkpt><trkpt lat="44.06106294230224" lon="7.656941226892457"><ele>923.5000000000001</ele><time>2026-05-02T07:51:02.827Z</time></trkpt><trkpt lat="44.06108829233305" lon="7.656831771664856"><ele>923.0</ele><time>2026-05-02T07:51:03.827Z</time></trkpt><trkpt lat="44.061122513069016" lon="7.656717836881405"><ele>923.0000000000001</ele><time>2026-05-02T07:51:04.827Z</time></trkpt><trkpt lat="44.06116758561103" lon="7.656634795763868"><ele>923.0</ele><time>2026-05-02T07:51:05.827Z</time></trkpt><trkpt lat="44.061212714613845" lon="7.656536925447512"><ele>923.0</ele><time>2026-05-02T07:51:06.827Z</time></trkpt><trkpt lat="44.06126121425068" lon="7.656443400902527"><ele>923.0</ele><time>2026-05-02T07:51:07.827Z</time></trkpt><trkpt lat="44.061309288523745" lon="7.656354084930037"><ele>923.0000000000001</ele><time>2026-05-02T07:51:08.827Z</time></trkpt><trkpt lat="44.061368845661974" lon="7.6562770183653805"><ele>923.0</ele><time>2026-05-02T07:51:09.827Z</time></trkpt><trkpt lat="44.06143248815551" lon="7.656208326164073"><ele>923.0000000000001</ele><time>2026-05-02T07:51:10.827Z</time></trkpt><trkpt lat="44.06150298059876" lon="7.656132929445062"><ele>923.0</ele><time>2026-05-02T07:51:11.827Z</time></trkpt><trkpt lat="44.06157029086972" lon="7.65605960738023"><ele>923.0</ele><time>2026-05-02T07:51:12.827Z</time></trkpt><trkpt lat="44.06163252313958" lon="7.65599167331245"><ele>923.0</ele><time>2026-05-02T07:51:13.827Z</time></trkpt><trkpt lat="44.061696902843316" lon="7.655926844815022"><ele>923.0000000000001</ele><time>2026-05-02T07:51:14.827Z</time></trkpt><trkpt lat="44.06175861732202" lon="7.655866391123269"><ele>923.0</ele><time>2026-05-02T07:51:15.827Z</time></trkpt><trkpt lat="44.06181102890204" lon="7.6557840899997665"><ele>917.8333333333334</ele><time>2026-05-02T07:51:16.827Z</time></trkpt><trkpt lat="44.06185620377204" lon="7.655689761573174"><ele>912.6666666666667</ele><time>2026-05-02T07:51:17.827Z</time></trkpt><trkpt lat="44.061886323349334" lon="7.655591770445278"><ele>907.5</ele><time>2026-05-02T07:51:18.827Z</time></trkpt><trkpt lat="44.06189340938008" lon="7.655487174830303"><ele>902.3333333333333</ele><time>2026-05-02T07:51:19.827Z</time></trkpt><trkpt lat="44.061897346543596" lon="7.655372381281924"><ele>897.1666666666666</ele><time>2026-05-02T07:51:20.827Z</time></trkpt><trkpt lat="44.06191392550018" lon="7.655276653100827"><ele>892.0</ele><time>2026-05-02T07:51:21.827Z</time></trkpt><trkpt lat="44.0619492055781" lon="7.655191937051306"><ele>892.0</ele><time>2026-05-02T07:51:22.827Z</time></trkpt><trkpt lat="44.06199261158815" lon="7.655107498674079"><ele>892.0</ele><time>2026-05-02T07:51:23.827Z</time></trkpt><trkpt lat="44.06205067892295" lon="7.6550259829610505"><ele>892.0</ele><time>2026-05-02T07:51:24.827Z</time></trkpt><trkpt lat="44.06211267059466" lon="7.65494610840531"><ele>892.0</ele><time>2026-05-02T07:51:25.827Z</time></trkpt><trkpt lat="44.0621627642983" lon="7.654856221591027"><ele>892.0</ele><time>2026-05-02T07:51:26.827Z</time></trkpt><trkpt lat="44.06546595253393" lon="7.6504368085761385"><ele>886.2</ele><time>2026-05-02T07:52:27.827Z</time></trkpt><trkpt lat="44.06554658632744" lon="7.650347706277859"><ele>880.4000000000001</ele><time>2026-05-02T07:52:28.827Z</time></trkpt><trkpt lat="44.065605824301414" lon="7.6502693879204156"><ele>874.5999999999999</ele><time>2026-05-02T07:52:29.827Z</time></trkpt><trkpt lat="44.06567014056497" lon="7.650184355747177"><ele>868.8</ele><time>2026-05-02T07:52:30.827Z</time></trkpt><trkpt lat="44.06576544920952" lon="7.650059805121606"><ele>863.0</ele><time>2026-05-02T07:52:31.827Z</time></trkpt><trkpt lat="44.06585794895148" lon="7.6499402003330355"><ele>861.5999999999999</ele><time>2026-05-02T07:52:32.827Z</time></trkpt><trkpt lat="44.06594153033049" lon="7.649832127145341"><ele>860.1999999999999</ele><time>2026-05-02T07:52:33.827Z</time></trkpt><trkpt lat="44.066014705582404" lon="7.64973750959924"><ele>858.8</ele><time>2026-05-02T07:52:34.827Z</time></trkpt><trkpt lat="44.06608928099259" lon="7.6496410817955915"><ele>857.4</ele><time>2026-05-02T07:52:35.827Z</time></trkpt><trkpt lat="44.06614609350843" lon="7.649532689698347"><ele>856.0</ele><time>2026-05-02T07:52:36.827Z</time></trkpt><trkpt lat="44.06623207894573" lon="7.649440688232171"><ele>856.0</ele><time>2026-05-02T07:52:37.827Z</time></trkpt><trkpt lat="44.0663072452251" lon="7.649362485426962"><ele>855.9999999999999</ele><time>2026-05-02T07:52:38.827Z</time></trkpt><trkpt lat="44.066383056493386" lon="7.649286956702061"><ele>855.9999999999999</ele><time>2026-05-02T07:52:39.827Z</time></trkpt><trkpt lat="44.066474866439165" lon="7.649199524259785"><ele>856.0</ele><time>2026-05-02T07:52:40.827Z</time></trkpt><trkpt lat="44.06657789891643" lon="7.649103558361035"><ele>856.0</ele><time>2026-05-02T07:52:41.827Z</time></trkpt><trkpt lat="44.066704823898455" lon="7.648983837615666"><ele>854.0</ele><time>2026-05-02T07:52:42.827Z</time></trkpt><trkpt lat="44.066830481885425" lon="7.648863571285614"><ele>852.0</ele><time>2026-05-02T07:52:43.827Z</time></trkpt><trkpt lat="44.06695617430446" lon="7.64874813529278"><ele>850.0</ele><time>2026-05-02T07:52:44.827Z</time></trkpt><trkpt lat="44.06708881151928" lon="7.648624567979359"><ele>846.3333333333333</ele><time>2026-05-02T07:52:45.826Z</time></trkpt><trkpt lat="44.0671749703751" lon="7.6485180226149145"><ele>842.6666666666667</ele><time>2026-05-02T07:52:46.826Z</time></trkpt><trkpt lat="44.06722409937992" lon="7.648436174410338"><ele>839.0</ele><time>2026-05-02T07:52:47.826Z</time></trkpt><trkpt lat="44.0673495472327" lon="7.648028899025612"><ele>839.0</ele><time>2026-05-02T07:52:49.826Z</time></trkpt><trkpt lat="44.06733820694955" lon="7.647898111742747"><ele>839.0</ele><time>2026-05-02T07:52:50.826Z</time></trkpt><trkpt lat="44.06730839191001" lon="7.647751525270656"><ele>839.0</ele><time>2026-05-02T07:52:51.826Z</time></trkpt><trkpt lat="44.067265616315964" lon="7.64760052353363"><ele>839.0</ele><time>2026-05-02T07:52:52.826Z</time></trkpt><trkpt lat="44.06722618174044" lon="7.647427405135184"><ele>840.25</ele><time>2026-05-02T07:52:53.826Z</time></trkpt><trkpt lat="44.06719817249492" lon="7.6472538687996945"><ele>841.5</ele><time>2026-05-02T07:52:54.826Z</time></trkpt><trkpt lat="44.06721236803882" lon="7.647084823843349"><ele>842.75</ele><time>2026-05-02T07:52:55.826Z</time></trkpt><trkpt lat="44.06722174130989" lon="7.646919804121034"><ele>844.0</ele><time>2026-05-02T07:52:56.826Z</time></trkpt><trkpt lat="44.06723911449487" lon="7.646756244444676"><ele>844.6</ele><time>2026-05-02T07:52:57.826Z</time></trkpt><trkpt lat="44.06726943798487" lon="7.646606305780245"><ele>845.2</ele><time>2026-05-02T07:52:58.826Z</time></trkpt><trkpt lat="44.067316043709695" lon="7.646460418307637"><ele>845.8000000000001</ele><time>2026-05-02T07:52:59.826Z</time></trkpt><trkpt lat="44.067367550307935" lon="7.646320404108926"><ele>846.4000000000001</ele><time>2026-05-02T07:53:00.826Z</time></trkpt><trkpt lat="44.06742041212507" lon="7.646193298234293"><ele>847.0</ele><time>2026-05-02T07:53:01.826Z</time></trkpt><trkpt lat="44.06749942804965" lon="7.646084082386928"><ele>844.4000000000001</ele><time>2026-05-02T07:53:02.826Z</time></trkpt><trkpt lat="44.067573349228574" lon="7.645990908128879"><ele>841.8000000000001</ele><time>2026-05-02T07:53:03.826Z</time></trkpt><trkpt lat="44.06765672671525" lon="7.645900544036024"><ele>839.2</ele><time>2026-05-02T07:53:04.826Z</time></trkpt><trkpt lat="44.06774553799096" lon="7.645809407139542"><ele>836.6</ele><time>2026-05-02T07:53:05.826Z</time></trkpt><trkpt lat="44.06782912828275" lon="7.645694412271811"><ele>834.0</ele><time>2026-05-02T07:53:06.826Z</time></trkpt><trkpt lat="44.06792334539253" lon="7.645580727174593"><ele>834.0</ele><time>2026-05-02T07:53:07.826Z</time></trkpt><trkpt lat="44.06800701792339" lon="7.645451091824071"><ele>834.0</ele><time>2026-05-02T07:53:08.827Z</time></trkpt><trkpt lat="44.06808988382325" lon="7.645302181131072"><ele>834.0</ele><time>2026-05-02T07:53:09.827Z</time></trkpt><trkpt lat="44.06814406902071" lon="7.645141112920666"><ele>834.0</ele><time>2026-05-02T07:53:10.827Z</time></trkpt><trkpt lat="44.068194416721745" lon="7.644989185284997"><ele>832.75</ele><time>2026-05-02T07:53:11.827Z</time></trkpt><trkpt lat="44.06821686304102" lon="7.644840327850369"><ele>831.5</ele><time>2026-05-02T07:53:12.828Z</time></trkpt><trkpt lat="44.068190415683645" lon="7.644676302094046"><ele>830.25</ele><time>2026-05-02T07:53:13.828Z</time></trkpt><trkpt lat="44.06818875731763" lon="7.644510021739463"><ele>829.0</ele><time>2026-05-02T07:53:14.828Z</time></trkpt><trkpt lat="44.06819018471726" lon="7.644334297393147"><ele>828.75</ele><time>2026-05-02T07:53:15.829Z</time></trkpt><trkpt lat="44.06821544472842" lon="7.644166522974641"><ele>828.5</ele><time>2026-05-02T07:53:16.829Z</time></trkpt><trkpt lat="44.068258553393775" lon="7.64400589342051"><ele>828.25</ele><time>2026-05-02T07:53:17.829Z</time></trkpt><trkpt lat="44.0683115316405" lon="7.643848318903281"><ele>828.0</ele><time>2026-05-02T07:53:18.829Z</time></trkpt><trkpt lat="44.06836464625587" lon="7.643693396501994"><ele>829.75</ele><time>2026-05-02T07:53:19.829Z</time></trkpt><trkpt lat="44.068410114731414" lon="7.6435421352372455"><ele>831.5</ele><time>2026-05-02T07:53:20.829Z</time></trkpt><trkpt lat="44.06844497934193" lon="7.643366918813692"><ele>833.25</ele><time>2026-05-02T07:53:21.83Z</time></trkpt><trkpt lat="44.06847926154789" lon="7.643215566998037"><ele>835.0</ele><time>2026-05-02T07:53:22.83Z</time></trkpt><trkpt lat="44.068488241812375" lon="7.64305077026722"><ele>835.0</ele><time>2026-05-02T07:53:23.83Z</time></trkpt><trkpt lat="44.06849427993649" lon="7.642890393239153"><ele>835.0</ele><time>2026-05-02T07:53:24.83Z</time></trkpt><trkpt lat="44.068507863832394" lon="7.642723547059702"><ele>835.0</ele><time>2026-05-02T07:53:25.83Z</time></trkpt><trkpt lat="44.06856096501575" lon="7.642582115490822"><ele>835.0</ele><time>2026-05-02T07:53:26.83Z</time></trkpt><trkpt lat="44.06615441804327" lon="7.636846590817178"><ele>829.0</ele><time>2026-05-02T07:54:27.831Z</time></trkpt><trkpt lat="44.06606751997575" lon="7.636732739997146"><ele>823.0</ele><time>2026-05-02T07:54:28.832Z</time></trkpt><trkpt lat="44.06599642538444" lon="7.636613601400355"><ele>817.0</ele><time>2026-05-02T07:54:29.832Z</time></trkpt><trkpt lat="44.06594079429263" lon="7.636496408878293"><ele>811.0</ele><time>2026-05-02T07:54:30.832Z</time></trkpt><trkpt lat="44.06586997316367" lon="7.636383122633262"><ele>805.0</ele><time>2026-05-02T07:54:31.831Z</time></trkpt><trkpt lat="44.065810025373096" lon="7.636246673173691"><ele>804.5</ele><time>2026-05-02T07:54:32.831Z</time></trkpt><trkpt lat="44.065730059828596" lon="7.636106680608917"><ele>804.0</ele><time>2026-05-02T07:54:33.831Z</time></trkpt><trkpt lat="44.06566369809991" lon="7.635952656118585"><ele>803.5</ele><time>2026-05-02T07:54:34.831Z</time></trkpt><trkpt lat="44.06559384987317" lon="7.635803071128915"><ele>803.0</ele><time>2026-05-02T07:54:35.831Z</time></trkpt><trkpt lat="44.065519028728765" lon="7.635652278386056"><ele>803.0</ele><time>2026-05-02T07:54:36.831Z</time></trkpt><trkpt lat="44.0654417699237" lon="7.635505409167199"><ele>803.0</ele><time>2026-05-02T07:54:37.831Z</time></trkpt><trkpt lat="44.06539003624543" lon="7.635323450569863"><ele>803.0</ele><time>2026-05-02T07:54:38.831Z</time></trkpt><trkpt lat="44.065327110955714" lon="7.635152330549506"><ele>803.0</ele><time>2026-05-02T07:54:39.831Z</time></trkpt><trkpt lat="44.06525358925479" lon="7.634972848600043"><ele>802.75</ele><time>2026-05-02T07:54:40.831Z</time></trkpt><trkpt lat="44.065185707918644" lon="7.634793363937114"><ele>802.5</ele><time>2026-05-02T07:54:41.831Z</time></trkpt><trkpt lat="44.06512435867065" lon="7.634624184618382"><ele>802.25</ele><time>2026-05-02T07:54:42.831Z</time></trkpt><trkpt lat="44.06506760930844" lon="7.634458168986712"><ele>802.0</ele><time>2026-05-02T07:54:43.831Z</time></trkpt><trkpt lat="44.06500297081799" lon="7.634298030212045"><ele>800.5</ele><time>2026-05-02T07:54:44.831Z</time></trkpt><trkpt lat="44.064959140010224" lon="7.634114953632252"><ele>799.0</ele><time>2026-05-02T07:54:45.831Z</time></trkpt><trkpt lat="44.0649013183841" lon="7.633952628644802"><ele>797.5</ele><time>2026-05-02T07:54:46.831Z</time></trkpt><trkpt lat="44.064846972145205" lon="7.633793464708937"><ele>796.0</ele><time>2026-05-02T07:54:47.831Z</time></trkpt><trkpt lat="44.06478752673147" lon="7.633640221195123"><ele>798.75</ele><time>2026-05-02T07:54:48.831Z</time></trkpt><trkpt lat="44.06474085805954" lon="7.633468811859362"><ele>801.5</ele><time>2026-05-02T07:54:49.831Z</time></trkpt><trkpt lat="44.064710162368335" lon="7.633294024683942"><ele>804.25</ele><time>2026-05-02T07:54:50.831Z</time></trkpt><trkpt lat="44.064689487732835" lon="7.633124299767571"><ele>807.0</ele><time>2026-05-02T07:54:51.831Z</time></trkpt><trkpt lat="44.0646798923292" lon="7.6329458773299095"><ele>806.25</ele><time>2026-05-02T07:54:52.831Z</time></trkpt><trkpt lat="44.06468264079086" lon="7.632763864658807"><ele>805.5</ele><time>2026-05-02T07:54:53.831Z</time></trkpt><trkpt lat="44.06468676070687" lon="7.632579393447746"><ele>804.75</ele><time>2026-05-02T07:54:54.831Z</time></trkpt><trkpt lat="44.06468893824678" lon="7.632384196350974"><ele>804.0</ele><time>2026-05-02T07:54:55.831Z</time></trkpt><trkpt lat="44.06469055894521" lon="7.632187754972632"><ele>804.0</ele><time>2026-05-02T07:54:56.831Z</time></trkpt><trkpt lat="44.06469296726632" lon="7.631988925756932"><ele>804.0</ele><time>2026-05-02T07:54:57.831Z</time></trkpt><trkpt lat="44.064696150540634" lon="7.631799053859659"><ele>804.0</ele><time>2026-05-02T07:54:58.831Z</time></trkpt><trkpt lat="44.06469627457889" lon="7.631606761100971"><ele>804.0</ele><time>2026-05-02T07:54:59.83Z</time></trkpt><trkpt lat="44.06469363008881" lon="7.631419460794848"><ele>802.0</ele><time>2026-05-02T07:55:00.83Z</time></trkpt><trkpt lat="44.06471311194872" lon="7.631236381640559"><ele>800.0</ele><time>2026-05-02T07:55:01.83Z</time></trkpt><trkpt lat="44.06472451921543" lon="7.631047268224943"><ele>798.0</ele><time>2026-05-02T07:55:02.83Z</time></trkpt><trkpt lat="44.06473209123707" lon="7.630877767916462"><ele>796.0</ele><time>2026-05-02T07:55:03.83Z</time></trkpt><trkpt lat="44.064759439216544" lon="7.630702561446552"><ele>795.75</ele><time>2026-05-02T07:55:04.83Z</time></trkpt><trkpt lat="44.06480782890651" lon="7.630531753414153"><ele>795.5</ele><time>2026-05-02T07:55:05.83Z</time></trkpt><trkpt lat="44.06486670104599" lon="7.630365146154048"><ele>795.25</ele><time>2026-05-02T07:55:06.83Z</time></trkpt><trkpt lat="44.06492936563083" lon="7.630192835036796"><ele>795.0</ele><time>2026-05-02T07:55:07.83Z</time></trkpt><trkpt lat="44.06499283281472" lon="7.630022945008116"><ele>793.25</ele><time>2026-05-02T07:55:08.83Z</time></trkpt><trkpt lat="44.06506060749831" lon="7.629853739385789"><ele>791.5</ele><time>2026-05-02T07:55:09.83Z</time></trkpt><trkpt lat="44.065125832565386" lon="7.629679167891764"><ele>789.75</ele><time>2026-05-02T07:55:10.83Z</time></trkpt><trkpt lat="44.06519030266311" lon="7.629504177628127"><ele>788.0</ele><time>2026-05-02T07:55:11.83Z</time></trkpt><trkpt lat="44.065244850981536" lon="7.6293160533305215"><ele>787.25</ele><time>2026-05-02T07:55:12.83Z</time></trkpt><trkpt lat="44.065274613562146" lon="7.6291230715788"><ele>786.5</ele><time>2026-05-02T07:55:13.83Z</time></trkpt><trkpt lat="44.06528225141104" lon="7.628918185444145"><ele>785.75</ele><time>2026-05-02T07:55:14.83Z</time></trkpt><trkpt lat="44.06526606829315" lon="7.6287093115522016"><ele>785.0</ele><time>2026-05-02T07:55:15.83Z</time></trkpt><trkpt lat="44.06524026210725" lon="7.628493154609141"><ele>785.0</ele><time>2026-05-02T07:55:16.83Z</time></trkpt><trkpt lat="44.06522615444102" lon="7.628274828699486"><ele>785.0</ele><time>2026-05-02T07:55:17.83Z</time></trkpt><trkpt lat="44.06521962244704" lon="7.628062428662743"><ele>785.0</ele><time>2026-05-02T07:55:18.83Z</time></trkpt><trkpt lat="44.065210021687975" lon="7.627842446789487"><ele>784.3333333333334</ele><time>2026-05-02T07:55:19.83Z</time></trkpt><trkpt lat="44.06519834856433" lon="7.627626487238645"><ele>783.6666666666667</ele><time>2026-05-02T07:55:20.83Z</time></trkpt><trkpt lat="44.065193944119244" lon="7.627403245459194"><ele>783.0</ele><time>2026-05-02T07:55:21.83Z</time></trkpt><trkpt lat="44.06519480500603" lon="7.627197930026473"><ele>783.0</ele><time>2026-05-02T07:55:22.83Z</time></trkpt><trkpt lat="44.0652187258947" lon="7.626985597681051"><ele>783.0</ele><time>2026-05-02T07:55:23.83Z</time></trkpt><trkpt lat="44.065218969035016" lon="7.626762143961529"><ele>783.0</ele><time>2026-05-02T07:55:24.83Z</time></trkpt><trkpt lat="44.065230097046815" lon="7.626543872366592"><ele>783.0</ele><time>2026-05-02T07:55:25.83Z</time></trkpt><trkpt lat="44.06523845768666" lon="7.626328162918448"><ele>783.0</ele><time>2026-05-02T07:55:26.829Z</time></trkpt><trkpt lat="44.06322961526924" lon="7.617794613132866"><ele>781.8333333333334</ele><time>2026-05-02T07:56:27.83Z</time></trkpt><trkpt lat="44.06323867095234" lon="7.61769447481772"><ele>780.6666666666667</ele><time>2026-05-02T07:56:28.829Z</time></trkpt><trkpt lat="44.063252536566786" lon="7.617599017207184"><ele>779.5</ele><time>2026-05-02T07:56:29.829Z</time></trkpt><trkpt lat="44.06326469448004" lon="7.6175031886151565"><ele>778.3333333333334</ele><time>2026-05-02T07:56:30.83Z</time></trkpt><trkpt lat="44.06328942982448" lon="7.617310884910799"><ele>777.1666666666667</ele><time>2026-05-02T07:56:32.83Z</time></trkpt><trkpt lat="44.0633024697632" lon="7.617202637283396"><ele>776.0</ele><time>2026-05-02T07:56:33.829Z</time></trkpt><trkpt lat="44.06331877512878" lon="7.6170836572582985"><ele>775.0000000000001</ele><time>2026-05-02T07:56:34.83Z</time></trkpt><trkpt lat="44.06333684915743" lon="7.616983145501972"><ele>774.0</ele><time>2026-05-02T07:56:35.83Z</time></trkpt><trkpt lat="44.06335077436779" lon="7.6168921762042165"><ele>773.0</ele><time>2026-05-02T07:56:36.83Z</time></trkpt><trkpt lat="44.063383514854934" lon="7.61673159234946"><ele>772.0</ele><time>2026-05-02T07:56:38.83Z</time></trkpt><trkpt lat="44.06340683231733" lon="7.616604391083743"><ele>771.0000000000001</ele><time>2026-05-02T07:56:40.829Z</time></trkpt><trkpt lat="44.0634155270179" lon="7.61648045080367"><ele>770.0</ele><time>2026-05-02T07:56:42.829Z</time></trkpt><trkpt lat="44.0634498430271" lon="7.616321629963482"><ele>770.0000000000001</ele><time>2026-05-02T07:56:44.829Z</time></trkpt><trkpt lat="44.06346652864945" lon="7.6162210836782815"><ele>770.0</ele><time>2026-05-02T07:56:45.829Z</time></trkpt><trkpt lat="44.06347307103557" lon="7.616110499516111"><ele>770.0</ele><time>2026-05-02T07:56:46.829Z</time></trkpt><trkpt lat="44.06349716084213" lon="7.6160006061657555"><ele>770.0</ele><time>2026-05-02T07:56:47.829Z</time></trkpt><trkpt lat="44.06351766118883" lon="7.615903508668673"><ele>770.0000000000001</ele><time>2026-05-02T07:56:48.829Z</time></trkpt><trkpt lat="44.063534953212" lon="7.615770492398346"><ele>770.0</ele><time>2026-05-02T07:56:50.829Z</time></trkpt><trkpt lat="44.06353374513459" lon="7.6156324243368365"><ele>770.0000000000001</ele><time>2026-05-02T07:56:53.829Z</time></trkpt><trkpt lat="44.063532358569624" lon="7.615469364055926"><ele>770.0</ele><time>2026-05-02T07:56:55.829Z</time></trkpt><trkpt lat="44.06353616147287" lon="7.6153789007685795"><ele>770.0</ele><time>2026-05-02T07:56:56.829Z</time></trkpt><trkpt lat="44.06353547205239" lon="7.615284786919371"><ele>770.0</ele><time>2026-05-02T07:56:57.829Z</time></trkpt><trkpt lat="44.06353204947776" lon="7.615191785703431"><ele>770.0000000000001</ele><time>2026-05-02T07:56:58.829Z</time></trkpt><trkpt lat="44.063523696926495" lon="7.6150893939229265"><ele>770.0</ele><time>2026-05-02T07:56:59.829Z</time></trkpt><trkpt lat="44.06351529121963" lon="7.6149787586118345"><ele>770.0000000000001</ele><time>2026-05-02T07:57:00.829Z</time></trkpt><trkpt lat="44.0635056721248" lon="7.614855645021942"><ele>770.0</ele><time>2026-05-02T07:57:01.829Z</time></trkpt><trkpt lat="44.06349516432213" lon="7.614737986001062"><ele>770.0</ele><time>2026-05-02T07:57:02.829Z</time></trkpt><trkpt lat="44.06348633197844" lon="7.614622586562437"><ele>770.0</ele><time>2026-05-02T07:57:03.829Z</time></trkpt><trkpt lat="44.063476784973744" lon="7.614522094223413"><ele>770.0000000000001</ele><time>2026-05-02T07:57:04.829Z</time></trkpt><trkpt lat="44.06345691107802" lon="7.614416213618991"><ele>770.0</ele><time>2026-05-02T07:57:05.829Z</time></trkpt><trkpt lat="44.063430036694974" lon="7.61432769880138"><ele>769.8</ele><time>2026-05-02T07:57:06.828Z</time></trkpt><trkpt lat="44.06337658818143" lon="7.614195270114296"><ele>769.6</ele><time>2026-05-02T07:57:08.828Z</time></trkpt><trkpt lat="44.06331317951" lon="7.614062866937154"><ele>769.4000000000001</ele><time>2026-05-02T07:57:10.828Z</time></trkpt><trkpt lat="44.06327925087623" lon="7.613985473686773"><ele>769.2</ele><time>2026-05-02T07:57:11.828Z</time></trkpt><trkpt lat="44.063230655397" lon="7.6138266177688"><ele>769.0</ele><time>2026-05-02T07:57:13.828Z</time></trkpt><trkpt lat="44.06321343109761" lon="7.613741638038082"><ele>767.8000000000001</ele><time>2026-05-02T07:57:14.828Z</time></trkpt><trkpt lat="44.063193306992154" lon="7.613652119142419"><ele>766.6</ele><time>2026-05-02T07:57:15.828Z</time></trkpt><trkpt lat="44.06319181589005" lon="7.613494003585108"><ele>765.4</ele><time>2026-05-02T07:57:17.828Z</time></trkpt><trkpt lat="44.06326378491995" lon="7.613379133440068"><ele>764.2</ele><time>2026-05-02T07:57:19.828Z</time></trkpt><trkpt lat="44.06338185828788" lon="7.613302307750924"><ele>763.0</ele><time>2026-05-02T07:57:21.828Z</time></trkpt><trkpt lat="44.06344831208183" lon="7.613255029947253"><ele>763.0</ele><time>2026-05-02T07:57:22.828Z</time></trkpt><trkpt lat="44.06351057085756" lon="7.6132123697798155"><ele>763.0</ele><time>2026-05-02T07:57:23.828Z</time></trkpt><trkpt lat="44.06356615860083" lon="7.613170810047406"><ele>763.0</ele><time>2026-05-02T07:57:24.828Z</time></trkpt><trkpt lat="44.06363887487578" lon="7.613037752402553"><ele>763.0</ele><time>2026-05-02T07:57:26.828Z</time></trkpt><trkpt lat="44.06213326225832" lon="7.6047081686472335"><ele>759.75</ele><time>2026-05-02T07:58:27.828Z</time></trkpt><trkpt lat="44.06208788022699" lon="7.60453090012449"><ele>756.5</ele><time>2026-05-02T07:58:28.827Z</time></trkpt><trkpt lat="44.06204577456163" lon="7.6043585953008614"><ele>753.25</ele><time>2026-05-02T07:58:29.827Z</time></trkpt><trkpt lat="44.0620185261525" lon="7.604193061948458"><ele>750.0</ele><time>2026-05-02T07:58:30.827Z</time></trkpt><trkpt lat="44.06203006927531" lon="7.604011835355804"><ele>749.5</ele><time>2026-05-02T07:58:31.827Z</time></trkpt><trkpt lat="44.0620257730008" lon="7.60384003823231"><ele>749.0</ele><time>2026-05-02T07:58:32.827Z</time></trkpt><trkpt lat="44.06201582866391" lon="7.603651281814216"><ele>748.5</ele><time>2026-05-02T07:58:33.827Z</time></trkpt><trkpt lat="44.062016478177746" lon="7.603461546865057"><ele>748.0</ele><time>2026-05-02T07:58:34.828Z</time></trkpt><trkpt lat="44.06201961268142" lon="7.603274397345941"><ele>747.5</ele><time>2026-05-02T07:58:35.828Z</time></trkpt><trkpt lat="44.062026110210844" lon="7.603103048981032"><ele>747.0</ele><time>2026-05-02T07:58:36.827Z</time></trkpt><trkpt lat="44.06202710761437" lon="7.6029242036297715"><ele>746.5</ele><time>2026-05-02T07:58:37.827Z</time></trkpt><trkpt lat="44.062029197553564" lon="7.602765184374833"><ele>746.0</ele><time>2026-05-02T07:58:38.827Z</time></trkpt><trkpt lat="44.06204533552782" lon="7.602607691571168"><ele>745.75</ele><time>2026-05-02T07:58:39.827Z</time></trkpt><trkpt lat="44.06208227251502" lon="7.602445047635574"><ele>745.5</ele><time>2026-05-02T07:58:40.827Z</time></trkpt><trkpt lat="44.06212835305252" lon="7.60228533612317"><ele>745.25</ele><time>2026-05-02T07:58:41.827Z</time></trkpt><trkpt lat="44.06214637680381" lon="7.602127103780313"><ele>745.0</ele><time>2026-05-02T07:58:42.827Z</time></trkpt><trkpt lat="44.06221674503448" lon="7.601965597699768"><ele>743.75</ele><time>2026-05-02T07:58:43.827Z</time></trkpt><trkpt lat="44.06223475932903" lon="7.601793576834169"><ele>742.5</ele><time>2026-05-02T07:58:44.827Z</time></trkpt><trkpt lat="44.06228153676748" lon="7.601639672693808"><ele>741.25</ele><time>2026-05-02T07:58:45.827Z</time></trkpt><trkpt lat="44.06233506002592" lon="7.601518315726531"><ele>740.0</ele><time>2026-05-02T07:58:46.827Z</time></trkpt><trkpt lat="44.06235702285193" lon="7.60137309404875"><ele>740.0</ele><time>2026-05-02T07:58:47.827Z</time></trkpt><trkpt lat="44.062365917734475" lon="7.601223141642813"><ele>740.0</ele><time>2026-05-02T07:58:48.827Z</time></trkpt><trkpt lat="44.06236101803648" lon="7.601080021762222"><ele>740.0</ele><time>2026-05-02T07:58:49.827Z</time></trkpt><trkpt lat="44.06235897606598" lon="7.6009442803862886"><ele>740.0</ele><time>2026-05-02T07:58:50.827Z</time></trkpt><trkpt lat="44.06235059152224" lon="7.600806737767864"><ele>740.0</ele><time>2026-05-02T07:58:51.827Z</time></trkpt><trkpt lat="44.06234891203432" lon="7.600647721143827"><ele>740.0</ele><time>2026-05-02T07:58:52.827Z</time></trkpt><trkpt lat="44.062332422407856" lon="7.60048027674457"><ele>740.0</ele><time>2026-05-02T07:58:53.827Z</time></trkpt><trkpt lat="44.06229637652044" lon="7.600312101209486"><ele>740.0</ele><time>2026-05-02T07:58:54.827Z</time></trkpt><trkpt lat="44.062250923911634" lon="7.600127596597749"><ele>740.0</ele><time>2026-05-02T07:58:55.827Z</time></trkpt><trkpt lat="44.062191935729516" lon="7.599941124337062"><ele>740.0</ele><time>2026-05-02T07:58:56.827Z</time></trkpt><trkpt lat="44.06213012874846" lon="7.599744618091016"><ele>740.0</ele><time>2026-05-02T07:58:57.827Z</time></trkpt><trkpt lat="44.06206991513783" lon="7.599536133602353"><ele>740.0</ele><time>2026-05-02T07:58:58.827Z</time></trkpt><trkpt lat="44.06203421770438" lon="7.599351263959968"><ele>740.0</ele><time>2026-05-02T07:58:59.827Z</time></trkpt><trkpt lat="44.06199228321956" lon="7.599161586176018"><ele>740.0</ele><time>2026-05-02T07:59:00.826Z</time></trkpt><trkpt lat="44.06194234778977" lon="7.598974161977237"><ele>740.0</ele><time>2026-05-02T07:59:01.826Z</time></trkpt><trkpt lat="44.06189036622002" lon="7.5988016584679166"><ele>740.0</ele><time>2026-05-02T07:59:02.826Z</time></trkpt><trkpt lat="44.06184327949278" lon="7.598642058215229"><ele>740.25</ele><time>2026-05-02T07:59:03.826Z</time></trkpt><trkpt lat="44.06179811997955" lon="7.59848546677948"><ele>740.5</ele><time>2026-05-02T07:59:04.826Z</time></trkpt><trkpt lat="44.061741657774014" lon="7.598331169648566"><ele>740.75</ele><time>2026-05-02T07:59:05.826Z</time></trkpt><trkpt lat="44.06167175196253" lon="7.59817524856927"><ele>741.0</ele><time>2026-05-02T07:59:06.826Z</time></trkpt><trkpt lat="44.06160280703751" lon="7.59804668481676"><ele>745.4</ele><time>2026-05-02T07:59:07.826Z</time></trkpt><trkpt lat="44.06154443852775" lon="7.597935094433691"><ele>749.8</ele><time>2026-05-02T07:59:08.826Z</time></trkpt><trkpt lat="44.06151343435051" lon="7.597835205383053"><ele>754.1999999999999</ele><time>2026-05-02T07:59:09.826Z</time></trkpt><trkpt lat="44.06150591620672" lon="7.597731395748579"><ele>758.5999999999999</ele><time>2026-05-02T07:59:10.826Z</time></trkpt><trkpt lat="44.061536294227544" lon="7.597607163731122"><ele>763.0</ele><time>2026-05-02T07:59:11.826Z</time></trkpt><trkpt lat="44.0615652049343" lon="7.597463014509476"><ele>761.5</ele><time>2026-05-02T07:59:12.826Z</time></trkpt><trkpt lat="44.06160694417633" lon="7.597316073106376"><ele>760.0</ele><time>2026-05-02T07:59:13.826Z</time></trkpt><trkpt lat="44.06165249921201" lon="7.59718019990835"><ele>758.5</ele><time>2026-05-02T07:59:14.826Z</time></trkpt><trkpt lat="44.06166822924545" lon="7.59701240156598"><ele>757.0</ele><time>2026-05-02T07:59:15.826Z</time></trkpt><trkpt lat="44.061660226884136" lon="7.596846538345817"><ele>757.0</ele><time>2026-05-02T07:59:16.826Z</time></trkpt><trkpt lat="44.06162206416623" lon="7.596691064878804"><ele>757.0</ele><time>2026-05-02T07:59:17.826Z</time></trkpt><trkpt lat="44.06155117824255" lon="7.596559764364834"><ele>757.0</ele><time>2026-05-02T07:59:18.826Z</time></trkpt><trkpt lat="44.06146439663404" lon="7.596447938793522"><ele>757.0</ele><time>2026-05-02T07:59:19.826Z</time></trkpt><trkpt lat="44.06137144011711" lon="7.596364509767098"><ele>757.2</ele><time>2026-05-02T07:59:20.826Z</time></trkpt><trkpt lat="44.06128825557529" lon="7.596278790652359"><ele>757.4000000000001</ele><time>2026-05-02T07:59:21.826Z</time></trkpt><trkpt lat="44.061245497551575" lon="7.596163663207115"><ele>757.5999999999999</ele><time>2026-05-02T07:59:22.826Z</time></trkpt><trkpt lat="44.06124473048769" lon="7.596028298704969"><ele>757.8</ele><time>2026-05-02T07:59:23.826Z</time></trkpt><trkpt lat="44.06128398105321" lon="7.595885349515884"><ele>758.0</ele><time>2026-05-02T07:59:24.826Z</time></trkpt><trkpt lat="44.061299992787454" lon="7.59573279001872"><ele>758.0</ele><time>2026-05-02T07:59:25.826Z</time></trkpt><trkpt lat="44.06127925995521" lon="7.595577100353263"><ele>758.0</ele><time>2026-05-02T07:59:26.826Z</time></trkpt><trkpt lat="44.06017150992229" lon="7.588039860361425"><ele>747.0</ele><time>2026-05-02T08:00:27.823Z</time></trkpt><trkpt lat="44.06018282469785" lon="7.587949161258122"><ele>736.0</ele><time>2026-05-02T08:00:33.825Z</time></trkpt><trkpt lat="44.060328937291615" lon="7.587928551636099"><ele>725.0</ele><time>2026-05-02T08:00:34.825Z</time></trkpt><trkpt lat="44.0604197350184" lon="7.587932376521179"><ele>714.0</ele><time>2026-05-02T08:00:35.825Z</time></trkpt><trkpt lat="44.06052382773829" lon="7.587932864894918"><ele>703.0</ele><time>2026-05-02T08:00:36.825Z</time></trkpt><trkpt lat="44.06063806687949" lon="7.587932528884863"><ele>703.0</ele><time>2026-05-02T08:00:37.825Z</time></trkpt><trkpt lat="44.06076519609381" lon="7.5879340956154095"><ele>703.0</ele><time>2026-05-02T08:00:38.825Z</time></trkpt><trkpt lat="44.06088708450246" lon="7.587994247229691"><ele>703.0</ele><time>2026-05-02T08:00:39.825Z</time></trkpt><trkpt lat="44.06102280116231" lon="7.5880433777350005"><ele>703.0</ele><time>2026-05-02T08:00:40.825Z</time></trkpt><trkpt lat="44.061151605061895" lon="7.588118409457477"><ele>705.75</ele><time>2026-05-02T08:00:41.825Z</time></trkpt><trkpt lat="44.06127149170116" lon="7.5882206356976"><ele>708.5</ele><time>2026-05-02T08:00:42.825Z</time></trkpt><trkpt lat="44.06137362433155" lon="7.588324886039817"><ele>711.25</ele><time>2026-05-02T08:00:43.825Z</time></trkpt><trkpt lat="44.061473393855835" lon="7.5883988737732855"><ele>714.0</ele><time>2026-05-02T08:00:44.825Z</time></trkpt><trkpt lat="44.0615797641345" lon="7.588442755583641"><ele>717.75</ele><time>2026-05-02T08:00:45.825Z</time></trkpt><trkpt lat="44.061706461910155" lon="7.588447874127086"><ele>721.5</ele><time>2026-05-02T08:00:46.825Z</time></trkpt><trkpt lat="44.061837713422825" lon="7.588431997223361"><ele>725.25</ele><time>2026-05-02T08:00:47.825Z</time></trkpt><trkpt lat="44.06196555582966" lon="7.588417939676714"><ele>729.0</ele><time>2026-05-02T08:00:48.825Z</time></trkpt><trkpt lat="44.0620953156792" lon="7.588413976872841"><ele>729.0</ele><time>2026-05-02T08:00:49.825Z</time></trkpt><trkpt lat="44.06223841020208" lon="7.588421460370602"><ele>729.0</ele><time>2026-05-02T08:00:50.825Z</time></trkpt><trkpt lat="44.06238937275775" lon="7.588445890739084"><ele>729.0</ele><time>2026-05-02T08:00:51.825Z</time></trkpt><trkpt lat="44.06254335329292" lon="7.5885016644275325"><ele>732.6666666666666</ele><time>2026-05-02T08:00:52.824Z</time></trkpt><trkpt lat="44.062711170419554" lon="7.5885378957554215"><ele>736.3333333333333</ele><time>2026-05-02T08:00:53.824Z</time></trkpt><trkpt lat="44.06287071687798" lon="7.588588034806331"><ele>740.0</ele><time>2026-05-02T08:00:54.824Z</time></trkpt><trkpt lat="44.06301778157928" lon="7.588660537898913"><ele>738.25</ele><time>2026-05-02T08:00:55.824Z</time></trkpt><trkpt lat="44.0631660831797" lon="7.58873715183789"><ele>736.5</ele><time>2026-05-02T08:00:56.824Z</time></trkpt><trkpt lat="44.06329200762861" lon="7.588812727239198"><ele>734.75</ele><time>2026-05-02T08:00:57.824Z</time></trkpt><trkpt lat="44.06340616493543" lon="7.588864348006038"><ele>733.0</ele><time>2026-05-02T08:00:58.824Z</time></trkpt><trkpt lat="44.06351923666066" lon="7.588920685322573"><ele>732.75</ele><time>2026-05-02T08:00:59.824Z</time></trkpt><trkpt lat="44.06363931359963" lon="7.58894921053419"><ele>732.5</ele><time>2026-05-02T08:01:00.824Z</time></trkpt><trkpt lat="44.06375421445491" lon="7.589005340774676"><ele>732.25</ele><time>2026-05-02T08:01:01.824Z</time></trkpt><trkpt lat="44.063877254025044" lon="7.589073688689128"><ele>732.0</ele><time>2026-05-02T08:01:02.824Z</time></trkpt><trkpt lat="44.06397641949259" lon="7.589127629014393"><ele>732.0</ele><time>2026-05-02T08:01:03.824Z</time></trkpt><trkpt lat="44.06407129125202" lon="7.589177326316612"><ele>732.0</ele><time>2026-05-02T08:01:04.824Z</time></trkpt><trkpt lat="44.06415593783857" lon="7.589194588440845"><ele>732.0</ele><time>2026-05-02T08:01:05.824Z</time></trkpt><trkpt lat="44.064243190834524" lon="7.58922324756009"><ele>732.0</ele><time>2026-05-02T08:01:06.824Z</time></trkpt><trkpt lat="44.064339821097604" lon="7.58924978160233"><ele>732.0</ele><time>2026-05-02T08:01:07.824Z</time></trkpt><trkpt lat="44.06444860638327" lon="7.589266441961294"><ele>735.6666666666666</ele><time>2026-05-02T08:01:08.824Z</time></trkpt><trkpt lat="44.06457716979118" lon="7.589270543578222"><ele>739.3333333333333</ele><time>2026-05-02T08:01:09.824Z</time></trkpt><trkpt lat="44.064741501532794" lon="7.589251146410769"><ele>743.0</ele><time>2026-05-02T08:01:10.824Z</time></trkpt><trkpt lat="44.06491331569043" lon="7.5892600286505"><ele>745.6666666666666</ele><time>2026-05-02T08:01:11.824Z</time></trkpt><trkpt lat="44.065086188587614" lon="7.589250704977646"><ele>748.3333333333334</ele><time>2026-05-02T08:01:12.824Z</time></trkpt><trkpt lat="44.06526225287539" lon="7.589232685593811"><ele>751.0</ele><time>2026-05-02T08:01:13.824Z</time></trkpt><trkpt lat="44.06544010218818" lon="7.589229549758034"><ele>751.0</ele><time>2026-05-02T08:01:14.824Z</time></trkpt><trkpt lat="44.0656287009569" lon="7.589245871091612"><ele>751.0</ele><time>2026-05-02T08:01:15.824Z</time></trkpt><trkpt lat="44.065813074251295" lon="7.589277829668799"><ele>751.0</ele><time>2026-05-02T08:01:16.824Z</time></trkpt><trkpt lat="44.06598804416555" lon="7.589327083656093"><ele>752.0</ele><time>2026-05-02T08:01:17.824Z</time></trkpt><trkpt lat="44.06616090958854" lon="7.589388560681037"><ele>753.0</ele><time>2026-05-02T08:01:18.824Z</time></trkpt><trkpt lat="44.06633221789488" lon="7.589450863736556"><ele>754.0</ele><time>2026-05-02T08:01:19.823Z</time></trkpt><trkpt lat="44.06650042036804" lon="7.589513746752309"><ele>753.0</ele><time>2026-05-02T08:01:20.823Z</time></trkpt><trkpt lat="44.06666082734546" lon="7.589570457509007"><ele>752.0</ele><time>2026-05-02T08:01:21.823Z</time></trkpt><trkpt lat="44.06682050718984" lon="7.589627697720957"><ele>751.0</ele><time>2026-05-02T08:01:22.823Z</time></trkpt><trkpt lat="44.06697588309984" lon="7.589685451262716"><ele>751.0</ele><time>2026-05-02T08:01:23.823Z</time></trkpt><trkpt lat="44.06712271794271" lon="7.589749961561352"><ele>751.0</ele><time>2026-05-02T08:01:24.823Z</time></trkpt><trkpt lat="44.0672614726565" lon="7.589817563363831"><ele>751.0</ele><time>2026-05-02T08:01:25.823Z</time></trkpt><trkpt lat="44.06739838879691" lon="7.589881125698296"><ele>751.0</ele><time>2026-05-02T08:01:26.823Z</time></trkpt><trkpt lat="44.07285158222121" lon="7.596359642319606"><ele>758.5</ele><time>2026-05-02T08:02:27.821Z</time></trkpt><trkpt lat="44.07292494278612" lon="7.596534753665664"><ele>766.0</ele><time>2026-05-02T08:02:28.821Z</time></trkpt><trkpt lat="44.07297732750941" lon="7.596717998438258"><ele>773.5</ele><time>2026-05-02T08:02:29.821Z</time></trkpt><trkpt lat="44.07302007249619" lon="7.5969168983902"><ele>781.0</ele><time>2026-05-02T08:02:30.821Z</time></trkpt><trkpt lat="44.07305975588314" lon="7.5971290496523345"><ele>783.3333333333333</ele><time>2026-05-02T08:02:31.821Z</time></trkpt><trkpt lat="44.073105474694984" lon="7.597354386246027"><ele>785.6666666666667</ele><time>2026-05-02T08:02:32.821Z</time></trkpt><trkpt lat="44.07315698027743" lon="7.597551232736634"><ele>788.0</ele><time>2026-05-02T08:02:33.821Z</time></trkpt><trkpt lat="44.07322869246671" lon="7.597752795805938"><ele>784.25</ele><time>2026-05-02T08:02:34.821Z</time></trkpt><trkpt lat="44.07331932204035" lon="7.59791407771114"><ele>780.5</ele><time>2026-05-02T08:02:35.821Z</time></trkpt><trkpt lat="44.073417398452726" lon="7.59804660705498"><ele>776.75</ele><time>2026-05-02T08:02:36.821Z</time></trkpt><trkpt lat="44.0735188599612" lon="7.59815644533366"><ele>773.0</ele><time>2026-05-02T08:02:37.821Z</time></trkpt><trkpt lat="44.073623350198424" lon="7.598263926565874"><ele>773.0</ele><time>2026-05-02T08:02:38.821Z</time></trkpt><trkpt lat="44.07372257361227" lon="7.598382821895514"><ele>773.0</ele><time>2026-05-02T08:02:39.823Z</time></trkpt><trkpt lat="44.073823850340574" lon="7.598494761265066"><ele>773.0</ele><time>2026-05-02T08:02:40.823Z</time></trkpt><trkpt lat="44.073919986747086" lon="7.598608223534331"><ele>773.0</ele><time>2026-05-02T08:02:41.823Z</time></trkpt><trkpt lat="44.07403629569017" lon="7.598691581268263"><ele>775.0</ele><time>2026-05-02T08:02:42.823Z</time></trkpt><trkpt lat="44.074166183817375" lon="7.598739263661844"><ele>777.0</ele><time>2026-05-02T08:02:43.823Z</time></trkpt><trkpt lat="44.07430700354905" lon="7.598761351302413"><ele>779.0</ele><time>2026-05-02T08:02:44.823Z</time></trkpt><trkpt lat="44.07444221472587" lon="7.59878735976871"><ele>781.0</ele><time>2026-05-02T08:02:45.823Z</time></trkpt><trkpt lat="44.07456399740701" lon="7.598843546170897"><ele>781.0</ele><time>2026-05-02T08:02:46.823Z</time></trkpt><trkpt lat="44.074696275169636" lon="7.5988770333602265"><ele>781.0</ele><time>2026-05-02T08:02:47.823Z</time></trkpt><trkpt lat="44.07482848582475" lon="7.598911235260883"><ele>781.0</ele><time>2026-05-02T08:02:48.823Z</time></trkpt><trkpt lat="44.074955905330505" lon="7.598932172684041"><ele>781.0</ele><time>2026-05-02T08:02:49.822Z</time></trkpt><trkpt lat="44.07508597496108" lon="7.598955622142302"><ele>781.0</ele><time>2026-05-02T08:02:50.822Z</time></trkpt><trkpt lat="44.075209865897776" lon="7.598985147393388"><ele>781.0</ele><time>2026-05-02T08:02:51.823Z</time></trkpt><trkpt lat="44.07533153446227" lon="7.599007515529496"><ele>781.0</ele><time>2026-05-02T08:02:52.822Z</time></trkpt><trkpt lat="44.0754566783921" lon="7.599035530051777"><ele>781.0</ele><time>2026-05-02T08:02:53.822Z</time></trkpt><trkpt lat="44.07558267681052" lon="7.59906393708698"><ele>781.0</ele><time>2026-05-02T08:02:54.822Z</time></trkpt><trkpt lat="44.075714064201755" lon="7.5991040124298195"><ele>781.0</ele><time>2026-05-02T08:02:55.822Z</time></trkpt><trkpt lat="44.07584941699088" lon="7.599144441008143"><ele>781.0</ele><time>2026-05-02T08:02:56.822Z</time></trkpt><trkpt lat="44.075983355638336" lon="7.599182746224112"><ele>781.0</ele><time>2026-05-02T08:02:57.822Z</time></trkpt><trkpt lat="44.07612027319826" lon="7.599203366942621"><ele>780.75</ele><time>2026-05-02T08:02:58.822Z</time></trkpt><trkpt lat="44.07625920583849" lon="7.599204740783825"><ele>780.5</ele><time>2026-05-02T08:02:59.822Z</time></trkpt><trkpt lat="44.076402601287356" lon="7.599186282233523"><ele>780.25</ele><time>2026-05-02T08:03:00.822Z</time></trkpt><trkpt lat="44.07653954610243" lon="7.5991574271932425"><ele>780.0</ele><time>2026-05-02T08:03:01.822Z</time></trkpt><trkpt lat="44.07668307059818" lon="7.5991217774532105"><ele>780.0</ele><time>2026-05-02T08:03:02.822Z</time></trkpt><trkpt lat="44.07682167748328" lon="7.599061784990909"><ele>780.0</ele><time>2026-05-02T08:03:03.822Z</time></trkpt><trkpt lat="44.076958074001375" lon="7.598994813234877"><ele>780.0</ele><time>2026-05-02T08:03:04.822Z</time></trkpt><trkpt lat="44.077090674253675" lon="7.59892719860249"><ele>780.0</ele><time>2026-05-02T08:03:05.822Z</time></trkpt><trkpt lat="44.077219240841856" lon="7.598860759266585"><ele>780.0</ele><time>2026-05-02T08:03:06.822Z</time></trkpt><trkpt lat="44.07734785227619" lon="7.59881709026212"><ele>780.0</ele><time>2026-05-02T08:03:07.822Z</time></trkpt><trkpt lat="44.07747518100735" lon="7.598778591937422"><ele>780.0</ele><time>2026-05-02T08:03:08.822Z</time></trkpt><trkpt lat="44.0776050632514" lon="7.598759694221388"><ele>780.0</ele><time>2026-05-02T08:03:09.822Z</time></trkpt><trkpt lat="44.07773508932438" lon="7.598754611178228"><ele>781.0</ele><time>2026-05-02T08:03:10.822Z</time></trkpt><trkpt lat="44.077865944339926" lon="7.598749404140181"><ele>782.0</ele><time>2026-05-02T08:03:11.821Z</time></trkpt><trkpt lat="44.07799108434129" lon="7.598759267436521"><ele>783.0</ele><time>2026-05-02T08:03:12.821Z</time></trkpt><trkpt lat="44.07811971617738" lon="7.598771793347339"><ele>784.0</ele><time>2026-05-02T08:03:13.821Z</time></trkpt><trkpt lat="44.07824747153698" lon="7.598785527836087"><ele>784.75</ele><time>2026-05-02T08:03:14.821Z</time></trkpt><trkpt lat="44.07837327023883" lon="7.598797289734779"><ele>785.5</ele><time>2026-05-02T08:03:15.821Z</time></trkpt><trkpt lat="44.078498509767634" lon="7.5988132713785115"><ele>786.25</ele><time>2026-05-02T08:03:16.821Z</time></trkpt><trkpt lat="44.07862524287535" lon="7.5988348460830615"><ele>787.0</ele><time>2026-05-02T08:03:17.821Z</time></trkpt><trkpt lat="44.07875656858258" lon="7.598842157904829"><ele>787.0</ele><time>2026-05-02T08:03:18.821Z</time></trkpt><trkpt lat="44.07888063403397" lon="7.598852186112092"><ele>787.0</ele><time>2026-05-02T08:03:19.821Z</time></trkpt><trkpt lat="44.079010685961144" lon="7.598833297693573"><ele>787.0</ele><time>2026-05-02T08:03:20.821Z</time></trkpt><trkpt lat="44.079141836302846" lon="7.598776411253714"><ele>787.0</ele><time>2026-05-02T08:03:21.821Z</time></trkpt><trkpt lat="44.07926421094839" lon="7.598685191476841"><ele>785.5</ele><time>2026-05-02T08:03:22.821Z</time></trkpt><trkpt lat="44.079378004009534" lon="7.5985877937982105"><ele>784.0</ele><time>2026-05-02T08:03:23.821Z</time></trkpt><trkpt lat="44.07948741063777" lon="7.598482399321961"><ele>782.5</ele><time>2026-05-02T08:03:24.821Z</time></trkpt><trkpt lat="44.079596929511695" lon="7.598384924646261"><ele>781.0</ele><time>2026-05-02T08:03:25.821Z</time></trkpt><trkpt lat="44.07970449855474" lon="7.598291393308849"><ele>801.0</ele><time>2026-05-02T08:03:26.821Z</time></trkpt><trkpt lat="44.085278392586964" lon="7.5938259882850785"><ele>801.0</ele><time>2026-05-02T08:04:27.819Z</time></trkpt><trkpt lat="44.085399436345725" lon="7.593835851098557"><ele>801.0</ele><time>2026-05-02T08:04:28.819Z</time></trkpt><trkpt lat="44.085522858660624" lon="7.5938514784320486"><ele>801.0</ele><time>2026-05-02T08:04:29.819Z</time></trkpt><trkpt lat="44.08564585927111" lon="7.593861116475216"><ele>801.0</ele><time>2026-05-02T08:04:30.819Z</time></trkpt><trkpt lat="44.085770566262376" lon="7.593846664988176"><ele>801.0</ele><time>2026-05-02T08:04:31.819Z</time></trkpt><trkpt lat="44.085899567821436" lon="7.593820179222757"><ele>801.0</ele><time>2026-05-02T08:04:32.818Z</time></trkpt><trkpt lat="44.086028615109136" lon="7.593799870513323"><ele>801.0</ele><time>2026-05-02T08:04:33.818Z</time></trkpt><trkpt lat="44.08614596494673" lon="7.593762252412052"><ele>801.0</ele><time>2026-05-02T08:04:34.818Z</time></trkpt><trkpt lat="44.086271030135606" lon="7.593714606453341"><ele>805.8</ele><time>2026-05-02T08:04:35.818Z</time></trkpt><trkpt lat="44.08636436440189" lon="7.593659669681221"><ele>810.5999999999999</ele><time>2026-05-02T08:04:36.818Z</time></trkpt><trkpt lat="44.08642362306857" lon="7.593604692333016"><ele>815.4</ele><time>2026-05-02T08:04:37.818Z</time></trkpt><trkpt lat="44.08649018293748" lon="7.59358187335933"><ele>820.2</ele><time>2026-05-02T08:04:38.818Z</time></trkpt><trkpt lat="44.086598242627836" lon="7.593569497602559"><ele>825.0</ele><time>2026-05-02T08:04:39.818Z</time></trkpt><trkpt lat="44.08670775060817" lon="7.593582624285049"><ele>825.0</ele><time>2026-05-02T08:04:40.818Z</time></trkpt><trkpt lat="44.08681760301554" lon="7.593606179688166"><ele>825.0</ele><time>2026-05-02T08:04:41.818Z</time></trkpt><trkpt lat="44.08692187735574" lon="7.593665940362514"><ele>825.0</ele><time>2026-05-02T08:04:42.818Z</time></trkpt><trkpt lat="44.08702665034364" lon="7.593717448311523"><ele>825.0</ele><time>2026-05-02T08:04:43.818Z</time></trkpt><trkpt lat="44.08712980254425" lon="7.593766694139938"><ele>825.0</ele><time>2026-05-02T08:04:44.82Z</time></trkpt><trkpt lat="44.087230004318606" lon="7.593808221294396"><ele>822.2</ele><time>2026-05-02T08:04:45.821Z</time></trkpt><trkpt lat="44.0873276097238" lon="7.593826378437212"><ele>819.4</ele><time>2026-05-02T08:04:46.821Z</time></trkpt><trkpt lat="44.087422137890464" lon="7.59380816614568"><ele>816.5999999999999</ele><time>2026-05-02T08:04:47.821Z</time></trkpt><trkpt lat="44.08751696377445" lon="7.593764819543963"><ele>813.8</ele><time>2026-05-02T08:04:48.82Z</time></trkpt><trkpt lat="44.087612321507876" lon="7.593711927359875"><ele>811.0</ele><time>2026-05-02T08:04:49.82Z</time></trkpt><trkpt lat="44.08771197657687" lon="7.593684794244769"><ele>811.0</ele><time>2026-05-02T08:04:50.821Z</time></trkpt><trkpt lat="44.087814917467604" lon="7.593683801672871"><ele>811.0</ele><time>2026-05-02T08:04:51.821Z</time></trkpt><trkpt lat="44.087921266857236" lon="7.593675601353855"><ele>811.0</ele><time>2026-05-02T08:04:52.821Z</time></trkpt><trkpt lat="44.088027127415245" lon="7.593646708706743"><ele>811.0</ele><time>2026-05-02T08:04:53.821Z</time></trkpt><trkpt lat="44.088132599707805" lon="7.593611330302784"><ele>811.0</ele><time>2026-05-02T08:04:54.821Z</time></trkpt><trkpt lat="44.088243334548956" lon="7.5935734831780435"><ele>813.5999999999999</ele><time>2026-05-02T08:04:55.821Z</time></trkpt><trkpt lat="44.08833797563548" lon="7.593538086913431"><ele>816.2</ele><time>2026-05-02T08:04:56.82Z</time></trkpt><trkpt lat="44.0884346161824" lon="7.593488859519768"><ele>818.8</ele><time>2026-05-02T08:04:57.82Z</time></trkpt><trkpt lat="44.088517589397355" lon="7.593455256850612"><ele>821.4000000000001</ele><time>2026-05-02T08:04:58.82Z</time></trkpt><trkpt lat="44.08859397689438" lon="7.593428276669509"><ele>824.0</ele><time>2026-05-02T08:04:59.82Z</time></trkpt><trkpt lat="44.088693499785606" lon="7.593377983813604"><ele>824.0</ele><time>2026-05-02T08:05:00.82Z</time></trkpt><trkpt lat="44.08878996904302" lon="7.593337517122315"><ele>824.0</ele><time>2026-05-02T08:05:01.82Z</time></trkpt><trkpt lat="44.08889765931067" lon="7.593291125449475"><ele>824.0</ele><time>2026-05-02T08:05:02.819Z</time></trkpt><trkpt lat="44.08900118015355" lon="7.593245771303332"><ele>824.0</ele><time>2026-05-02T08:05:03.819Z</time></trkpt><trkpt lat="44.08911073746444" lon="7.593213443600722"><ele>824.0</ele><time>2026-05-02T08:05:04.819Z</time></trkpt><trkpt lat="44.08922141797447" lon="7.5931748604460045"><ele>824.0</ele><time>2026-05-02T08:05:05.819Z</time></trkpt><trkpt lat="44.08931995110902" lon="7.593129916046852"><ele>824.0</ele><time>2026-05-02T08:05:06.819Z</time></trkpt><trkpt lat="44.08942469608171" lon="7.593083930611574"><ele>824.0</ele><time>2026-05-02T08:05:07.819Z</time></trkpt><trkpt lat="44.08952516365786" lon="7.593034889267312"><ele>824.0</ele><time>2026-05-02T08:05:08.819Z</time></trkpt><trkpt lat="44.08962427775768" lon="7.5930042222939385"><ele>824.0</ele><time>2026-05-02T08:05:09.819Z</time></trkpt><trkpt lat="44.08970931172248" lon="7.592976359015585"><ele>824.0</ele><time>2026-05-02T08:05:10.819Z</time></trkpt><trkpt lat="44.08982032960391" lon="7.592924514489462"><ele>824.0</ele><time>2026-05-02T08:05:12.819Z</time></trkpt><trkpt lat="44.089900650595084" lon="7.592918773986034"><ele>824.0</ele><time>2026-05-02T08:05:13.819Z</time></trkpt><trkpt lat="44.089997246886604" lon="7.592884604335118"><ele>824.0</ele><time>2026-05-02T08:05:14.819Z</time></trkpt><trkpt lat="44.090105392662444" lon="7.59284155521891"><ele>824.0</ele><time>2026-05-02T08:05:15.819Z</time></trkpt><trkpt lat="44.0902134066582" lon="7.592797178744927"><ele>825.6</ele><time>2026-05-02T08:05:16.819Z</time></trkpt><trkpt lat="44.09030113011208" lon="7.592744909294264"><ele>827.2</ele><time>2026-05-02T08:05:17.819Z</time></trkpt><trkpt lat="44.0903845470589" lon="7.5927423799676"><ele>828.8000000000001</ele><time>2026-05-02T08:05:18.819Z</time></trkpt><trkpt lat="44.090464605242204" lon="7.592692013062189"><ele>830.4000000000001</ele><time>2026-05-02T08:05:19.819Z</time></trkpt><trkpt lat="44.09056220695176" lon="7.592647096342846"><ele>832.0</ele><time>2026-05-02T08:05:20.819Z</time></trkpt><trkpt lat="44.09065998630634" lon="7.592599941097965"><ele>831.9999999999999</ele><time>2026-05-02T08:05:21.819Z</time></trkpt><trkpt lat="44.0907478067056" lon="7.592572220577394"><ele>832.0</ele><time>2026-05-02T08:05:22.819Z</time></trkpt><trkpt lat="44.090840621056" lon="7.592540499593365"><ele>832.0</ele><time>2026-05-02T08:05:23.819Z</time></trkpt><trkpt lat="44.09092063739123" lon="7.5925049937239075"><ele>832.0</ele><time>2026-05-02T08:05:24.819Z</time></trkpt><trkpt lat="44.09099472793267" lon="7.592463794275209"><ele>831.9999999999999</ele><time>2026-05-02T08:05:25.819Z</time></trkpt><trkpt lat="44.09106684135264" lon="7.592421161183435"><ele>832.0</ele><time>2026-05-02T08:05:26.819Z</time></trkpt><trkpt lat="44.09847081282627" lon="7.588616819389833"><ele>840.3333333333333</ele><time>2026-05-02T08:06:27.816Z</time></trkpt><trkpt lat="44.09864450673204" lon="7.588625137313636"><ele>848.6666666666667</ele><time>2026-05-02T08:06:28.816Z</time></trkpt><trkpt lat="44.09880709789985" lon="7.588644853491289"><ele>857.0</ele><time>2026-05-02T08:06:29.816Z</time></trkpt><trkpt lat="44.09896209229092" lon="7.58866350712848"><ele>859.0</ele><time>2026-05-02T08:06:30.816Z</time></trkpt><trkpt lat="44.09911152529089" lon="7.588686323759104"><ele>861.0</ele><time>2026-05-02T08:06:31.816Z</time></trkpt><trkpt lat="44.09926441891383" lon="7.5887190540060265"><ele>863.0</ele><time>2026-05-02T08:06:32.816Z</time></trkpt><trkpt lat="44.09940413961023" lon="7.588761724861478"><ele>865.0</ele><time>2026-05-02T08:06:33.816Z</time></trkpt><trkpt lat="44.09953493138687" lon="7.588803479057772"><ele>865.0</ele><time>2026-05-02T08:06:34.816Z</time></trkpt><trkpt lat="44.09965745429373" lon="7.5888507882614205"><ele>865.0</ele><time>2026-05-02T08:06:35.816Z</time></trkpt><trkpt lat="44.09977150933016" lon="7.588856553196423"><ele>865.0</ele><time>2026-05-02T08:06:36.816Z</time></trkpt><trkpt lat="44.09988654644761" lon="7.588764478891721"><ele>865.0</ele><time>2026-05-02T08:06:37.816Z</time></trkpt><trkpt lat="44.100021292684225" lon="7.5886662383012995"><ele>863.3333333333333</ele><time>2026-05-02T08:06:38.816Z</time></trkpt><trkpt lat="44.10010420348756" lon="7.588436124944604"><ele>861.6666666666667</ele><time>2026-05-02T08:06:39.816Z</time></trkpt><trkpt lat="44.10019562339883" lon="7.588223658732293"><ele>860.0</ele><time>2026-05-02T08:06:40.816Z</time></trkpt><trkpt lat="44.10023300429865" lon="7.5880029829895745"><ele>862.6666666666667</ele><time>2026-05-02T08:06:41.816Z</time></trkpt><trkpt lat="44.10028622901019" lon="7.587781490125339"><ele>865.3333333333333</ele><time>2026-05-02T08:06:42.816Z</time></trkpt><trkpt lat="44.100331909597756" lon="7.587557427773946"><ele>868.0</ele><time>2026-05-02T08:06:43.816Z</time></trkpt><trkpt lat="44.100351405965995" lon="7.587323494238625"><ele>868.0</ele><time>2026-05-02T08:06:44.816Z</time></trkpt><trkpt lat="44.10037894527421" lon="7.587086820976714"><ele>868.0</ele><time>2026-05-02T08:06:45.816Z</time></trkpt><trkpt lat="44.100447689932224" lon="7.586873847702897"><ele>868.0</ele><time>2026-05-02T08:06:46.816Z</time></trkpt><trkpt lat="44.10049804380897" lon="7.586668296593088"><ele>873.25</ele><time>2026-05-02T08:06:47.816Z</time></trkpt><trkpt lat="44.10054675804372" lon="7.586477411811746"><ele>878.5</ele><time>2026-05-02T08:06:48.816Z</time></trkpt><trkpt lat="44.10059548234709" lon="7.586297114087357"><ele>883.75</ele><time>2026-05-02T08:06:49.816Z</time></trkpt><trkpt lat="44.100648554232954" lon="7.586148472409775"><ele>889.0</ele><time>2026-05-02T08:06:50.818Z</time></trkpt><trkpt lat="44.10073141607049" lon="7.58601672309009"><ele>884.25</ele><time>2026-05-02T08:06:51.819Z</time></trkpt><trkpt lat="44.100832878072794" lon="7.585956886767867"><ele>879.5</ele><time>2026-05-02T08:06:52.819Z</time></trkpt><trkpt lat="44.10094551510935" lon="7.585944432594958"><ele>874.75</ele><time>2026-05-02T08:06:53.818Z</time></trkpt><trkpt lat="44.1010708171279" lon="7.585978020079261"><ele>870.0</ele><time>2026-05-02T08:06:54.819Z</time></trkpt><trkpt lat="44.101219360737645" lon="7.586008293509663"><ele>870.0</ele><time>2026-05-02T08:06:55.819Z</time></trkpt><trkpt lat="44.101371029871714" lon="7.586006565656208"><ele>870.0</ele><time>2026-05-02T08:06:56.818Z</time></trkpt><trkpt lat="44.10150935700232" lon="7.585976097908553"><ele>870.0</ele><time>2026-05-02T08:06:57.818Z</time></trkpt><trkpt lat="44.10161508669133" lon="7.585911149742007"><ele>870.0</ele><time>2026-05-02T08:06:58.818Z</time></trkpt><trkpt lat="44.10171075124969" lon="7.585826452099406"><ele>871.25</ele><time>2026-05-02T08:06:59.818Z</time></trkpt><trkpt lat="44.101773275464794" lon="7.585689841795411"><ele>872.5</ele><time>2026-05-02T08:07:00.818Z</time></trkpt><trkpt lat="44.10178716804737" lon="7.585483019850771"><ele>873.75</ele><time>2026-05-02T08:07:01.818Z</time></trkpt><trkpt lat="44.101769581712595" lon="7.585257328357002"><ele>875.0</ele><time>2026-05-02T08:07:02.818Z</time></trkpt><trkpt lat="44.10174633373216" lon="7.585055717447219"><ele>875.0</ele><time>2026-05-02T08:07:03.819Z</time></trkpt><trkpt lat="44.10169523791124" lon="7.584882738091599"><ele>875.0</ele><time>2026-05-02T08:07:04.818Z</time></trkpt><trkpt lat="44.10163810665054" lon="7.584709982881548"><ele>875.0</ele><time>2026-05-02T08:07:05.818Z</time></trkpt><trkpt lat="44.10163425433705" lon="7.584513544217825"><ele>875.0</ele><time>2026-05-02T08:07:06.818Z</time></trkpt><trkpt lat="44.10171352137756" lon="7.584351502885965"><ele>878.0</ele><time>2026-05-02T08:07:07.818Z</time></trkpt><trkpt lat="44.101803325397256" lon="7.584185446807507"><ele>881.0</ele><time>2026-05-02T08:07:08.818Z</time></trkpt><trkpt lat="44.101894551009345" lon="7.583993989840934"><ele>884.0</ele><time>2026-05-02T08:07:09.818Z</time></trkpt><trkpt lat="44.10198509732288" lon="7.583790898202783"><ele>885.3333333333334</ele><time>2026-05-02T08:07:10.818Z</time></trkpt><trkpt lat="44.10209353270833" lon="7.583596654495076"><ele>886.6666666666667</ele><time>2026-05-02T08:07:11.818Z</time></trkpt><trkpt lat="44.10220519676689" lon="7.583416257542343"><ele>888.0</ele><time>2026-05-02T08:07:12.818Z</time></trkpt><trkpt lat="44.10225536288666" lon="7.583200795997459"><ele>888.0</ele><time>2026-05-02T08:07:13.818Z</time></trkpt><trkpt lat="44.102268092669675" lon="7.582991726177354"><ele>888.0</ele><time>2026-05-02T08:07:14.818Z</time></trkpt><trkpt lat="44.102266910030195" lon="7.582762323429836"><ele>888.0</ele><time>2026-05-02T08:07:15.818Z</time></trkpt><trkpt lat="44.10229881254512" lon="7.582555925335766"><ele>887.75</ele><time>2026-05-02T08:07:16.818Z</time></trkpt><trkpt lat="44.102366283145436" lon="7.582381232712883"><ele>887.5</ele><time>2026-05-02T08:07:17.818Z</time></trkpt><trkpt lat="44.102459040104634" lon="7.582254547629526"><ele>887.25</ele><time>2026-05-02T08:07:18.818Z</time></trkpt><trkpt lat="44.10256383944301" lon="7.582129075998473"><ele>887.0</ele><time>2026-05-02T08:07:19.818Z</time></trkpt><trkpt lat="44.10267057357831" lon="7.581977734370028"><ele>885.3333333333334</ele><time>2026-05-02T08:07:20.818Z</time></trkpt><trkpt lat="44.10275368975315" lon="7.581798232663345"><ele>883.6666666666667</ele><time>2026-05-02T08:07:21.818Z</time></trkpt><trkpt lat="44.1028071878349" lon="7.5815943581962895"><ele>882.0</ele><time>2026-05-02T08:07:22.818Z</time></trkpt><trkpt lat="44.10282964682877" lon="7.5813708679685154"><ele>883.6666666666667</ele><time>2026-05-02T08:07:23.818Z</time></trkpt><trkpt lat="44.102854893490374" lon="7.581139305484503"><ele>885.3333333333334</ele><time>2026-05-02T08:07:24.818Z</time></trkpt><trkpt lat="44.1028839183428" lon="7.580910304171997"><ele>887.0</ele><time>2026-05-02T08:07:25.818Z</time></trkpt><trkpt lat="44.10291995489279" lon="7.580685481692963"><ele>924.0</ele><time>2026-05-02T08:07:26.818Z</time></trkpt><trkpt lat="44.10780012255404" lon="7.571346989299065"><ele>924.0</ele><time>2026-05-02T08:08:27.807Z</time></trkpt><trkpt lat="44.107880787637406" lon="7.571194281825173"><ele>924.0</ele><time>2026-05-02T08:08:28.806Z</time></trkpt><trkpt lat="44.10794901488402" lon="7.571042780125462"><ele>924.0</ele><time>2026-05-02T08:08:29.806Z</time></trkpt><trkpt lat="44.108001375812584" lon="7.570875806274184"><ele>924.0</ele><time>2026-05-02T08:08:30.806Z</time></trkpt><trkpt lat="44.108050596745834" lon="7.5707095173955"><ele>925.25</ele><time>2026-05-02T08:08:31.805Z</time></trkpt><trkpt lat="44.108094720783235" lon="7.57052421952699"><ele>926.5</ele><time>2026-05-02T08:08:32.805Z</time></trkpt><trkpt lat="44.10814207892184" lon="7.570348516664711"><ele>927.75</ele><time>2026-05-02T08:08:33.804Z</time></trkpt><trkpt lat="44.108205334607135" lon="7.570188229611783"><ele>929.0</ele><time>2026-05-02T08:08:34.804Z</time></trkpt><trkpt lat="44.108289645479424" lon="7.5700467105919405"><ele>929.0</ele><time>2026-05-02T08:08:35.804Z</time></trkpt><trkpt lat="44.10839673873274" lon="7.5699271395591206"><ele>929.0</ele><time>2026-05-02T08:08:36.803Z</time></trkpt><trkpt lat="44.10851364045811" lon="7.569851687044766"><ele>929.0</ele><time>2026-05-02T08:08:37.803Z</time></trkpt><trkpt lat="44.10865481475162" lon="7.569801665450664"><ele>929.0</ele><time>2026-05-02T08:08:38.803Z</time></trkpt><trkpt lat="44.108800147599126" lon="7.56977052096259"><ele>929.0</ele><time>2026-05-02T08:08:39.803Z</time></trkpt><trkpt lat="44.10895084993143" lon="7.56973112369187"><ele>929.0</ele><time>2026-05-02T08:08:40.802Z</time></trkpt><trkpt lat="44.109110124969774" lon="7.569680487455758"><ele>929.0</ele><time>2026-05-02T08:08:41.802Z</time></trkpt><trkpt lat="44.109256586396214" lon="7.569605404811797"><ele>930.75</ele><time>2026-05-02T08:08:42.802Z</time></trkpt><trkpt lat="44.10939449405371" lon="7.569531936295299"><ele>932.5</ele><time>2026-05-02T08:08:43.802Z</time></trkpt><trkpt lat="44.109505836172985" lon="7.569441080764681"><ele>934.25</ele><time>2026-05-02T08:08:44.802Z</time></trkpt><trkpt lat="44.10958913486421" lon="7.569362615842124"><ele>936.0</ele><time>2026-05-02T08:08:45.801Z</time></trkpt><trkpt lat="44.109679641245556" lon="7.569287582112991"><ele>936.0</ele><time>2026-05-02T08:08:46.801Z</time></trkpt><trkpt lat="44.10977964254124" lon="7.569159844588407"><ele>936.0</ele><time>2026-05-02T08:08:47.801Z</time></trkpt><trkpt lat="44.109862156724816" lon="7.569013238808586"><ele>936.0</ele><time>2026-05-02T08:08:48.801Z</time></trkpt><trkpt lat="44.10993604442095" lon="7.568815681871418"><ele>936.0</ele><time>2026-05-02T08:08:49.801Z</time></trkpt><trkpt lat="44.10999456339121" lon="7.568504266685872"><ele>936.6666666666667</ele><time>2026-05-02T08:08:50.801Z</time></trkpt><trkpt lat="44.11003352244562" lon="7.568193110477034"><ele>937.3333333333334</ele><time>2026-05-02T08:08:51.8Z</time></trkpt><trkpt lat="44.11007118796443" lon="7.567914043348716"><ele>938.0</ele><time>2026-05-02T08:08:52.8Z</time></trkpt><trkpt lat="44.110101153828126" lon="7.567664969476698"><ele>938.0</ele><time>2026-05-02T08:08:53.8Z</time></trkpt><trkpt lat="44.11011480162975" lon="7.567435621391536"><ele>938.0</ele><time>2026-05-02T08:08:54.8Z</time></trkpt><trkpt lat="44.110113007374004" lon="7.567225410297643"><ele>938.0</ele><time>2026-05-02T08:08:55.8Z</time></trkpt><trkpt lat="44.1101192929633" lon="7.5670357718097625"><ele>938.25</ele><time>2026-05-02T08:08:56.802Z</time></trkpt><trkpt lat="44.110179535221704" lon="7.566863129753395"><ele>938.5</ele><time>2026-05-02T08:08:57.802Z</time></trkpt><trkpt lat="44.11025941506193" lon="7.566705981834069"><ele>938.75</ele><time>2026-05-02T08:08:58.802Z</time></trkpt><trkpt lat="44.110358853499356" lon="7.566559726816217"><ele>939.0</ele><time>2026-05-02T08:08:59.801Z</time></trkpt><trkpt lat="44.11047390581733" lon="7.566426957572376"><ele>939.0</ele><time>2026-05-02T08:09:00.801Z</time></trkpt><trkpt lat="44.11060185143156" lon="7.56632336594658"><ele>939.0</ele><time>2026-05-02T08:09:01.801Z</time></trkpt><trkpt lat="44.11073471042882" lon="7.566240105820281"><ele>939.0</ele><time>2026-05-02T08:09:02.801Z</time></trkpt><trkpt lat="44.11087163027865" lon="7.566168252794888"><ele>939.0</ele><time>2026-05-02T08:09:03.801Z</time></trkpt><trkpt lat="44.111000926349114" lon="7.5661113562931135"><ele>939.4000000000001</ele><time>2026-05-02T08:09:04.801Z</time></trkpt><trkpt lat="44.111110060563284" lon="7.566096670408994"><ele>939.8000000000001</ele><time>2026-05-02T08:09:05.801Z</time></trkpt><trkpt lat="44.11120807508443" lon="7.566063648682893"><ele>940.1999999999999</ele><time>2026-05-02T08:09:06.8Z</time></trkpt><trkpt lat="44.11129691254309" lon="7.56603359397615"><ele>940.5999999999999</ele><time>2026-05-02T08:09:07.8Z</time></trkpt><trkpt lat="44.11137038598071" lon="7.566008605014613"><ele>941.0</ele><time>2026-05-02T08:09:08.801Z</time></trkpt><trkpt lat="44.11147920294251" lon="7.565971595428027"><ele>941.0</ele><time>2026-05-02T08:09:10.8Z</time></trkpt><trkpt lat="44.1115562111157" lon="7.565945404275934"><ele>941.0</ele><time>2026-05-02T08:09:12.8Z</time></trkpt><trkpt lat="44.11149205280064" lon="7.565966321191194"><ele>941.0</ele><time>2026-05-02T08:09:23.799Z</time></trkpt><trkpt lat="44.117773825320455" lon="7.566379611923019"><ele>957.3333333333334</ele><time>2026-05-02T08:10:27.797Z</time></trkpt><trkpt lat="44.11791600601018" lon="7.566463582243489"><ele>973.6666666666667</ele><time>2026-05-02T08:10:28.797Z</time></trkpt><trkpt lat="44.11805897115805" lon="7.566550398777729"><ele>990.0</ele><time>2026-05-02T08:10:29.797Z</time></trkpt><trkpt lat="44.118208148187726" lon="7.566608428279267"><ele>992.0</ele><time>2026-05-02T08:10:30.797Z</time></trkpt><trkpt lat="44.11837203652722" lon="7.566617009867552"><ele>994.0</ele><time>2026-05-02T08:10:31.797Z</time></trkpt><trkpt lat="44.118536793743615" lon="7.566595367060514"><ele>996.0</ele><time>2026-05-02T08:10:32.797Z</time></trkpt><trkpt lat="44.11869960515835" lon="7.566559455309342"><ele>996.0</ele><time>2026-05-02T08:10:33.797Z</time></trkpt><trkpt lat="44.11886756674421" lon="7.566526315051352"><ele>996.0</ele><time>2026-05-02T08:10:34.797Z</time></trkpt><trkpt lat="44.119036775054404" lon="7.56650839626201"><ele>996.0</ele><time>2026-05-02T08:10:35.796Z</time></trkpt><trkpt lat="44.119213501771995" lon="7.56651032763684"><ele>998.3333333333333</ele><time>2026-05-02T08:10:36.796Z</time></trkpt><trkpt lat="44.11938434215257" lon="7.566531215116772"><ele>1000.6666666666666</ele><time>2026-05-02T08:10:37.796Z</time></trkpt><trkpt lat="44.11956040314923" lon="7.5665860983831825"><ele>1003.0</ele><time>2026-05-02T08:10:38.796Z</time></trkpt><trkpt lat="44.11974690130835" lon="7.566676798708096"><ele>1007.3333333333333</ele><time>2026-05-02T08:10:39.796Z</time></trkpt><trkpt lat="44.119946654522096" lon="7.566778169507051"><ele>1011.6666666666667</ele><time>2026-05-02T08:10:40.796Z</time></trkpt><trkpt lat="44.12015458386712" lon="7.566876925065517"><ele>1016.0</ele><time>2026-05-02T08:10:41.796Z</time></trkpt><trkpt lat="44.12035289774815" lon="7.566951153781009"><ele>1016.0</ele><time>2026-05-02T08:10:42.796Z</time></trkpt><trkpt lat="44.120545553208025" lon="7.567018067332147"><ele>1016.0</ele><time>2026-05-02T08:10:43.796Z</time></trkpt><trkpt lat="44.12071601818542" lon="7.567106905547754"><ele>1016.0</ele><time>2026-05-02T08:10:44.796Z</time></trkpt><trkpt lat="44.12086351453836" lon="7.567225762392955"><ele>1014.3333333333334</ele><time>2026-05-02T08:10:45.796Z</time></trkpt><trkpt lat="44.12099438660665" lon="7.567363132144335"><ele>1012.6666666666667</ele><time>2026-05-02T08:10:46.796Z</time></trkpt><trkpt lat="44.1211176205135" lon="7.567494249685248"><ele>1011.0</ele><time>2026-05-02T08:10:47.796Z</time></trkpt><trkpt lat="44.12126102630059" lon="7.567593374447798"><ele>1011.0</ele><time>2026-05-02T08:10:48.796Z</time></trkpt><trkpt lat="44.121424783703404" lon="7.567590483083574"><ele>1011.0</ele><time>2026-05-02T08:10:49.796Z</time></trkpt><trkpt lat="44.12158555784937" lon="7.567581282903189"><ele>1011.0</ele><time>2026-05-02T08:10:50.796Z</time></trkpt><trkpt lat="44.12174309974946" lon="7.567521548765103"><ele>1016.6666666666667</ele><time>2026-05-02T08:10:51.796Z</time></trkpt><trkpt lat="44.121904491235874" lon="7.567433341805331"><ele>1022.3333333333334</ele><time>2026-05-02T08:10:52.796Z</time></trkpt><trkpt lat="44.12207208700991" lon="7.567325597535498"><ele>1028.0</ele><time>2026-05-02T08:10:53.796Z</time></trkpt><trkpt lat="44.122253957309056" lon="7.567235027461412"><ele>1031.0</ele><time>2026-05-02T08:10:54.796Z</time></trkpt><trkpt lat="44.12245694151164" lon="7.567169544622495"><ele>1034.0</ele><time>2026-05-02T08:10:55.796Z</time></trkpt><trkpt lat="44.12268206302907" lon="7.567118046606075"><ele>1037.0</ele><time>2026-05-02T08:10:56.796Z</time></trkpt><trkpt lat="44.12290622945215" lon="7.5670788875857715"><ele>1037.0</ele><time>2026-05-02T08:10:57.796Z</time></trkpt><trkpt lat="44.123114649899236" lon="7.567042661057584"><ele>1037.0</ele><time>2026-05-02T08:10:58.796Z</time></trkpt><trkpt lat="44.12331129985832" lon="7.566994021576525"><ele>1037.0</ele><time>2026-05-02T08:10:59.796Z</time></trkpt><trkpt lat="44.123501368781646" lon="7.566946248294248"><ele>1043.0</ele><time>2026-05-02T08:11:00.795Z</time></trkpt><trkpt lat="44.1236936955596" lon="7.566928146795384"><ele>1049.0</ele><time>2026-05-02T08:11:01.795Z</time></trkpt><trkpt lat="44.12388431757452" lon="7.566962686217669"><ele>1055.0</ele><time>2026-05-02T08:11:02.797Z</time></trkpt><trkpt lat="44.12408084198624" lon="7.567032059971279"><ele>1055.0</ele><time>2026-05-02T08:11:03.798Z</time></trkpt><trkpt lat="44.12429257670588" lon="7.567115913533912"><ele>1055.0</ele><time>2026-05-02T08:11:04.798Z</time></trkpt><trkpt lat="44.1245061367046" lon="7.56720242374146"><ele>1055.0</ele><time>2026-05-02T08:11:05.797Z</time></trkpt><trkpt lat="44.12470296342677" lon="7.567280246901026"><ele>1055.0</ele><time>2026-05-02T08:11:06.798Z</time></trkpt><trkpt lat="44.12488173096951" lon="7.567348196450567"><ele>1055.0</ele><time>2026-05-02T08:11:07.798Z</time></trkpt><trkpt lat="44.125024815853784" lon="7.56749238748055"><ele>1055.0</ele><time>2026-05-02T08:11:08.798Z</time></trkpt><trkpt lat="44.12521573753506" lon="7.567599975334997"><ele>1058.6666666666667</ele><time>2026-05-02T08:11:09.798Z</time></trkpt><trkpt lat="44.12540631812566" lon="7.567618227531855"><ele>1062.3333333333333</ele><time>2026-05-02T08:11:10.798Z</time></trkpt><trkpt lat="44.12559766964118" lon="7.567599416861915"><ele>1066.0</ele><time>2026-05-02T08:11:11.798Z</time></trkpt><trkpt lat="44.12578820560098" lon="7.567575245633722"><ele>1069.6666666666665</ele><time>2026-05-02T08:11:12.797Z</time></trkpt><trkpt lat="44.12598658383659" lon="7.567550642928138"><ele>1073.3333333333333</ele><time>2026-05-02T08:11:13.797Z</time></trkpt><trkpt lat="44.12616676900241" lon="7.567510531644807"><ele>1077.0</ele><time>2026-05-02T08:11:14.797Z</time></trkpt><trkpt lat="44.12630179996883" lon="7.567425326126007"><ele>1077.0</ele><time>2026-05-02T08:11:15.798Z</time></trkpt><trkpt lat="44.126410111499375" lon="7.567324991163072"><ele>1077.0</ele><time>2026-05-02T08:11:16.798Z</time></trkpt><trkpt lat="44.12651123059618" lon="7.5672259227535"><ele>1077.0</ele><time>2026-05-02T08:11:17.798Z</time></trkpt><trkpt lat="44.12663087026733" lon="7.567154253360844"><ele>1077.0</ele><time>2026-05-02T08:11:18.797Z</time></trkpt><trkpt lat="44.12675219393516" lon="7.567091075519243"><ele>1074.3333333333333</ele><time>2026-05-02T08:11:19.797Z</time></trkpt><trkpt lat="44.12688890766436" lon="7.567106725877775"><ele>1071.6666666666665</ele><time>2026-05-02T08:11:20.797Z</time></trkpt><trkpt lat="44.127026983180386" lon="7.567143501239783"><ele>1069.0</ele><time>2026-05-02T08:11:21.797Z</time></trkpt><trkpt lat="44.127194151556324" lon="7.567201855956103"><ele>1069.0</ele><time>2026-05-02T08:11:22.797Z</time></trkpt><trkpt lat="44.12737281393419" lon="7.567266450409175"><ele>1069.0</ele><time>2026-05-02T08:11:23.797Z</time></trkpt><trkpt lat="44.127557756713365" lon="7.567333226168226"><ele>1069.0</ele><time>2026-05-02T08:11:24.797Z</time></trkpt><trkpt lat="44.127730315548" lon="7.567387963945749"><ele>1075.5</ele><time>2026-05-02T08:11:25.797Z</time></trkpt><trkpt lat="44.127882509561616" lon="7.567428845358425"><ele>1082.0</ele><time>2026-05-02T08:11:26.797Z</time></trkpt><trkpt lat="44.12890449588867" lon="7.563563759683145"><ele>1092.8</ele><time>2026-05-02T08:12:27.795Z</time></trkpt><trkpt lat="44.12895267911414" lon="7.563433005993792"><ele>1103.6</ele><time>2026-05-02T08:12:28.795Z</time></trkpt><trkpt lat="44.12894959939408" lon="7.563299543335122"><ele>1114.3999999999999</ele><time>2026-05-02T08:12:29.795Z</time></trkpt><trkpt lat="44.12890335317844" lon="7.563164742269803"><ele>1125.2</ele><time>2026-05-02T08:12:30.795Z</time></trkpt><trkpt lat="44.128797698595896" lon="7.563082656844134"><ele>1136.0</ele><time>2026-05-02T08:12:31.795Z</time></trkpt><trkpt lat="44.12867722566645" lon="7.563044358934938"><ele>1136.0</ele><time>2026-05-02T08:12:32.795Z</time></trkpt><trkpt lat="44.128541379234036" lon="7.563044046689087"><ele>1136.0</ele><time>2026-05-02T08:12:33.795Z</time></trkpt><trkpt lat="44.12840105511156" lon="7.563032902131678"><ele>1136.0</ele><time>2026-05-02T08:12:34.795Z</time></trkpt><trkpt lat="44.12825148323824" lon="7.563013334610834"><ele>1136.0</ele><time>2026-05-02T08:12:35.795Z</time></trkpt><trkpt lat="44.12809334117325" lon="7.563001303294681"><ele>1141.3333333333335</ele><time>2026-05-02T08:12:36.794Z</time></trkpt><trkpt lat="44.127932420264216" lon="7.5630076481982424"><ele>1146.6666666666667</ele><time>2026-05-02T08:12:37.794Z</time></trkpt><trkpt lat="44.127775241619055" lon="7.563027941304227"><ele>1152.0</ele><time>2026-05-02T08:12:38.794Z</time></trkpt><trkpt lat="44.12762258087002" lon="7.563054635467068"><ele>1152.0</ele><time>2026-05-02T08:12:39.794Z</time></trkpt><trkpt lat="44.12748471062111" lon="7.563080900076803"><ele>1152.0</ele><time>2026-05-02T08:12:40.794Z</time></trkpt><trkpt lat="44.12736027535499" lon="7.563103538762479"><ele>1152.0</ele><time>2026-05-02T08:12:41.794Z</time></trkpt><trkpt lat="44.12724743274412" lon="7.5631171704991145"><ele>1152.0</ele><time>2026-05-02T08:12:42.794Z</time></trkpt><trkpt lat="44.127144508333906" lon="7.563095145896216"><ele>1154.0</ele><time>2026-05-02T08:12:43.794Z</time></trkpt><trkpt lat="44.12705667050648" lon="7.563031703863709"><ele>1156.0</ele><time>2026-05-02T08:12:44.794Z</time></trkpt><trkpt lat="44.126991930880074" lon="7.562929590936975"><ele>1158.0</ele><time>2026-05-02T08:12:45.794Z</time></trkpt><trkpt lat="44.12699235479688" lon="7.562810052037798"><ele>1160.0</ele><time>2026-05-02T08:12:46.794Z</time></trkpt><trkpt lat="44.12704755096475" lon="7.562718450767745"><ele>1162.0</ele><time>2026-05-02T08:12:47.794Z</time></trkpt><trkpt lat="44.12716378889472" lon="7.562682294450495"><ele>1162.0</ele><time>2026-05-02T08:12:48.794Z</time></trkpt><trkpt lat="44.12730604957815" lon="7.562699644230588"><ele>1162.0</ele><time>2026-05-02T08:12:49.794Z</time></trkpt><trkpt lat="44.127466540679485" lon="7.562754557556277"><ele>1162.0</ele><time>2026-05-02T08:12:50.794Z</time></trkpt><trkpt lat="44.1276328790649" lon="7.562810229472539"><ele>1163.0</ele><time>2026-05-02T08:12:51.794Z</time></trkpt><trkpt lat="44.12753616522223" lon="7.562682416496497"><ele>1164.0</ele><time>2026-05-02T08:12:52.794Z</time></trkpt><trkpt lat="44.127688836274444" lon="7.562729638709026"><ele>1165.0</ele><time>2026-05-02T08:12:53.794Z</time></trkpt><trkpt lat="44.12785043021345" lon="7.562760251646168"><ele>1165.0</ele><time>2026-05-02T08:12:54.794Z</time></trkpt><trkpt lat="44.12801658252643" lon="7.562766337397699"><ele>1165.0</ele><time>2026-05-02T08:12:55.794Z</time></trkpt><trkpt lat="44.12820656125463" lon="7.562756244717675"><ele>1165.0</ele><time>2026-05-02T08:12:56.794Z</time></trkpt><trkpt lat="44.12841382390271" lon="7.562728493657251"><ele>1165.0</ele><time>2026-05-02T08:12:57.794Z</time></trkpt><trkpt lat="44.128620201933984" lon="7.562695386361406"><ele>1165.0</ele><time>2026-05-02T08:12:58.794Z</time></trkpt><trkpt lat="44.128795883476656" lon="7.562758011044226"><ele>1165.0</ele><time>2026-05-02T08:12:59.794Z</time></trkpt><trkpt lat="44.12894976698114" lon="7.562853868381911"><ele>1159.6666666666665</ele><time>2026-05-02T08:13:00.794Z</time></trkpt><trkpt lat="44.12910574600996" lon="7.562961812604497"><ele>1154.3333333333333</ele><time>2026-05-02T08:13:01.793Z</time></trkpt><trkpt lat="44.129256158312806" lon="7.563065904366075"><ele>1149.0</ele><time>2026-05-02T08:13:02.793Z</time></trkpt><trkpt lat="44.12939915079231" lon="7.563167029010445"><ele>1149.0</ele><time>2026-05-02T08:13:03.793Z</time></trkpt><trkpt lat="44.12953152994078" lon="7.563266567827463"><ele>1149.0</ele><time>2026-05-02T08:13:04.793Z</time></trkpt><trkpt lat="44.129662226268415" lon="7.5633856817253395"><ele>1149.0</ele><time>2026-05-02T08:13:05.793Z</time></trkpt><trkpt lat="44.12978854077479" lon="7.563530831156435"><ele>1155.0</ele><time>2026-05-02T08:13:06.793Z</time></trkpt><trkpt lat="44.12990139760968" lon="7.563702852796305"><ele>1161.0</ele><time>2026-05-02T08:13:07.793Z</time></trkpt><trkpt lat="44.12998469852071" lon="7.5639025954405"><ele>1167.0</ele><time>2026-05-02T08:13:08.795Z</time></trkpt><trkpt lat="44.130053338623576" lon="7.564118224233228"><ele>1167.0</ele><time>2026-05-02T08:13:09.795Z</time></trkpt><trkpt lat="44.13011960533944" lon="7.564333046707064"><ele>1167.0</ele><time>2026-05-02T08:13:10.795Z</time></trkpt><trkpt lat="44.13019138441867" lon="7.564537958039556"><ele>1167.0</ele><time>2026-05-02T08:13:11.795Z</time></trkpt><trkpt lat="44.13028279772107" lon="7.564716577259234"><ele>1169.0</ele><time>2026-05-02T08:13:12.795Z</time></trkpt><trkpt lat="44.13038952438879" lon="7.564836427314324"><ele>1171.0</ele><time>2026-05-02T08:13:13.795Z</time></trkpt><trkpt lat="44.13049639896186" lon="7.564921599526259"><ele>1173.0</ele><time>2026-05-02T08:13:14.796Z</time></trkpt><trkpt lat="44.13062880738271" lon="7.564960182571965"><ele>1175.0</ele><time>2026-05-02T08:13:15.795Z</time></trkpt><trkpt lat="44.13078433270568" lon="7.564948393550403"><ele>1175.0</ele><time>2026-05-02T08:13:16.795Z</time></trkpt><trkpt lat="44.1309490328425" lon="7.564932188212778"><ele>1175.0</ele><time>2026-05-02T08:13:17.795Z</time></trkpt><trkpt lat="44.13109830770484" lon="7.56492737871887"><ele>1175.0</ele><time>2026-05-02T08:13:18.795Z</time></trkpt><trkpt lat="44.13123184936345" lon="7.564969527110413"><ele>1175.0</ele><time>2026-05-02T08:13:19.795Z</time></trkpt><trkpt lat="44.131337684213584" lon="7.565073682549699"><ele>1175.0</ele><time>2026-05-02T08:13:20.795Z</time></trkpt><trkpt lat="44.13141763592655" lon="7.565238944065101"><ele>1175.0</ele><time>2026-05-02T08:13:21.795Z</time></trkpt><trkpt lat="44.131469494990526" lon="7.565425088720261"><ele>1175.0</ele><time>2026-05-02T08:13:22.794Z</time></trkpt><trkpt lat="44.1314973319774" lon="7.565601319306754"><ele>1170.25</ele><time>2026-05-02T08:13:23.794Z</time></trkpt><trkpt lat="44.131500151405675" lon="7.565763504503233"><ele>1165.5</ele><time>2026-05-02T08:13:24.794Z</time></trkpt><trkpt lat="44.13148383303929" lon="7.565939717204981"><ele>1160.75</ele><time>2026-05-02T08:13:25.794Z</time></trkpt><trkpt lat="44.131481918761466" lon="7.566121890676602"><ele>1156.0</ele><time>2026-05-02T08:13:26.794Z</time></trkpt><trkpt lat="44.13538232395162" lon="7.5675238835287075"><ele>1169.6</ele><time>2026-05-02T08:14:27.792Z</time></trkpt><trkpt lat="44.13544651537549" lon="7.567448462288687"><ele>1183.1999999999998</ele><time>2026-05-02T08:15:06.79Z</time></trkpt><trkpt lat="44.13552799288338" lon="7.567332181158044"><ele>1196.8000000000002</ele><time>2026-05-02T08:15:08.79Z</time></trkpt><trkpt lat="44.13561976881143" lon="7.567264379429442"><ele>1210.4</ele><time>2026-05-02T08:15:10.79Z</time></trkpt><trkpt lat="44.1357495303957" lon="7.567195438980298"><ele>1224.0</ele><time>2026-05-02T08:15:12.79Z</time></trkpt><trkpt lat="44.13581956723816" lon="7.567178694718965"><ele>1224.0</ele><time>2026-05-02T08:15:13.79Z</time></trkpt><trkpt lat="44.135895911694405" lon="7.567166517772614"><ele>1224.0</ele><time>2026-05-02T08:15:14.793Z</time></trkpt><trkpt lat="44.13597604825461" lon="7.567185116532328"><ele>1224.0</ele><time>2026-05-02T08:15:15.793Z</time></trkpt><trkpt lat="44.136056245414395" lon="7.567209185224525"><ele>1224.0</ele><time>2026-05-02T08:15:16.793Z</time></trkpt><trkpt lat="44.13613818811629" lon="7.567247301171062"><ele>1224.0</ele><time>2026-05-02T08:15:17.793Z</time></trkpt><trkpt lat="44.13622867484461" lon="7.567277654112432"><ele>1224.0</ele><time>2026-05-02T08:15:18.792Z</time></trkpt><trkpt lat="44.1362985301393" lon="7.567313530871557"><ele>1224.0</ele><time>2026-05-02T08:15:19.792Z</time></trkpt><trkpt lat="44.13637612173624" lon="7.567341083226483"><ele>1224.0</ele><time>2026-05-02T08:15:20.792Z</time></trkpt><trkpt lat="44.1364505634433" lon="7.567374606920923"><ele>1224.0</ele><time>2026-05-02T08:15:21.793Z</time></trkpt><trkpt lat="44.13653423520878" lon="7.567415403524836"><ele>1224.0</ele><time>2026-05-02T08:15:22.793Z</time></trkpt><trkpt lat="44.13661439835476" lon="7.567487389427139"><ele>1224.0</ele><time>2026-05-02T08:15:23.792Z</time></trkpt><trkpt lat="44.13669414108999" lon="7.567572813124538"><ele>1224.0</ele><time>2026-05-02T08:15:24.792Z</time></trkpt><trkpt lat="44.13677113769613" lon="7.567685878961616"><ele>1229.0</ele><time>2026-05-02T08:15:25.792Z</time></trkpt><trkpt lat="44.13685704173403" lon="7.567790904529129"><ele>1234.0</ele><time>2026-05-02T08:15:26.792Z</time></trkpt><trkpt lat="44.138225175578235" lon="7.568226404251472"><ele>1239.0</ele><time>2026-05-02T08:16:27.79Z</time></trkpt><trkpt lat="44.13824835610757" lon="7.568341481682257"><ele>1244.0</ele><time>2026-05-02T08:16:28.79Z</time></trkpt><trkpt lat="44.13826254311866" lon="7.568462044191159"><ele>1249.0</ele><time>2026-05-02T08:16:29.79Z</time></trkpt><trkpt lat="44.13828296874186" lon="7.568583746545764"><ele>1254.0</ele><time>2026-05-02T08:16:30.79Z</time></trkpt><trkpt lat="44.13831555607249" lon="7.568701899921632"><ele>1259.0</ele><time>2026-05-02T08:16:31.79Z</time></trkpt><trkpt lat="44.138354123211386" lon="7.568820447369559"><ele>1264.0</ele><time>2026-05-02T08:16:32.79Z</time></trkpt><trkpt lat="44.1383952116377" lon="7.568939646330278"><ele>1264.0</ele><time>2026-05-02T08:16:33.79Z</time></trkpt><trkpt lat="44.13844137130078" lon="7.569054555682333"><ele>1264.0</ele><time>2026-05-02T08:16:34.79Z</time></trkpt><trkpt lat="44.138470070811756" lon="7.569185802180479"><ele>1264.0</ele><time>2026-05-02T08:16:35.79Z</time></trkpt><trkpt lat="44.13853363428559" lon="7.5692915141461565"><ele>1264.0</ele><time>2026-05-02T08:16:36.79Z</time></trkpt><trkpt lat="44.138541653108426" lon="7.569423664120111"><ele>1264.0</ele><time>2026-05-02T08:16:37.79Z</time></trkpt><trkpt lat="44.13856660495216" lon="7.5695514483950355"><ele>1263.8</ele><time>2026-05-02T08:16:38.79Z</time></trkpt><trkpt lat="44.138592036374696" lon="7.5696845594083575"><ele>1263.6000000000001</ele><time>2026-05-02T08:16:39.79Z</time></trkpt><trkpt lat="44.13861660082934" lon="7.569810734691767"><ele>1263.4</ele><time>2026-05-02T08:16:40.79Z</time></trkpt><trkpt lat="44.13864168602094" lon="7.5699415203844325"><ele>1263.2</ele><time>2026-05-02T08:16:41.79Z</time></trkpt><trkpt lat="44.13866815740094" lon="7.570076064955045"><ele>1263.0</ele><time>2026-05-02T08:16:42.79Z</time></trkpt><trkpt lat="44.1387669472123" lon="7.570379267064727"><ele>1273.6666666666667</ele><time>2026-05-02T08:16:43.79Z</time></trkpt><trkpt lat="44.139053962889555" lon="7.570457340134232"><ele>1284.3333333333335</ele><time>2026-05-02T08:16:44.789Z</time></trkpt><trkpt lat="44.13918288622664" lon="7.570441973291985"><ele>1295.0</ele><time>2026-05-02T08:16:45.789Z</time></trkpt><trkpt lat="44.139288309049704" lon="7.57044506525729"><ele>1295.0</ele><time>2026-05-02T08:16:46.789Z</time></trkpt><trkpt lat="44.13939247743344" lon="7.570439962108011"><ele>1295.0</ele><time>2026-05-02T08:16:47.789Z</time></trkpt><trkpt lat="44.139497619422585" lon="7.570517027183835"><ele>1295.0</ele><time>2026-05-02T08:16:48.789Z</time></trkpt><trkpt lat="44.139603159664354" lon="7.570500538598797"><ele>1295.0</ele><time>2026-05-02T08:16:49.789Z</time></trkpt><trkpt lat="44.13969933459515" lon="7.570503377100661"><ele>1295.0</ele><time>2026-05-02T08:16:50.789Z</time></trkpt><trkpt lat="44.139810312037795" lon="7.5705070184343075"><ele>1309.0</ele><time>2026-05-02T08:16:51.789Z</time></trkpt><trkpt lat="44.139943089047954" lon="7.570511375039976"><ele>1323.0</ele><time>2026-05-02T08:16:52.929Z</time></trkpt><trkpt lat="44.140060117456834" lon="7.570515214910552"><ele>1337.0</ele><time>2026-05-02T08:16:53.93Z</time></trkpt><trkpt lat="44.14087489246559" lon="7.570518755601947"><ele>1348.75</ele><time>2026-05-02T08:16:57.189Z</time></trkpt><trkpt lat="44.14100025256792" lon="7.57052284874369"><ele>1360.5</ele><time>2026-05-02T08:16:58.192Z</time></trkpt><trkpt lat="44.14112540593153" lon="7.570526935135192"><ele>1372.25</ele><time>2026-05-02T08:16:59.194Z</time></trkpt><trkpt lat="44.14125026893713" lon="7.570531012046193"><ele>1384.0</ele><time>2026-05-02T08:17:00.192Z</time></trkpt><trkpt lat="44.1413753656804" lon="7.57053509658898"><ele>1384.0</ele><time>2026-05-02T08:17:01.193Z</time></trkpt><trkpt lat="44.14150019378636" lon="7.5705391441296"><ele>1384.0</ele><time>2026-05-02T08:17:02.192Z</time></trkpt><trkpt lat="44.14162533095541" lon="7.570543151650467"><ele>1384.0</ele><time>2026-05-02T08:17:03.193Z</time></trkpt><trkpt lat="44.141750375891945" lon="7.570547156217587"><ele>1384.0</ele><time>2026-05-02T08:17:04.194Z</time></trkpt><trkpt lat="44.1418752998236" lon="7.570551156909522"><ele>1393.5</ele><time>2026-05-02T08:17:05.193Z</time></trkpt><trkpt lat="44.14200030825454" lon="7.570555160307548"><ele>1403.0</ele><time>2026-05-02T08:17:06.193Z</time></trkpt><trkpt lat="44.14212479172007" lon="7.570559146893545"><ele>1412.5</ele><time>2026-05-02T08:17:07.189Z</time></trkpt><trkpt lat="44.142249961520655" lon="7.570563155459439"><ele>1422.0</ele><time>2026-05-02T08:17:08.191Z</time></trkpt><trkpt lat="44.14237527080243" lon="7.570567168492221"><ele>1430.5</ele><time>2026-05-02T08:17:09.193Z</time></trkpt><trkpt lat="44.14249993064215" lon="7.570571160726605"><ele>1439.0</ele><time>2026-05-02T08:17:10.19Z</time></trkpt><trkpt lat="44.14262511517909" lon="7.57057516976443"><ele>1447.5</ele><time>2026-05-02T08:17:11.192Z</time></trkpt><trkpt lat="44.142749733015016" lon="7.570579160653643"><ele>1456.0</ele><time>2026-05-02T08:17:12.189Z</time></trkpt><trkpt lat="44.14287504812493" lon="7.5705836368971955"><ele>1456.0</ele><time>2026-05-02T08:17:13.192Z</time></trkpt><trkpt lat="44.14300022126442" lon="7.570588395855975"><ele>1456.0</ele><time>2026-05-02T08:17:14.193Z</time></trkpt><trkpt lat="44.143125165680324" lon="7.570593146118912"><ele>1456.0</ele><time>2026-05-02T08:17:15.193Z</time></trkpt><trkpt lat="44.14324999799903" lon="7.570597892120023"><ele>1456.0</ele><time>2026-05-02T08:17:16.192Z</time></trkpt><trkpt lat="44.143375112274086" lon="7.570602648840835"><ele>1463.25</ele><time>2026-05-02T08:17:17.193Z</time></trkpt><trkpt lat="44.143499658510365" lon="7.570607045488288"><ele>1470.5</ele><time>2026-05-02T08:17:18.189Z</time></trkpt><trkpt lat="44.14362466111694" lon="7.5706113837981945"><ele>1477.75</ele><time>2026-05-02T08:17:19.189Z</time></trkpt><trkpt lat="44.14375005628191" lon="7.5706157357321375"><ele>1485.0</ele><time>2026-05-02T08:17:20.193Z</time></trkpt><trkpt lat="44.1438746991441" lon="7.5706199533079515"><ele>1485.0</ele><time>2026-05-02T08:17:21.19Z</time></trkpt><trkpt lat="44.143999445507994" lon="7.570623267346961"><ele>1485.0</ele><time>2026-05-02T08:17:22.188Z</time></trkpt><trkpt lat="44.144125045026286" lon="7.57062650597161"><ele>1485.0</ele><time>2026-05-02T08:17:23.193Z</time></trkpt><trkpt lat="44.14424986649502" lon="7.570628752334206"><ele>1485.0</ele><time>2026-05-02T08:17:24.191Z</time></trkpt><trkpt lat="44.144375046022" lon="7.570631005140633"><ele>1498.3333333333333</ele><time>2026-05-02T08:17:25.192Z</time></trkpt><trkpt lat="44.14449946808191" lon="7.570633958999596"><ele>1511.6666666666665</ele><time>2026-05-02T08:17:26.188Z</time></trkpt><trkpt lat="44.14462453694778" lon="7.57063802788745"><ele>1525.0</ele><time>2026-05-02T08:17:27.188Z</time></trkpt><trkpt lat="44.145999257108876" lon="7.5706987423432786"><ele>1549.0</ele><time>2026-05-02T08:17:38.19Z</time></trkpt><trkpt lat="44.14612412003565" lon="7.5707060696764295"><ele>1573.0</ele><time>2026-05-02T08:17:39.189Z</time></trkpt><trkpt lat="44.146249078026" lon="7.570713402588197"><ele>1597.0</ele><time>2026-05-02T08:17:40.19Z</time></trkpt><trkpt lat="44.146374220008454" lon="7.570720746297176"><ele>1621.0</ele><time>2026-05-02T08:17:41.192Z</time></trkpt><trkpt lat="44.1464989881248" lon="7.570728068066564"><ele>1631.5</ele><time>2026-05-02T08:17:42.19Z</time></trkpt><trkpt lat="44.14662397409517" lon="7.570735402620284"><ele>1642.0</ele><time>2026-05-02T08:17:43.191Z</time></trkpt><trkpt lat="44.146748977547475" lon="7.570742738199896"><ele>1652.5</ele><time>2026-05-02T08:17:44.192Z</time></trkpt><trkpt lat="44.14687366784391" lon="7.570750055402577"><ele>1663.0</ele><time>2026-05-02T08:17:45.19Z</time></trkpt><trkpt lat="44.14699820449593" lon="7.570757363588941"><ele>1663.0</ele><time>2026-05-02T08:17:46.187Z</time></trkpt><trkpt lat="44.14712329536608" lon="7.570764411310347"><ele>1663.0</ele><time>2026-05-02T08:17:47.188Z</time></trkpt><trkpt lat="44.14724846092124" lon="7.570771040087339"><ele>1663.0</ele><time>2026-05-02T08:17:48.19Z</time></trkpt><trkpt lat="44.14737295095763" lon="7.570777633088808"><ele>1663.0</ele><time>2026-05-02T08:17:49.187Z</time></trkpt><trkpt lat="44.147498017695256" lon="7.5707842566324155"><ele>1670.25</ele><time>2026-05-02T08:17:50.188Z</time></trkpt><trkpt lat="44.14762320112247" lon="7.570790886355913"><ele>1677.5</ele><time>2026-05-02T08:17:51.19Z</time></trkpt><trkpt lat="44.1477480406021" lon="7.5707974978639205"><ele>1684.75</ele><time>2026-05-02T08:17:52.189Z</time></trkpt><trkpt lat="44.14787315318153" lon="7.570804123835314"><ele>1692.0</ele><time>2026-05-02T08:17:53.19Z</time></trkpt><trkpt lat="44.14799839670351" lon="7.570810756741435"><ele>1692.0</ele><time>2026-05-02T08:17:54.193Z</time></trkpt><trkpt lat="44.14812260762317" lon="7.570817334960861"><ele>1692.0</ele><time>2026-05-02T08:17:55.187Z</time></trkpt><trkpt lat="44.148247930562796" lon="7.5708234334995295"><ele>1692.0</ele><time>2026-05-02T08:17:56.19Z</time></trkpt><trkpt lat="44.1483725781187" lon="7.570829257229176"><ele>1692.0</ele><time>2026-05-02T08:17:57.187Z</time></trkpt><trkpt lat="44.148497746475066" lon="7.570835105291438"><ele>1702.5</ele><time>2026-05-02T08:17:58.189Z</time></trkpt><trkpt lat="44.14862263219928" lon="7.570840940148683"><ele>1713.0</ele><time>2026-05-02T08:17:59.189Z</time></trkpt><trkpt lat="44.14874771459221" lon="7.570846784194599"><ele>1723.5</ele><time>2026-05-02T08:18:00.19Z</time></trkpt><trkpt lat="44.14887253904306" lon="7.570851664104452"><ele>1734.0</ele><time>2026-05-02T08:18:01.188Z</time></trkpt><trkpt lat="44.148997810029314" lon="7.5708560174644814"><ele>1746.0</ele><time>2026-05-02T08:18:02.191Z</time></trkpt><trkpt lat="44.14912248491819" lon="7.5708600110261655"><ele>1758.0</ele><time>2026-05-02T08:18:03.188Z</time></trkpt><trkpt lat="44.14924770144687" lon="7.570862395435"><ele>1770.0</ele><time>2026-05-02T08:18:04.19Z</time></trkpt><trkpt lat="44.149372843208276" lon="7.570864778420096"><ele>1782.0</ele><time>2026-05-02T08:18:05.191Z</time></trkpt><trkpt lat="44.14949785149834" lon="7.570866700658991"><ele>1782.0</ele><time>2026-05-02T08:18:06.191Z</time></trkpt><trkpt lat="44.14962273849583" lon="7.5708676428669435"><ele>1782.0</ele><time>2026-05-02T08:18:07.19Z</time></trkpt><trkpt lat="44.14974763263232" lon="7.570868585128756"><ele>1782.0</ele><time>2026-05-02T08:18:08.189Z</time></trkpt><trkpt lat="44.149872570646096" lon="7.5708695277216"><ele>1782.0</ele><time>2026-05-02T08:18:09.188Z</time></trkpt><trkpt lat="44.14999748178801" lon="7.57087047011171"><ele>1798.0</ele><time>2026-05-02T08:18:10.187Z</time></trkpt><trkpt lat="44.150122693975156" lon="7.570871414773051"><ele>1814.0</ele><time>2026-05-02T08:18:11.189Z</time></trkpt><trkpt lat="44.15024742895437" lon="7.570872880698871"><ele>1830.0</ele><time>2026-05-02T08:18:12.186Z</time></trkpt><trkpt lat="44.15037252811676" lon="7.5708745798385975"><ele>1846.0</ele><time>2026-05-02T08:18:13.187Z</time></trkpt><trkpt lat="44.15049799770962" lon="7.570875966121987"><ele>1846.0</ele><time>2026-05-02T08:18:14.19Z</time></trkpt><trkpt lat="44.150622651405676" lon="7.5708767376302735"><ele>1846.0</ele><time>2026-05-02T08:18:15.188Z</time></trkpt><trkpt lat="44.16938947162704" lon="7.57086993850551"><ele>1741.1999999999998</ele><time>2026-05-02T08:20:29.786Z</time></trkpt><trkpt lat="44.169479906675605" lon="7.570818216632798"><ele>1636.3999999999999</ele><time>2026-05-02T08:20:30.786Z</time></trkpt><trkpt lat="44.16956400960906" lon="7.5707729022514325"><ele>1531.6</ele><time>2026-05-02T08:20:31.786Z</time></trkpt><trkpt lat="44.16967793803881" lon="7.570690255674978"><ele>1426.8</ele><time>2026-05-02T08:20:32.786Z</time></trkpt><trkpt lat="44.169765491417294" lon="7.570663192012103"><ele>1322.0</ele><time>2026-05-02T08:20:33.786Z</time></trkpt><trkpt lat="44.16985910821765" lon="7.570624699749285"><ele>1319.8</ele><time>2026-05-02T08:20:34.786Z</time></trkpt><trkpt lat="44.169955363934385" lon="7.570584174917554"><ele>1317.6</ele><time>2026-05-02T08:20:35.786Z</time></trkpt><trkpt lat="44.17004695424592" lon="7.570568646759457"><ele>1315.3999999999999</ele><time>2026-05-02T08:20:36.786Z</time></trkpt><trkpt lat="44.17014243159889" lon="7.570524545728668"><ele>1313.1999999999998</ele><time>2026-05-02T08:20:37.786Z</time></trkpt><trkpt lat="44.170255505794245" lon="7.570503129354894"><ele>1311.0</ele><time>2026-05-02T08:20:38.786Z</time></trkpt><trkpt lat="44.17037242113799" lon="7.570475604705249"><ele>1311.0</ele><time>2026-05-02T08:20:39.786Z</time></trkpt><trkpt lat="44.17048571154109" lon="7.570450263361609"><ele>1311.0</ele><time>2026-05-02T08:20:40.786Z</time></trkpt><trkpt lat="44.17059228586532" lon="7.5704421052548465"><ele>1311.0</ele><time>2026-05-02T08:20:41.786Z</time></trkpt><trkpt lat="44.17069704568613" lon="7.57040707433133"><ele>1311.0</ele><time>2026-05-02T08:20:42.786Z</time></trkpt><trkpt lat="44.170807426716785" lon="7.570387544432546"><ele>1311.0</ele><time>2026-05-02T08:20:43.786Z</time></trkpt><trkpt lat="44.17090773901501" lon="7.570339115852738"><ele>1316.5</ele><time>2026-05-02T08:20:44.786Z</time></trkpt><trkpt lat="44.17101762655204" lon="7.57032589656095"><ele>1322.0</ele><time>2026-05-02T08:20:45.786Z</time></trkpt><trkpt lat="44.17113037764802" lon="7.570278515778788"><ele>1327.5</ele><time>2026-05-02T08:20:46.786Z</time></trkpt><trkpt lat="44.17124213231001" lon="7.57023489196803"><ele>1333.0</ele><time>2026-05-02T08:20:47.786Z</time></trkpt><trkpt lat="44.171345810381666" lon="7.5701563185842256"><ele>1333.0</ele><time>2026-05-02T08:20:48.786Z</time></trkpt><trkpt lat="44.171454936256175" lon="7.570078684966404"><ele>1333.0</ele><time>2026-05-02T08:20:49.786Z</time></trkpt><trkpt lat="44.17156707552567" lon="7.569998323905451"><ele>1333.0</ele><time>2026-05-02T08:20:50.786Z</time></trkpt><trkpt lat="44.171659070517975" lon="7.569903509564457"><ele>1333.0</ele><time>2026-05-02T08:20:51.786Z</time></trkpt><trkpt lat="44.17178433606043" lon="7.569853672772812"><ele>1327.5</ele><time>2026-05-02T08:20:52.786Z</time></trkpt><trkpt lat="44.17190220547286" lon="7.569795456716657"><ele>1322.0</ele><time>2026-05-02T08:20:53.786Z</time></trkpt><trkpt lat="44.17201556758735" lon="7.569712763364204"><ele>1316.5</ele><time>2026-05-02T08:20:54.785Z</time></trkpt><trkpt lat="44.17213500728461" lon="7.569653902493135"><ele>1311.0</ele><time>2026-05-02T08:20:55.785Z</time></trkpt><trkpt lat="44.17223534772687" lon="7.569573440087172"><ele>1309.0</ele><time>2026-05-02T08:20:56.785Z</time></trkpt><trkpt lat="44.17234660550131" lon="7.569523040959324"><ele>1307.0</ele><time>2026-05-02T08:20:57.785Z</time></trkpt><trkpt lat="44.17243161326767" lon="7.569425299854366"><ele>1305.0</ele><time>2026-05-02T08:20:58.785Z</time></trkpt><trkpt lat="44.172520337678606" lon="7.569324123642265"><ele>1303.0</ele><time>2026-05-02T08:20:59.785Z</time></trkpt><trkpt lat="44.1725720107252" lon="7.569188204501457"><ele>1303.0</ele><time>2026-05-02T08:21:00.785Z</time></trkpt><trkpt lat="44.172589871533674" lon="7.569027742753536"><ele>1303.0</ele><time>2026-05-02T08:21:01.785Z</time></trkpt><trkpt lat="44.172605925117885" lon="7.5688500008409605"><ele>1303.0</ele><time>2026-05-02T08:21:02.785Z</time></trkpt><trkpt lat="44.17265989238671" lon="7.568703673876671"><ele>1303.0</ele><time>2026-05-02T08:21:03.785Z</time></trkpt><trkpt lat="44.17273883521564" lon="7.568620682603789"><ele>1306.5</ele><time>2026-05-02T08:21:04.785Z</time></trkpt><trkpt lat="44.172839799230466" lon="7.568541504543249"><ele>1310.0</ele><time>2026-05-02T08:21:05.785Z</time></trkpt><trkpt lat="44.172941282019316" lon="7.5685062028406165"><ele>1313.5</ele><time>2026-05-02T08:21:06.785Z</time></trkpt><trkpt lat="44.17305838291107" lon="7.5685391046021175"><ele>1317.0</ele><time>2026-05-02T08:21:07.785Z</time></trkpt><trkpt lat="44.17317339003535" lon="7.568611009243417"><ele>1308.75</ele><time>2026-05-02T08:21:08.785Z</time></trkpt><trkpt lat="44.17327753931192" lon="7.568694372723729"><ele>1300.5</ele><time>2026-05-02T08:21:09.785Z</time></trkpt><trkpt lat="44.17337579003043" lon="7.568789745184696"><ele>1292.25</ele><time>2026-05-02T08:21:10.785Z</time></trkpt><trkpt lat="44.173497207790916" lon="7.568876918420706"><ele>1284.0</ele><time>2026-05-02T08:21:11.785Z</time></trkpt><trkpt lat="44.17361020313569" lon="7.568948364412427"><ele>1284.0</ele><time>2026-05-02T08:21:12.785Z</time></trkpt><trkpt lat="44.17372757189923" lon="7.569027566721038"><ele>1284.0</ele><time>2026-05-02T08:21:13.785Z</time></trkpt><trkpt lat="44.17385165745891" lon="7.569081001031579"><ele>1284.0</ele><time>2026-05-02T08:21:14.785Z</time></trkpt><trkpt lat="44.17397095893811" lon="7.569127281107106"><ele>1284.0</ele><time>2026-05-02T08:21:15.785Z</time></trkpt><trkpt lat="44.17409348207133" lon="7.569157389524058"><ele>1284.5</ele><time>2026-05-02T08:21:16.785Z</time></trkpt><trkpt lat="44.17423967601761" lon="7.569159585596645"><ele>1285.0</ele><time>2026-05-02T08:21:17.785Z</time></trkpt><trkpt lat="44.17438760092242" lon="7.569156059123255"><ele>1285.5</ele><time>2026-05-02T08:21:18.785Z</time></trkpt><trkpt lat="44.17452116141506" lon="7.569140681728902"><ele>1286.0</ele><time>2026-05-02T08:21:19.785Z</time></trkpt><trkpt lat="44.17464062940559" lon="7.56914383087584"><ele>1286.0</ele><time>2026-05-02T08:21:20.784Z</time></trkpt><trkpt lat="44.17475623638495" lon="7.569111466594997"><ele>1286.0</ele><time>2026-05-02T08:21:21.784Z</time></trkpt><trkpt lat="44.17487867775262" lon="7.569024263478379"><ele>1286.0</ele><time>2026-05-02T08:21:22.784Z</time></trkpt><trkpt lat="44.17498500818436" lon="7.568909371118159"><ele>1286.0</ele><time>2026-05-02T08:21:23.784Z</time></trkpt><trkpt lat="44.175080367445794" lon="7.5687672193563635"><ele>1287.0</ele><time>2026-05-02T08:21:24.784Z</time></trkpt><trkpt lat="44.17512918037667" lon="7.5685716156407254"><ele>1288.0</ele><time>2026-05-02T08:21:25.784Z</time></trkpt><trkpt lat="44.175149013362486" lon="7.568365246697343"><ele>1289.0</ele><time>2026-05-02T08:21:26.784Z</time></trkpt><trkpt lat="44.180505320291466" lon="7.5632212762776625"><ele>1277.5</ele><time>2026-05-02T08:22:27.782Z</time></trkpt><trkpt lat="44.18038409442932" lon="7.563262683233303"><ele>1266.0</ele><time>2026-05-02T08:22:28.782Z</time></trkpt><trkpt lat="44.18025952273467" lon="7.563338728491906"><ele>1254.5</ele><time>2026-05-02T08:22:29.782Z</time></trkpt><trkpt lat="44.18016285829091" lon="7.563469130636286"><ele>1243.0</ele><time>2026-05-02T08:22:30.782Z</time></trkpt><trkpt lat="44.18007672886549" lon="7.563619297786853"><ele>1238.3333333333333</ele><time>2026-05-02T08:22:31.782Z</time></trkpt><trkpt lat="44.180022615821684" lon="7.563812025638418"><ele>1233.6666666666667</ele><time>2026-05-02T08:22:32.782Z</time></trkpt><trkpt lat="44.179991380421086" lon="7.564028363145519"><ele>1229.0</ele><time>2026-05-02T08:22:33.783Z</time></trkpt><trkpt lat="44.17996707891991" lon="7.564249073991676"><ele>1229.0</ele><time>2026-05-02T08:22:34.783Z</time></trkpt><trkpt lat="44.179944780232944" lon="7.5644487522190245"><ele>1229.0</ele><time>2026-05-02T08:22:35.783Z</time></trkpt><trkpt lat="44.17988902222591" lon="7.564624220479444"><ele>1229.0</ele><time>2026-05-02T08:22:36.783Z</time></trkpt><trkpt lat="44.17984403727303" lon="7.564818064564162"><ele>1229.0</ele><time>2026-05-02T08:22:37.784Z</time></trkpt><trkpt lat="44.179798471494564" lon="7.565013591119005"><ele>1230.5</ele><time>2026-05-02T08:22:38.784Z</time></trkpt><trkpt lat="44.17975515427659" lon="7.56519551945228"><ele>1232.0</ele><time>2026-05-02T08:22:39.783Z</time></trkpt><trkpt lat="44.179706835506764" lon="7.56538334339248"><ele>1233.5</ele><time>2026-05-02T08:22:40.783Z</time></trkpt><trkpt lat="44.17965197424559" lon="7.565560052640612"><ele>1235.0</ele><time>2026-05-02T08:22:41.783Z</time></trkpt><trkpt lat="44.17957924357974" lon="7.5657198146271565"><ele>1235.0</ele><time>2026-05-02T08:22:42.784Z</time></trkpt><trkpt lat="44.17949818331768" lon="7.565863736669289"><ele>1235.0</ele><time>2026-05-02T08:22:43.783Z</time></trkpt><trkpt lat="44.17941241298097" lon="7.566012596699495"><ele>1235.0</ele><time>2026-05-02T08:22:44.783Z</time></trkpt><trkpt lat="44.17933256556335" lon="7.566161917714402"><ele>1235.0</ele><time>2026-05-02T08:22:45.783Z</time></trkpt><trkpt lat="44.17925069280506" lon="7.566334988503879"><ele>1236.75</ele><time>2026-05-02T08:22:46.783Z</time></trkpt><trkpt lat="44.179181219125894" lon="7.566485728468575"><ele>1238.5</ele><time>2026-05-02T08:22:47.783Z</time></trkpt><trkpt lat="44.17911382838147" lon="7.566622682107201"><ele>1240.25</ele><time>2026-05-02T08:22:48.783Z</time></trkpt><trkpt lat="44.17905644274803" lon="7.566742343798266"><ele>1242.0</ele><time>2026-05-02T08:22:49.783Z</time></trkpt><trkpt lat="44.179008062273496" lon="7.56687351325499"><ele>1235.75</ele><time>2026-05-02T08:22:50.783Z</time></trkpt><trkpt lat="44.1790300505563" lon="7.567012692351538"><ele>1229.5</ele><time>2026-05-02T08:22:51.783Z</time></trkpt><trkpt lat="44.17914383096875" lon="7.567082482969158"><ele>1223.25</ele><time>2026-05-02T08:22:52.783Z</time></trkpt><trkpt lat="44.17925991624563" lon="7.566966055364145"><ele>1217.0</ele><time>2026-05-02T08:22:53.783Z</time></trkpt><trkpt lat="44.179327602771934" lon="7.566900979935522"><ele>1217.0</ele><time>2026-05-02T08:22:54.783Z</time></trkpt><trkpt lat="44.17941629532326" lon="7.566813986975403"><ele>1217.0</ele><time>2026-05-02T08:22:55.783Z</time></trkpt><trkpt lat="44.17950547841646" lon="7.566718725035386"><ele>1217.0</ele><time>2026-05-02T08:22:56.783Z</time></trkpt><trkpt lat="44.179596527128346" lon="7.566628962464817"><ele>1217.0</ele><time>2026-05-02T08:22:57.783Z</time></trkpt><trkpt lat="44.17970248019529" lon="7.56653239834701"><ele>1217.0</ele><time>2026-05-02T08:22:58.783Z</time></trkpt><trkpt lat="44.17980873463351" lon="7.5664349404701365"><ele>1217.0</ele><time>2026-05-02T08:22:59.783Z</time></trkpt><trkpt lat="44.17992491883217" lon="7.566340006714997"><ele>1217.0</ele><time>2026-05-02T08:23:00.783Z</time></trkpt><trkpt lat="44.1800285628924" lon="7.5662357976880354"><ele>1217.0</ele><time>2026-05-02T08:23:01.783Z</time></trkpt><trkpt lat="44.18014437907891" lon="7.566121183200478"><ele>1215.5</ele><time>2026-05-02T08:23:02.783Z</time></trkpt><trkpt lat="44.18025381091534" lon="7.566002322715582"><ele>1214.0</ele><time>2026-05-02T08:23:03.783Z</time></trkpt><trkpt lat="44.18035319096388" lon="7.565868990751865"><ele>1212.5</ele><time>2026-05-02T08:23:04.783Z</time></trkpt><trkpt lat="44.180448771765185" lon="7.565745217336297"><ele>1211.0</ele><time>2026-05-02T08:23:05.783Z</time></trkpt><trkpt lat="44.18054633419726" lon="7.565626475850839"><ele>1211.0</ele><time>2026-05-02T08:23:06.783Z</time></trkpt><trkpt lat="44.180640744326794" lon="7.5654919804494964"><ele>1211.0</ele><time>2026-05-02T08:23:07.783Z</time></trkpt><trkpt lat="44.18072760513115" lon="7.565350156285731"><ele>1211.0</ele><time>2026-05-02T08:23:08.783Z</time></trkpt><trkpt lat="44.18081301656993" lon="7.56520124044553"><ele>1211.0</ele><time>2026-05-02T08:23:09.782Z</time></trkpt><trkpt lat="44.18091048311512" lon="7.56504399413368"><ele>1207.3333333333335</ele><time>2026-05-02T08:23:10.782Z</time></trkpt><trkpt lat="44.18102234462349" lon="7.564901250224273"><ele>1203.6666666666667</ele><time>2026-05-02T08:23:11.782Z</time></trkpt><trkpt lat="44.181161578149236" lon="7.56477403087241"><ele>1200.0</ele><time>2026-05-02T08:23:12.782Z</time></trkpt><trkpt lat="44.181273619109916" lon="7.564668148370529"><ele>1200.0</ele><time>2026-05-02T08:23:13.782Z</time></trkpt><trkpt lat="44.18139385684409" lon="7.564535938620152"><ele>1200.0</ele><time>2026-05-02T08:23:14.782Z</time></trkpt><trkpt lat="44.18151108288485" lon="7.564384011121358"><ele>1200.0</ele><time>2026-05-02T08:23:15.782Z</time></trkpt><trkpt lat="44.18163677000691" lon="7.564239136201992"><ele>1199.75</ele><time>2026-05-02T08:23:16.782Z</time></trkpt><trkpt lat="44.181752272668625" lon="7.564098634903236"><ele>1199.5</ele><time>2026-05-02T08:23:17.782Z</time></trkpt><trkpt lat="44.18186067269332" lon="7.563944901909196"><ele>1199.25</ele><time>2026-05-02T08:23:18.782Z</time></trkpt><trkpt lat="44.1819436769489" lon="7.563801035896827"><ele>1199.0</ele><time>2026-05-02T08:23:19.782Z</time></trkpt><trkpt lat="44.18201893779065" lon="7.563578861409919"><ele>1199.0</ele><time>2026-05-02T08:23:20.782Z</time></trkpt><trkpt lat="44.18205341359657" lon="7.5633642583623315"><ele>1199.0</ele><time>2026-05-02T08:23:21.782Z</time></trkpt><trkpt lat="44.182063116832545" lon="7.56316419334061"><ele>1199.0</ele><time>2026-05-02T08:23:22.782Z</time></trkpt><trkpt lat="44.18206340780611" lon="7.563013849592007"><ele>1199.0</ele><time>2026-05-02T08:23:23.782Z</time></trkpt><trkpt lat="44.1820619482987" lon="7.562822687561672"><ele>1199.0</ele><time>2026-05-02T08:23:24.782Z</time></trkpt><trkpt lat="44.18205909894053" lon="7.562604485472294"><ele>1199.0</ele><time>2026-05-02T08:23:25.782Z</time></trkpt><trkpt lat="44.182050512386915" lon="7.562389059318125"><ele>1199.0</ele><time>2026-05-02T08:23:26.781Z</time></trkpt><trkpt lat="44.18320654024374" lon="7.562320637070657"><ele>1185.25</ele><time>2026-05-02T08:24:27.768Z</time></trkpt><trkpt lat="44.18335705388786" lon="7.5623249909980075"><ele>1171.5</ele><time>2026-05-02T08:24:28.768Z</time></trkpt><trkpt lat="44.18346720810761" lon="7.562235495399404"><ele>1157.75</ele><time>2026-05-02T08:24:29.768Z</time></trkpt><trkpt lat="44.18352855595001" lon="7.562077069691609"><ele>1144.0</ele><time>2026-05-02T08:24:30.768Z</time></trkpt><trkpt lat="44.18352766945749" lon="7.561908975641439"><ele>1143.25</ele><time>2026-05-02T08:24:31.768Z</time></trkpt><trkpt lat="44.183513551091934" lon="7.561754420955135"><ele>1142.5</ele><time>2026-05-02T08:24:32.768Z</time></trkpt><trkpt lat="44.18348681840516" lon="7.561586783058166"><ele>1141.75</ele><time>2026-05-02T08:24:33.768Z</time></trkpt><trkpt lat="44.183463628763995" lon="7.561422065952938"><ele>1141.0</ele><time>2026-05-02T08:24:34.768Z</time></trkpt><trkpt lat="44.18343843930951" lon="7.56126817040864"><ele>1141.0</ele><time>2026-05-02T08:24:35.768Z</time></trkpt><trkpt lat="44.18341608429938" lon="7.561118618996852"><ele>1141.0</ele><time>2026-05-02T08:24:36.768Z</time></trkpt><trkpt lat="44.183398846543305" lon="7.560960485604943"><ele>1141.0</ele><time>2026-05-02T08:24:37.768Z</time></trkpt><trkpt lat="44.18339439730798" lon="7.560802445684424"><ele>1141.0</ele><time>2026-05-02T08:24:38.769Z</time></trkpt><trkpt lat="44.18337713789499" lon="7.560661533779548"><ele>1141.0</ele><time>2026-05-02T08:24:39.77Z</time></trkpt><trkpt lat="44.18340436663451" lon="7.560530171987459"><ele>1141.0</ele><time>2026-05-02T08:24:40.77Z</time></trkpt><trkpt lat="44.183470136842004" lon="7.560443007248729"><ele>1141.0</ele><time>2026-05-02T08:24:41.769Z</time></trkpt><trkpt lat="44.183574035233015" lon="7.560409199400548"><ele>1141.0</ele><time>2026-05-02T08:24:42.77Z</time></trkpt><trkpt lat="44.18367299074374" lon="7.560435208322213"><ele>1141.0</ele><time>2026-05-02T08:24:43.77Z</time></trkpt><trkpt lat="44.18378049055462" lon="7.560569506776689"><ele>1141.0</ele><time>2026-05-02T08:24:45.769Z</time></trkpt><trkpt lat="44.18380182915143" lon="7.560742234993653"><ele>1141.0</ele><time>2026-05-02T08:24:46.769Z</time></trkpt><trkpt lat="44.18376594459796" lon="7.560928894306876"><ele>1141.0</ele><time>2026-05-02T08:24:47.769Z</time></trkpt><trkpt lat="44.183725260762344" lon="7.561101598494764"><ele>1141.0</ele><time>2026-05-02T08:24:48.77Z</time></trkpt><trkpt lat="44.183685950648666" lon="7.561277293489151"><ele>1141.0</ele><time>2026-05-02T08:24:49.77Z</time></trkpt><trkpt lat="44.18365986124249" lon="7.561460269361596"><ele>1141.0</ele><time>2026-05-02T08:24:50.769Z</time></trkpt><trkpt lat="44.18365118990774" lon="7.561642012823125"><ele>1141.0</ele><time>2026-05-02T08:24:51.769Z</time></trkpt><trkpt lat="44.18365754608372" lon="7.56182753622746"><ele>1141.0</ele><time>2026-05-02T08:24:52.769Z</time></trkpt><trkpt lat="44.18369352265864" lon="7.562015585853209"><ele>1141.0</ele><time>2026-05-02T08:24:53.769Z</time></trkpt><trkpt lat="44.183737325318425" lon="7.562197063973463"><ele>1140.5</ele><time>2026-05-02T08:24:54.769Z</time></trkpt><trkpt lat="44.18378806147664" lon="7.562380794178141"><ele>1140.0</ele><time>2026-05-02T08:24:55.769Z</time></trkpt><trkpt lat="44.18385001723409" lon="7.5625628857711575"><ele>1139.5</ele><time>2026-05-02T08:24:56.769Z</time></trkpt><trkpt lat="44.18393950413991" lon="7.562725830757277"><ele>1139.0</ele><time>2026-05-02T08:24:57.769Z</time></trkpt><trkpt lat="44.18405642240259" lon="7.5628652921267445"><ele>1139.0</ele><time>2026-05-02T08:24:58.769Z</time></trkpt><trkpt lat="44.184185397011646" lon="7.562981985269426"><ele>1139.0</ele><time>2026-05-02T08:24:59.769Z</time></trkpt><trkpt lat="44.18433123019917" lon="7.563077443881201"><ele>1139.0</ele><time>2026-05-02T08:25:00.769Z</time></trkpt><trkpt lat="44.18446722995571" lon="7.5631595945276215"><ele>1139.0</ele><time>2026-05-02T08:25:01.769Z</time></trkpt><trkpt lat="44.184612003683746" lon="7.563235897709395"><ele>1139.0</ele><time>2026-05-02T08:25:02.769Z</time></trkpt><trkpt lat="44.18476521278294" lon="7.5633022460899735"><ele>1139.0</ele><time>2026-05-02T08:25:03.769Z</time></trkpt><trkpt lat="44.18491292478208" lon="7.563368605126544"><ele>1133.0</ele><time>2026-05-02T08:25:04.769Z</time></trkpt><trkpt lat="44.185053171848104" lon="7.563426436135171"><ele>1127.0</ele><time>2026-05-02T08:25:05.769Z</time></trkpt><trkpt lat="44.1852049403094" lon="7.56347905659733"><ele>1121.0</ele><time>2026-05-02T08:25:06.769Z</time></trkpt><trkpt lat="44.185370528063316" lon="7.563513125153949"><ele>1121.0</ele><time>2026-05-02T08:25:07.768Z</time></trkpt><trkpt lat="44.18550694254054" lon="7.563576137675859"><ele>1121.0</ele><time>2026-05-02T08:25:08.768Z</time></trkpt><trkpt lat="44.185638171885174" lon="7.563653017250146"><ele>1121.0</ele><time>2026-05-02T08:25:09.768Z</time></trkpt><trkpt lat="44.18575472782441" lon="7.563721630442165"><ele>1121.0</ele><time>2026-05-02T08:25:10.768Z</time></trkpt><trkpt lat="44.18586004630914" lon="7.563748757891152"><ele>1120.25</ele><time>2026-05-02T08:25:11.768Z</time></trkpt><trkpt lat="44.18598253144916" lon="7.563711267763689"><ele>1119.5</ele><time>2026-05-02T08:25:12.768Z</time></trkpt><trkpt lat="44.186032074731656" lon="7.563592873331812"><ele>1118.75</ele><time>2026-05-02T08:25:13.768Z</time></trkpt><trkpt lat="44.18607342354868" lon="7.563501860315225"><ele>1118.0</ele><time>2026-05-02T08:25:14.768Z</time></trkpt><trkpt lat="44.18593643489104" lon="7.563259884437004"><ele>1118.75</ele><time>2026-05-02T08:25:15.768Z</time></trkpt><trkpt lat="44.18583326628871" lon="7.563172493758414"><ele>1119.5</ele><time>2026-05-02T08:25:16.768Z</time></trkpt><trkpt lat="44.18568733567858" lon="7.563165175204874"><ele>1120.25</ele><time>2026-05-02T08:25:17.768Z</time></trkpt><trkpt lat="44.18555477723055" lon="7.563191236764808"><ele>1121.0</ele><time>2026-05-02T08:25:18.768Z</time></trkpt><trkpt lat="44.18544294971153" lon="7.563163388530245"><ele>1121.0</ele><time>2026-05-02T08:25:19.768Z</time></trkpt><trkpt lat="44.18533415131419" lon="7.563141879309879"><ele>1121.0</ele><time>2026-05-02T08:25:20.768Z</time></trkpt><trkpt lat="44.18524582778079" lon="7.563083876191117"><ele>1121.0</ele><time>2026-05-02T08:25:21.768Z</time></trkpt><trkpt lat="44.18519124799317" lon="7.56300115619279"><ele>1121.0</ele><time>2026-05-02T08:25:22.768Z</time></trkpt><trkpt lat="44.18515348958942" lon="7.562880088448457"><ele>1121.0</ele><time>2026-05-02T08:25:23.768Z</time></trkpt><trkpt lat="44.18520333684591" lon="7.5627224301320535"><ele>1118.0</ele><time>2026-05-02T08:25:24.768Z</time></trkpt><trkpt lat="44.18529632386616" lon="7.562598245660721"><ele>1115.0</ele><time>2026-05-02T08:25:25.768Z</time></trkpt><trkpt lat="44.18540361143272" lon="7.562492867276752"><ele>1112.0</ele><time>2026-05-02T08:25:26.768Z</time></trkpt><trkpt lat="44.19128895896442" lon="7.569450637809684"><ele>1096.75</ele><time>2026-05-02T08:26:27.765Z</time></trkpt><trkpt lat="44.191386536294466" lon="7.5695811271925475"><ele>1081.5</ele><time>2026-05-02T08:26:28.765Z</time></trkpt><trkpt lat="44.19148242026153" lon="7.569705131093605"><ele>1066.25</ele><time>2026-05-02T08:26:29.765Z</time></trkpt><trkpt lat="44.19157775545743" lon="7.569825979657189"><ele>1051.0</ele><time>2026-05-02T08:26:30.765Z</time></trkpt><trkpt lat="44.191666862771385" lon="7.56995199165573"><ele>1050.0</ele><time>2026-05-02T08:26:31.765Z</time></trkpt><trkpt lat="44.1917669568035" lon="7.570073432216761"><ele>1049.0</ele><time>2026-05-02T08:26:32.765Z</time></trkpt><trkpt lat="44.191869512033065" lon="7.570195082016806"><ele>1048.0</ele><time>2026-05-02T08:26:33.765Z</time></trkpt><trkpt lat="44.19198372665095" lon="7.570304793334179"><ele>1047.0</ele><time>2026-05-02T08:26:34.765Z</time></trkpt><trkpt lat="44.19208989420543" lon="7.570409778242103"><ele>1046.25</ele><time>2026-05-02T08:26:35.765Z</time></trkpt><trkpt lat="44.19218968728193" lon="7.570518233533315"><ele>1045.5</ele><time>2026-05-02T08:26:36.765Z</time></trkpt><trkpt lat="44.19230134215069" lon="7.570634858020428"><ele>1044.75</ele><time>2026-05-02T08:26:37.765Z</time></trkpt><trkpt lat="44.192404037941394" lon="7.5707461950639"><ele>1044.0</ele><time>2026-05-02T08:26:38.765Z</time></trkpt><trkpt lat="44.192507527071584" lon="7.570854267605334"><ele>1043.0</ele><time>2026-05-02T08:26:39.765Z</time></trkpt><trkpt lat="44.192613111388596" lon="7.570958156209537"><ele>1042.0</ele><time>2026-05-02T08:26:40.765Z</time></trkpt><trkpt lat="44.192716489560354" lon="7.5710632956745965"><ele>1041.0</ele><time>2026-05-02T08:26:41.765Z</time></trkpt><trkpt lat="44.19282895125409" lon="7.571175984485321"><ele>1040.0</ele><time>2026-05-02T08:26:42.765Z</time></trkpt><trkpt lat="44.19293712322606" lon="7.571289545771407"><ele>1040.0</ele><time>2026-05-02T08:26:43.766Z</time></trkpt><trkpt lat="44.19304124935993" lon="7.571403981654174"><ele>1040.0</ele><time>2026-05-02T08:26:44.766Z</time></trkpt><trkpt lat="44.193142345718854" lon="7.5715112321513764"><ele>1040.0</ele><time>2026-05-02T08:26:45.766Z</time></trkpt><trkpt lat="44.19324522359485" lon="7.571617738599227"><ele>1040.0</ele><time>2026-05-02T08:26:46.766Z</time></trkpt><trkpt lat="44.193350933475905" lon="7.571729081206817"><ele>1040.0</ele><time>2026-05-02T08:26:47.766Z</time></trkpt><trkpt lat="44.193455232987326" lon="7.5718401965387505"><ele>1040.0</ele><time>2026-05-02T08:26:48.766Z</time></trkpt><trkpt lat="44.193561093734175" lon="7.571937268669656"><ele>1040.0</ele><time>2026-05-02T08:26:49.766Z</time></trkpt><trkpt lat="44.19364948083044" lon="7.572031056361482"><ele>1040.0</ele><time>2026-05-02T08:26:50.767Z</time></trkpt><trkpt lat="44.19375102009584" lon="7.572142994684535"><ele>1040.0</ele><time>2026-05-02T08:26:51.767Z</time></trkpt><trkpt lat="44.19385761168025" lon="7.572244810359104"><ele>1040.0</ele><time>2026-05-02T08:26:52.767Z</time></trkpt><trkpt lat="44.19396761058155" lon="7.572353222093011"><ele>1040.0</ele><time>2026-05-02T08:26:53.766Z</time></trkpt><trkpt lat="44.194073266649525" lon="7.572468857019276"><ele>1040.0</ele><time>2026-05-02T08:26:54.766Z</time></trkpt><trkpt lat="44.19418122481244" lon="7.572570105218023"><ele>1040.0</ele><time>2026-05-02T08:26:55.766Z</time></trkpt><trkpt lat="44.19429102741616" lon="7.57269602798493"><ele>1040.0</ele><time>2026-05-02T08:26:56.767Z</time></trkpt><trkpt lat="44.1943912152154" lon="7.572824657782532"><ele>1040.0</ele><time>2026-05-02T08:26:57.767Z</time></trkpt><trkpt lat="44.19448191958421" lon="7.57295818842041"><ele>1040.0</ele><time>2026-05-02T08:26:58.767Z</time></trkpt><trkpt lat="44.194564001958284" lon="7.573095078095224"><ele>1038.25</ele><time>2026-05-02T08:26:59.767Z</time></trkpt><trkpt lat="44.194642638742884" lon="7.573248050234406"><ele>1036.5</ele><time>2026-05-02T08:27:00.767Z</time></trkpt><trkpt lat="44.19471702877093" lon="7.573413443096011"><ele>1034.75</ele><time>2026-05-02T08:27:01.767Z</time></trkpt><trkpt lat="44.194788097177884" lon="7.57357360101372"><ele>1033.0</ele><time>2026-05-02T08:27:02.766Z</time></trkpt><trkpt lat="44.19486566784339" lon="7.573731755370599"><ele>1031.25</ele><time>2026-05-02T08:27:03.766Z</time></trkpt><trkpt lat="44.19493847557217" lon="7.573893490039794"><ele>1029.5</ele><time>2026-05-02T08:27:04.766Z</time></trkpt><trkpt lat="44.1950121184748" lon="7.574045228443852"><ele>1027.75</ele><time>2026-05-02T08:27:05.766Z</time></trkpt><trkpt lat="44.19508349278284" lon="7.574195894986557"><ele>1026.0</ele><time>2026-05-02T08:27:06.766Z</time></trkpt><trkpt lat="44.19515365840641" lon="7.574349530801179"><ele>1026.0</ele><time>2026-05-02T08:27:07.766Z</time></trkpt><trkpt lat="44.195225925687346" lon="7.574494253638509"><ele>1026.0</ele><time>2026-05-02T08:27:08.766Z</time></trkpt><trkpt lat="44.1953141991385" lon="7.574616243013897"><ele>1026.0</ele><time>2026-05-02T08:27:09.766Z</time></trkpt><trkpt lat="44.195419066157555" lon="7.574702512046662"><ele>1026.0</ele><time>2026-05-02T08:27:10.766Z</time></trkpt><trkpt lat="44.1955536699611" lon="7.574740928170294"><ele>1025.5</ele><time>2026-05-02T08:27:11.766Z</time></trkpt><trkpt lat="44.19568853503588" lon="7.574770647640665"><ele>1025.0</ele><time>2026-05-02T08:27:12.766Z</time></trkpt><trkpt lat="44.19582314151848" lon="7.574797173055759"><ele>1024.5</ele><time>2026-05-02T08:27:13.766Z</time></trkpt><trkpt lat="44.195963863474226" lon="7.574817818385643"><ele>1024.0</ele><time>2026-05-02T08:27:14.766Z</time></trkpt><trkpt lat="44.1961004522941" lon="7.574831171481131"><ele>1024.0</ele><time>2026-05-02T08:27:15.766Z</time></trkpt><trkpt lat="44.19624431831077" lon="7.574858339114461"><ele>1024.0</ele><time>2026-05-02T08:27:16.766Z</time></trkpt><trkpt lat="44.19637782481772" lon="7.574884827389393"><ele>1024.0</ele><time>2026-05-02T08:27:17.766Z</time></trkpt><trkpt lat="44.19651708082462" lon="7.574893358687249"><ele>1024.0</ele><time>2026-05-02T08:27:18.766Z</time></trkpt><trkpt lat="44.196654665705424" lon="7.574924753014517"><ele>1024.0</ele><time>2026-05-02T08:27:19.766Z</time></trkpt><trkpt lat="44.19677955978302" lon="7.574935597164998"><ele>1024.0</ele><time>2026-05-02T08:27:20.766Z</time></trkpt><trkpt lat="44.19690945891014" lon="7.574952747823892"><ele>1024.0</ele><time>2026-05-02T08:27:21.766Z</time></trkpt><trkpt lat="44.197043068588634" lon="7.574971657579855"><ele>1024.0</ele><time>2026-05-02T08:27:22.766Z</time></trkpt><trkpt lat="44.19716570091091" lon="7.574995386785567"><ele>1024.0</ele><time>2026-05-02T08:27:23.766Z</time></trkpt><trkpt lat="44.19728611440504" lon="7.575018371660714"><ele>1024.0</ele><time>2026-05-02T08:27:24.766Z</time></trkpt><trkpt lat="44.197423764888335" lon="7.575033703765913"><ele>1024.0</ele><time>2026-05-02T08:27:25.766Z</time></trkpt><trkpt lat="44.19755517368893" lon="7.57504127554956"><ele>1024.0</ele><time>2026-05-02T08:27:26.766Z</time></trkpt><trkpt lat="44.20005136251382" lon="7.576365510237028"><ele>1010.0</ele><time>2026-05-02T08:28:28.763Z</time></trkpt></trkseg><trkseg><trkpt lat="44.20211458592134" lon="7.574426028782829"><ele>1008.0</ele><time>2026-05-02T08:39:05.749Z</time></trkpt><trkpt lat="44.20219237971589" lon="7.57438729473902"><ele>1008.0</ele><time>2026-05-02T08:39:19.749Z</time></trkpt><trkpt lat="44.20231180414116" lon="7.574334229377384"><ele>1008.0</ele><time>2026-05-02T08:39:21.749Z</time></trkpt><trkpt lat="44.20238731141566" lon="7.574292291594854"><ele>1008.0</ele><time>2026-05-02T08:39:22.749Z</time></trkpt><trkpt lat="44.202472523883046" lon="7.574251621570023"><ele>1008.0</ele><time>2026-05-02T08:39:23.748Z</time></trkpt><trkpt lat="44.20255732291657" lon="7.574202611286686"><ele>1005.4</ele><time>2026-05-02T08:39:24.748Z</time></trkpt><trkpt lat="44.202645089578645" lon="7.5741503667559975"><ele>1002.8</ele><time>2026-05-02T08:39:25.748Z</time></trkpt><trkpt lat="44.20273486148496" lon="7.574097792222265"><ele>1000.2</ele><time>2026-05-02T08:39:26.748Z</time></trkpt><trkpt lat="44.20282602825102" lon="7.574052440345865"><ele>997.6</ele><time>2026-05-02T08:39:27.748Z</time></trkpt><trkpt lat="44.20291321400268" lon="7.574008052536441"><ele>995.0</ele><time>2026-05-02T08:39:28.748Z</time></trkpt><trkpt lat="44.20300106577717" lon="7.573949593148463"><ele>995.0</ele><time>2026-05-02T08:39:29.748Z</time></trkpt><trkpt lat="44.20308993572602" lon="7.573904610455236"><ele>995.0</ele><time>2026-05-02T08:39:30.748Z</time></trkpt><trkpt lat="44.203182607652295" lon="7.573873410582705"><ele>995.0</ele><time>2026-05-02T08:39:31.748Z</time></trkpt><trkpt lat="44.20328525635666" lon="7.573856201984139"><ele>995.0</ele><time>2026-05-02T08:39:32.748Z</time></trkpt><trkpt lat="44.20339807513037" lon="7.573860804209021"><ele>995.0</ele><time>2026-05-02T08:39:33.747Z</time></trkpt><trkpt lat="44.2035168064385" lon="7.573900718331328"><ele>992.25</ele><time>2026-05-02T08:39:34.747Z</time></trkpt><trkpt lat="44.20362869383282" lon="7.573963804833415"><ele>989.5</ele><time>2026-05-02T08:39:35.747Z</time></trkpt><trkpt lat="44.20375740272204" lon="7.574053202669593"><ele>986.75</ele><time>2026-05-02T08:39:36.747Z</time></trkpt><trkpt lat="44.203898917079506" lon="7.574149670044221"><ele>984.0</ele><time>2026-05-02T08:39:37.747Z</time></trkpt><trkpt lat="44.20404253769791" lon="7.57425916438776"><ele>984.0</ele><time>2026-05-02T08:39:38.747Z</time></trkpt><trkpt lat="44.20418419051679" lon="7.57436182554713"><ele>984.0</ele><time>2026-05-02T08:39:39.747Z</time></trkpt><trkpt lat="44.204316583333956" lon="7.574460365635364"><ele>984.0</ele><time>2026-05-02T08:39:40.747Z</time></trkpt><trkpt lat="44.20443964030408" lon="7.574557388631991"><ele>983.25</ele><time>2026-05-02T08:39:41.747Z</time></trkpt><trkpt lat="44.204557322524984" lon="7.574653528799626"><ele>982.5</ele><time>2026-05-02T08:39:42.747Z</time></trkpt><trkpt lat="44.20467095427691" lon="7.574742898897246"><ele>981.75</ele><time>2026-05-02T08:39:43.747Z</time></trkpt><trkpt lat="44.204781111267756" lon="7.574838527731444"><ele>981.0</ele><time>2026-05-02T08:39:44.747Z</time></trkpt><trkpt lat="44.20489394135556" lon="7.574913088184907"><ele>980.25</ele><time>2026-05-02T08:39:45.747Z</time></trkpt><trkpt lat="44.20501139891501" lon="7.574973605455154"><ele>979.5</ele><time>2026-05-02T08:39:46.747Z</time></trkpt><trkpt lat="44.20513748370582" lon="7.575016268604387"><ele>978.75</ele><time>2026-05-02T08:39:47.746Z</time></trkpt><trkpt lat="44.20526898088378" lon="7.575044218033525"><ele>978.0</ele><time>2026-05-02T08:39:48.746Z</time></trkpt><trkpt lat="44.20540688052186" lon="7.575006374228974"><ele>978.0</ele><time>2026-05-02T08:39:49.746Z</time></trkpt><trkpt lat="44.20553248498089" lon="7.5749213281232795"><ele>978.0</ele><time>2026-05-02T08:39:50.746Z</time></trkpt><trkpt lat="44.20566266331123" lon="7.57484800376858"><ele>978.0</ele><time>2026-05-02T08:39:51.746Z</time></trkpt><trkpt lat="44.20579169189324" lon="7.574771562971227"><ele>978.0</ele><time>2026-05-02T08:39:52.746Z</time></trkpt><trkpt lat="44.20592214925128" lon="7.574688895166632"><ele>977.3333333333333</ele><time>2026-05-02T08:39:53.746Z</time></trkpt><trkpt lat="44.20606045910079" lon="7.574608678790474"><ele>976.6666666666666</ele><time>2026-05-02T08:39:54.746Z</time></trkpt><trkpt lat="44.206203558951685" lon="7.574537758532028"><ele>976.0</ele><time>2026-05-02T08:39:55.746Z</time></trkpt><trkpt lat="44.206353477139004" lon="7.574470221884669"><ele>972.3333333333333</ele><time>2026-05-02T08:39:56.746Z</time></trkpt><trkpt lat="44.206508687302744" lon="7.574414054443828"><ele>968.6666666666667</ele><time>2026-05-02T08:39:57.746Z</time></trkpt><trkpt lat="44.20666723299335" lon="7.574361157462356"><ele>965.0</ele><time>2026-05-02T08:39:58.746Z</time></trkpt><trkpt lat="44.2068289063991" lon="7.574316103221019"><ele>965.0</ele><time>2026-05-02T08:39:59.746Z</time></trkpt><trkpt lat="44.20698901407676" lon="7.57428678456235"><ele>965.0</ele><time>2026-05-02T08:40:00.746Z</time></trkpt><trkpt lat="44.207152928604884" lon="7.574272809943603"><ele>965.0</ele><time>2026-05-02T08:40:01.746Z</time></trkpt><trkpt lat="44.20732985240056" lon="7.574267103766025"><ele>966.3333333333334</ele><time>2026-05-02T08:40:02.746Z</time></trkpt><trkpt lat="44.20750485031583" lon="7.574265182560224"><ele>967.6666666666667</ele><time>2026-05-02T08:40:03.746Z</time></trkpt><trkpt lat="44.207678546414" lon="7.574270619003026"><ele>969.0</ele><time>2026-05-02T08:40:04.746Z</time></trkpt><trkpt lat="44.207848934593606" lon="7.574273218757459"><ele>969.0</ele><time>2026-05-02T08:40:05.746Z</time></trkpt><trkpt lat="44.20801736309523" lon="7.5742578086762835"><ele>969.0</ele><time>2026-05-02T08:40:06.746Z</time></trkpt><trkpt lat="44.20817576009648" lon="7.574215233149442"><ele>969.0</ele><time>2026-05-02T08:40:07.745Z</time></trkpt><trkpt lat="44.208330421697724" lon="7.574173188062807"><ele>970.6666666666667</ele><time>2026-05-02T08:40:08.745Z</time></trkpt><trkpt lat="44.20848423776261" lon="7.5740692306693145"><ele>972.3333333333334</ele><time>2026-05-02T08:40:09.745Z</time></trkpt><trkpt lat="44.208635918945056" lon="7.573911508645294"><ele>974.0</ele><time>2026-05-02T08:40:10.745Z</time></trkpt><trkpt lat="44.20877398477924" lon="7.573741245861461"><ele>972.6666666666667</ele><time>2026-05-02T08:40:11.745Z</time></trkpt><trkpt lat="44.20890359518873" lon="7.573567638774724"><ele>971.3333333333333</ele><time>2026-05-02T08:40:12.745Z</time></trkpt><trkpt lat="44.20903169298422" lon="7.573395194270059"><ele>970.0</ele><time>2026-05-02T08:40:13.745Z</time></trkpt><trkpt lat="44.20916329159616" lon="7.573218036964012"><ele>970.0</ele><time>2026-05-02T08:40:14.745Z</time></trkpt><trkpt lat="44.209295209946134" lon="7.5730436404217"><ele>970.0</ele><time>2026-05-02T08:40:15.745Z</time></trkpt><trkpt lat="44.209425883476385" lon="7.572873349175611"><ele>970.0</ele><time>2026-05-02T08:40:16.745Z</time></trkpt><trkpt lat="44.20955483309439" lon="7.572714604826834"><ele>967.0</ele><time>2026-05-02T08:40:17.745Z</time></trkpt><trkpt lat="44.20968883083455" lon="7.572568688619355"><ele>964.0</ele><time>2026-05-02T08:40:18.745Z</time></trkpt><trkpt lat="44.20983459518496" lon="7.572448207258292"><ele>961.0</ele><time>2026-05-02T08:40:19.745Z</time></trkpt><trkpt lat="44.20998801151775" lon="7.572335292605746"><ele>961.0</ele><time>2026-05-02T08:40:20.745Z</time></trkpt><trkpt lat="44.21015492659573" lon="7.572261831569045"><ele>961.0</ele><time>2026-05-02T08:40:21.745Z</time></trkpt><trkpt lat="44.21032757242211" lon="7.5722244430790315"><ele>961.0</ele><time>2026-05-02T08:40:22.745Z</time></trkpt><trkpt lat="44.2105001254493" lon="7.572152455196973"><ele>964.0</ele><time>2026-05-02T08:40:23.745Z</time></trkpt><trkpt lat="44.210677098896426" lon="7.572123681816487"><ele>967.0</ele><time>2026-05-02T08:40:24.745Z</time></trkpt><trkpt lat="44.210847870945045" lon="7.572075381422951"><ele>970.0</ele><time>2026-05-02T08:40:25.745Z</time></trkpt><trkpt lat="44.2110150897038" lon="7.572029580479354"><ele>967.6666666666666</ele><time>2026-05-02T08:40:26.745Z</time></trkpt><trkpt lat="44.211178041306454" lon="7.571980128374305"><ele>965.3333333333333</ele><time>2026-05-02T08:40:27.745Z</time></trkpt><trkpt lat="44.21133747861146" lon="7.571986053314661"><ele>963.0</ele><time>2026-05-02T08:40:28.745Z</time></trkpt><trkpt lat="44.2115017353551" lon="7.572026680862815"><ele>963.0</ele><time>2026-05-02T08:40:29.745Z</time></trkpt><trkpt lat="44.21166785389587" lon="7.572099355589871"><ele>963.0</ele><time>2026-05-02T08:40:30.744Z</time></trkpt><trkpt lat="44.211829153185946" lon="7.57218877569218"><ele>963.0</ele><time>2026-05-02T08:40:31.744Z</time></trkpt><trkpt lat="44.21198509894442" lon="7.57230500410626"><ele>963.0</ele><time>2026-05-02T08:40:32.744Z</time></trkpt><trkpt lat="44.2121367043558" lon="7.572421964926703"><ele>963.0</ele><time>2026-05-02T08:40:33.744Z</time></trkpt><trkpt lat="44.21231048879953" lon="7.57251154447969"><ele>963.0</ele><time>2026-05-02T08:40:34.747Z</time></trkpt><trkpt lat="44.212482553182646" lon="7.5725610957826275"><ele>961.3333333333333</ele><time>2026-05-02T08:40:35.746Z</time></trkpt><trkpt lat="44.21265285554914" lon="7.572575801277276"><ele>959.6666666666666</ele><time>2026-05-02T08:40:36.746Z</time></trkpt><trkpt lat="44.21283067892514" lon="7.57254116052685"><ele>958.0</ele><time>2026-05-02T08:40:37.747Z</time></trkpt><trkpt lat="44.21300025951021" lon="7.57247091156769"><ele>956.0</ele><time>2026-05-02T08:40:38.746Z</time></trkpt><trkpt lat="44.21316954052822" lon="7.572402118354082"><ele>954.0</ele><time>2026-05-02T08:40:39.746Z</time></trkpt><trkpt lat="44.21332083305044" lon="7.572284784886547"><ele>952.0</ele><time>2026-05-02T08:40:40.747Z</time></trkpt><trkpt lat="44.213489912409166" lon="7.5722031942101085"><ele>952.0</ele><time>2026-05-02T08:40:41.747Z</time></trkpt><trkpt lat="44.21363744585363" lon="7.5720845180843055"><ele>952.0</ele><time>2026-05-02T08:40:42.747Z</time></trkpt><trkpt lat="44.21378638850246" lon="7.571998330253974"><ele>952.0</ele><time>2026-05-02T08:40:43.747Z</time></trkpt><trkpt lat="44.21394559025928" lon="7.571924662533053"><ele>947.3333333333333</ele><time>2026-05-02T08:40:44.746Z</time></trkpt><trkpt lat="44.21410901089555" lon="7.571870837715891"><ele>942.6666666666667</ele><time>2026-05-02T08:40:45.746Z</time></trkpt><trkpt lat="44.21427783470071" lon="7.5718329107357585"><ele>938.0</ele><time>2026-05-02T08:40:46.746Z</time></trkpt><trkpt lat="44.21444312239641" lon="7.571793241166397"><ele>938.0</ele><time>2026-05-02T08:40:47.747Z</time></trkpt><trkpt lat="44.21462031720498" lon="7.571759179259698"><ele>938.0</ele><time>2026-05-02T08:40:48.747Z</time></trkpt><trkpt lat="44.214792684243605" lon="7.571732369653351"><ele>938.0</ele><time>2026-05-02T08:40:49.747Z</time></trkpt><trkpt lat="44.21495680135781" lon="7.571701612699138"><ele>938.3333333333334</ele><time>2026-05-02T08:40:50.747Z</time></trkpt><trkpt lat="44.21511492451275" lon="7.571654667655643"><ele>938.6666666666667</ele><time>2026-05-02T08:40:51.747Z</time></trkpt><trkpt lat="44.215270187641636" lon="7.57160310083468"><ele>939.0</ele><time>2026-05-02T08:40:52.747Z</time></trkpt><trkpt lat="44.215421550251385" lon="7.571536189931199"><ele>939.0</ele><time>2026-05-02T08:40:53.746Z</time></trkpt><trkpt lat="44.21556976150085" lon="7.571450804653351"><ele>939.0</ele><time>2026-05-02T08:40:54.746Z</time></trkpt><trkpt lat="44.21571522801119" lon="7.571347032081538"><ele>939.0</ele><time>2026-05-02T08:40:55.746Z</time></trkpt><trkpt lat="44.2158631530201" lon="7.571230028144902"><ele>936.0</ele><time>2026-05-02T08:40:56.746Z</time></trkpt><trkpt lat="44.21602562492635" lon="7.571104494158159"><ele>933.0</ele><time>2026-05-02T08:40:57.746Z</time></trkpt><trkpt lat="44.21620497662766" lon="7.570970749994336"><ele>930.0</ele><time>2026-05-02T08:40:58.746Z</time></trkpt><trkpt lat="44.21638736596086" lon="7.570834889834846"><ele>932.6666666666667</ele><time>2026-05-02T08:40:59.746Z</time></trkpt><trkpt lat="44.21658677585999" lon="7.570709512148533"><ele>935.3333333333334</ele><time>2026-05-02T08:41:00.746Z</time></trkpt><trkpt lat="44.21678120959444" lon="7.5705718385285135"><ele>938.0</ele><time>2026-05-02T08:41:01.746Z</time></trkpt><trkpt lat="44.21697723645646" lon="7.570435633138686"><ele>933.6666666666667</ele><time>2026-05-02T08:41:02.746Z</time></trkpt><trkpt lat="44.21717450563799" lon="7.570306908854128"><ele>929.3333333333333</ele><time>2026-05-02T08:41:03.746Z</time></trkpt><trkpt lat="44.21737272353734" lon="7.5701862654156145"><ele>925.0</ele><time>2026-05-02T08:41:04.746Z</time></trkpt><trkpt lat="44.21756553306985" lon="7.5700740537407585"><ele>925.0</ele><time>2026-05-02T08:41:05.746Z</time></trkpt><trkpt lat="44.217756530171684" lon="7.5699707385817385"><ele>925.0</ele><time>2026-05-02T08:41:06.746Z</time></trkpt><trkpt lat="44.217954801411544" lon="7.569868389495625"><ele>925.0</ele><time>2026-05-02T08:41:07.746Z</time></trkpt><trkpt lat="44.21814863629287" lon="7.569770095610213"><ele>926.0</ele><time>2026-05-02T08:41:08.746Z</time></trkpt><trkpt lat="44.21834086832844" lon="7.569672941921587"><ele>927.0</ele><time>2026-05-02T08:41:09.746Z</time></trkpt><trkpt lat="44.218542742003535" lon="7.569573026983721"><ele>928.0</ele><time>2026-05-02T08:41:10.746Z</time></trkpt><trkpt lat="44.21874316964345" lon="7.569473990376221"><ele>926.0</ele><time>2026-05-02T08:41:11.746Z</time></trkpt><trkpt lat="44.21895206691218" lon="7.569370364404953"><ele>924.0</ele><time>2026-05-02T08:41:12.746Z</time></trkpt><trkpt lat="44.21916115223421" lon="7.56926558598818"><ele>922.0</ele><time>2026-05-02T08:41:13.746Z</time></trkpt><trkpt lat="44.21937380304792" lon="7.569157260592493"><ele>921.5</ele><time>2026-05-02T08:41:14.746Z</time></trkpt><trkpt lat="44.219602111400675" lon="7.569078059361132"><ele>921.0</ele><time>2026-05-02T08:41:15.746Z</time></trkpt><trkpt lat="44.219823026530335" lon="7.56900020400122"><ele>928.5</ele><time>2026-05-02T08:41:16.746Z</time></trkpt><trkpt lat="44.22004247861538" lon="7.568909196156409"><ele>936.0</ele><time>2026-05-02T08:41:17.746Z</time></trkpt><trkpt lat="44.22025248111979" lon="7.568812680455313"><ele>936.0</ele><time>2026-05-02T08:41:18.745Z</time></trkpt><trkpt lat="44.22046158044917" lon="7.568718495558786"><ele>936.0</ele><time>2026-05-02T08:41:19.745Z</time></trkpt><trkpt lat="44.22064799146005" lon="7.568631783601671"><ele>936.0</ele><time>2026-05-02T08:41:20.745Z</time></trkpt><trkpt lat="44.22079776786713" lon="7.5685530685252385"><ele>930.75</ele><time>2026-05-02T08:41:21.745Z</time></trkpt><trkpt lat="44.22092904849761" lon="7.568474010236197"><ele>925.5</ele><time>2026-05-02T08:41:22.745Z</time></trkpt><trkpt lat="44.22104696663544" lon="7.568395313857672"><ele>920.25</ele><time>2026-05-02T08:41:23.745Z</time></trkpt><trkpt lat="44.221130674981076" lon="7.568274252449471"><ele>915.0</ele><time>2026-05-02T08:41:24.745Z</time></trkpt><trkpt lat="44.22129064118048" lon="7.568169978290637"><ele>915.0</ele><time>2026-05-02T08:41:25.745Z</time></trkpt><trkpt lat="44.22145983346492" lon="7.568049959784985"><ele>915.0</ele><time>2026-05-02T08:41:26.745Z</time></trkpt><trkpt lat="44.22160978515705" lon="7.567905024577568"><ele>915.0</ele><time>2026-05-02T08:41:27.745Z</time></trkpt><trkpt lat="44.22175800489608" lon="7.5677564422520005"><ele>912.3333333333333</ele><time>2026-05-02T08:41:28.745Z</time></trkpt><trkpt lat="44.221896094298934" lon="7.567579136033043"><ele>909.6666666666666</ele><time>2026-05-02T08:41:29.745Z</time></trkpt><trkpt lat="44.22203237458305" lon="7.567406438195658"><ele>907.0</ele><time>2026-05-02T08:41:30.745Z</time></trkpt><trkpt lat="44.22216392869743" lon="7.567228178156355"><ele>907.0</ele><time>2026-05-02T08:41:31.745Z</time></trkpt><trkpt lat="44.222276376214516" lon="7.567046342606399"><ele>907.0</ele><time>2026-05-02T08:41:32.745Z</time></trkpt><trkpt lat="44.22238774173268" lon="7.566857197025564"><ele>907.0</ele><time>2026-05-02T08:41:33.745Z</time></trkpt><trkpt lat="44.22249007706499" lon="7.56663326615755"><ele>906.0</ele><time>2026-05-02T08:41:34.745Z</time></trkpt><trkpt lat="44.222601951281085" lon="7.5664423154026474"><ele>905.0</ele><time>2026-05-02T08:41:35.745Z</time></trkpt><trkpt lat="44.22269136805379" lon="7.566237359390423"><ele>904.0</ele><time>2026-05-02T08:41:36.745Z</time></trkpt><trkpt lat="44.22277813464151" lon="7.566025529961428"><ele>902.3333333333333</ele><time>2026-05-02T08:41:37.745Z</time></trkpt><trkpt lat="44.222866488594924" lon="7.565799844731705"><ele>900.6666666666667</ele><time>2026-05-02T08:41:38.745Z</time></trkpt><trkpt lat="44.222947472323035" lon="7.56558743474342"><ele>899.0</ele><time>2026-05-02T08:41:39.745Z</time></trkpt><trkpt lat="44.22305173944276" lon="7.565341217624613"><ele>901.0</ele><time>2026-05-02T08:41:40.745Z</time></trkpt><trkpt lat="44.2231532995156" lon="7.565155535009871"><ele>903.0</ele><time>2026-05-02T08:41:41.745Z</time></trkpt><trkpt lat="44.22328934309666" lon="7.564985278129143"><ele>905.0</ele><time>2026-05-02T08:41:42.744Z</time></trkpt><trkpt lat="44.22343762330987" lon="7.564823920741736"><ele>905.0</ele><time>2026-05-02T08:41:43.744Z</time></trkpt><trkpt lat="44.223588008962636" lon="7.564700269494642"><ele>905.0</ele><time>2026-05-02T08:41:44.744Z</time></trkpt><trkpt lat="44.223760911825465" lon="7.564597278534384"><ele>905.0</ele><time>2026-05-02T08:41:45.744Z</time></trkpt><trkpt lat="44.223926800839436" lon="7.564505153667264"><ele>902.0</ele><time>2026-05-02T08:41:46.744Z</time></trkpt><trkpt lat="44.22410645316793" lon="7.564424101345304"><ele>899.0</ele><time>2026-05-02T08:41:47.744Z</time></trkpt><trkpt lat="44.22427956101042" lon="7.564358148388663"><ele>896.0</ele><time>2026-05-02T08:41:48.744Z</time></trkpt><trkpt lat="44.22445329106381" lon="7.5642869673585515"><ele>896.0</ele><time>2026-05-02T08:41:49.744Z</time></trkpt><trkpt lat="44.22462484995135" lon="7.564206706947937"><ele>896.0</ele><time>2026-05-02T08:41:50.744Z</time></trkpt><trkpt lat="44.224792323944364" lon="7.564123167998787"><ele>896.0</ele><time>2026-05-02T08:41:51.744Z</time></trkpt><trkpt lat="44.22494372761912" lon="7.564036757663488"><ele>894.3333333333334</ele><time>2026-05-02T08:41:52.744Z</time></trkpt><trkpt lat="44.22508534091998" lon="7.563905148272905"><ele>892.6666666666667</ele><time>2026-05-02T08:41:53.744Z</time></trkpt><trkpt lat="44.225222360267296" lon="7.563758620866815"><ele>891.0</ele><time>2026-05-02T08:41:54.744Z</time></trkpt><trkpt lat="44.22533950370197" lon="7.56358620454463"><ele>891.0</ele><time>2026-05-02T08:41:55.744Z</time></trkpt><trkpt lat="44.225453279694534" lon="7.563418440716205"><ele>891.0</ele><time>2026-05-02T08:41:56.744Z</time></trkpt><trkpt lat="44.225562342712685" lon="7.563262999988318"><ele>891.0</ele><time>2026-05-02T08:41:57.744Z</time></trkpt><trkpt lat="44.22569116532087" lon="7.563129683187672"><ele>889.5</ele><time>2026-05-02T08:41:58.744Z</time></trkpt><trkpt lat="44.22581065364172" lon="7.563021778360951"><ele>888.0</ele><time>2026-05-02T08:41:59.744Z</time></trkpt><trkpt lat="44.2259239007678" lon="7.562923801314631"><ele>886.5</ele><time>2026-05-02T08:42:00.744Z</time></trkpt><trkpt lat="44.22603154621739" lon="7.562857038386325"><ele>885.0</ele><time>2026-05-02T08:42:01.744Z</time></trkpt><trkpt lat="44.2261305989321" lon="7.562822704722689"><ele>886.0</ele><time>2026-05-02T08:42:03.744Z</time></trkpt><trkpt lat="44.22648010024165" lon="7.56257704045378"><ele>887.0</ele><time>2026-05-02T08:42:04.744Z</time></trkpt><trkpt lat="44.226606490090724" lon="7.562542406222605"><ele>887.0</ele><time>2026-05-02T08:42:05.744Z</time></trkpt><trkpt lat="44.22671132245012" lon="7.562526123368099"><ele>887.0</ele><time>2026-05-02T08:42:06.743Z</time></trkpt><trkpt lat="44.22682297821915" lon="7.562527515208724"><ele>887.0</ele><time>2026-05-02T08:42:07.743Z</time></trkpt><trkpt lat="44.226942586203215" lon="7.562537604996111"><ele>887.0</ele><time>2026-05-02T08:42:08.743Z</time></trkpt><trkpt lat="44.227075256991924" lon="7.562553252002206"><ele>887.0</ele><time>2026-05-02T08:42:09.743Z</time></trkpt><trkpt lat="44.2272132382845" lon="7.56257062989749"><ele>887.0</ele><time>2026-05-02T08:42:10.743Z</time></trkpt><trkpt lat="44.227365621563386" lon="7.562589821607418"><ele>887.0</ele><time>2026-05-02T08:42:11.743Z</time></trkpt><trkpt lat="44.22751310971768" lon="7.562608396809215"><ele>887.0</ele><time>2026-05-02T08:42:12.743Z</time></trkpt><trkpt lat="44.22765712053019" lon="7.5626251535879225"><ele>886.25</ele><time>2026-05-02T08:42:13.743Z</time></trkpt><trkpt lat="44.227775972429086" lon="7.562635181721455"><ele>885.5</ele><time>2026-05-02T08:42:14.743Z</time></trkpt><trkpt lat="44.22792756363817" lon="7.562630494282919"><ele>884.75</ele><time>2026-05-02T08:42:15.743Z</time></trkpt><trkpt lat="44.22807027493608" lon="7.562574732642889"><ele>884.0</ele><time>2026-05-02T08:42:16.743Z</time></trkpt><trkpt lat="44.228210069118745" lon="7.562522110313503"><ele>882.5</ele><time>2026-05-02T08:42:17.743Z</time></trkpt><trkpt lat="44.228341311112416" lon="7.562435598171831"><ele>881.0</ele><time>2026-05-02T08:42:18.743Z</time></trkpt><trkpt lat="44.22847027170588" lon="7.562329559883517"><ele>879.5</ele><time>2026-05-02T08:42:19.743Z</time></trkpt><trkpt lat="44.22857656153633" lon="7.562199762634357"><ele>878.0</ele><time>2026-05-02T08:42:20.743Z</time></trkpt><trkpt lat="44.22866284519341" lon="7.562044350639838"><ele>876.6666666666667</ele><time>2026-05-02T08:42:21.743Z</time></trkpt><trkpt lat="44.22872573657585" lon="7.561858585798516"><ele>875.3333333333333</ele><time>2026-05-02T08:42:22.743Z</time></trkpt><trkpt lat="44.22876203077829" lon="7.561653042725106"><ele>874.0</ele><time>2026-05-02T08:42:23.743Z</time></trkpt><trkpt lat="44.22877529384502" lon="7.561439180502863"><ele>874.0</ele><time>2026-05-02T08:42:24.743Z</time></trkpt><trkpt lat="44.2287627361755" lon="7.561227315022956"><ele>874.0</ele><time>2026-05-02T08:42:25.743Z</time></trkpt><trkpt lat="44.2287232508959" lon="7.561017579033979"><ele>874.0</ele><time>2026-05-02T08:42:26.743Z</time></trkpt><trkpt lat="44.228639026052946" lon="7.560755815000782"><ele>874.0</ele><time>2026-05-02T08:42:27.743Z</time></trkpt><trkpt lat="44.22859052060491" lon="7.560538673535208"><ele>874.0</ele><time>2026-05-02T08:42:28.743Z</time></trkpt><trkpt lat="44.22853672820959" lon="7.560322921613669"><ele>874.0</ele><time>2026-05-02T08:42:29.743Z</time></trkpt><trkpt lat="44.22849521493278" lon="7.560112818935938"><ele>874.6666666666666</ele><time>2026-05-02T08:42:30.743Z</time></trkpt><trkpt lat="44.22845068677596" lon="7.559895254600855"><ele>875.3333333333333</ele><time>2026-05-02T08:42:31.742Z</time></trkpt><trkpt lat="44.228403665363594" lon="7.559680139254708"><ele>876.0</ele><time>2026-05-02T08:42:32.742Z</time></trkpt><trkpt lat="44.228373236584375" lon="7.559482727761234"><ele>876.6666666666667</ele><time>2026-05-02T08:42:33.742Z</time></trkpt><trkpt lat="44.228326526176865" lon="7.55925303961209"><ele>877.3333333333334</ele><time>2026-05-02T08:42:34.742Z</time></trkpt><trkpt lat="44.228297169488755" lon="7.559042481016626"><ele>878.0</ele><time>2026-05-02T08:42:35.742Z</time></trkpt><trkpt lat="44.228292942917506" lon="7.558812429535198"><ele>876.6666666666667</ele><time>2026-05-02T08:42:36.742Z</time></trkpt><trkpt lat="44.2282872469105" lon="7.558601845719568"><ele>875.3333333333333</ele><time>2026-05-02T08:42:37.742Z</time></trkpt><trkpt lat="44.22829868951505" lon="7.558386446056831"><ele>874.0</ele><time>2026-05-02T08:42:38.742Z</time></trkpt><trkpt lat="44.228328663354624" lon="7.558178829820308"><ele>874.0</ele><time>2026-05-02T08:42:39.742Z</time></trkpt><trkpt lat="44.22837913707713" lon="7.557972441808347"><ele>874.0</ele><time>2026-05-02T08:42:40.744Z</time></trkpt><trkpt lat="44.2284468165507" lon="7.55776249033045"><ele>874.0</ele><time>2026-05-02T08:42:41.744Z</time></trkpt><trkpt lat="44.22852978457724" lon="7.55755600281169"><ele>872.3333333333333</ele><time>2026-05-02T08:42:42.744Z</time></trkpt><trkpt lat="44.22862199058606" lon="7.557358159624391"><ele>870.6666666666667</ele><time>2026-05-02T08:42:43.744Z</time></trkpt><trkpt lat="44.22871982993834" lon="7.557175963155008"><ele>869.0</ele><time>2026-05-02T08:42:44.744Z</time></trkpt><trkpt lat="44.228825595501284" lon="7.55701191196635"><ele>869.0</ele><time>2026-05-02T08:42:45.744Z</time></trkpt><trkpt lat="44.22893861642872" lon="7.556852943923342"><ele>869.0</ele><time>2026-05-02T08:42:46.744Z</time></trkpt><trkpt lat="44.229062284139864" lon="7.556706738179719"><ele>869.0</ele><time>2026-05-02T08:42:47.744Z</time></trkpt><trkpt lat="44.22919517413583" lon="7.556569638297982"><ele>868.0</ele><time>2026-05-02T08:42:48.744Z</time></trkpt><trkpt lat="44.229342763221595" lon="7.5564380110278435"><ele>867.0</ele><time>2026-05-02T08:42:49.743Z</time></trkpt><trkpt lat="44.229496813761244" lon="7.556321067723346"><ele>866.0</ele><time>2026-05-02T08:42:50.743Z</time></trkpt><trkpt lat="44.22965441975705" lon="7.556219677834696"><ele>864.0</ele><time>2026-05-02T08:42:51.743Z</time></trkpt><trkpt lat="44.22981715642969" lon="7.55612812460484"><ele>862.0</ele><time>2026-05-02T08:42:52.744Z</time></trkpt><trkpt lat="44.22998231597973" lon="7.556036803157079"><ele>860.0</ele><time>2026-05-02T08:42:53.743Z</time></trkpt><trkpt lat="44.230144986083054" lon="7.555947447434165"><ele>860.0</ele><time>2026-05-02T08:42:54.743Z</time></trkpt><trkpt lat="44.23029363311157" lon="7.555805954276563"><ele>860.0</ele><time>2026-05-02T08:42:55.743Z</time></trkpt><trkpt lat="44.230458764822764" lon="7.555721542235729"><ele>860.0</ele><time>2026-05-02T08:42:56.743Z</time></trkpt><trkpt lat="44.23061936556635" lon="7.555619628013901"><ele>861.3333333333334</ele><time>2026-05-02T08:42:57.743Z</time></trkpt><trkpt lat="44.23076383716339" lon="7.555498925546491"><ele>862.6666666666667</ele><time>2026-05-02T08:42:58.743Z</time></trkpt><trkpt lat="44.23091943043721" lon="7.5553867293035015"><ele>864.0</ele><time>2026-05-02T08:42:59.743Z</time></trkpt><trkpt lat="44.231040383975305" lon="7.555210645111023"><ele>860.3333333333333</ele><time>2026-05-02T08:43:00.743Z</time></trkpt><trkpt lat="44.23115097014055" lon="7.555042179960264"><ele>856.6666666666666</ele><time>2026-05-02T08:43:01.743Z</time></trkpt><trkpt lat="44.231259544870724" lon="7.554878643910297"><ele>853.0</ele><time>2026-05-02T08:43:02.743Z</time></trkpt><trkpt lat="44.23135762579535" lon="7.554700388203887"><ele>852.3333333333333</ele><time>2026-05-02T08:43:03.743Z</time></trkpt><trkpt lat="44.23143858671422" lon="7.554503602839262"><ele>851.6666666666667</ele><time>2026-05-02T08:43:04.743Z</time></trkpt><trkpt lat="44.23151417057306" lon="7.554299107289609"><ele>851.0</ele><time>2026-05-02T08:43:05.743Z</time></trkpt><trkpt lat="44.23157480977411" lon="7.554095585729863"><ele>852.0</ele><time>2026-05-02T08:43:06.743Z</time></trkpt><trkpt lat="44.23161980120789" lon="7.5538805289227575"><ele>853.0</ele><time>2026-05-02T08:43:07.743Z</time></trkpt><trkpt lat="44.23165108909175" lon="7.553673638225452"><ele>854.0</ele><time>2026-05-02T08:43:08.743Z</time></trkpt><trkpt lat="44.23168259431907" lon="7.553474470267828"><ele>854.0</ele><time>2026-05-02T08:43:09.743Z</time></trkpt><trkpt lat="44.231720651315705" lon="7.553278429617444"><ele>854.0</ele><time>2026-05-02T08:43:10.743Z</time></trkpt><trkpt lat="44.231772008733216" lon="7.5530838964560045"><ele>854.0</ele><time>2026-05-02T08:43:11.743Z</time></trkpt><trkpt lat="44.231820006020136" lon="7.552885546031697"><ele>854.0</ele><time>2026-05-02T08:43:12.742Z</time></trkpt><trkpt lat="44.2318919670889" lon="7.552715403989111"><ele>851.75</ele><time>2026-05-02T08:43:13.742Z</time></trkpt><trkpt lat="44.23195968534361" lon="7.552557118422991"><ele>849.5</ele><time>2026-05-02T08:43:14.742Z</time></trkpt><trkpt lat="44.23205219854904" lon="7.552383562975853"><ele>847.25</ele><time>2026-05-02T08:43:15.742Z</time></trkpt><trkpt lat="44.2321633909243" lon="7.552225332471138"><ele>845.0</ele><time>2026-05-02T08:43:16.742Z</time></trkpt><trkpt lat="44.23227810502327" lon="7.552068823896502"><ele>847.3333333333334</ele><time>2026-05-02T08:43:17.742Z</time></trkpt><trkpt lat="44.23239813982792" lon="7.5519067535198685"><ele>849.6666666666667</ele><time>2026-05-02T08:43:18.742Z</time></trkpt><trkpt lat="44.23251453259972" lon="7.551752323007103"><ele>852.0</ele><time>2026-05-02T08:43:19.742Z</time></trkpt><trkpt lat="44.23264666303553" lon="7.551573921793732"><ele>852.0</ele><time>2026-05-02T08:43:20.742Z</time></trkpt><trkpt lat="44.23278648696719" lon="7.551375414404768"><ele>852.0</ele><time>2026-05-02T08:43:21.742Z</time></trkpt><trkpt lat="44.23291190354698" lon="7.5511489643597685"><ele>852.0</ele><time>2026-05-02T08:43:22.742Z</time></trkpt><trkpt lat="44.23301196187742" lon="7.550918025118803"><ele>849.6666666666667</ele><time>2026-05-02T08:43:23.742Z</time></trkpt><trkpt lat="44.23310937577584" lon="7.550685122991507"><ele>847.3333333333334</ele><time>2026-05-02T08:43:24.742Z</time></trkpt><trkpt lat="44.23322011068706" lon="7.55046936053483"><ele>845.0</ele><time>2026-05-02T08:43:25.742Z</time></trkpt><trkpt lat="44.233317038941365" lon="7.550252545176945"><ele>845.0</ele><time>2026-05-02T08:43:26.742Z</time></trkpt><trkpt lat="44.23340442516954" lon="7.550048202111076"><ele>845.0</ele><time>2026-05-02T08:43:27.742Z</time></trkpt><trkpt lat="44.23348156379791" lon="7.549833713186176"><ele>845.0</ele><time>2026-05-02T08:43:28.742Z</time></trkpt><trkpt lat="44.233542541824335" lon="7.549603164831842"><ele>842.6666666666667</ele><time>2026-05-02T08:43:29.742Z</time></trkpt><trkpt lat="44.23358285527782" lon="7.549378930554124"><ele>840.3333333333333</ele><time>2026-05-02T08:43:30.742Z</time></trkpt><trkpt lat="44.233596272370896" lon="7.549141300117555"><ele>838.0</ele><time>2026-05-02T08:43:31.742Z</time></trkpt><trkpt lat="44.23357424126896" lon="7.548922949569198"><ele>837.5</ele><time>2026-05-02T08:43:32.742Z</time></trkpt><trkpt lat="44.23356411877656" lon="7.548703341535754"><ele>837.0</ele><time>2026-05-02T08:43:33.742Z</time></trkpt><trkpt lat="44.23358791196021" lon="7.548494867773829"><ele>836.5</ele><time>2026-05-02T08:43:34.742Z</time></trkpt><trkpt lat="44.233604848792055" lon="7.548303420770716"><ele>836.0</ele><time>2026-05-02T08:43:35.742Z</time></trkpt><trkpt lat="44.23367822677556" lon="7.548104050593987"><ele>836.0</ele><time>2026-05-02T08:43:36.741Z</time></trkpt><trkpt lat="44.23376735296656" lon="7.547907067055851"><ele>836.0</ele><time>2026-05-02T08:43:37.741Z</time></trkpt><trkpt lat="44.23387839518713" lon="7.547738969206423"><ele>836.0</ele><time>2026-05-02T08:43:38.741Z</time></trkpt><trkpt lat="44.234005918452475" lon="7.547598161789654"><ele>834.0</ele><time>2026-05-02T08:43:39.741Z</time></trkpt><trkpt lat="44.23415622051113" lon="7.547476441443497"><ele>832.0</ele><time>2026-05-02T08:43:40.741Z</time></trkpt><trkpt lat="44.23431304118556" lon="7.5473603808491125"><ele>830.0</ele><time>2026-05-02T08:43:41.741Z</time></trkpt><trkpt lat="44.234479780251185" lon="7.547245067604326"><ele>830.0</ele><time>2026-05-02T08:43:42.741Z</time></trkpt><trkpt lat="44.234663371288526" lon="7.547113181145226"><ele>830.0</ele><time>2026-05-02T08:43:43.741Z</time></trkpt><trkpt lat="44.23484822993373" lon="7.546973717211284"><ele>830.0</ele><time>2026-05-02T08:43:44.741Z</time></trkpt><trkpt lat="44.23502415576654" lon="7.546819785076189"><ele>828.6666666666667</ele><time>2026-05-02T08:43:45.741Z</time></trkpt><trkpt lat="44.23517615548408" lon="7.546636065430737"><ele>827.3333333333333</ele><time>2026-05-02T08:43:46.741Z</time></trkpt><trkpt lat="44.23530331566621" lon="7.546447817822164"><ele>826.0</ele><time>2026-05-02T08:43:47.741Z</time></trkpt><trkpt lat="44.235442526619586" lon="7.546273972235762"><ele>826.0</ele><time>2026-05-02T08:43:48.741Z</time></trkpt><trkpt lat="44.235577585650375" lon="7.546090563105597"><ele>826.0</ele><time>2026-05-02T08:43:49.741Z</time></trkpt><trkpt lat="44.23570958149293" lon="7.545909263919913"><ele>826.0</ele><time>2026-05-02T08:43:50.741Z</time></trkpt><trkpt lat="44.23584023077884" lon="7.5457312146851265"><ele>825.3333333333333</ele><time>2026-05-02T08:43:51.741Z</time></trkpt><trkpt lat="44.235981892975175" lon="7.545539745297197"><ele>824.6666666666667</ele><time>2026-05-02T08:43:52.741Z</time></trkpt><trkpt lat="44.23611284807545" lon="7.545361226774988"><ele>824.0</ele><time>2026-05-02T08:43:53.741Z</time></trkpt><trkpt lat="44.23623792044637" lon="7.545189270913737"><ele>824.0</ele><time>2026-05-02T08:43:54.741Z</time></trkpt><trkpt lat="44.23636075275809" lon="7.545021289647271"><ele>824.0</ele><time>2026-05-02T08:43:55.741Z</time></trkpt><trkpt lat="44.23648591373782" lon="7.544851091648636"><ele>824.0</ele><time>2026-05-02T08:43:56.741Z</time></trkpt><trkpt lat="44.236606324285916" lon="7.544687351233155"><ele>821.6666666666667</ele><time>2026-05-02T08:43:57.741Z</time></trkpt><trkpt lat="44.23672861174705" lon="7.54452164002376"><ele>819.3333333333333</ele><time>2026-05-02T08:43:58.741Z</time></trkpt><trkpt lat="44.236853806335255" lon="7.544351828357551"><ele>817.0</ele><time>2026-05-02T08:43:59.741Z</time></trkpt><trkpt lat="44.23697077500592" lon="7.544169409475563"><ele>817.0</ele><time>2026-05-02T08:44:00.741Z</time></trkpt><trkpt lat="44.237093414607685" lon="7.5440020964611465"><ele>817.0</ele><time>2026-05-02T08:44:01.74Z</time></trkpt><trkpt lat="44.2372037956667" lon="7.543820044700738"><ele>817.0</ele><time>2026-05-02T08:44:02.74Z</time></trkpt><trkpt lat="44.2373164559396" lon="7.543607608763466"><ele>819.0</ele><time>2026-05-02T08:44:03.74Z</time></trkpt><trkpt lat="44.23741740871143" lon="7.543381044799037"><ele>821.0</ele><time>2026-05-02T08:44:04.74Z</time></trkpt><trkpt lat="44.237496709475586" lon="7.543165231216681"><ele>823.0</ele><time>2026-05-02T08:44:05.74Z</time></trkpt><trkpt lat="44.23758229335593" lon="7.542947824277148"><ele>820.6666666666666</ele><time>2026-05-02T08:44:06.74Z</time></trkpt><trkpt lat="44.237667060472134" lon="7.542743782329566"><ele>818.3333333333333</ele><time>2026-05-02T08:44:07.74Z</time></trkpt><trkpt lat="44.23776936625926" lon="7.542553105377637"><ele>816.0</ele><time>2026-05-02T08:44:08.74Z</time></trkpt><trkpt lat="44.237876128858005" lon="7.5423658307335275"><ele>816.0</ele><time>2026-05-02T08:44:09.74Z</time></trkpt><trkpt lat="44.23798797070711" lon="7.542168499058123"><ele>816.0</ele><time>2026-05-02T08:44:10.74Z</time></trkpt><trkpt lat="44.23810161909595" lon="7.541964978504137"><ele>816.0</ele><time>2026-05-02T08:44:11.74Z</time></trkpt><trkpt lat="44.238212467334414" lon="7.5417640751278645"><ele>818.3333333333333</ele><time>2026-05-02T08:44:12.74Z</time></trkpt><trkpt lat="44.238317277844594" lon="7.541586819744018"><ele>820.6666666666666</ele><time>2026-05-02T08:44:13.74Z</time></trkpt><trkpt lat="44.238438588402914" lon="7.541414649793375"><ele>823.0</ele><time>2026-05-02T08:44:14.74Z</time></trkpt><trkpt lat="44.23856710345666" lon="7.54123987079492"><ele>818.6666666666666</ele><time>2026-05-02T08:44:15.74Z</time></trkpt><trkpt lat="44.238695651770364" lon="7.541065936590485"><ele>814.3333333333333</ele><time>2026-05-02T08:44:16.74Z</time></trkpt><trkpt lat="44.23881785666784" lon="7.540898705575895"><ele>810.0</ele><time>2026-05-02T08:44:17.74Z</time></trkpt><trkpt lat="44.2389480841431" lon="7.540720496089583"><ele>809.0</ele><time>2026-05-02T08:44:18.74Z</time></trkpt><trkpt lat="44.23906903508793" lon="7.540554963003647"><ele>808.0</ele><time>2026-05-02T08:44:19.74Z</time></trkpt><trkpt lat="44.239198254522464" lon="7.540382852256939"><ele>807.0</ele><time>2026-05-02T08:44:20.74Z</time></trkpt><trkpt lat="44.239327825285436" lon="7.540212681191545"><ele>807.0</ele><time>2026-05-02T08:44:21.74Z</time></trkpt><trkpt lat="44.23946246913457" lon="7.540049263316236"><ele>807.0</ele><time>2026-05-02T08:44:22.74Z</time></trkpt><trkpt lat="44.239602975792195" lon="7.539899765370575"><ele>807.0</ele><time>2026-05-02T08:44:23.74Z</time></trkpt><trkpt lat="44.23974599593236" lon="7.53975169285318"><ele>806.0</ele><time>2026-05-02T08:44:24.74Z</time></trkpt><trkpt lat="44.23989325774269" lon="7.53960212244194"><ele>805.0</ele><time>2026-05-02T08:44:25.739Z</time></trkpt><trkpt lat="44.240029675941614" lon="7.53946310543695"><ele>804.0</ele><time>2026-05-02T08:44:26.739Z</time></trkpt><trkpt lat="44.24015677787264" lon="7.53932589089397"><ele>804.0</ele><time>2026-05-02T08:44:27.739Z</time></trkpt><trkpt lat="44.24029046749102" lon="7.539167918572684"><ele>804.0</ele><time>2026-05-02T08:44:28.739Z</time></trkpt><trkpt lat="44.24041540882333" lon="7.539000251640037"><ele>804.0</ele><time>2026-05-02T08:44:29.739Z</time></trkpt><trkpt lat="44.24051590111527" lon="7.538828329955736"><ele>803.3333333333333</ele><time>2026-05-02T08:44:30.739Z</time></trkpt><trkpt lat="44.24062216679029" lon="7.538661724095992"><ele>802.6666666666666</ele><time>2026-05-02T08:44:31.739Z</time></trkpt><trkpt lat="44.24073218404834" lon="7.538468091065858"><ele>802.0</ele><time>2026-05-02T08:44:32.739Z</time></trkpt><trkpt lat="44.24083534695279" lon="7.538297095362895"><ele>802.0</ele><time>2026-05-02T08:44:33.739Z</time></trkpt><trkpt lat="44.24093418803157" lon="7.538121274342162"><ele>802.0</ele><time>2026-05-02T08:44:34.739Z</time></trkpt><trkpt lat="44.24104301548083" lon="7.5379367655967915"><ele>802.0</ele><time>2026-05-02T08:44:35.739Z</time></trkpt><trkpt lat="44.24115121956852" lon="7.537746132653149"><ele>801.3333333333333</ele><time>2026-05-02T08:44:36.739Z</time></trkpt><trkpt lat="44.241262122649054" lon="7.537570681621147"><ele>800.6666666666667</ele><time>2026-05-02T08:44:37.739Z</time></trkpt><trkpt lat="44.24136518725857" lon="7.537391046896215"><ele>800.0</ele><time>2026-05-02T08:44:38.739Z</time></trkpt><trkpt lat="44.24146510209511" lon="7.537205789655139"><ele>800.6666666666667</ele><time>2026-05-02T08:44:39.739Z</time></trkpt><trkpt lat="44.241577560835175" lon="7.537030259978945"><ele>801.3333333333333</ele><time>2026-05-02T08:44:40.739Z</time></trkpt><trkpt lat="44.24168720642994" lon="7.536864485477203"><ele>802.0</ele><time>2026-05-02T08:44:41.739Z</time></trkpt><trkpt lat="44.241804126390136" lon="7.5366995567913575"><ele>802.0</ele><time>2026-05-02T08:44:42.739Z</time></trkpt><trkpt lat="44.24191528362999" lon="7.5365408211013785"><ele>802.0</ele><time>2026-05-02T08:44:43.739Z</time></trkpt><trkpt lat="44.24203145775264" lon="7.536369408158458"><ele>802.0</ele><time>2026-05-02T08:44:44.739Z</time></trkpt><trkpt lat="44.24214546549482" lon="7.5361967939961"><ele>801.3333333333333</ele><time>2026-05-02T08:44:45.739Z</time></trkpt><trkpt lat="44.242263595842125" lon="7.536030694120964"><ele>800.6666666666667</ele><time>2026-05-02T08:44:46.742Z</time></trkpt><trkpt lat="44.242380810748315" lon="7.535868698684322"><ele>800.0</ele><time>2026-05-02T08:44:47.742Z</time></trkpt><trkpt lat="44.24250533030145" lon="7.53570859328749"><ele>800.0</ele><time>2026-05-02T08:44:48.742Z</time></trkpt><trkpt lat="44.24260070629107" lon="7.535518859743192"><ele>800.0</ele><time>2026-05-02T08:44:49.741Z</time></trkpt><trkpt lat="44.242702628860584" lon="7.535327136086727"><ele>800.0</ele><time>2026-05-02T08:44:50.741Z</time></trkpt><trkpt lat="44.242790044424844" lon="7.535136412116723"><ele>798.6666666666667</ele><time>2026-05-02T08:44:51.741Z</time></trkpt><trkpt lat="44.24287701074723" lon="7.534943754930761"><ele>797.3333333333333</ele><time>2026-05-02T08:44:52.741Z</time></trkpt><trkpt lat="44.242950888076884" lon="7.5347613862384435"><ele>796.0</ele><time>2026-05-02T08:44:53.741Z</time></trkpt><trkpt lat="44.24302633892224" lon="7.5345804833953025"><ele>795.0</ele><time>2026-05-02T08:44:54.741Z</time></trkpt><trkpt lat="44.24310243935375" lon="7.534399428452302"><ele>794.0</ele><time>2026-05-02T08:44:55.741Z</time></trkpt><trkpt lat="44.243177487880956" lon="7.534218116453726"><ele>793.0</ele><time>2026-05-02T08:44:56.741Z</time></trkpt><trkpt lat="44.24324678508442" lon="7.534051275912269"><ele>792.0</ele><time>2026-05-02T08:44:57.741Z</time></trkpt><trkpt lat="44.24333025210235" lon="7.5339009035275355"><ele>791.75</ele><time>2026-05-02T08:44:58.741Z</time></trkpt><trkpt lat="44.24342248195819" lon="7.533757713130214"><ele>791.5</ele><time>2026-05-02T08:44:59.741Z</time></trkpt><trkpt lat="44.243526980020704" lon="7.533644060474734"><ele>791.25</ele><time>2026-05-02T08:45:00.74Z</time></trkpt><trkpt lat="44.243636656825096" lon="7.53350824697341"><ele>791.0</ele><time>2026-05-02T08:45:01.74Z</time></trkpt><trkpt lat="44.24374086677786" lon="7.533375376164722"><ele>790.5</ele><time>2026-05-02T08:45:02.74Z</time></trkpt><trkpt lat="44.243842349398356" lon="7.533246992224771"><ele>790.0</ele><time>2026-05-02T08:45:03.74Z</time></trkpt><trkpt lat="44.243957169445665" lon="7.5331755255362545"><ele>789.5</ele><time>2026-05-02T08:45:04.74Z</time></trkpt><trkpt lat="44.244086647498335" lon="7.533102605682337"><ele>789.0</ele><time>2026-05-02T08:45:05.74Z</time></trkpt><trkpt lat="44.24422202385014" lon="7.533038771985663"><ele>789.0</ele><time>2026-05-02T08:45:06.74Z</time></trkpt><trkpt lat="44.244379319703064" lon="7.532969818855294"><ele>789.0</ele><time>2026-05-02T08:45:07.74Z</time></trkpt><trkpt lat="44.24454348978248" lon="7.532901462427843"><ele>789.0</ele><time>2026-05-02T08:45:08.74Z</time></trkpt><trkpt lat="44.24469921910114" lon="7.53283783053767"><ele>786.3333333333333</ele><time>2026-05-02T08:45:09.74Z</time></trkpt><trkpt lat="44.24484742781103" lon="7.532749135986164"><ele>783.6666666666666</ele><time>2026-05-02T08:45:10.74Z</time></trkpt><trkpt lat="44.245007471453675" lon="7.532687165968163"><ele>781.0</ele><time>2026-05-02T08:45:11.74Z</time></trkpt><trkpt lat="44.24516308966029" lon="7.5326279490720465"><ele>781.0</ele><time>2026-05-02T08:45:12.74Z</time></trkpt><trkpt lat="44.245323062232494" lon="7.532569238362342"><ele>781.0</ele><time>2026-05-02T08:45:13.74Z</time></trkpt><trkpt lat="44.245481415441915" lon="7.532504614617251"><ele>781.0</ele><time>2026-05-02T08:45:14.74Z</time></trkpt><trkpt lat="44.24563603485696" lon="7.532441351818317"><ele>781.6666666666666</ele><time>2026-05-02T08:45:15.74Z</time></trkpt><trkpt lat="44.2457905591383" lon="7.532382184299353"><ele>782.3333333333333</ele><time>2026-05-02T08:45:16.74Z</time></trkpt><trkpt lat="44.24594350442165" lon="7.532315691245593"><ele>783.0</ele><time>2026-05-02T08:45:17.74Z</time></trkpt><trkpt lat="44.24609424490291" lon="7.532257738077132"><ele>783.0</ele><time>2026-05-02T08:45:18.74Z</time></trkpt><trkpt lat="44.246251456511" lon="7.532197778162528"><ele>783.0</ele><time>2026-05-02T08:45:19.74Z</time></trkpt><trkpt lat="44.24640190852557" lon="7.532136642052956"><ele>783.0</ele><time>2026-05-02T08:45:20.74Z</time></trkpt><trkpt lat="44.246547392873715" lon="7.5320678709461335"><ele>781.5</ele><time>2026-05-02T08:45:21.74Z</time></trkpt><trkpt lat="44.24669501410113" lon="7.532028795355087"><ele>780.0</ele><time>2026-05-02T08:45:22.74Z</time></trkpt><trkpt lat="44.24683776787125" lon="7.5319712936498044"><ele>778.5</ele><time>2026-05-02T08:45:23.74Z</time></trkpt><trkpt lat="44.246974600771395" lon="7.531921374169473"><ele>777.0</ele><time>2026-05-02T08:45:24.74Z</time></trkpt><trkpt lat="44.24710387750628" lon="7.531885502337388"><ele>777.0</ele><time>2026-05-02T08:45:25.739Z</time></trkpt><trkpt lat="44.247232442510935" lon="7.5318782162992886"><ele>777.0</ele><time>2026-05-02T08:45:26.739Z</time></trkpt><trkpt lat="44.247305740521846" lon="7.531889831215855"><ele>777.0</ele><time>2026-05-02T08:45:27.739Z</time></trkpt><trkpt lat="44.24741558360982" lon="7.5319118929620625"><ele>777.0</ele><time>2026-05-02T08:45:29.739Z</time></trkpt><trkpt lat="44.24750737601561" lon="7.531950188572251"><ele>777.0</ele><time>2026-05-02T08:45:30.739Z</time></trkpt><trkpt lat="44.24761404520056" lon="7.531996949164025"><ele>777.0</ele><time>2026-05-02T08:45:31.739Z</time></trkpt><trkpt lat="44.24773318842427" lon="7.532048724945008"><ele>777.0</ele><time>2026-05-02T08:45:32.739Z</time></trkpt><trkpt lat="44.24786389640973" lon="7.532103994138587"><ele>777.0</ele><time>2026-05-02T08:45:33.739Z</time></trkpt><trkpt lat="44.247998369512295" lon="7.532158038211333"><ele>777.0</ele><time>2026-05-02T08:45:34.739Z</time></trkpt><trkpt lat="44.248133276714526" lon="7.532179720655798"><ele>778.0</ele><time>2026-05-02T08:45:35.739Z</time></trkpt><trkpt lat="44.24826198928887" lon="7.53223902281579"><ele>779.0</ele><time>2026-05-02T08:45:36.739Z</time></trkpt><trkpt lat="44.24841170386935" lon="7.532219011996261"><ele>780.0</ele><time>2026-05-02T08:45:37.739Z</time></trkpt><trkpt lat="44.24857143976004" lon="7.532193191182199"><ele>781.0</ele><time>2026-05-02T08:45:38.739Z</time></trkpt><trkpt lat="44.2487319794521" lon="7.532140055050236"><ele>781.0</ele><time>2026-05-02T08:45:39.739Z</time></trkpt><trkpt lat="44.2488914996285" lon="7.532074384813355"><ele>781.0</ele><time>2026-05-02T08:45:40.739Z</time></trkpt><trkpt lat="44.24904121196896" lon="7.532007881696295"><ele>781.0</ele><time>2026-05-02T08:45:41.739Z</time></trkpt><trkpt lat="44.249201548849456" lon="7.531941626542349"><ele>778.0</ele><time>2026-05-02T08:45:42.739Z</time></trkpt><trkpt lat="44.24935837059798" lon="7.531895649823166"><ele>775.0</ele><time>2026-05-02T08:45:43.739Z</time></trkpt><trkpt lat="44.24952305247678" lon="7.531881333055203"><ele>772.0</ele><time>2026-05-02T08:45:44.739Z</time></trkpt><trkpt lat="44.249683850920135" lon="7.531869655042586"><ele>773.3333333333333</ele><time>2026-05-02T08:45:45.739Z</time></trkpt><trkpt lat="44.24984935473998" lon="7.531836781515326"><ele>774.6666666666667</ele><time>2026-05-02T08:45:46.739Z</time></trkpt><trkpt lat="44.250021109864385" lon="7.531764202981682"><ele>776.0</ele><time>2026-05-02T08:45:47.739Z</time></trkpt><trkpt lat="44.25019036790576" lon="7.531668261403546"><ele>776.0</ele><time>2026-05-02T08:45:48.739Z</time></trkpt><trkpt lat="44.25036909709203" lon="7.531488952034574"><ele>776.0</ele><time>2026-05-02T08:45:49.738Z</time></trkpt><trkpt lat="44.250533486445065" lon="7.531342764873118"><ele>776.0</ele><time>2026-05-02T08:45:50.738Z</time></trkpt><trkpt lat="44.25069805914252" lon="7.53118905746473"><ele>775.0</ele><time>2026-05-02T08:45:51.738Z</time></trkpt><trkpt lat="44.25083696296283" lon="7.530993177091415"><ele>774.0</ele><time>2026-05-02T08:45:52.738Z</time></trkpt><trkpt lat="44.25099721152526" lon="7.530844554220088"><ele>773.0</ele><time>2026-05-02T08:45:53.738Z</time></trkpt><trkpt lat="44.25114038847749" lon="7.530683282936946"><ele>773.0</ele><time>2026-05-02T08:45:54.738Z</time></trkpt><trkpt lat="44.25128222468583" lon="7.53052857502829"><ele>773.0</ele><time>2026-05-02T08:45:55.738Z</time></trkpt><trkpt lat="44.2514262263159" lon="7.530393497738982"><ele>773.0</ele><time>2026-05-02T08:45:56.738Z</time></trkpt><trkpt lat="44.25158438762422" lon="7.530283416276146"><ele>770.6666666666667</ele><time>2026-05-02T08:45:57.738Z</time></trkpt><trkpt lat="44.251763692836754" lon="7.530211755711548"><ele>768.3333333333334</ele><time>2026-05-02T08:45:58.738Z</time></trkpt><trkpt lat="44.251940717154504" lon="7.530158957758941"><ele>766.0</ele><time>2026-05-02T08:45:59.738Z</time></trkpt><trkpt lat="44.25210616944124" lon="7.53007807476309"><ele>769.3333333333334</ele><time>2026-05-02T08:46:00.738Z</time></trkpt><trkpt lat="44.252297845663314" lon="7.530014272708493"><ele>772.6666666666667</ele><time>2026-05-02T08:46:01.738Z</time></trkpt><trkpt lat="44.25247423642898" lon="7.529929250081866"><ele>776.0</ele><time>2026-05-02T08:46:02.738Z</time></trkpt><trkpt lat="44.252641493851705" lon="7.529821917575954"><ele>776.0</ele><time>2026-05-02T08:46:03.738Z</time></trkpt><trkpt lat="44.25280696442642" lon="7.529692462301008"><ele>776.0</ele><time>2026-05-02T08:46:04.738Z</time></trkpt><trkpt lat="44.25297045539496" lon="7.5295546071019945"><ele>776.0</ele><time>2026-05-02T08:46:05.738Z</time></trkpt><trkpt lat="44.253130765363935" lon="7.5293868329152405"><ele>773.3333333333334</ele><time>2026-05-02T08:46:06.738Z</time></trkpt><trkpt lat="44.25328589807798" lon="7.529231096770913"><ele>770.6666666666667</ele><time>2026-05-02T08:46:07.738Z</time></trkpt><trkpt lat="44.25345522198052" lon="7.529100133190711"><ele>768.0</ele><time>2026-05-02T08:46:08.738Z</time></trkpt><trkpt lat="44.25362127296451" lon="7.529013023617932"><ele>768.0</ele><time>2026-05-02T08:46:09.738Z</time></trkpt><trkpt lat="44.2537889487166" lon="7.528883947384004"><ele>768.0</ele><time>2026-05-02T08:46:10.738Z</time></trkpt><trkpt lat="44.2539666740249" lon="7.528778619855949"><ele>768.0</ele><time>2026-05-02T08:46:11.738Z</time></trkpt><trkpt lat="44.25413810292338" lon="7.528692030136671"><ele>765.6666666666666</ele><time>2026-05-02T08:46:12.738Z</time></trkpt><trkpt lat="44.254294360261596" lon="7.528595638371527"><ele>763.3333333333333</ele><time>2026-05-02T08:46:13.737Z</time></trkpt><trkpt lat="44.254445890337614" lon="7.528484601396588"><ele>761.0</ele><time>2026-05-02T08:46:14.737Z</time></trkpt><trkpt lat="44.254594364047435" lon="7.528397607934749"><ele>761.0</ele><time>2026-05-02T08:46:15.737Z</time></trkpt><trkpt lat="44.25473828676243" lon="7.528267226668663"><ele>761.0</ele><time>2026-05-02T08:46:16.737Z</time></trkpt><trkpt lat="44.254850673425516" lon="7.528092146839579"><ele>761.0</ele><time>2026-05-02T08:46:17.737Z</time></trkpt><trkpt lat="44.25495158547508" lon="7.527902152493081"><ele>762.3333333333333</ele><time>2026-05-02T08:46:18.737Z</time></trkpt><trkpt lat="44.255033531074716" lon="7.527697697410884"><ele>763.6666666666666</ele><time>2026-05-02T08:46:19.737Z</time></trkpt><trkpt lat="44.25509702451586" lon="7.527464076636598"><ele>765.0</ele><time>2026-05-02T08:46:20.737Z</time></trkpt><trkpt lat="44.255151474487825" lon="7.5272143715847974"><ele>763.6666666666666</ele><time>2026-05-02T08:46:21.737Z</time></trkpt><trkpt lat="44.25517473790458" lon="7.5269884378066445"><ele>762.3333333333333</ele><time>2026-05-02T08:46:22.737Z</time></trkpt><trkpt lat="44.2552015192354" lon="7.526773772353013"><ele>761.0</ele><time>2026-05-02T08:46:23.737Z</time></trkpt><trkpt lat="44.2552624261626" lon="7.526579354603911"><ele>761.0</ele><time>2026-05-02T08:46:24.737Z</time></trkpt><trkpt lat="44.255337616357394" lon="7.526395530025312"><ele>761.0</ele><time>2026-05-02T08:46:25.737Z</time></trkpt><trkpt lat="44.255434740574344" lon="7.526271378426745"><ele>761.0</ele><time>2026-05-02T08:46:26.737Z</time></trkpt><trkpt lat="44.25556995817973" lon="7.526181467971752"><ele>761.0</ele><time>2026-05-02T08:46:27.737Z</time></trkpt><trkpt lat="44.25572653223967" lon="7.526105984971666"><ele>759.0</ele><time>2026-05-02T08:46:28.737Z</time></trkpt><trkpt lat="44.25590339541858" lon="7.526019070269486"><ele>757.0</ele><time>2026-05-02T08:46:29.737Z</time></trkpt><trkpt lat="44.256076575287786" lon="7.525924343280723"><ele>755.0</ele><time>2026-05-02T08:46:30.737Z</time></trkpt><trkpt lat="44.25626218249451" lon="7.525838942472663"><ele>755.0</ele><time>2026-05-02T08:46:31.737Z</time></trkpt><trkpt lat="44.256449773220275" lon="7.525743834756908"><ele>755.0</ele><time>2026-05-02T08:46:32.737Z</time></trkpt><trkpt lat="44.25663439211439" lon="7.525649772821765"><ele>755.0</ele><time>2026-05-02T08:46:33.737Z</time></trkpt><trkpt lat="44.256813877046554" lon="7.525567473473815"><ele>754.0</ele><time>2026-05-02T08:46:34.737Z</time></trkpt><trkpt lat="44.25699235610776" lon="7.525481614790904"><ele>753.0</ele><time>2026-05-02T08:46:35.737Z</time></trkpt><trkpt lat="44.25716684472397" lon="7.525389628860962"><ele>752.0</ele><time>2026-05-02T08:46:36.737Z</time></trkpt><trkpt lat="44.257328812618645" lon="7.525291145136443"><ele>754.3333333333333</ele><time>2026-05-02T08:46:37.737Z</time></trkpt><trkpt lat="44.25748718159871" lon="7.525170344943178"><ele>756.6666666666666</ele><time>2026-05-02T08:46:38.736Z</time></trkpt><trkpt lat="44.257635530489814" lon="7.5250212215924535"><ele>759.0</ele><time>2026-05-02T08:46:39.736Z</time></trkpt><trkpt lat="44.257783317071194" lon="7.524865508430668"><ele>759.0</ele><time>2026-05-02T08:46:40.736Z</time></trkpt><trkpt lat="44.25794103475704" lon="7.524722164048076"><ele>759.0</ele><time>2026-05-02T08:46:41.736Z</time></trkpt><trkpt lat="44.258089957372455" lon="7.524576554198602"><ele>759.0</ele><time>2026-05-02T08:46:42.736Z</time></trkpt><trkpt lat="44.25822754987046" lon="7.524430959378838"><ele>758.6666666666666</ele><time>2026-05-02T08:46:43.736Z</time></trkpt><trkpt lat="44.25838292369924" lon="7.524304295823933"><ele>758.3333333333333</ele><time>2026-05-02T08:46:44.736Z</time></trkpt><trkpt lat="44.25855160354276" lon="7.524200103696791"><ele>758.0</ele><time>2026-05-02T08:46:45.736Z</time></trkpt><trkpt lat="44.258724563152334" lon="7.524113152786956"><ele>758.0</ele><time>2026-05-02T08:46:46.736Z</time></trkpt><trkpt lat="44.258895684189824" lon="7.5240344198710485"><ele>758.0</ele><time>2026-05-02T08:46:47.736Z</time></trkpt><trkpt lat="44.25906635357223" lon="7.523934107052935"><ele>758.0</ele><time>2026-05-02T08:46:48.736Z</time></trkpt><trkpt lat="44.25923119034687" lon="7.523811697056465"><ele>756.3333333333333</ele><time>2026-05-02T08:46:49.736Z</time></trkpt><trkpt lat="44.25939191337661" lon="7.523680952412193"><ele>754.6666666666666</ele><time>2026-05-02T08:46:50.736Z</time></trkpt><trkpt lat="44.25953197042902" lon="7.52352052216025"><ele>753.0</ele><time>2026-05-02T08:46:51.736Z</time></trkpt><trkpt lat="44.25965805739391" lon="7.523323353714411"><ele>753.0</ele><time>2026-05-02T08:46:52.739Z</time></trkpt><trkpt lat="44.2597849070012" lon="7.523087250746942"><ele>753.0</ele><time>2026-05-02T08:46:53.739Z</time></trkpt><trkpt lat="44.259900170996005" lon="7.52286325839394"><ele>753.0</ele><time>2026-05-02T08:46:54.739Z</time></trkpt><trkpt lat="44.2600361797794" lon="7.52264361881672"><ele>753.0</ele><time>2026-05-02T08:46:55.738Z</time></trkpt><trkpt lat="44.260162344763934" lon="7.522414794820959"><ele>753.0</ele><time>2026-05-02T08:46:56.738Z</time></trkpt><trkpt lat="44.26027718682337" lon="7.522203890988955"><ele>753.0</ele><time>2026-05-02T08:46:57.738Z</time></trkpt><trkpt lat="44.26039067338057" lon="7.5219852708975985"><ele>749.6666666666666</ele><time>2026-05-02T08:46:58.739Z</time></trkpt><trkpt lat="44.260466169279844" lon="7.5217639948940915"><ele>746.3333333333333</ele><time>2026-05-02T08:46:59.738Z</time></trkpt><trkpt lat="44.260555163324675" lon="7.5215486385125185"><ele>743.0</ele><time>2026-05-02T08:47:00.738Z</time></trkpt><trkpt lat="44.260605946967516" lon="7.52128011200521"><ele>750.3333333333333</ele><time>2026-05-02T08:47:01.738Z</time></trkpt><trkpt lat="44.26066409175206" lon="7.521043231974107"><ele>757.6666666666666</ele><time>2026-05-02T08:47:02.738Z</time></trkpt><trkpt lat="44.26072201647949" lon="7.520787671990342"><ele>765.0</ele><time>2026-05-02T08:47:03.738Z</time></trkpt><trkpt lat="44.26077085175073" lon="7.520523395120917"><ele>762.3333333333334</ele><time>2026-05-02T08:47:04.738Z</time></trkpt><trkpt lat="44.2608131949142" lon="7.520270322000956"><ele>759.6666666666667</ele><time>2026-05-02T08:47:05.738Z</time></trkpt><trkpt lat="44.26085913116779" lon="7.520043450741355"><ele>757.0</ele><time>2026-05-02T08:47:06.738Z</time></trkpt><trkpt lat="44.26090226133908" lon="7.519835877675955"><ele>757.0</ele><time>2026-05-02T08:47:07.738Z</time></trkpt><trkpt lat="44.26095809562135" lon="7.519634277597656"><ele>757.0</ele><time>2026-05-02T08:47:08.738Z</time></trkpt><trkpt lat="44.261050664827145" lon="7.519478025663348"><ele>757.0</ele><time>2026-05-02T08:47:09.738Z</time></trkpt><trkpt lat="44.26115447825483" lon="7.519346210012187"><ele>757.0</ele><time>2026-05-02T08:47:10.738Z</time></trkpt><trkpt lat="44.261278940490605" lon="7.519203823874191"><ele>754.5</ele><time>2026-05-02T08:47:11.738Z</time></trkpt><trkpt lat="44.26139602338888" lon="7.519051718022394"><ele>752.0</ele><time>2026-05-02T08:47:12.738Z</time></trkpt><trkpt lat="44.26151461324674" lon="7.518924224641831"><ele>749.5</ele><time>2026-05-02T08:47:13.738Z</time></trkpt><trkpt lat="44.261626892518244" lon="7.518814190206726"><ele>747.0</ele><time>2026-05-02T08:47:14.738Z</time></trkpt><trkpt lat="44.26174655370898" lon="7.518692039959562"><ele>745.75</ele><time>2026-05-02T08:47:15.738Z</time></trkpt><trkpt lat="44.26187942920976" lon="7.5186017164790675"><ele>744.5</ele><time>2026-05-02T08:47:16.737Z</time></trkpt><trkpt lat="44.26202946447309" lon="7.518605999645763"><ele>743.25</ele><time>2026-05-02T08:47:17.737Z</time></trkpt><trkpt lat="44.26218015921246" lon="7.518620898323821"><ele>742.0</ele><time>2026-05-02T08:47:18.737Z</time></trkpt><trkpt lat="44.26233541533622" lon="7.518662741091527"><ele>742.0</ele><time>2026-05-02T08:47:19.737Z</time></trkpt><trkpt lat="44.26248335678842" lon="7.51871062645445"><ele>742.0</ele><time>2026-05-02T08:47:20.737Z</time></trkpt><trkpt lat="44.262640890075964" lon="7.518761616468737"><ele>742.0</ele><time>2026-05-02T08:47:21.737Z</time></trkpt><trkpt lat="44.262810246996764" lon="7.518798284700556"><ele>743.75</ele><time>2026-05-02T08:47:22.737Z</time></trkpt><trkpt lat="44.26296655779522" lon="7.518852137022989"><ele>745.5</ele><time>2026-05-02T08:47:23.737Z</time></trkpt><trkpt lat="44.26310479304113" lon="7.51889464130691"><ele>747.25</ele><time>2026-05-02T08:47:24.737Z</time></trkpt><trkpt lat="44.26324016649097" lon="7.518933344423036"><ele>749.0</ele><time>2026-05-02T08:47:25.737Z</time></trkpt><trkpt lat="44.263383136865365" lon="7.518967510681498"><ele>749.0</ele><time>2026-05-02T08:47:26.737Z</time></trkpt><trkpt lat="44.26350850556926" lon="7.518964167295409"><ele>749.0</ele><time>2026-05-02T08:47:27.737Z</time></trkpt><trkpt lat="44.26362953448913" lon="7.518909367660659"><ele>749.0</ele><time>2026-05-02T08:47:28.737Z</time></trkpt><trkpt lat="44.263738370417286" lon="7.518787069044179"><ele>749.0</ele><time>2026-05-02T08:47:29.737Z</time></trkpt><trkpt lat="44.26381448717834" lon="7.51862205410442"><ele>746.25</ele><time>2026-05-02T08:47:30.737Z</time></trkpt><trkpt lat="44.26387048665258" lon="7.518439044237713"><ele>743.5</ele><time>2026-05-02T08:47:31.737Z</time></trkpt><trkpt lat="44.263922823682734" lon="7.51825935228616"><ele>740.75</ele><time>2026-05-02T08:47:32.737Z</time></trkpt><trkpt lat="44.26397559281865" lon="7.518105217427893"><ele>738.0</ele><time>2026-05-02T08:47:33.737Z</time></trkpt><trkpt lat="44.26404959691104" lon="7.51799755942323"><ele>738.0</ele><time>2026-05-02T08:47:34.737Z</time></trkpt><trkpt lat="44.26413526297846" lon="7.517933893221227"><ele>738.0</ele><time>2026-05-02T08:47:35.737Z</time></trkpt><trkpt lat="44.264252255926394" lon="7.517914054008459"><ele>738.0</ele><time>2026-05-02T08:47:36.737Z</time></trkpt><trkpt lat="44.264380546332816" lon="7.5179705693167955"><ele>738.0</ele><time>2026-05-02T08:47:37.737Z</time></trkpt><trkpt lat="44.264505405620966" lon="7.518052071490278"><ele>738.0</ele><time>2026-05-02T08:47:38.737Z</time></trkpt><trkpt lat="44.26464332950555" lon="7.518097735337136"><ele>738.0</ele><time>2026-05-02T08:47:39.737Z</time></trkpt><trkpt lat="44.26479675234093" lon="7.518151053662374"><ele>738.0</ele><time>2026-05-02T08:47:40.736Z</time></trkpt><trkpt lat="44.264952012940256" lon="7.518185886460843"><ele>737.3333333333334</ele><time>2026-05-02T08:47:41.736Z</time></trkpt><trkpt lat="44.265113304448235" lon="7.51822342910829"><ele>736.6666666666667</ele><time>2026-05-02T08:47:42.736Z</time></trkpt><trkpt lat="44.26528858728732" lon="7.518280362020173"><ele>736.0</ele><time>2026-05-02T08:47:43.736Z</time></trkpt><trkpt lat="44.26546427806096" lon="7.518319650389603"><ele>736.3333333333334</ele><time>2026-05-02T08:47:44.736Z</time></trkpt><trkpt lat="44.26563385137187" lon="7.518362573818967"><ele>736.6666666666666</ele><time>2026-05-02T08:47:45.736Z</time></trkpt><trkpt lat="44.26581004591829" lon="7.5184092703447325"><ele>737.0</ele><time>2026-05-02T08:47:46.736Z</time></trkpt><trkpt lat="44.26599445021988" lon="7.518455675062716"><ele>737.0</ele><time>2026-05-02T08:47:47.736Z</time></trkpt><trkpt lat="44.26617345552067" lon="7.518498860314768"><ele>737.0</ele><time>2026-05-02T08:47:48.736Z</time></trkpt><trkpt lat="44.26636626218126" lon="7.518545787647661"><ele>737.0</ele><time>2026-05-02T08:47:49.736Z</time></trkpt><trkpt lat="44.2665543954602" lon="7.518591106470091"><ele>737.6666666666666</ele><time>2026-05-02T08:47:50.736Z</time></trkpt><trkpt lat="44.26674505760818" lon="7.51864733608939"><ele>738.3333333333334</ele><time>2026-05-02T08:47:51.736Z</time></trkpt><trkpt lat="44.26694242131338" lon="7.518698493828248"><ele>739.0</ele><time>2026-05-02T08:47:52.736Z</time></trkpt><trkpt lat="44.267133237737355" lon="7.518736296891119"><ele>735.3333333333334</ele><time>2026-05-02T08:47:53.736Z</time></trkpt><trkpt lat="44.26733037585391" lon="7.518766926081137"><ele>731.6666666666666</ele><time>2026-05-02T08:47:54.736Z</time></trkpt><trkpt lat="44.2675312499359" lon="7.518791033817931"><ele>728.0</ele><time>2026-05-02T08:47:55.736Z</time></trkpt><trkpt lat="44.26772368702742" lon="7.518815822489391"><ele>728.0</ele><time>2026-05-02T08:47:56.736Z</time></trkpt><trkpt lat="44.26791697900553" lon="7.518825751298887"><ele>728.0</ele><time>2026-05-02T08:47:57.736Z</time></trkpt><trkpt lat="44.268113432885556" lon="7.5188510000077"><ele>728.0</ele><time>2026-05-02T08:47:58.736Z</time></trkpt><trkpt lat="44.268299916982066" lon="7.518859312018226"><ele>727.3333333333333</ele><time>2026-05-02T08:47:59.736Z</time></trkpt><trkpt lat="44.26850057268837" lon="7.518884627017182"><ele>726.6666666666666</ele><time>2026-05-02T08:48:00.736Z</time></trkpt><trkpt lat="44.268695411999914" lon="7.518893913248582"><ele>726.0</ele><time>2026-05-02T08:48:01.736Z</time></trkpt><trkpt lat="44.26888120714896" lon="7.518895647952446"><ele>726.0</ele><time>2026-05-02T08:48:02.736Z</time></trkpt><trkpt lat="44.269076630944426" lon="7.518910905266075"><ele>726.0</ele><time>2026-05-02T08:48:03.736Z</time></trkpt><trkpt lat="44.26926818948597" lon="7.518928202121363"><ele>726.0</ele><time>2026-05-02T08:48:04.735Z</time></trkpt><trkpt lat="44.26945299109955" lon="7.518939714550337"><ele>726.0</ele><time>2026-05-02T08:48:05.735Z</time></trkpt><trkpt lat="44.2696355506675" lon="7.518939343085848"><ele>726.0</ele><time>2026-05-02T08:48:06.735Z</time></trkpt><trkpt lat="44.26982324850951" lon="7.518942672197259"><ele>726.0</ele><time>2026-05-02T08:48:07.735Z</time></trkpt><trkpt lat="44.27000503882814" lon="7.518952293524917"><ele>725.3333333333334</ele><time>2026-05-02T08:48:08.735Z</time></trkpt><trkpt lat="44.27018846772085" lon="7.518968270325126"><ele>724.6666666666667</ele><time>2026-05-02T08:48:09.735Z</time></trkpt><trkpt lat="44.27037122345196" lon="7.518983242330035"><ele>724.0</ele><time>2026-05-02T08:48:10.735Z</time></trkpt><trkpt lat="44.27055731398317" lon="7.51899578301069"><ele>723.3333333333334</ele><time>2026-05-02T08:48:11.735Z</time></trkpt><trkpt lat="44.270740858857906" lon="7.519005952825311"><ele>722.6666666666666</ele><time>2026-05-02T08:48:12.735Z</time></trkpt><trkpt lat="44.27092477647031" lon="7.519017410855347"><ele>722.0</ele><time>2026-05-02T08:48:13.735Z</time></trkpt><trkpt lat="44.271109467946495" lon="7.519024792369063"><ele>722.0</ele><time>2026-05-02T08:48:14.735Z</time></trkpt><trkpt lat="44.271297803011805" lon="7.5190314996310885"><ele>722.0</ele><time>2026-05-02T08:48:15.735Z</time></trkpt><trkpt lat="44.2714824728411" lon="7.519044046874253"><ele>722.0</ele><time>2026-05-02T08:48:16.735Z</time></trkpt><trkpt lat="44.27166811605485" lon="7.519057602634775"><ele>721.0</ele><time>2026-05-02T08:48:17.735Z</time></trkpt><trkpt lat="44.27184951970962" lon="7.519071021983414"><ele>720.0</ele><time>2026-05-02T08:48:18.735Z</time></trkpt><trkpt lat="44.27202817210936" lon="7.519085139857623"><ele>719.0</ele><time>2026-05-02T08:48:19.735Z</time></trkpt><trkpt lat="44.27221260498016" lon="7.5190969491637505"><ele>717.3333333333333</ele><time>2026-05-02T08:48:20.735Z</time></trkpt><trkpt lat="44.27239383823525" lon="7.519102557008204"><ele>715.6666666666666</ele><time>2026-05-02T08:48:21.735Z</time></trkpt><trkpt lat="44.272581929227165" lon="7.51910934121971"><ele>714.0</ele><time>2026-05-02T08:48:22.735Z</time></trkpt><trkpt lat="44.272765611048946" lon="7.51911817637223"><ele>714.0</ele><time>2026-05-02T08:48:23.735Z</time></trkpt><trkpt lat="44.272951188018475" lon="7.519117472690701"><ele>714.0</ele><time>2026-05-02T08:48:24.735Z</time></trkpt><trkpt lat="44.27313699925488" lon="7.519138836452845"><ele>714.0</ele><time>2026-05-02T08:48:25.735Z</time></trkpt><trkpt lat="44.2733295715391" lon="7.519155433944854"><ele>715.3333333333334</ele><time>2026-05-02T08:48:26.735Z</time></trkpt><trkpt lat="44.2735107945372" lon="7.51916854981426"><ele>716.6666666666667</ele><time>2026-05-02T08:48:27.735Z</time></trkpt><trkpt lat="44.273691334493456" lon="7.519166787748468"><ele>718.0</ele><time>2026-05-02T08:48:28.735Z</time></trkpt><trkpt lat="44.27388127755381" lon="7.519153088300285"><ele>717.0</ele><time>2026-05-02T08:48:29.734Z</time></trkpt><trkpt lat="44.27406832447555" lon="7.519135950238499"><ele>716.0</ele><time>2026-05-02T08:48:30.734Z</time></trkpt><trkpt lat="44.27425870249843" lon="7.51910227876401"><ele>715.0</ele><time>2026-05-02T08:48:31.734Z</time></trkpt><trkpt lat="44.274442068301106" lon="7.519063612305162"><ele>715.0</ele><time>2026-05-02T08:48:32.734Z</time></trkpt><trkpt lat="44.27462262043111" lon="7.519014720464657"><ele>715.0</ele><time>2026-05-02T08:48:33.734Z</time></trkpt><trkpt lat="44.274808360021844" lon="7.518955168170065"><ele>715.0</ele><time>2026-05-02T08:48:34.734Z</time></trkpt><trkpt lat="44.27498940464087" lon="7.51888365934071"><ele>714.6666666666667</ele><time>2026-05-02T08:48:35.734Z</time></trkpt><trkpt lat="44.275161325540694" lon="7.518812971621147"><ele>714.3333333333334</ele><time>2026-05-02T08:48:36.734Z</time></trkpt><trkpt lat="44.275340947584596" lon="7.518731363538527"><ele>714.0</ele><time>2026-05-02T08:48:37.734Z</time></trkpt><trkpt lat="44.275520718617436" lon="7.518660741685321"><ele>713.3333333333334</ele><time>2026-05-02T08:48:38.734Z</time></trkpt><trkpt lat="44.27569323473889" lon="7.518578380127317"><ele>712.6666666666667</ele><time>2026-05-02T08:48:39.734Z</time></trkpt><trkpt lat="44.27586493599134" lon="7.518505638967965"><ele>712.0</ele><time>2026-05-02T08:48:40.734Z</time></trkpt><trkpt lat="44.276040135255315" lon="7.518433622415622"><ele>712.0</ele><time>2026-05-02T08:48:41.734Z</time></trkpt><trkpt lat="44.276217808762794" lon="7.518366912616486"><ele>712.0</ele><time>2026-05-02T08:48:42.734Z</time></trkpt><trkpt lat="44.27639360957312" lon="7.518300686010319"><ele>712.0</ele><time>2026-05-02T08:48:43.734Z</time></trkpt><trkpt lat="44.27657005077735" lon="7.518223747974929"><ele>711.6666666666667</ele><time>2026-05-02T08:48:44.734Z</time></trkpt><trkpt lat="44.276747307337715" lon="7.518149817531551"><ele>711.3333333333334</ele><time>2026-05-02T08:48:45.734Z</time></trkpt><trkpt lat="44.27692281334168" lon="7.518082881561214"><ele>711.0</ele><time>2026-05-02T08:48:46.734Z</time></trkpt><trkpt lat="44.277094652680915" lon="7.518025782616582"><ele>711.0</ele><time>2026-05-02T08:48:47.734Z</time></trkpt><trkpt lat="44.27726694932667" lon="7.517971952230619"><ele>711.0</ele><time>2026-05-02T08:48:48.734Z</time></trkpt><trkpt lat="44.277446272970636" lon="7.517923329865735"><ele>711.0</ele><time>2026-05-02T08:48:49.734Z</time></trkpt><trkpt lat="44.27762525704163" lon="7.5178858029252"><ele>710.6666666666666</ele><time>2026-05-02T08:48:50.734Z</time></trkpt><trkpt lat="44.27780625353643" lon="7.517846612892305"><ele>710.3333333333333</ele><time>2026-05-02T08:48:51.734Z</time></trkpt><trkpt lat="44.27798594213004" lon="7.51781722883715"><ele>710.0</ele><time>2026-05-02T08:48:52.734Z</time></trkpt><trkpt lat="44.27816496026184" lon="7.517784630002679"><ele>709.3333333333333</ele><time>2026-05-02T08:48:53.733Z</time></trkpt><trkpt lat="44.27835032726398" lon="7.517765028517387"><ele>708.6666666666666</ele><time>2026-05-02T08:48:54.733Z</time></trkpt><trkpt lat="44.27853385089826" lon="7.517743579101959"><ele>708.0</ele><time>2026-05-02T08:48:55.733Z</time></trkpt><trkpt lat="44.27872118924554" lon="7.517708884837411"><ele>708.0</ele><time>2026-05-02T08:48:56.733Z</time></trkpt><trkpt lat="44.27890598976907" lon="7.517689325115546"><ele>708.0</ele><time>2026-05-02T08:48:57.733Z</time></trkpt><trkpt lat="44.27909479331341" lon="7.5176750339774285"><ele>708.0</ele><time>2026-05-02T08:48:58.736Z</time></trkpt><trkpt lat="44.27926933768049" lon="7.517652139172072"><ele>706.3333333333334</ele><time>2026-05-02T08:48:59.735Z</time></trkpt><trkpt lat="44.27945016760125" lon="7.5176401384796305"><ele>704.6666666666667</ele><time>2026-05-02T08:49:00.735Z</time></trkpt><trkpt lat="44.27962835176333" lon="7.51761923670644"><ele>703.0</ele><time>2026-05-02T08:49:01.735Z</time></trkpt><trkpt lat="44.27980707054067" lon="7.517607347733596"><ele>702.6666666666667</ele><time>2026-05-02T08:49:02.735Z</time></trkpt><trkpt lat="44.27999501862476" lon="7.517588137726386"><ele>702.3333333333334</ele><time>2026-05-02T08:49:03.735Z</time></trkpt><trkpt lat="44.280180114035446" lon="7.517563825842687"><ele>702.0</ele><time>2026-05-02T08:49:04.736Z</time></trkpt><trkpt lat="44.28036869233014" lon="7.5175476716164615"><ele>702.0</ele><time>2026-05-02T08:49:05.736Z</time></trkpt><trkpt lat="44.28054743079224" lon="7.51752379394632"><ele>702.0</ele><time>2026-05-02T08:49:06.736Z</time></trkpt><trkpt lat="44.28073672257845" lon="7.517500649062763"><ele>702.0</ele><time>2026-05-02T08:49:07.736Z</time></trkpt><trkpt lat="44.280917003956596" lon="7.517478505992267"><ele>701.3333333333334</ele><time>2026-05-02T08:49:08.735Z</time></trkpt><trkpt lat="44.28109567882665" lon="7.517465410992878"><ele>700.6666666666667</ele><time>2026-05-02T08:49:09.735Z</time></trkpt><trkpt lat="44.281277343102474" lon="7.5174712714020675"><ele>700.0</ele><time>2026-05-02T08:49:10.735Z</time></trkpt><trkpt lat="44.281454181807106" lon="7.517477920054859"><ele>699.6666666666667</ele><time>2026-05-02T08:49:11.736Z</time></trkpt><trkpt lat="44.28163304089191" lon="7.517504942757352"><ele>699.3333333333334</ele><time>2026-05-02T08:49:12.736Z</time></trkpt><trkpt lat="44.28181513168633" lon="7.5175462454478135"><ele>699.0</ele><time>2026-05-02T08:49:13.735Z</time></trkpt><trkpt lat="44.281978302883665" lon="7.517615762973881"><ele>699.0</ele><time>2026-05-02T08:49:14.735Z</time></trkpt><trkpt lat="44.2821546020288" lon="7.5176741018175886"><ele>699.0</ele><time>2026-05-02T08:49:15.735Z</time></trkpt><trkpt lat="44.282324147904816" lon="7.517737556468606"><ele>699.0</ele><time>2026-05-02T08:49:16.735Z</time></trkpt><trkpt lat="44.28250052333522" lon="7.517791989524081"><ele>699.0</ele><time>2026-05-02T08:49:17.735Z</time></trkpt><trkpt lat="44.2826788604768" lon="7.517887764376733"><ele>699.0</ele><time>2026-05-02T08:49:18.735Z</time></trkpt><trkpt lat="44.28284040541042" lon="7.517985608593221"><ele>699.0</ele><time>2026-05-02T08:49:19.735Z</time></trkpt><trkpt lat="44.283009341928434" lon="7.518091747201779"><ele>698.3333333333334</ele><time>2026-05-02T08:49:20.735Z</time></trkpt><trkpt lat="44.283174341013584" lon="7.518197803676641"><ele>697.6666666666667</ele><time>2026-05-02T08:49:21.735Z</time></trkpt><trkpt lat="44.283346656050064" lon="7.518305379060882"><ele>697.0</ele><time>2026-05-02T08:49:22.735Z</time></trkpt><trkpt lat="44.283520490252634" lon="7.518406949149071"><ele>697.0</ele><time>2026-05-02T08:49:23.735Z</time></trkpt><trkpt lat="44.28369122875999" lon="7.518508938497471"><ele>697.0</ele><time>2026-05-02T08:49:24.735Z</time></trkpt><trkpt lat="44.28386458086879" lon="7.518609459773112"><ele>697.0</ele><time>2026-05-02T08:49:25.735Z</time></trkpt><trkpt lat="44.28403911139466" lon="7.518703171735364"><ele>699.3333333333334</ele><time>2026-05-02T08:49:26.735Z</time></trkpt><trkpt lat="44.28421193757105" lon="7.518790805593548"><ele>701.6666666666666</ele><time>2026-05-02T08:49:27.735Z</time></trkpt><trkpt lat="44.2843938349147" lon="7.518876809143908"><ele>704.0</ele><time>2026-05-02T08:49:28.735Z</time></trkpt><trkpt lat="44.284575395729895" lon="7.518947691627354"><ele>702.6666666666666</ele><time>2026-05-02T08:49:29.735Z</time></trkpt><trkpt lat="44.28476570784285" lon="7.519019888139181"><ele>701.3333333333334</ele><time>2026-05-02T08:49:30.735Z</time></trkpt><trkpt lat="44.284959378304414" lon="7.519081407603917"><ele>700.0</ele><time>2026-05-02T08:49:31.735Z</time></trkpt><trkpt lat="44.28514242758191" lon="7.519135337721243"><ele>700.0</ele><time>2026-05-02T08:49:32.735Z</time></trkpt><trkpt lat="44.28532587741325" lon="7.519190250573665"><ele>700.0</ele><time>2026-05-02T08:49:33.735Z</time></trkpt><trkpt lat="44.28551344277659" lon="7.519233430635345"><ele>700.0</ele><time>2026-05-02T08:49:34.735Z</time></trkpt><trkpt lat="44.28570683311338" lon="7.519267200081818"><ele>698.0</ele><time>2026-05-02T08:49:35.735Z</time></trkpt><trkpt lat="44.28589361750487" lon="7.519314140881303"><ele>696.0</ele><time>2026-05-02T08:49:36.735Z</time></trkpt><trkpt lat="44.28609170271618" lon="7.519350528474563"><ele>694.0</ele><time>2026-05-02T08:49:37.735Z</time></trkpt><trkpt lat="44.28628505569995" lon="7.519372785367727"><ele>692.3333333333334</ele><time>2026-05-02T08:49:38.734Z</time></trkpt><trkpt lat="44.28648431308994" lon="7.519393175857734"><ele>690.6666666666666</ele><time>2026-05-02T08:49:39.734Z</time></trkpt><trkpt lat="44.28667425035671" lon="7.519419442957624"><ele>689.0</ele><time>2026-05-02T08:49:40.734Z</time></trkpt><trkpt lat="44.28686620745612" lon="7.519436645640887"><ele>689.0</ele><time>2026-05-02T08:49:41.734Z</time></trkpt><trkpt lat="44.28705833996238" lon="7.519428130871339"><ele>689.0</ele><time>2026-05-02T08:49:42.734Z</time></trkpt><trkpt lat="44.287253572776144" lon="7.51942477023961"><ele>689.0</ele><time>2026-05-02T08:49:43.734Z</time></trkpt><trkpt lat="44.2874556597034" lon="7.519428481214375"><ele>689.0</ele><time>2026-05-02T08:49:44.734Z</time></trkpt><trkpt lat="44.28765537460847" lon="7.519416254330819"><ele>689.0</ele><time>2026-05-02T08:49:45.734Z</time></trkpt><trkpt lat="44.28784189176228" lon="7.519401258285886"><ele>689.0</ele><time>2026-05-02T08:49:46.734Z</time></trkpt><trkpt lat="44.288032561480854" lon="7.519363243601897"><ele>688.6666666666666</ele><time>2026-05-02T08:49:47.734Z</time></trkpt><trkpt lat="44.288232553556455" lon="7.519340169055635"><ele>688.3333333333334</ele><time>2026-05-02T08:49:48.734Z</time></trkpt><trkpt lat="44.2884297945495" lon="7.519287046318522"><ele>688.0</ele><time>2026-05-02T08:49:49.734Z</time></trkpt><trkpt lat="44.28861766996917" lon="7.519240437242832"><ele>688.0</ele><time>2026-05-02T08:49:50.734Z</time></trkpt><trkpt lat="44.2888065529585" lon="7.5192042723112005"><ele>688.0</ele><time>2026-05-02T08:49:51.734Z</time></trkpt><trkpt lat="44.288996008089924" lon="7.519147567796497"><ele>688.0</ele><time>2026-05-02T08:49:52.734Z</time></trkpt><trkpt lat="44.28918563475614" lon="7.5190789131225"><ele>690.0</ele><time>2026-05-02T08:49:53.734Z</time></trkpt><trkpt lat="44.28936970519569" lon="7.5190314547755825"><ele>692.0</ele><time>2026-05-02T08:49:54.734Z</time></trkpt><trkpt lat="44.28955765093984" lon="7.518982105576101"><ele>694.0</ele><time>2026-05-02T08:49:55.734Z</time></trkpt><trkpt lat="44.28973876084232" lon="7.518932305609165"><ele>694.0</ele><time>2026-05-02T08:49:56.734Z</time></trkpt><trkpt lat="44.28992963395562" lon="7.518881063135929"><ele>694.0</ele><time>2026-05-02T08:49:57.734Z</time></trkpt><trkpt lat="44.290106587254" lon="7.5188246442676805"><ele>694.0</ele><time>2026-05-02T08:49:58.734Z</time></trkpt><trkpt lat="44.290288232726866" lon="7.51876932965544"><ele>692.0</ele><time>2026-05-02T08:49:59.734Z</time></trkpt><trkpt lat="44.290467369412546" lon="7.518716105812791"><ele>690.0</ele><time>2026-05-02T08:50:00.734Z</time></trkpt><trkpt lat="44.29065229732655" lon="7.518653148993378"><ele>688.0</ele><time>2026-05-02T08:50:01.734Z</time></trkpt><trkpt lat="44.29082331900168" lon="7.5185819472731215"><ele>687.3333333333334</ele><time>2026-05-02T08:50:02.733Z</time></trkpt><trkpt lat="44.29100026358439" lon="7.518513674739908"><ele>686.6666666666666</ele><time>2026-05-02T08:50:03.733Z</time></trkpt><trkpt lat="44.29116942371453" lon="7.51843991062808"><ele>686.0</ele><time>2026-05-02T08:50:04.733Z</time></trkpt><trkpt lat="44.29134696619665" lon="7.518371956398392"><ele>685.0</ele><time>2026-05-02T08:50:05.733Z</time></trkpt><trkpt lat="44.29151742080216" lon="7.5183024214515175"><ele>684.0</ele><time>2026-05-02T08:50:06.733Z</time></trkpt><trkpt lat="44.291698583430566" lon="7.5182210383467645"><ele>683.0</ele><time>2026-05-02T08:50:07.733Z</time></trkpt><trkpt lat="44.29188535473344" lon="7.518142180918182"><ele>683.0</ele><time>2026-05-02T08:50:08.733Z</time></trkpt><trkpt lat="44.29206254193345" lon="7.518059200956183"><ele>683.0</ele><time>2026-05-02T08:50:09.733Z</time></trkpt><trkpt lat="44.29224165506634" lon="7.517976405582669"><ele>683.0</ele><time>2026-05-02T08:50:10.733Z</time></trkpt><trkpt lat="44.29241657434765" lon="7.517878529087348"><ele>681.6666666666666</ele><time>2026-05-02T08:50:11.733Z</time></trkpt><trkpt lat="44.292598221280336" lon="7.517794721570249"><ele>680.3333333333334</ele><time>2026-05-02T08:50:12.733Z</time></trkpt><trkpt lat="44.29278860500998" lon="7.517696205654454"><ele>679.0</ele><time>2026-05-02T08:50:13.733Z</time></trkpt><trkpt lat="44.292972976904245" lon="7.517586393746455"><ele>679.6666666666667</ele><time>2026-05-02T08:50:14.733Z</time></trkpt><trkpt lat="44.2931554199321" lon="7.517477953617919"><ele>680.3333333333334</ele><time>2026-05-02T08:50:15.733Z</time></trkpt><trkpt lat="44.293340272856184" lon="7.517391676377113"><ele>681.0</ele><time>2026-05-02T08:50:16.733Z</time></trkpt><trkpt lat="44.293529069853165" lon="7.517272613611443"><ele>681.0</ele><time>2026-05-02T08:50:17.733Z</time></trkpt><trkpt lat="44.29372454472586" lon="7.517179216822628"><ele>681.0</ele><time>2026-05-02T08:50:18.733Z</time></trkpt><trkpt lat="44.29391032245409" lon="7.517065298435572"><ele>681.0</ele><time>2026-05-02T08:50:19.733Z</time></trkpt><trkpt lat="44.29410164982594" lon="7.516948532428661"><ele>680.3333333333334</ele><time>2026-05-02T08:50:20.733Z</time></trkpt><trkpt lat="44.29428389989616" lon="7.516844824319037"><ele>679.6666666666667</ele><time>2026-05-02T08:50:21.733Z</time></trkpt><trkpt lat="44.29446875527726" lon="7.516734002390146"><ele>679.0</ele><time>2026-05-02T08:50:22.733Z</time></trkpt><trkpt lat="44.29465706741239" lon="7.516634813929308"><ele>678.3333333333334</ele><time>2026-05-02T08:50:23.733Z</time></trkpt><trkpt lat="44.29484091840424" lon="7.51654639318442"><ele>677.6666666666666</ele><time>2026-05-02T08:50:24.733Z</time></trkpt><trkpt lat="44.29501516900665" lon="7.5164632229897155"><ele>677.0</ele><time>2026-05-02T08:50:25.733Z</time></trkpt><trkpt lat="44.295205591873454" lon="7.51639774195792"><ele>677.0</ele><time>2026-05-02T08:50:26.732Z</time></trkpt><trkpt lat="44.295393101190676" lon="7.516347273273917"><ele>677.0</ele><time>2026-05-02T08:50:27.732Z</time></trkpt><trkpt lat="44.29558387271053" lon="7.516311562714536"><ele>677.0</ele><time>2026-05-02T08:50:28.732Z</time></trkpt><trkpt lat="44.295770995667496" lon="7.516272811875443"><ele>676.3333333333333</ele><time>2026-05-02T08:50:29.732Z</time></trkpt><trkpt lat="44.295964399612814" lon="7.516230062901614"><ele>675.6666666666666</ele><time>2026-05-02T08:50:30.732Z</time></trkpt><trkpt lat="44.29615783576392" lon="7.516209180123483"><ele>675.0</ele><time>2026-05-02T08:50:31.732Z</time></trkpt><trkpt lat="44.29635593623147" lon="7.516214901917881"><ele>674.6666666666666</ele><time>2026-05-02T08:50:32.732Z</time></trkpt><trkpt lat="44.29655148540482" lon="7.516215188113598"><ele>674.3333333333333</ele><time>2026-05-02T08:50:33.732Z</time></trkpt><trkpt lat="44.296745015386634" lon="7.516230358402037"><ele>674.0</ele><time>2026-05-02T08:50:34.732Z</time></trkpt><trkpt lat="44.29694692226949" lon="7.51625604718993"><ele>674.3333333333333</ele><time>2026-05-02T08:50:35.732Z</time></trkpt><trkpt lat="44.297138047448406" lon="7.51627749096768"><ele>674.6666666666666</ele><time>2026-05-02T08:50:36.732Z</time></trkpt><trkpt lat="44.297328576609125" lon="7.516314789019108"><ele>675.0</ele><time>2026-05-02T08:50:37.732Z</time></trkpt><trkpt lat="44.2975188219339" lon="7.516366468129676"><ele>675.0</ele><time>2026-05-02T08:50:38.732Z</time></trkpt><trkpt lat="44.29770782980374" lon="7.516418740126199"><ele>675.0</ele><time>2026-05-02T08:50:39.732Z</time></trkpt><trkpt lat="44.29789976476837" lon="7.516464934942954"><ele>675.0</ele><time>2026-05-02T08:50:40.732Z</time></trkpt><trkpt lat="44.298102023890365" lon="7.516495498502934"><ele>674.6666666666666</ele><time>2026-05-02T08:50:41.732Z</time></trkpt><trkpt lat="44.29830607447095" lon="7.516514957180369"><ele>674.3333333333333</ele><time>2026-05-02T08:50:42.732Z</time></trkpt><trkpt lat="44.298519102814545" lon="7.5165185706066895"><ele>674.0</ele><time>2026-05-02T08:50:43.732Z</time></trkpt><trkpt lat="44.298727838067684" lon="7.516514256596812"><ele>674.0</ele><time>2026-05-02T08:50:44.732Z</time></trkpt><trkpt lat="44.29893486333291" lon="7.516507097929321"><ele>674.0</ele><time>2026-05-02T08:50:45.732Z</time></trkpt><trkpt lat="44.299140585026485" lon="7.516486146822644"><ele>674.0</ele><time>2026-05-02T08:50:46.732Z</time></trkpt><trkpt lat="44.299343270714274" lon="7.516460110590651"><ele>674.0</ele><time>2026-05-02T08:50:47.732Z</time></trkpt><trkpt lat="44.29955615691783" lon="7.516415320540205"><ele>674.0</ele><time>2026-05-02T08:50:48.732Z</time></trkpt><trkpt lat="44.29975400718166" lon="7.516375121202012"><ele>674.0</ele><time>2026-05-02T08:50:49.732Z</time></trkpt><trkpt lat="44.29996351830458" lon="7.516303958654774"><ele>672.6666666666666</ele><time>2026-05-02T08:50:50.732Z</time></trkpt><trkpt lat="44.30015071510863" lon="7.5162278676054"><ele>671.3333333333334</ele><time>2026-05-02T08:50:51.731Z</time></trkpt><trkpt lat="44.30034475295498" lon="7.516157537484566"><ele>670.0</ele><time>2026-05-02T08:50:52.731Z</time></trkpt><trkpt lat="44.30053397698252" lon="7.516077069689873"><ele>672.6666666666667</ele><time>2026-05-02T08:50:53.731Z</time></trkpt><trkpt lat="44.30071984524783" lon="7.515993667572306"><ele>675.3333333333334</ele><time>2026-05-02T08:50:54.731Z</time></trkpt><trkpt lat="44.3009016347984" lon="7.515898963016705"><ele>678.0</ele><time>2026-05-02T08:50:55.731Z</time></trkpt><trkpt lat="44.30108421700256" lon="7.515790652783235"><ele>678.0</ele><time>2026-05-02T08:50:56.731Z</time></trkpt><trkpt lat="44.30126546649592" lon="7.515663107667335"><ele>678.0</ele><time>2026-05-02T08:50:57.731Z</time></trkpt><trkpt lat="44.30143932294419" lon="7.515538737208173"><ele>678.0</ele><time>2026-05-02T08:50:58.731Z</time></trkpt><trkpt lat="44.30161630516512" lon="7.515403068936845"><ele>676.0</ele><time>2026-05-02T08:50:59.731Z</time></trkpt><trkpt lat="44.30178402911992" lon="7.515246511712423"><ele>674.0</ele><time>2026-05-02T08:51:00.731Z</time></trkpt><trkpt lat="44.301950251511684" lon="7.5150845741241294"><ele>672.0</ele><time>2026-05-02T08:51:01.731Z</time></trkpt><trkpt lat="44.30211396669481" lon="7.514916845270985"><ele>670.3333333333334</ele><time>2026-05-02T08:51:02.731Z</time></trkpt><trkpt lat="44.3022757037454" lon="7.514747723149081"><ele>668.6666666666667</ele><time>2026-05-02T08:51:03.731Z</time></trkpt><trkpt lat="44.30243245071082" lon="7.514572067637634"><ele>667.0</ele><time>2026-05-02T08:51:04.733Z</time></trkpt><trkpt lat="44.30258541965554" lon="7.514395897866749"><ele>667.0</ele><time>2026-05-02T08:51:05.733Z</time></trkpt><trkpt lat="44.30272715537458" lon="7.514200856341278"><ele>667.0</ele><time>2026-05-02T08:51:06.733Z</time></trkpt><trkpt lat="44.302872476403394" lon="7.514005978567704"><ele>667.0</ele><time>2026-05-02T08:51:07.733Z</time></trkpt><trkpt lat="44.30301006397747" lon="7.513797065508843"><ele>668.0</ele><time>2026-05-02T08:51:08.733Z</time></trkpt><trkpt lat="44.303144047875776" lon="7.513586274315762"><ele>669.0</ele><time>2026-05-02T08:51:09.733Z</time></trkpt><trkpt lat="44.303269676534576" lon="7.513368759814163"><ele>670.0</ele><time>2026-05-02T08:51:10.733Z</time></trkpt><trkpt lat="44.30339483245246" lon="7.5131418121057445"><ele>667.6666666666667</ele><time>2026-05-02T08:51:11.733Z</time></trkpt><trkpt lat="44.30351482482067" lon="7.512894760698684"><ele>665.3333333333334</ele><time>2026-05-02T08:51:12.733Z</time></trkpt><trkpt lat="44.30363003652528" lon="7.512633862010179"><ele>663.0</ele><time>2026-05-02T08:51:13.733Z</time></trkpt><trkpt lat="44.30374748845254" lon="7.5123733367175065"><ele>663.0</ele><time>2026-05-02T08:51:14.733Z</time></trkpt><trkpt lat="44.30385584698676" lon="7.512124033044036"><ele>663.0</ele><time>2026-05-02T08:51:15.733Z</time></trkpt><trkpt lat="44.30397494365831" lon="7.511881271554"><ele>663.0</ele><time>2026-05-02T08:51:16.732Z</time></trkpt><trkpt lat="44.30409119745388" lon="7.511642844128695"><ele>662.6666666666666</ele><time>2026-05-02T08:51:17.732Z</time></trkpt><trkpt lat="44.30420878438444" lon="7.511404905447504"><ele>662.3333333333333</ele><time>2026-05-02T08:51:18.732Z</time></trkpt><trkpt lat="44.304329032016064" lon="7.511169244493058"><ele>662.0</ele><time>2026-05-02T08:51:19.732Z</time></trkpt><trkpt lat="44.30445587097709" lon="7.510936953476425"><ele>662.0</ele><time>2026-05-02T08:51:20.732Z</time></trkpt><trkpt lat="44.30458983092294" lon="7.510713869994232"><ele>662.0</ele><time>2026-05-02T08:51:21.732Z</time></trkpt><trkpt lat="44.30473066775925" lon="7.510495209144849"><ele>662.0</ele><time>2026-05-02T08:51:22.732Z</time></trkpt><trkpt lat="44.30487577881004" lon="7.510266085492995"><ele>662.0</ele><time>2026-05-02T08:51:23.732Z</time></trkpt><trkpt lat="44.305018134569984" lon="7.510048730245981"><ele>662.0</ele><time>2026-05-02T08:51:24.732Z</time></trkpt><trkpt lat="44.30517220562931" lon="7.5098420787674325"><ele>662.0</ele><time>2026-05-02T08:51:25.732Z</time></trkpt><trkpt lat="44.30531012717406" lon="7.509633331627613"><ele>661.3333333333333</ele><time>2026-05-02T08:51:26.732Z</time></trkpt><trkpt lat="44.30544969504037" lon="7.509430644643065"><ele>660.6666666666666</ele><time>2026-05-02T08:51:27.732Z</time></trkpt><trkpt lat="44.30558607410567" lon="7.509231728645861"><ele>660.0</ele><time>2026-05-02T08:51:28.732Z</time></trkpt><trkpt lat="44.30572584588523" lon="7.509036354787477"><ele>660.0</ele><time>2026-05-02T08:51:29.732Z</time></trkpt><trkpt lat="44.305863516967015" lon="7.508829560002277"><ele>660.0</ele><time>2026-05-02T08:51:30.732Z</time></trkpt><trkpt lat="44.30600804677272" lon="7.50861115601199"><ele>660.0</ele><time>2026-05-02T08:51:31.732Z</time></trkpt><trkpt lat="44.30616513746269" lon="7.508422164704106"><ele>659.6666666666666</ele><time>2026-05-02T08:51:32.732Z</time></trkpt><trkpt lat="44.30630506117131" lon="7.508202132685066"><ele>659.3333333333333</ele><time>2026-05-02T08:51:33.732Z</time></trkpt><trkpt lat="44.30645383879808" lon="7.507986049352866"><ele>659.0</ele><time>2026-05-02T08:51:34.732Z</time></trkpt><trkpt lat="44.30661194058098" lon="7.507781049003275"><ele>659.0</ele><time>2026-05-02T08:51:35.732Z</time></trkpt><trkpt lat="44.30675887052395" lon="7.507583628062226"><ele>659.0</ele><time>2026-05-02T08:51:36.732Z</time></trkpt><trkpt lat="44.306910478550854" lon="7.507377286163639"><ele>659.0</ele><time>2026-05-02T08:51:37.732Z</time></trkpt><trkpt lat="44.307037598890425" lon="7.507146080847507"><ele>658.0</ele><time>2026-05-02T08:51:38.732Z</time></trkpt><trkpt lat="44.30717953249108" lon="7.506934083039846"><ele>657.0</ele><time>2026-05-02T08:51:39.731Z</time></trkpt><trkpt lat="44.3073222200811" lon="7.506727596836343"><ele>656.0</ele><time>2026-05-02T08:51:40.731Z</time></trkpt><trkpt lat="44.30745792343043" lon="7.506525228190321"><ele>656.0</ele><time>2026-05-02T08:51:41.731Z</time></trkpt><trkpt lat="44.307596736005905" lon="7.50631203860264"><ele>656.0</ele><time>2026-05-02T08:51:42.731Z</time></trkpt><trkpt lat="44.30773140485474" lon="7.506099292667172"><ele>656.0</ele><time>2026-05-02T08:51:43.731Z</time></trkpt><trkpt lat="44.30786519833561" lon="7.505878490145928"><ele>654.6666666666666</ele><time>2026-05-02T08:51:44.731Z</time></trkpt><trkpt lat="44.30798782680834" lon="7.505634670256307"><ele>653.3333333333334</ele><time>2026-05-02T08:51:45.731Z</time></trkpt><trkpt lat="44.308110950125375" lon="7.505403580735379"><ele>652.0</ele><time>2026-05-02T08:51:46.731Z</time></trkpt><trkpt lat="44.30823730236703" lon="7.5051573482421015"><ele>651.3333333333334</ele><time>2026-05-02T08:51:47.731Z</time></trkpt><trkpt lat="44.30835937753595" lon="7.504909674633924"><ele>650.6666666666666</ele><time>2026-05-02T08:51:48.731Z</time></trkpt><trkpt lat="44.30847164446462" lon="7.504671758398127"><ele>650.0</ele><time>2026-05-02T08:51:49.731Z</time></trkpt><trkpt lat="44.30858469447175" lon="7.50442694113231"><ele>650.0</ele><time>2026-05-02T08:51:50.731Z</time></trkpt><trkpt lat="44.30868266552408" lon="7.504163555384609"><ele>650.0</ele><time>2026-05-02T08:51:51.731Z</time></trkpt><trkpt lat="44.308780461329484" lon="7.503908941790567"><ele>650.0</ele><time>2026-05-02T08:51:52.731Z</time></trkpt><trkpt lat="44.30887744402178" lon="7.503661107641655"><ele>649.6666666666666</ele><time>2026-05-02T08:51:53.731Z</time></trkpt><trkpt lat="44.30896125020059" lon="7.503406480940924"><ele>649.3333333333334</ele><time>2026-05-02T08:51:54.731Z</time></trkpt><trkpt lat="44.3090436186293" lon="7.503139126968623"><ele>649.0</ele><time>2026-05-02T08:51:55.731Z</time></trkpt><trkpt lat="44.30912380381943" lon="7.502883559260457"><ele>649.0</ele><time>2026-05-02T08:51:56.731Z</time></trkpt><trkpt lat="44.309198387499514" lon="7.502630664537783"><ele>649.0</ele><time>2026-05-02T08:51:57.731Z</time></trkpt><trkpt lat="44.309271674600964" lon="7.5023582601107925"><ele>649.0</ele><time>2026-05-02T08:51:58.731Z</time></trkpt><trkpt lat="44.30934014441825" lon="7.502084280055478"><ele>648.6666666666667</ele><time>2026-05-02T08:51:59.731Z</time></trkpt><trkpt lat="44.30940385145375" lon="7.5018248365315285"><ele>648.3333333333334</ele><time>2026-05-02T08:52:00.731Z</time></trkpt><trkpt lat="44.309460482012575" lon="7.501561901304326"><ele>648.0</ele><time>2026-05-02T08:52:01.731Z</time></trkpt><trkpt lat="44.30951343534232" lon="7.501295554811636"><ele>647.3333333333334</ele><time>2026-05-02T08:52:02.731Z</time></trkpt><trkpt lat="44.309566587346396" lon="7.501039032272164"><ele>646.6666666666667</ele><time>2026-05-02T08:52:03.731Z</time></trkpt><trkpt lat="44.30960435772704" lon="7.500783687869727"><ele>646.0</ele><time>2026-05-02T08:52:04.73Z</time></trkpt><trkpt lat="44.30964108391805" lon="7.500510576215248"><ele>645.3333333333334</ele><time>2026-05-02T08:52:05.73Z</time></trkpt><trkpt lat="44.30968115182891" lon="7.50024926857122"><ele>644.6666666666666</ele><time>2026-05-02T08:52:06.73Z</time></trkpt><trkpt lat="44.30972607830248" lon="7.4999721419069845"><ele>644.0</ele><time>2026-05-02T08:52:07.73Z</time></trkpt><trkpt lat="44.30977418423122" lon="7.499715873588762"><ele>644.0</ele><time>2026-05-02T08:52:08.73Z</time></trkpt><trkpt lat="44.30982892465213" lon="7.4994526536788655"><ele>644.0</ele><time>2026-05-02T08:52:09.73Z</time></trkpt><trkpt lat="44.30989410444737" lon="7.499188941468658"><ele>644.0</ele><time>2026-05-02T08:52:10.73Z</time></trkpt><trkpt lat="44.309959410041344" lon="7.498917639152731"><ele>644.6666666666666</ele><time>2026-05-02T08:52:11.73Z</time></trkpt><trkpt lat="44.3100249504779" lon="7.4986576667286995"><ele>645.3333333333334</ele><time>2026-05-02T08:52:12.73Z</time></trkpt><trkpt lat="44.31008663642204" lon="7.498397044349807"><ele>646.0</ele><time>2026-05-02T08:52:13.73Z</time></trkpt><trkpt lat="44.31015719165876" lon="7.498135707162687"><ele>645.3333333333334</ele><time>2026-05-02T08:52:14.73Z</time></trkpt><trkpt lat="44.31024054005902" lon="7.497881613568885"><ele>644.6666666666666</ele><time>2026-05-02T08:52:15.73Z</time></trkpt><trkpt lat="44.31033361625159" lon="7.4976178665405175"><ele>644.0</ele><time>2026-05-02T08:52:16.73Z</time></trkpt><trkpt lat="44.31042186062638" lon="7.497375418951915"><ele>644.0</ele><time>2026-05-02T08:52:17.73Z</time></trkpt><trkpt lat="44.31050978682862" lon="7.49713001684454"><ele>644.0</ele><time>2026-05-02T08:52:18.73Z</time></trkpt><trkpt lat="44.31060111313137" lon="7.4968797612035525"><ele>644.0</ele><time>2026-05-02T08:52:19.73Z</time></trkpt><trkpt lat="44.310694506423566" lon="7.496646234304957"><ele>644.0</ele><time>2026-05-02T08:52:20.73Z</time></trkpt><trkpt lat="44.31079988185507" lon="7.496427912925462"><ele>644.0</ele><time>2026-05-02T08:52:21.73Z</time></trkpt><trkpt lat="44.31088988563142" lon="7.496203661931894"><ele>644.0</ele><time>2026-05-02T08:52:22.73Z</time></trkpt><trkpt lat="44.31098686511257" lon="7.495978511528229"><ele>643.0</ele><time>2026-05-02T08:52:23.73Z</time></trkpt><trkpt lat="44.31107328593602" lon="7.495747688639131"><ele>642.0</ele><time>2026-05-02T08:52:24.73Z</time></trkpt><trkpt lat="44.311158683835274" lon="7.495525551499141"><ele>641.0</ele><time>2026-05-02T08:52:25.73Z</time></trkpt><trkpt lat="44.31125190406914" lon="7.495311925687709"><ele>640.0</ele><time>2026-05-02T08:52:26.73Z</time></trkpt><trkpt lat="44.31134244752835" lon="7.49510144133786"><ele>639.0</ele><time>2026-05-02T08:52:27.73Z</time></trkpt><trkpt lat="44.311437344928855" lon="7.494888613500259"><ele>638.0</ele><time>2026-05-02T08:52:28.729Z</time></trkpt><trkpt lat="44.311540066137276" lon="7.49466601666841"><ele>638.6666666666666</ele><time>2026-05-02T08:52:29.729Z</time></trkpt><trkpt lat="44.311631663014396" lon="7.4944605700349705"><ele>639.3333333333334</ele><time>2026-05-02T08:52:30.729Z</time></trkpt><trkpt lat="44.311720696573616" lon="7.49423218159531"><ele>640.0</ele><time>2026-05-02T08:52:31.729Z</time></trkpt><trkpt lat="44.311807489063845" lon="7.494009299205282"><ele>640.0</ele><time>2026-05-02T08:52:32.729Z</time></trkpt><trkpt lat="44.31190610668725" lon="7.493797096492412"><ele>640.0</ele><time>2026-05-02T08:52:33.729Z</time></trkpt><trkpt lat="44.31200061780762" lon="7.493567214619625"><ele>640.0</ele><time>2026-05-02T08:52:34.729Z</time></trkpt><trkpt lat="44.31209048073843" lon="7.493345018575152"><ele>639.3333333333334</ele><time>2026-05-02T08:52:35.729Z</time></trkpt><trkpt lat="44.312184799264095" lon="7.4931193402272465"><ele>638.6666666666666</ele><time>2026-05-02T08:52:36.729Z</time></trkpt><trkpt lat="44.31228245735223" lon="7.492896831473395"><ele>638.0</ele><time>2026-05-02T08:52:37.729Z</time></trkpt><trkpt lat="44.31237826020549" lon="7.4926702393965"><ele>637.75</ele><time>2026-05-02T08:52:38.729Z</time></trkpt><trkpt lat="44.312468383877054" lon="7.492471347789985"><ele>637.5</ele><time>2026-05-02T08:52:39.729Z</time></trkpt><trkpt lat="44.312549441311106" lon="7.492298250019068"><ele>637.25</ele><time>2026-05-02T08:52:40.729Z</time></trkpt><trkpt lat="44.312610479797144" lon="7.492162850832588"><ele>637.0</ele><time>2026-05-02T08:52:41.729Z</time></trkpt><trkpt lat="44.31266454382737" lon="7.492003506953992"><ele>636.25</ele><time>2026-05-02T08:52:42.729Z</time></trkpt><trkpt lat="44.312730908690824" lon="7.491837977187856"><ele>635.5</ele><time>2026-05-02T08:52:43.729Z</time></trkpt><trkpt lat="44.31280998002157" lon="7.4916626587173765"><ele>634.75</ele><time>2026-05-02T08:52:44.729Z</time></trkpt><trkpt lat="44.31289143935312" lon="7.491478416467629"><ele>634.0</ele><time>2026-05-02T08:52:45.729Z</time></trkpt><trkpt lat="44.31297356963582" lon="7.4912818540008255"><ele>634.3333333333334</ele><time>2026-05-02T08:52:46.729Z</time></trkpt><trkpt lat="44.313056264239734" lon="7.49108735082328"><ele>634.6666666666666</ele><time>2026-05-02T08:52:47.729Z</time></trkpt><trkpt lat="44.31313875359643" lon="7.490884208317166"><ele>635.0</ele><time>2026-05-02T08:52:48.729Z</time></trkpt><trkpt lat="44.313216004690524" lon="7.490697121022537"><ele>635.0</ele><time>2026-05-02T08:52:49.729Z</time></trkpt><trkpt lat="44.31330610442466" lon="7.490496582707946"><ele>635.0</ele><time>2026-05-02T08:52:50.729Z</time></trkpt><trkpt lat="44.31339798752115" lon="7.490284225274612"><ele>635.0</ele><time>2026-05-02T08:52:51.729Z</time></trkpt><trkpt lat="44.31348852248259" lon="7.49006406718761"><ele>635.0</ele><time>2026-05-02T08:52:52.728Z</time></trkpt><trkpt lat="44.313581793643294" lon="7.489850617421594"><ele>635.0</ele><time>2026-05-02T08:52:53.728Z</time></trkpt><trkpt lat="44.313690724783655" lon="7.489647319945258"><ele>635.0</ele><time>2026-05-02T08:52:54.728Z</time></trkpt><trkpt lat="44.313812193960516" lon="7.489454087847398"><ele>635.3333333333333</ele><time>2026-05-02T08:52:55.728Z</time></trkpt><trkpt lat="44.313936147438895" lon="7.489249655241613"><ele>635.6666666666666</ele><time>2026-05-02T08:52:56.728Z</time></trkpt><trkpt lat="44.3140796844708" lon="7.489069317978929"><ele>636.0</ele><time>2026-05-02T08:52:57.728Z</time></trkpt><trkpt lat="44.314208764398686" lon="7.488871229531977"><ele>635.3333333333334</ele><time>2026-05-02T08:52:58.728Z</time></trkpt><trkpt lat="44.31435273763403" lon="7.488706210828486"><ele>634.6666666666667</ele><time>2026-05-02T08:52:59.728Z</time></trkpt><trkpt lat="44.314503418659555" lon="7.488551828716027"><ele>634.0</ele><time>2026-05-02T08:53:00.728Z</time></trkpt><trkpt lat="44.31466152308218" lon="7.4884016898758725"><ele>632.6666666666667</ele><time>2026-05-02T08:53:01.728Z</time></trkpt><trkpt lat="44.31482770372461" lon="7.4882513840464995"><ele>631.3333333333334</ele><time>2026-05-02T08:53:02.728Z</time></trkpt><trkpt lat="44.31499506096442" lon="7.488118171861523"><ele>630.0</ele><time>2026-05-02T08:53:03.728Z</time></trkpt><trkpt lat="44.31517187818361" lon="7.488004158951858"><ele>631.0</ele><time>2026-05-02T08:53:04.728Z</time></trkpt><trkpt lat="44.31533590002332" lon="7.487895852677939"><ele>632.0</ele><time>2026-05-02T08:53:05.728Z</time></trkpt><trkpt lat="44.31548121278898" lon="7.487811274307244"><ele>633.0</ele><time>2026-05-02T08:53:06.728Z</time></trkpt><trkpt lat="44.31560096268058" lon="7.487749338383302"><ele>633.4</ele><time>2026-05-02T08:53:07.728Z</time></trkpt><trkpt lat="44.3157100451338" lon="7.487694397160186"><ele>633.8</ele><time>2026-05-02T08:53:08.728Z</time></trkpt><trkpt lat="44.3158058226247" lon="7.487673345089255"><ele>634.2</ele><time>2026-05-02T08:53:09.728Z</time></trkpt><trkpt lat="44.315900512778725" lon="7.487663646075777"><ele>634.6</ele><time>2026-05-02T08:53:10.731Z</time></trkpt><trkpt lat="44.315996349180296" lon="7.487705319740757"><ele>635.0</ele><time>2026-05-02T08:53:11.73Z</time></trkpt><trkpt lat="44.31607786372663" lon="7.4877827470438785"><ele>635.0</ele><time>2026-05-02T08:53:12.73Z</time></trkpt><trkpt lat="44.31616328610729" lon="7.487895387163718"><ele>635.0</ele><time>2026-05-02T08:53:13.73Z</time></trkpt><trkpt lat="44.31625397695481" lon="7.488003676009166"><ele>635.0</ele><time>2026-05-02T08:53:14.731Z</time></trkpt><trkpt lat="44.3163575759574" lon="7.488062791537378"><ele>635.0</ele><time>2026-05-02T08:53:15.731Z</time></trkpt><trkpt lat="44.31647763933511" lon="7.488074317968641"><ele>634.75</ele><time>2026-05-02T08:53:16.73Z</time></trkpt><trkpt lat="44.316596076975856" lon="7.488034878006529"><ele>634.5</ele><time>2026-05-02T08:53:17.729Z</time></trkpt><trkpt lat="44.316697387633354" lon="7.487984316011689"><ele>634.25</ele><time>2026-05-02T08:53:18.729Z</time></trkpt><trkpt lat="44.31679883746742" lon="7.487939002346932"><ele>634.0</ele><time>2026-05-02T08:53:19.73Z</time></trkpt><trkpt lat="44.31691787388265" lon="7.487938892271599"><ele>634.0</ele><time>2026-05-02T08:53:20.73Z</time></trkpt><trkpt lat="44.31704568928119" lon="7.48801397152887"><ele>634.0</ele><time>2026-05-02T08:53:21.73Z</time></trkpt><trkpt lat="44.317152326784836" lon="7.488132250705044"><ele>634.0</ele><time>2026-05-02T08:53:22.73Z</time></trkpt><trkpt lat="44.317266385892964" lon="7.488231769307507"><ele>634.0</ele><time>2026-05-02T08:53:23.73Z</time></trkpt><trkpt lat="44.3173889105824" lon="7.4883760174210945"><ele>633.0</ele><time>2026-05-02T08:53:24.73Z</time></trkpt><trkpt lat="44.31751444431858" lon="7.488538239556114"><ele>632.0</ele><time>2026-05-02T08:53:25.73Z</time></trkpt><trkpt lat="44.317642197403316" lon="7.488704492288246"><ele>631.0</ele><time>2026-05-02T08:53:26.73Z</time></trkpt><trkpt lat="44.317757577816494" lon="7.488881773389547"><ele>631.0</ele><time>2026-05-02T08:53:27.73Z</time></trkpt><trkpt lat="44.317886178132525" lon="7.489081893304422"><ele>631.0</ele><time>2026-05-02T08:53:28.73Z</time></trkpt><trkpt lat="44.31800965715431" lon="7.489286430690022"><ele>631.0</ele><time>2026-05-02T08:53:29.73Z</time></trkpt><trkpt lat="44.31812985873247" lon="7.489502738221897"><ele>630.3333333333334</ele><time>2026-05-02T08:53:30.73Z</time></trkpt><trkpt lat="44.31825893081344" lon="7.489725404263446"><ele>629.6666666666666</ele><time>2026-05-02T08:53:31.73Z</time></trkpt><trkpt lat="44.31838213386831" lon="7.489942520967728"><ele>629.0</ele><time>2026-05-02T08:53:32.73Z</time></trkpt><trkpt lat="44.31850968679523" lon="7.49017047842985"><ele>629.0</ele><time>2026-05-02T08:53:33.73Z</time></trkpt><trkpt lat="44.31863378015154" lon="7.490395213050254"><ele>629.0</ele><time>2026-05-02T08:53:34.73Z</time></trkpt><trkpt lat="44.31876544015933" lon="7.490621043572846"><ele>629.0</ele><time>2026-05-02T08:53:35.73Z</time></trkpt><trkpt lat="44.31888992146328" lon="7.490854920341804"><ele>630.0</ele><time>2026-05-02T08:53:36.73Z</time></trkpt><trkpt lat="44.31901275599717" lon="7.491080272092041"><ele>631.0</ele><time>2026-05-02T08:53:37.73Z</time></trkpt><trkpt lat="44.31914603849368" lon="7.491306258764885"><ele>632.0</ele><time>2026-05-02T08:53:38.73Z</time></trkpt><trkpt lat="44.31927094305436" lon="7.491526091523573"><ele>629.6666666666666</ele><time>2026-05-02T08:53:39.73Z</time></trkpt><trkpt lat="44.31939295449868" lon="7.491752302953252"><ele>627.3333333333334</ele><time>2026-05-02T08:53:40.729Z</time></trkpt><trkpt lat="44.319516141921056" lon="7.491984461149983"><ele>625.0</ele><time>2026-05-02T08:53:41.729Z</time></trkpt><trkpt lat="44.31964371841551" lon="7.492214726483387"><ele>626.0</ele><time>2026-05-02T08:53:42.729Z</time></trkpt><trkpt lat="44.31976758693438" lon="7.492448535280762"><ele>627.0</ele><time>2026-05-02T08:53:43.729Z</time></trkpt><trkpt lat="44.3198959622885" lon="7.492677383028372"><ele>628.0</ele><time>2026-05-02T08:53:44.729Z</time></trkpt><trkpt lat="44.32002918887725" lon="7.492912823570546"><ele>625.6666666666667</ele><time>2026-05-02T08:53:45.729Z</time></trkpt><trkpt lat="44.32015923897796" lon="7.493137162346094"><ele>623.3333333333334</ele><time>2026-05-02T08:53:46.729Z</time></trkpt><trkpt lat="44.32028546407488" lon="7.493361163876286"><ele>621.0</ele><time>2026-05-02T08:53:47.729Z</time></trkpt><trkpt lat="44.320414966007334" lon="7.493582878262359"><ele>620.6666666666666</ele><time>2026-05-02T08:53:48.729Z</time></trkpt><trkpt lat="44.3205476916862" lon="7.493811027964597"><ele>620.3333333333333</ele><time>2026-05-02T08:53:49.729Z</time></trkpt><trkpt lat="44.320680594561225" lon="7.494042017451905"><ele>620.0</ele><time>2026-05-02T08:53:50.729Z</time></trkpt><trkpt lat="44.32080019180886" lon="7.49426458823216"><ele>619.0</ele><time>2026-05-02T08:53:51.729Z</time></trkpt><trkpt lat="44.32091869377366" lon="7.49446442992161"><ele>618.0</ele><time>2026-05-02T08:53:52.729Z</time></trkpt><trkpt lat="44.32103558607973" lon="7.494662030805404"><ele>617.0</ele><time>2026-05-02T08:53:53.729Z</time></trkpt><trkpt lat="44.321144722817394" lon="7.494860126353155"><ele>617.0</ele><time>2026-05-02T08:53:54.729Z</time></trkpt><trkpt lat="44.32122807242421" lon="7.495064499256375"><ele>617.0</ele><time>2026-05-02T08:53:55.729Z</time></trkpt><trkpt lat="44.32129623201773" lon="7.495279286487554"><ele>617.0</ele><time>2026-05-02T08:53:56.729Z</time></trkpt><trkpt lat="44.32133572365302" lon="7.4955089625209865"><ele>617.0</ele><time>2026-05-02T08:53:57.729Z</time></trkpt><trkpt lat="44.32135676264718" lon="7.495730624813846"><ele>617.0</ele><time>2026-05-02T08:53:58.729Z</time></trkpt><trkpt lat="44.32134145725447" lon="7.4959716239160095"><ele>617.0</ele><time>2026-05-02T08:53:59.729Z</time></trkpt><trkpt lat="44.32130760047089" lon="7.49621074470701"><ele>616.6666666666666</ele><time>2026-05-02T08:54:00.729Z</time></trkpt><trkpt lat="44.32125658730977" lon="7.496444954970155"><ele>616.3333333333334</ele><time>2026-05-02T08:54:01.729Z</time></trkpt><trkpt lat="44.32120104071922" lon="7.496685967421952"><ele>616.0</ele><time>2026-05-02T08:54:02.729Z</time></trkpt><trkpt lat="44.32113965456082" lon="7.496922453667545"><ele>618.3333333333334</ele><time>2026-05-02T08:54:03.729Z</time></trkpt><trkpt lat="44.3210866047558" lon="7.497167465013989"><ele>620.6666666666666</ele><time>2026-05-02T08:54:04.729Z</time></trkpt><trkpt lat="44.32103461285873" lon="7.4974096357232325"><ele>623.0</ele><time>2026-05-02T08:54:05.728Z</time></trkpt><trkpt lat="44.32098122922193" lon="7.497642523402442"><ele>623.0</ele><time>2026-05-02T08:54:06.728Z</time></trkpt><trkpt lat="44.320935552392974" lon="7.4978613678934645"><ele>623.0</ele><time>2026-05-02T08:54:07.728Z</time></trkpt><trkpt lat="44.3209075708717" lon="7.498083677559679"><ele>623.0</ele><time>2026-05-02T08:54:08.728Z</time></trkpt><trkpt lat="44.320892834310335" lon="7.498298620348916"><ele>626.6666666666666</ele><time>2026-05-02T08:54:09.728Z</time></trkpt><trkpt lat="44.32092720502062" lon="7.498519899139312"><ele>630.3333333333334</ele><time>2026-05-02T08:54:10.728Z</time></trkpt><trkpt lat="44.32096492770674" lon="7.498746297805251"><ele>634.0</ele><time>2026-05-02T08:54:11.728Z</time></trkpt><trkpt lat="44.321012419787635" lon="7.498964422020564"><ele>635.3333333333334</ele><time>2026-05-02T08:54:12.728Z</time></trkpt><trkpt lat="44.321089152226406" lon="7.499178917483202"><ele>636.6666666666666</ele><time>2026-05-02T08:54:13.728Z</time></trkpt><trkpt lat="44.321185364733736" lon="7.499388981020522"><ele>638.0</ele><time>2026-05-02T08:54:14.728Z</time></trkpt><trkpt lat="44.321318931875545" lon="7.499573612634794"><ele>636.3333333333333</ele><time>2026-05-02T08:54:15.728Z</time></trkpt><trkpt lat="44.321430050242206" lon="7.499729633509925"><ele>634.6666666666666</ele><time>2026-05-02T08:54:16.728Z</time></trkpt><trkpt lat="44.321581586414446" lon="7.499864908535679"><ele>633.0</ele><time>2026-05-02T08:54:17.728Z</time></trkpt><trkpt lat="44.321755173589516" lon="7.499985894748036"><ele>633.0</ele><time>2026-05-02T08:54:18.728Z</time></trkpt><trkpt lat="44.32192651272238" lon="7.500108666179069"><ele>633.0</ele><time>2026-05-02T08:54:19.728Z</time></trkpt><trkpt lat="44.32209605451521" lon="7.500225270168552"><ele>633.0</ele><time>2026-05-02T08:54:20.728Z</time></trkpt><trkpt lat="44.32226184800935" lon="7.50034298781157"><ele>629.3333333333334</ele><time>2026-05-02T08:54:21.728Z</time></trkpt><trkpt lat="44.322423261309254" lon="7.500466498925453"><ele>625.6666666666667</ele><time>2026-05-02T08:54:22.728Z</time></trkpt><trkpt lat="44.32258578358966" lon="7.500602382591596"><ele>622.0</ele><time>2026-05-02T08:54:23.728Z</time></trkpt><trkpt lat="44.32275776146444" lon="7.500725838983997"><ele>622.0</ele><time>2026-05-02T08:54:24.728Z</time></trkpt><trkpt lat="44.32292956926384" lon="7.50085388207785"><ele>622.0</ele><time>2026-05-02T08:54:25.728Z</time></trkpt><trkpt lat="44.32309289741084" lon="7.500960669187703"><ele>622.0</ele><time>2026-05-02T08:54:26.728Z</time></trkpt><trkpt lat="44.323257976308575" lon="7.501081119499936"><ele>621.6666666666667</ele><time>2026-05-02T08:54:27.728Z</time></trkpt><trkpt lat="44.32342895154209" lon="7.50119994405165"><ele>621.3333333333334</ele><time>2026-05-02T08:54:28.728Z</time></trkpt><trkpt lat="44.32360123599583" lon="7.501323068704073"><ele>621.0</ele><time>2026-05-02T08:54:29.727Z</time></trkpt><trkpt lat="44.323779283982816" lon="7.501427598556852"><ele>620.3333333333334</ele><time>2026-05-02T08:54:30.727Z</time></trkpt><trkpt lat="44.32394321650168" lon="7.501551550823949"><ele>619.6666666666667</ele><time>2026-05-02T08:54:31.727Z</time></trkpt><trkpt lat="44.32410194763267" lon="7.501697484229078"><ele>619.0</ele><time>2026-05-02T08:54:32.727Z</time></trkpt><trkpt lat="44.32427058279528" lon="7.50181664595186"><ele>619.0</ele><time>2026-05-02T08:54:33.727Z</time></trkpt><trkpt lat="44.32444834653927" lon="7.501924395831947"><ele>619.0</ele><time>2026-05-02T08:54:34.727Z</time></trkpt><trkpt lat="44.32460782180303" lon="7.502043458197339"><ele>619.0</ele><time>2026-05-02T08:54:35.727Z</time></trkpt><trkpt lat="44.32475960916549" lon="7.502136659427021"><ele>623.0</ele><time>2026-05-02T08:54:36.727Z</time></trkpt><trkpt lat="44.3249107319775" lon="7.502233374536622"><ele>627.0</ele><time>2026-05-02T08:54:37.727Z</time></trkpt><trkpt lat="44.32504904548467" lon="7.502298218438752"><ele>631.0</ele><time>2026-05-02T08:54:38.727Z</time></trkpt><trkpt lat="44.325174829683185" lon="7.502368123997465"><ele>635.0</ele><time>2026-05-02T08:54:39.727Z</time></trkpt><trkpt lat="44.325287834039266" lon="7.502491169114011"><ele>635.0</ele><time>2026-05-02T08:54:40.727Z</time></trkpt><trkpt lat="44.325380784241375" lon="7.502644001983019"><ele>635.0</ele><time>2026-05-02T08:54:41.848Z</time></trkpt><trkpt lat="44.32548472555847" lon="7.5028237337791035"><ele>635.0</ele><time>2026-05-02T08:54:42.848Z</time></trkpt><trkpt lat="44.3256013093756" lon="7.502995374923737"><ele>632.3333333333333</ele><time>2026-05-02T08:54:43.848Z</time></trkpt><trkpt lat="44.32573956095982" lon="7.503149538541215"><ele>629.6666666666666</ele><time>2026-05-02T08:54:44.848Z</time></trkpt><trkpt lat="44.325858881317366" lon="7.503337166141161"><ele>627.0</ele><time>2026-05-02T08:54:45.848Z</time></trkpt><trkpt lat="44.32599548702944" lon="7.503494419533595"><ele>627.0</ele><time>2026-05-02T08:54:46.848Z</time></trkpt><trkpt lat="44.326114567501754" lon="7.503652029997621"><ele>627.0</ele><time>2026-05-02T08:54:47.848Z</time></trkpt><trkpt lat="44.326225650570734" lon="7.503829858930082"><ele>627.0</ele><time>2026-05-02T08:54:48.848Z</time></trkpt><trkpt lat="44.326321276606485" lon="7.5040226479707615"><ele>627.6666666666666</ele><time>2026-05-02T08:54:49.848Z</time></trkpt><trkpt lat="44.326424107916154" lon="7.504218890739013"><ele>628.3333333333333</ele><time>2026-05-02T08:54:50.848Z</time></trkpt><trkpt lat="44.32652851353176" lon="7.504409606396992"><ele>629.0</ele><time>2026-05-02T08:54:51.848Z</time></trkpt><trkpt lat="44.32663654331687" lon="7.504606215908518"><ele>629.0</ele><time>2026-05-02T08:54:52.848Z</time></trkpt><trkpt lat="44.326737901958715" lon="7.504800642816003"><ele>629.0</ele><time>2026-05-02T08:54:53.848Z</time></trkpt><trkpt lat="44.32681672090251" lon="7.5050152935771015"><ele>629.0</ele><time>2026-05-02T08:54:54.848Z</time></trkpt><trkpt lat="44.326884930066655" lon="7.505236000408409"><ele>634.6666666666666</ele><time>2026-05-02T08:54:55.848Z</time></trkpt><trkpt lat="44.32694867758216" lon="7.505430512502464"><ele>640.3333333333334</ele><time>2026-05-02T08:54:56.848Z</time></trkpt><trkpt lat="44.32701827159602" lon="7.50564035639833"><ele>646.0</ele><time>2026-05-02T08:54:57.848Z</time></trkpt><trkpt lat="44.32706407457663" lon="7.505870454390416"><ele>646.0</ele><time>2026-05-02T08:54:58.848Z</time></trkpt><trkpt lat="44.327106191558634" lon="7.50609705951036"><ele>646.0</ele><time>2026-05-02T08:54:59.848Z</time></trkpt><trkpt lat="44.327151331470766" lon="7.5063240887240825"><ele>646.0</ele><time>2026-05-02T08:55:00.848Z</time></trkpt><trkpt lat="44.3271827080075" lon="7.506549163363886"><ele>645.0</ele><time>2026-05-02T08:55:01.848Z</time></trkpt><trkpt lat="44.327207384788174" lon="7.506775218970261"><ele>644.0</ele><time>2026-05-02T08:55:02.848Z</time></trkpt><trkpt lat="44.327217614977506" lon="7.507019121177733"><ele>643.0</ele><time>2026-05-02T08:55:03.848Z</time></trkpt><trkpt lat="44.32720400047867" lon="7.5072582868316795"><ele>643.0</ele><time>2026-05-02T08:55:04.848Z</time></trkpt><trkpt lat="44.327195371704036" lon="7.5074930615502975"><ele>643.0</ele><time>2026-05-02T08:55:05.848Z</time></trkpt><trkpt lat="44.32720225403357" lon="7.507745891392037"><ele>643.0</ele><time>2026-05-02T08:55:06.848Z</time></trkpt><trkpt lat="44.32720939125236" lon="7.508008909532059"><ele>631.6666666666667</ele><time>2026-05-02T08:55:07.848Z</time></trkpt><trkpt lat="44.32723075022915" lon="7.508263061795597"><ele>620.3333333333334</ele><time>2026-05-02T08:55:08.848Z</time></trkpt><trkpt lat="44.32724125696226" lon="7.508510257980589"><ele>609.0</ele><time>2026-05-02T08:55:09.848Z</time></trkpt><trkpt lat="44.327249420665204" lon="7.508756821964475"><ele>609.0</ele><time>2026-05-02T08:55:10.848Z</time></trkpt><trkpt lat="44.32728057352087" lon="7.509004768224586"><ele>609.0</ele><time>2026-05-02T08:55:11.848Z</time></trkpt><trkpt lat="44.32730123472943" lon="7.509255511219329"><ele>609.0</ele><time>2026-05-02T08:55:12.848Z</time></trkpt><trkpt lat="44.327340458508665" lon="7.5095089804921145"><ele>610.6666666666666</ele><time>2026-05-02T08:55:13.848Z</time></trkpt><trkpt lat="44.32739717076961" lon="7.509773930260661"><ele>612.3333333333333</ele><time>2026-05-02T08:55:14.848Z</time></trkpt><trkpt lat="44.32745758413593" lon="7.510040551578055"><ele>614.0</ele><time>2026-05-02T08:55:15.848Z</time></trkpt><trkpt lat="44.32754917727581" lon="7.510292827616286"><ele>618.6666666666666</ele><time>2026-05-02T08:55:16.85Z</time></trkpt><trkpt lat="44.32763906974074" lon="7.510543786615766"><ele>623.3333333333334</ele><time>2026-05-02T08:55:17.85Z</time></trkpt><trkpt lat="44.32774378855419" lon="7.510777489223035"><ele>628.0</ele><time>2026-05-02T08:55:18.85Z</time></trkpt><trkpt lat="44.32785413638813" lon="7.511023738427289"><ele>622.3333333333334</ele><time>2026-05-02T08:55:19.85Z</time></trkpt><trkpt lat="44.327953454224534" lon="7.51125873041136"><ele>616.6666666666666</ele><time>2026-05-02T08:55:20.85Z</time></trkpt><trkpt lat="44.328049172695536" lon="7.511486728750009"><ele>611.0</ele><time>2026-05-02T08:55:21.85Z</time></trkpt><trkpt lat="44.328149517368075" lon="7.511721204730567"><ele>611.0</ele><time>2026-05-02T08:55:22.85Z</time></trkpt><trkpt lat="44.32825470451271" lon="7.511954304140311"><ele>611.0</ele><time>2026-05-02T08:55:23.85Z</time></trkpt><trkpt lat="44.328358559831386" lon="7.512184900550365"><ele>611.0</ele><time>2026-05-02T08:55:24.85Z</time></trkpt><trkpt lat="44.3284628418166" lon="7.512405072781736"><ele>615.6666666666666</ele><time>2026-05-02T08:55:25.85Z</time></trkpt><trkpt lat="44.32858295343197" lon="7.512623158737065"><ele>620.3333333333334</ele><time>2026-05-02T08:55:26.849Z</time></trkpt><trkpt lat="44.32871689712788" lon="7.512839450535106"><ele>625.0</ele><time>2026-05-02T08:55:27.849Z</time></trkpt><trkpt lat="44.328848430388696" lon="7.513046069996419"><ele>618.0</ele><time>2026-05-02T08:55:28.85Z</time></trkpt><trkpt lat="44.32897620033001" lon="7.513237548580179"><ele>611.0</ele><time>2026-05-02T08:55:29.85Z</time></trkpt><trkpt lat="44.32910470965274" lon="7.5134282396297225"><ele>604.0</ele><time>2026-05-02T08:55:30.85Z</time></trkpt><trkpt lat="44.329233054671555" lon="7.513608498422348"><ele>604.6666666666667</ele><time>2026-05-02T08:55:31.85Z</time></trkpt><trkpt lat="44.329364230901206" lon="7.513797863735127"><ele>605.3333333333334</ele><time>2026-05-02T08:55:32.85Z</time></trkpt><trkpt lat="44.32949570567928" lon="7.513981128990654"><ele>606.0</ele><time>2026-05-02T08:55:33.85Z</time></trkpt><trkpt lat="44.329624861777866" lon="7.514167828848663"><ele>604.6666666666666</ele><time>2026-05-02T08:55:34.85Z</time></trkpt><trkpt lat="44.329755857479135" lon="7.514354311794392"><ele>603.3333333333333</ele><time>2026-05-02T08:55:35.85Z</time></trkpt><trkpt lat="44.329891071830055" lon="7.514548573698408"><ele>602.0</ele><time>2026-05-02T08:55:36.85Z</time></trkpt><trkpt lat="44.33002978295455" lon="7.5147478384388275"><ele>602.0</ele><time>2026-05-02T08:55:37.85Z</time></trkpt><trkpt lat="44.33017536704268" lon="7.514943685558028"><ele>602.0</ele><time>2026-05-02T08:55:38.85Z</time></trkpt><trkpt lat="44.33031217011989" lon="7.515131701861407"><ele>602.0</ele><time>2026-05-02T08:55:39.85Z</time></trkpt><trkpt lat="44.3304405564112" lon="7.515310220940432"><ele>601.0</ele><time>2026-05-02T08:55:40.85Z</time></trkpt><trkpt lat="44.33056400589163" lon="7.515489765964109"><ele>600.0</ele><time>2026-05-02T08:55:41.85Z</time></trkpt><trkpt lat="44.330687591498304" lon="7.515672912794585"><ele>599.0</ele><time>2026-05-02T08:55:42.85Z</time></trkpt><trkpt lat="44.33080253440928" lon="7.515849778099257"><ele>599.0</ele><time>2026-05-02T08:55:43.85Z</time></trkpt><trkpt lat="44.33091763988192" lon="7.516011593119973"><ele>599.0</ele><time>2026-05-02T08:55:44.85Z</time></trkpt><trkpt lat="44.331026487327954" lon="7.516158941020566"><ele>599.0</ele><time>2026-05-02T08:55:45.85Z</time></trkpt><trkpt lat="44.33112046808417" lon="7.516286639828827"><ele>599.0</ele><time>2026-05-02T08:55:46.85Z</time></trkpt><trkpt lat="44.331196972103946" lon="7.516397989073596"><ele>599.0</ele><time>2026-05-02T08:55:47.85Z</time></trkpt><trkpt lat="44.331269708964825" lon="7.516474576631372"><ele>599.0</ele><time>2026-05-02T08:55:48.85Z</time></trkpt><trkpt lat="44.3313408731541" lon="7.516552934142347"><ele>599.0</ele><time>2026-05-02T08:55:49.85Z</time></trkpt><trkpt lat="44.331414698389416" lon="7.51663802357675"><ele>599.0</ele><time>2026-05-02T08:55:50.849Z</time></trkpt><trkpt lat="44.331494941884685" lon="7.516744508644242"><ele>599.0</ele><time>2026-05-02T08:55:51.849Z</time></trkpt><trkpt lat="44.33157520075936" lon="7.516873709531393"><ele>599.0</ele><time>2026-05-02T08:55:52.849Z</time></trkpt><trkpt lat="44.33164754880607" lon="7.517017977772087"><ele>599.0</ele><time>2026-05-02T08:55:53.849Z</time></trkpt><trkpt lat="44.331724973581" lon="7.5171834651631935"><ele>599.0</ele><time>2026-05-02T08:55:54.849Z</time></trkpt><trkpt lat="44.331796711463404" lon="7.5173667049363315"><ele>599.0</ele><time>2026-05-02T08:55:55.849Z</time></trkpt><trkpt lat="44.3318673316232" lon="7.517558348441057"><ele>599.0</ele><time>2026-05-02T08:55:56.849Z</time></trkpt><trkpt lat="44.33194399101638" lon="7.517760987042463"><ele>599.0</ele><time>2026-05-02T08:55:57.849Z</time></trkpt><trkpt lat="44.33201629329029" lon="7.517962323055879"><ele>599.0</ele><time>2026-05-02T08:55:58.849Z</time></trkpt><trkpt lat="44.33209280294643" lon="7.518157800548499"><ele>599.0</ele><time>2026-05-02T08:55:59.849Z</time></trkpt><trkpt lat="44.33216440112993" lon="7.518346886957763"><ele>599.0</ele><time>2026-05-02T08:56:00.849Z</time></trkpt><trkpt lat="44.332239747454764" lon="7.518523110987713"><ele>599.0</ele><time>2026-05-02T08:56:01.849Z</time></trkpt><trkpt lat="44.33231078079742" lon="7.518684269444307"><ele>599.0</ele><time>2026-05-02T08:56:02.849Z</time></trkpt><trkpt lat="44.33237383632371" lon="7.518845529859296"><ele>598.75</ele><time>2026-05-02T08:56:03.849Z</time></trkpt><trkpt lat="44.33243591771886" lon="7.519000312192201"><ele>598.5</ele><time>2026-05-02T08:56:04.849Z</time></trkpt><trkpt lat="44.33249994753584" lon="7.5191721160645075"><ele>598.25</ele><time>2026-05-02T08:56:05.849Z</time></trkpt><trkpt lat="44.33256647441276" lon="7.5193291208590685"><ele>598.0</ele><time>2026-05-02T08:56:06.849Z</time></trkpt><trkpt lat="44.3326363443354" lon="7.5194909737692965"><ele>598.5</ele><time>2026-05-02T08:56:07.849Z</time></trkpt><trkpt lat="44.33271343968639" lon="7.519654029454614"><ele>599.0</ele><time>2026-05-02T08:56:08.849Z</time></trkpt><trkpt lat="44.332796572799886" lon="7.519831477859508"><ele>599.5</ele><time>2026-05-02T08:56:09.849Z</time></trkpt><trkpt lat="44.33287803353885" lon="7.520019826010883"><ele>600.0</ele><time>2026-05-02T08:56:10.849Z</time></trkpt><trkpt lat="44.33296230769476" lon="7.520213981972703"><ele>599.6666666666666</ele><time>2026-05-02T08:56:11.849Z</time></trkpt><trkpt lat="44.33303791351131" lon="7.5204101755057335"><ele>599.3333333333333</ele><time>2026-05-02T08:56:12.849Z</time></trkpt><trkpt lat="44.33311706807466" lon="7.520593582577012"><ele>599.0</ele><time>2026-05-02T08:56:13.849Z</time></trkpt><trkpt lat="44.33319244805337" lon="7.520783437823845"><ele>599.0</ele><time>2026-05-02T08:56:14.849Z</time></trkpt><trkpt lat="44.333280901407434" lon="7.520972460495004"><ele>599.0</ele><time>2026-05-02T08:56:15.849Z</time></trkpt><trkpt lat="44.33337258177155" lon="7.521154898697653"><ele>599.0</ele><time>2026-05-02T08:56:16.849Z</time></trkpt><trkpt lat="44.3334569660704" lon="7.521340681215856"><ele>599.0</ele><time>2026-05-02T08:56:17.849Z</time></trkpt><trkpt lat="44.33353781821624" lon="7.521533708030969"><ele>599.0</ele><time>2026-05-02T08:56:18.849Z</time></trkpt><trkpt lat="44.33361123445506" lon="7.521722538335912"><ele>599.0</ele><time>2026-05-02T08:56:19.849Z</time></trkpt><trkpt lat="44.33368823472237" lon="7.521915196547798"><ele>599.3333333333333</ele><time>2026-05-02T08:56:20.849Z</time></trkpt><trkpt lat="44.333769084096176" lon="7.522107926484645"><ele>599.6666666666666</ele><time>2026-05-02T08:56:21.849Z</time></trkpt><trkpt lat="44.33384874912791" lon="7.522293960274113"><ele>600.0</ele><time>2026-05-02T08:56:22.849Z</time></trkpt><trkpt lat="44.333926397752855" lon="7.5224723419955"><ele>599.0</ele><time>2026-05-02T08:56:23.849Z</time></trkpt><trkpt lat="44.33400146817514" lon="7.522652637660074"><ele>598.0</ele><time>2026-05-02T08:56:24.849Z</time></trkpt><trkpt lat="44.33408035089575" lon="7.522830780821549"><ele>597.0</ele><time>2026-05-02T08:56:25.849Z</time></trkpt><trkpt lat="44.33417369799144" lon="7.523063732675701"><ele>597.0</ele><time>2026-05-02T08:56:26.849Z</time></trkpt><trkpt lat="44.33426368773222" lon="7.523267047136822"><ele>597.0</ele><time>2026-05-02T08:56:27.849Z</time></trkpt><trkpt lat="44.3343558416753" lon="7.5234750396744605"><ele>597.0</ele><time>2026-05-02T08:56:28.849Z</time></trkpt><trkpt lat="44.33444400695508" lon="7.523681275579824"><ele>597.0</ele><time>2026-05-02T08:56:29.849Z</time></trkpt><trkpt lat="44.33452969386742" lon="7.523879007140963"><ele>597.0</ele><time>2026-05-02T08:56:30.849Z</time></trkpt><trkpt lat="44.33461854541218" lon="7.524085502154059"><ele>597.0</ele><time>2026-05-02T08:56:31.849Z</time></trkpt><trkpt lat="44.334700106470976" lon="7.524289787725494"><ele>597.0</ele><time>2026-05-02T08:56:32.849Z</time></trkpt><trkpt lat="44.334784229475225" lon="7.524493487116967"><ele>597.0</ele><time>2026-05-02T08:56:33.849Z</time></trkpt><trkpt lat="44.33486955100781" lon="7.524693470396863"><ele>597.0</ele><time>2026-05-02T08:56:34.849Z</time></trkpt><trkpt lat="44.334954594352794" lon="7.524902102014588"><ele>596.6666666666666</ele><time>2026-05-02T08:56:35.849Z</time></trkpt><trkpt lat="44.3350336031478" lon="7.525109468572199"><ele>596.3333333333333</ele><time>2026-05-02T08:56:36.849Z</time></trkpt><trkpt lat="44.335114327518305" lon="7.525318616379024"><ele>596.0</ele><time>2026-05-02T08:56:37.849Z</time></trkpt><trkpt lat="44.335199659289856" lon="7.5255299156472795"><ele>595.6666666666666</ele><time>2026-05-02T08:56:38.848Z</time></trkpt><trkpt lat="44.335284300018074" lon="7.525740173776236"><ele>595.3333333333334</ele><time>2026-05-02T08:56:39.848Z</time></trkpt><trkpt lat="44.33536674443155" lon="7.525952110957678"><ele>595.0</ele><time>2026-05-02T08:56:40.848Z</time></trkpt><trkpt lat="44.33545086942214" lon="7.526164253814071"><ele>595.0</ele><time>2026-05-02T08:56:41.848Z</time></trkpt><trkpt lat="44.33553261964072" lon="7.52637176661087"><ele>595.0</ele><time>2026-05-02T08:56:42.848Z</time></trkpt><trkpt lat="44.33562274887766" lon="7.526576714699839"><ele>595.0</ele><time>2026-05-02T08:56:43.848Z</time></trkpt><trkpt lat="44.33570495175178" lon="7.526787828519159"><ele>595.0</ele><time>2026-05-02T08:56:44.848Z</time></trkpt><trkpt lat="44.33579515609154" lon="7.526995922323472"><ele>595.0</ele><time>2026-05-02T08:56:45.848Z</time></trkpt><trkpt lat="44.33588542522295" lon="7.527211583236414"><ele>595.0</ele><time>2026-05-02T08:56:46.848Z</time></trkpt><trkpt lat="44.33597103950105" lon="7.527424462561549"><ele>595.0</ele><time>2026-05-02T08:56:47.848Z</time></trkpt><trkpt lat="44.33605599211653" lon="7.5276437854359495"><ele>595.0</ele><time>2026-05-02T08:56:48.848Z</time></trkpt><trkpt lat="44.33613694901322" lon="7.527862912330056"><ele>595.0</ele><time>2026-05-02T08:56:49.848Z</time></trkpt><trkpt lat="44.33621711841929" lon="7.528086649374596"><ele>594.6666666666667</ele><time>2026-05-02T08:56:50.848Z</time></trkpt><trkpt lat="44.33629533382326" lon="7.528315954174647"><ele>594.3333333333334</ele><time>2026-05-02T08:56:51.848Z</time></trkpt><trkpt lat="44.33636509476721" lon="7.528546559184371"><ele>594.0</ele><time>2026-05-02T08:56:52.848Z</time></trkpt><trkpt lat="44.33643069207418" lon="7.528781275393411"><ele>594.0</ele><time>2026-05-02T08:56:53.848Z</time></trkpt><trkpt lat="44.336487876497316" lon="7.529028701063723"><ele>594.0</ele><time>2026-05-02T08:56:54.848Z</time></trkpt><trkpt lat="44.33653794678362" lon="7.5292764997302974"><ele>594.0</ele><time>2026-05-02T08:56:55.848Z</time></trkpt><trkpt lat="44.33658351502209" lon="7.529524974989504"><ele>593.6666666666666</ele><time>2026-05-02T08:56:56.848Z</time></trkpt><trkpt lat="44.33662378666586" lon="7.5297772219762"><ele>593.3333333333333</ele><time>2026-05-02T08:56:57.848Z</time></trkpt><trkpt lat="44.33665807587791" lon="7.53001873518598"><ele>593.0</ele><time>2026-05-02T08:56:58.848Z</time></trkpt><trkpt lat="44.33668252415095" lon="7.530252871588284"><ele>592.3333333333333</ele><time>2026-05-02T08:56:59.848Z</time></trkpt><trkpt lat="44.336696886857986" lon="7.530494748308989"><ele>591.6666666666666</ele><time>2026-05-02T08:57:00.848Z</time></trkpt><trkpt lat="44.33670748186036" lon="7.530729830605277"><ele>591.0</ele><time>2026-05-02T08:57:01.848Z</time></trkpt><trkpt lat="44.33671210773576" lon="7.530978711446846"><ele>591.0</ele><time>2026-05-02T08:57:02.848Z</time></trkpt><trkpt lat="44.33670759578535" lon="7.531228173816293"><ele>591.0</ele><time>2026-05-02T08:57:03.848Z</time></trkpt><trkpt lat="44.33669636614996" lon="7.531485242089554"><ele>591.0</ele><time>2026-05-02T08:57:04.848Z</time></trkpt><trkpt lat="44.336691080406524" lon="7.531735076378658"><ele>591.0</ele><time>2026-05-02T08:57:05.848Z</time></trkpt><trkpt lat="44.33667748814104" lon="7.531983055491179"><ele>591.0</ele><time>2026-05-02T08:57:06.848Z</time></trkpt><trkpt lat="44.3366705781685" lon="7.53225255690488"><ele>591.0</ele><time>2026-05-02T08:57:07.848Z</time></trkpt><trkpt lat="44.33666247154417" lon="7.532521657511956"><ele>590.3333333333334</ele><time>2026-05-02T08:57:08.848Z</time></trkpt><trkpt lat="44.33665524200429" lon="7.532795740350787"><ele>589.6666666666667</ele><time>2026-05-02T08:57:09.848Z</time></trkpt><trkpt lat="44.336639602314314" lon="7.53307351817559"><ele>589.0</ele><time>2026-05-02T08:57:10.848Z</time></trkpt><trkpt lat="44.336629322725805" lon="7.5333362121925695"><ele>589.0</ele><time>2026-05-02T08:57:11.848Z</time></trkpt><trkpt lat="44.336617916873536" lon="7.5336062471093515"><ele>589.0</ele><time>2026-05-02T08:57:12.848Z</time></trkpt><trkpt lat="44.33660855488157" lon="7.5338815160950094"><ele>589.0</ele><time>2026-05-02T08:57:13.848Z</time></trkpt><trkpt lat="44.336599023637426" lon="7.534155456833307"><ele>589.0</ele><time>2026-05-02T08:57:14.848Z</time></trkpt><trkpt lat="44.336589383450125" lon="7.534424244400163"><ele>589.0</ele><time>2026-05-02T08:57:15.848Z</time></trkpt><trkpt lat="44.336579208017795" lon="7.534695806314028"><ele>589.0</ele><time>2026-05-02T08:57:16.848Z</time></trkpt><trkpt lat="44.33656638989253" lon="7.534963254708877"><ele>588.3333333333334</ele><time>2026-05-02T08:57:17.848Z</time></trkpt><trkpt lat="44.33655479476072" lon="7.535228403377826"><ele>587.6666666666666</ele><time>2026-05-02T08:57:18.848Z</time></trkpt><trkpt lat="44.33654348951379" lon="7.5354918030499"><ele>587.0</ele><time>2026-05-02T08:57:19.848Z</time></trkpt><trkpt lat="44.33653449078388" lon="7.535759206843568"><ele>586.3333333333333</ele><time>2026-05-02T08:57:20.848Z</time></trkpt><trkpt lat="44.336521873996126" lon="7.536019101348057"><ele>585.6666666666666</ele><time>2026-05-02T08:57:21.848Z</time></trkpt><trkpt lat="44.336510269709926" lon="7.5362893215358495"><ele>585.0</ele><time>2026-05-02T08:57:22.849Z</time></trkpt><trkpt lat="44.33650161368845" lon="7.536558955702307"><ele>584.6666666666666</ele><time>2026-05-02T08:57:23.85Z</time></trkpt><trkpt lat="44.33649610622987" lon="7.536830758691256"><ele>584.3333333333333</ele><time>2026-05-02T08:57:24.85Z</time></trkpt><trkpt lat="44.33648447412544" lon="7.537095898349917"><ele>584.0</ele><time>2026-05-02T08:57:25.85Z</time></trkpt><trkpt lat="44.33647149767347" lon="7.537357975758742"><ele>584.0</ele><time>2026-05-02T08:57:26.85Z</time></trkpt><trkpt lat="44.33645776336485" lon="7.537622781137329"><ele>584.0</ele><time>2026-05-02T08:57:27.85Z</time></trkpt><trkpt lat="44.33644869859117" lon="7.537891591070292"><ele>584.0</ele><time>2026-05-02T08:57:28.849Z</time></trkpt><trkpt lat="44.33643855855886" lon="7.538160368156773"><ele>584.0</ele><time>2026-05-02T08:57:29.85Z</time></trkpt><trkpt lat="44.33643241612749" lon="7.538434664208727"><ele>584.0</ele><time>2026-05-02T08:57:30.85Z</time></trkpt><trkpt lat="44.3364292901211" lon="7.538708775831624"><ele>584.0</ele><time>2026-05-02T08:57:31.85Z</time></trkpt><trkpt lat="44.336433286507116" lon="7.538984343933134"><ele>583.6666666666666</ele><time>2026-05-02T08:57:32.849Z</time></trkpt><trkpt lat="44.336446705442434" lon="7.539259478965195"><ele>583.3333333333334</ele><time>2026-05-02T08:57:33.849Z</time></trkpt><trkpt lat="44.33646947666107" lon="7.539540755573488"><ele>583.0</ele><time>2026-05-02T08:57:34.85Z</time></trkpt><trkpt lat="44.336497692818725" lon="7.53981966675947"><ele>582.6666666666667</ele><time>2026-05-02T08:57:35.849Z</time></trkpt><trkpt lat="44.33653264698336" lon="7.540099506897383"><ele>582.3333333333334</ele><time>2026-05-02T08:57:36.849Z</time></trkpt><trkpt lat="44.336576587231214" lon="7.540370812961832"><ele>582.0</ele><time>2026-05-02T08:57:37.849Z</time></trkpt><trkpt lat="44.336628978974616" lon="7.540642533358586"><ele>582.0</ele><time>2026-05-02T08:57:38.849Z</time></trkpt><trkpt lat="44.3366976324019" lon="7.54091729936453"><ele>582.0</ele><time>2026-05-02T08:57:39.849Z</time></trkpt><trkpt lat="44.33677418571062" lon="7.541200825013089"><ele>582.0</ele><time>2026-05-02T08:57:40.849Z</time></trkpt><trkpt lat="44.336855986346464" lon="7.541464882995872"><ele>582.0</ele><time>2026-05-02T08:57:41.849Z</time></trkpt><trkpt lat="44.33694189815355" lon="7.541709590799142"><ele>582.0</ele><time>2026-05-02T08:57:42.849Z</time></trkpt><trkpt lat="44.337028470236426" lon="7.541934503748166"><ele>582.0</ele><time>2026-05-02T08:57:43.849Z</time></trkpt><trkpt lat="44.337116714457686" lon="7.542139769371693"><ele>582.3333333333334</ele><time>2026-05-02T08:57:44.849Z</time></trkpt><trkpt lat="44.33720363902931" lon="7.542340565672238"><ele>582.6666666666667</ele><time>2026-05-02T08:57:45.849Z</time></trkpt><trkpt lat="44.337290967827585" lon="7.542517664779275"><ele>583.0</ele><time>2026-05-02T08:57:46.849Z</time></trkpt><trkpt lat="44.337365796921866" lon="7.542667214244537"><ele>582.6</ele><time>2026-05-02T08:57:47.849Z</time></trkpt><trkpt lat="44.33742661746621" lon="7.54280260301438"><ele>582.1999999999999</ele><time>2026-05-02T08:57:48.849Z</time></trkpt><trkpt lat="44.3374839975187" lon="7.542929382105295"><ele>581.8</ele><time>2026-05-02T08:57:49.849Z</time></trkpt><trkpt lat="44.33753580433483" lon="7.543041808985236"><ele>581.4</ele><time>2026-05-02T08:57:50.849Z</time></trkpt><trkpt lat="44.33758327656442" lon="7.543145356250146"><ele>581.0</ele><time>2026-05-02T08:57:51.849Z</time></trkpt><trkpt lat="44.33762689675656" lon="7.543235965461361"><ele>581.0</ele><time>2026-05-02T08:57:52.849Z</time></trkpt><trkpt lat="44.33766364959949" lon="7.5433207468348735"><ele>581.0</ele><time>2026-05-02T08:57:53.849Z</time></trkpt><trkpt lat="44.33769548606552" lon="7.543402211465931"><ele>581.0</ele><time>2026-05-02T08:57:54.849Z</time></trkpt><trkpt lat="44.33774031466079" lon="7.543538262522433"><ele>581.0</ele><time>2026-05-02T08:57:56.849Z</time></trkpt><trkpt lat="44.33774712774785" lon="7.543694276968102"><ele>581.0</ele><time>2026-05-02T08:57:58.849Z</time></trkpt><trkpt lat="44.337742485311914" lon="7.5437926924871945"><ele>581.0</ele><time>2026-05-02T08:57:59.849Z</time></trkpt><trkpt lat="44.33775362026792" lon="7.543895347527778"><ele>581.0</ele><time>2026-05-02T08:58:00.849Z</time></trkpt><trkpt lat="44.337786089997515" lon="7.5439880435019475"><ele>581.0</ele><time>2026-05-02T08:58:01.849Z</time></trkpt><trkpt lat="44.33788368211161" lon="7.544022853014332"><ele>581.0</ele><time>2026-05-02T08:58:02.849Z</time></trkpt><trkpt lat="44.33794927188277" lon="7.5440996674998075"><ele>581.0</ele><time>2026-05-02T08:58:03.849Z</time></trkpt><trkpt lat="44.33805546255537" lon="7.544083845886807"><ele>581.0</ele><time>2026-05-02T08:58:04.849Z</time></trkpt><trkpt lat="44.33817146522816" lon="7.544020150655586"><ele>581.5</ele><time>2026-05-02T08:58:05.849Z</time></trkpt><trkpt lat="44.338291965773905" lon="7.544074130260756"><ele>582.0</ele><time>2026-05-02T08:58:06.849Z</time></trkpt><trkpt lat="44.338421482716036" lon="7.544130317508817"><ele>582.5</ele><time>2026-05-02T08:58:07.849Z</time></trkpt><trkpt lat="44.3385550457351" lon="7.544204491232883"><ele>583.0</ele><time>2026-05-02T08:58:08.849Z</time></trkpt><trkpt lat="44.338696918371014" lon="7.544281777733219"><ele>583.0</ele><time>2026-05-02T08:58:09.849Z</time></trkpt><trkpt lat="44.33883891179922" lon="7.544365946813198"><ele>583.0</ele><time>2026-05-02T08:58:10.849Z</time></trkpt><trkpt lat="44.3389863220171" lon="7.54445267896922"><ele>583.0</ele><time>2026-05-02T08:58:11.849Z</time></trkpt><trkpt lat="44.3391364211759" lon="7.544540297985047"><ele>582.0</ele><time>2026-05-02T08:58:12.849Z</time></trkpt><trkpt lat="44.33928556253618" lon="7.544627522842716"><ele>581.0</ele><time>2026-05-02T08:58:13.849Z</time></trkpt><trkpt lat="44.339432789780815" lon="7.544713978944998"><ele>580.0</ele><time>2026-05-02T08:58:14.849Z</time></trkpt><trkpt lat="44.339576711625746" lon="7.544795124738003"><ele>579.3333333333334</ele><time>2026-05-02T08:58:15.849Z</time></trkpt><trkpt lat="44.339724124309654" lon="7.544874273275543"><ele>578.6666666666666</ele><time>2026-05-02T08:58:16.849Z</time></trkpt><trkpt lat="44.339875685988204" lon="7.544941414551642"><ele>578.0</ele><time>2026-05-02T08:58:17.849Z</time></trkpt><trkpt lat="44.340030828517314" lon="7.544997670411055"><ele>578.0</ele><time>2026-05-02T08:58:18.849Z</time></trkpt><trkpt lat="44.34018237565909" lon="7.545052426097319"><ele>578.0</ele><time>2026-05-02T08:58:19.849Z</time></trkpt><trkpt lat="44.340341230168235" lon="7.545093391595984"><ele>578.0</ele><time>2026-05-02T08:58:20.848Z</time></trkpt><trkpt lat="44.3404997749219" lon="7.545123987297762"><ele>578.0</ele><time>2026-05-02T08:58:21.848Z</time></trkpt><trkpt lat="44.34066004983716" lon="7.5451499280042595"><ele>578.0</ele><time>2026-05-02T08:58:22.848Z</time></trkpt><trkpt lat="44.340822179506674" lon="7.545171788760788"><ele>578.0</ele><time>2026-05-02T08:58:23.848Z</time></trkpt><trkpt lat="44.34098604413084" lon="7.545190763516907"><ele>578.0</ele><time>2026-05-02T08:58:24.848Z</time></trkpt><trkpt lat="44.34114819352685" lon="7.545209143140174"><ele>578.0</ele><time>2026-05-02T08:58:25.848Z</time></trkpt><trkpt lat="44.34130963839438" lon="7.54521635577252"><ele>578.0</ele><time>2026-05-02T08:58:26.848Z</time></trkpt><trkpt lat="44.34147168340319" lon="7.545240930607817"><ele>577.3333333333333</ele><time>2026-05-02T08:58:27.848Z</time></trkpt><trkpt lat="44.34163555121975" lon="7.545258275613459"><ele>576.6666666666666</ele><time>2026-05-02T08:58:28.848Z</time></trkpt><trkpt lat="44.34179236161508" lon="7.545281529899963"><ele>576.0</ele><time>2026-05-02T08:58:29.848Z</time></trkpt><trkpt lat="44.341958816630985" lon="7.545296986798294"><ele>576.0</ele><time>2026-05-02T08:58:30.848Z</time></trkpt><trkpt lat="44.34212728909456" lon="7.545320675233216"><ele>576.0</ele><time>2026-05-02T08:58:31.848Z</time></trkpt><trkpt lat="44.34230261109992" lon="7.5453451102688796"><ele>576.0</ele><time>2026-05-02T08:58:32.848Z</time></trkpt><trkpt lat="44.34247246845826" lon="7.545370080090641"><ele>576.0</ele><time>2026-05-02T08:58:33.848Z</time></trkpt><trkpt lat="44.34263901710124" lon="7.545394753991734"><ele>576.0</ele><time>2026-05-02T08:58:34.848Z</time></trkpt><trkpt lat="44.34282031745783" lon="7.5454269908214275"><ele>576.0</ele><time>2026-05-02T08:58:35.848Z</time></trkpt><trkpt lat="44.342993041679925" lon="7.545447731585281"><ele>575.3333333333334</ele><time>2026-05-02T08:58:36.848Z</time></trkpt><trkpt lat="44.34315606785622" lon="7.545473611626335"><ele>574.6666666666667</ele><time>2026-05-02T08:58:37.848Z</time></trkpt><trkpt lat="44.34330379588634" lon="7.545496673202961"><ele>574.0</ele><time>2026-05-02T08:58:38.848Z</time></trkpt><trkpt lat="44.34346551150381" lon="7.5455147790544554"><ele>574.0</ele><time>2026-05-02T08:58:39.848Z</time></trkpt><trkpt lat="44.343642672096195" lon="7.545533358709642"><ele>574.0</ele><time>2026-05-02T08:58:40.848Z</time></trkpt><trkpt lat="44.34381778904048" lon="7.545557814266367"><ele>574.0</ele><time>2026-05-02T08:58:41.848Z</time></trkpt><trkpt lat="44.34399419179682" lon="7.545584849214119"><ele>574.0</ele><time>2026-05-02T08:58:42.848Z</time></trkpt><trkpt lat="44.34417561500467" lon="7.545605812174407"><ele>574.0</ele><time>2026-05-02T08:58:43.848Z</time></trkpt><trkpt lat="44.34435576370621" lon="7.545632303464122"><ele>574.0</ele><time>2026-05-02T08:58:44.848Z</time></trkpt><trkpt lat="44.344541130979174" lon="7.545653173035362"><ele>573.6666666666667</ele><time>2026-05-02T08:58:45.848Z</time></trkpt><trkpt lat="44.34472647992667" lon="7.545678796090123"><ele>573.3333333333334</ele><time>2026-05-02T08:58:46.848Z</time></trkpt><trkpt lat="44.344902672209265" lon="7.545705243500895"><ele>573.0</ele><time>2026-05-02T08:58:47.848Z</time></trkpt><trkpt lat="44.34508179132137" lon="7.545724599628239"><ele>573.0</ele><time>2026-05-02T08:58:48.848Z</time></trkpt><trkpt lat="44.345259082171296" lon="7.54574893104543"><ele>573.0</ele><time>2026-05-02T08:58:49.848Z</time></trkpt><trkpt lat="44.345443043190656" lon="7.545779627878583"><ele>573.0</ele><time>2026-05-02T08:58:50.848Z</time></trkpt><trkpt lat="44.34562147905838" lon="7.545794531356348"><ele>572.6666666666666</ele><time>2026-05-02T08:58:51.848Z</time></trkpt><trkpt lat="44.34580300527802" lon="7.54582494218604"><ele>572.3333333333333</ele><time>2026-05-02T08:58:52.848Z</time></trkpt><trkpt lat="44.34597727146972" lon="7.545848954023803"><ele>572.0</ele><time>2026-05-02T08:58:53.848Z</time></trkpt><trkpt lat="44.346154042282684" lon="7.545870095758208"><ele>572.0</ele><time>2026-05-02T08:58:54.848Z</time></trkpt><trkpt lat="44.34633537128318" lon="7.545896870370238"><ele>572.0</ele><time>2026-05-02T08:58:55.848Z</time></trkpt><trkpt lat="44.34651617793492" lon="7.5459280290238055"><ele>572.0</ele><time>2026-05-02T08:58:56.848Z</time></trkpt><trkpt lat="44.3466956873717" lon="7.545955128024289"><ele>571.6666666666666</ele><time>2026-05-02T08:58:57.848Z</time></trkpt><trkpt lat="44.346873172180224" lon="7.545976535072136"><ele>571.3333333333334</ele><time>2026-05-02T08:58:58.848Z</time></trkpt><trkpt lat="44.34705133500865" lon="7.545999204957278"><ele>571.0</ele><time>2026-05-02T08:58:59.848Z</time></trkpt><trkpt lat="44.34723247149187" lon="7.5460252171033115"><ele>571.0</ele><time>2026-05-02T08:59:00.848Z</time></trkpt><trkpt lat="44.34741483061486" lon="7.54604739286394"><ele>571.0</ele><time>2026-05-02T08:59:01.848Z</time></trkpt><trkpt lat="44.3475958374668" lon="7.546076733825176"><ele>571.0</ele><time>2026-05-02T08:59:02.848Z</time></trkpt><trkpt lat="44.347777688825545" lon="7.546100937359226"><ele>571.0</ele><time>2026-05-02T08:59:03.848Z</time></trkpt><trkpt lat="44.347962495595084" lon="7.546121931448566"><ele>571.0</ele><time>2026-05-02T08:59:04.848Z</time></trkpt><trkpt lat="44.34815564794044" lon="7.546153309462412"><ele>571.0</ele><time>2026-05-02T08:59:05.848Z</time></trkpt><trkpt lat="44.34835293004368" lon="7.546177676266658"><ele>571.0</ele><time>2026-05-02T08:59:06.848Z</time></trkpt><trkpt lat="44.34855088176019" lon="7.546202381227574"><ele>571.0</ele><time>2026-05-02T08:59:07.848Z</time></trkpt><trkpt lat="44.34874494457876" lon="7.546230120100544"><ele>571.0</ele><time>2026-05-02T08:59:08.847Z</time></trkpt><trkpt lat="44.34894582940954" lon="7.54625687210119"><ele>571.0</ele><time>2026-05-02T08:59:09.847Z</time></trkpt><trkpt lat="44.34914990193295" lon="7.5462798540256975"><ele>571.0</ele><time>2026-05-02T08:59:10.847Z</time></trkpt><trkpt lat="44.34934597741104" lon="7.546334105497754"><ele>571.0</ele><time>2026-05-02T08:59:11.847Z</time></trkpt><trkpt lat="44.34955054607268" lon="7.546363275488701"><ele>570.6666666666667</ele><time>2026-05-02T08:59:12.847Z</time></trkpt><trkpt lat="44.34974843488044" lon="7.546408621511174"><ele>570.3333333333334</ele><time>2026-05-02T08:59:13.847Z</time></trkpt><trkpt lat="44.34994373796095" lon="7.5464492994064125"><ele>570.0</ele><time>2026-05-02T08:59:14.847Z</time></trkpt><trkpt lat="44.35014875164716" lon="7.546495023650095"><ele>570.0</ele><time>2026-05-02T08:59:15.847Z</time></trkpt><trkpt lat="44.35035002985976" lon="7.54654343842295"><ele>570.0</ele><time>2026-05-02T08:59:16.847Z</time></trkpt><trkpt lat="44.35055298393774" lon="7.546583738503032"><ele>570.0</ele><time>2026-05-02T08:59:17.847Z</time></trkpt><trkpt lat="44.350747866204145" lon="7.546624332662209"><ele>570.6666666666666</ele><time>2026-05-02T08:59:18.847Z</time></trkpt><trkpt lat="44.35094322188173" lon="7.546663093838452"><ele>571.3333333333333</ele><time>2026-05-02T08:59:19.847Z</time></trkpt><trkpt lat="44.35113770086272" lon="7.54672709800678"><ele>572.0</ele><time>2026-05-02T08:59:20.847Z</time></trkpt><trkpt lat="44.3513311761215" lon="7.546781436528446"><ele>571.3333333333333</ele><time>2026-05-02T08:59:21.847Z</time></trkpt><trkpt lat="44.35153169275132" lon="7.546835498094467"><ele>570.6666666666666</ele><time>2026-05-02T08:59:22.847Z</time></trkpt><trkpt lat="44.35173090698843" lon="7.546884167769457"><ele>570.0</ele><time>2026-05-02T08:59:23.847Z</time></trkpt><trkpt lat="44.35192552151558" lon="7.546939375415972"><ele>570.0</ele><time>2026-05-02T08:59:24.847Z</time></trkpt><trkpt lat="44.35212435899849" lon="7.546993150994449"><ele>570.0</ele><time>2026-05-02T08:59:25.847Z</time></trkpt><trkpt lat="44.352317408474605" lon="7.5470463404714305"><ele>570.0</ele><time>2026-05-02T08:59:26.847Z</time></trkpt><trkpt lat="44.35250810440696" lon="7.547096935917861"><ele>569.0</ele><time>2026-05-02T08:59:27.847Z</time></trkpt><trkpt lat="44.35269443942223" lon="7.5471578078379125"><ele>568.0</ele><time>2026-05-02T08:59:28.849Z</time></trkpt><trkpt lat="44.352875063884845" lon="7.547228263723854"><ele>567.0</ele><time>2026-05-02T08:59:29.85Z</time></trkpt><trkpt lat="44.353060458645984" lon="7.547290034789196"><ele>566.6666666666666</ele><time>2026-05-02T08:59:30.85Z</time></trkpt><trkpt lat="44.35325200721977" lon="7.547363542422807"><ele>566.3333333333333</ele><time>2026-05-02T08:59:31.849Z</time></trkpt><trkpt lat="44.35343967262747" lon="7.547427386048824"><ele>566.0</ele><time>2026-05-02T08:59:32.849Z</time></trkpt><trkpt lat="44.35362751679656" lon="7.547481761686163"><ele>566.0</ele><time>2026-05-02T08:59:33.849Z</time></trkpt><trkpt lat="44.353813365976464" lon="7.547537861709909"><ele>566.0</ele><time>2026-05-02T08:59:34.849Z</time></trkpt><trkpt lat="44.35400480262344" lon="7.547595550553558"><ele>566.0</ele><time>2026-05-02T08:59:35.849Z</time></trkpt><trkpt lat="44.3541942293166" lon="7.547652399961256"><ele>566.0</ele><time>2026-05-02T08:59:36.849Z</time></trkpt><trkpt lat="44.35437483898023" lon="7.547708262816722"><ele>566.0</ele><time>2026-05-02T08:59:37.849Z</time></trkpt><trkpt lat="44.35455364892668" lon="7.547767934939766"><ele>566.0</ele><time>2026-05-02T08:59:38.849Z</time></trkpt><trkpt lat="44.35473043849679" lon="7.547839791587964"><ele>565.6666666666666</ele><time>2026-05-02T08:59:39.849Z</time></trkpt><trkpt lat="44.354915857116566" lon="7.547893344057336"><ele>565.3333333333334</ele><time>2026-05-02T08:59:40.849Z</time></trkpt><trkpt lat="44.35510689986307" lon="7.547968103968939"><ele>565.0</ele><time>2026-05-02T08:59:41.849Z</time></trkpt><trkpt lat="44.3552785804885" lon="7.548030110724503"><ele>565.0</ele><time>2026-05-02T08:59:42.849Z</time></trkpt><trkpt lat="44.355450660187486" lon="7.548087320024359"><ele>565.0</ele><time>2026-05-02T08:59:43.849Z</time></trkpt><trkpt lat="44.35561553847343" lon="7.548146747354844"><ele>565.0</ele><time>2026-05-02T08:59:44.849Z</time></trkpt><trkpt lat="44.355775764821104" lon="7.548189101224831"><ele>564.3333333333334</ele><time>2026-05-02T08:59:45.849Z</time></trkpt><trkpt lat="44.3559350225254" lon="7.5482515084063655"><ele>563.6666666666666</ele><time>2026-05-02T08:59:46.849Z</time></trkpt><trkpt lat="44.35610295385665" lon="7.548298126969713"><ele>563.0</ele><time>2026-05-02T08:59:47.849Z</time></trkpt><trkpt lat="44.356278005509914" lon="7.548350978598371"><ele>563.3333333333333</ele><time>2026-05-02T08:59:48.849Z</time></trkpt><trkpt lat="44.35645364958984" lon="7.548411356435345"><ele>563.6666666666666</ele><time>2026-05-02T08:59:49.849Z</time></trkpt><trkpt lat="44.3566305820282" lon="7.548457303760655"><ele>564.0</ele><time>2026-05-02T08:59:50.849Z</time></trkpt><trkpt lat="44.35682324396552" lon="7.548517466462183"><ele>564.0</ele><time>2026-05-02T08:59:51.849Z</time></trkpt><trkpt lat="44.35700971461647" lon="7.548591973419916"><ele>564.0</ele><time>2026-05-02T08:59:52.849Z</time></trkpt><trkpt lat="44.35719171995879" lon="7.548650749719731"><ele>564.0</ele><time>2026-05-02T08:59:53.849Z</time></trkpt><trkpt lat="44.35737929417567" lon="7.5487128151787095"><ele>563.3333333333334</ele><time>2026-05-02T08:59:54.849Z</time></trkpt><trkpt lat="44.357561466037566" lon="7.5487719074927915"><ele>562.6666666666667</ele><time>2026-05-02T08:59:55.849Z</time></trkpt><trkpt lat="44.3577326870612" lon="7.5488315918130775"><ele>562.0</ele><time>2026-05-02T08:59:56.849Z</time></trkpt><trkpt lat="44.35790473470098" lon="7.548893121453324"><ele>559.6666666666667</ele><time>2026-05-02T08:59:57.849Z</time></trkpt><trkpt lat="44.35806940862459" lon="7.548947563995988"><ele>557.3333333333334</ele><time>2026-05-02T08:59:58.849Z</time></trkpt><trkpt lat="44.3582389428665" lon="7.548980726200605"><ele>555.0</ele><time>2026-05-02T08:59:59.849Z</time></trkpt><trkpt lat="44.3584056385492" lon="7.549032678405652"><ele>555.0</ele><time>2026-05-02T09:00:00.849Z</time></trkpt><trkpt lat="44.35856926545357" lon="7.549090070744464"><ele>555.0</ele><time>2026-05-02T09:00:01.849Z</time></trkpt><trkpt lat="44.35873260716726" lon="7.549147228844525"><ele>555.0</ele><time>2026-05-02T09:00:02.849Z</time></trkpt><trkpt lat="44.35889161687076" lon="7.549199935223939"><ele>554.0</ele><time>2026-05-02T09:00:03.849Z</time></trkpt><trkpt lat="44.35906489188124" lon="7.54925167021734"><ele>553.0</ele><time>2026-05-02T09:00:04.849Z</time></trkpt><trkpt lat="44.35923617709352" lon="7.549311207317993"><ele>552.0</ele><time>2026-05-02T09:00:05.849Z</time></trkpt><trkpt lat="44.359409819065604" lon="7.549368358120969"><ele>552.0</ele><time>2026-05-02T09:00:06.849Z</time></trkpt><trkpt lat="44.35958585012668" lon="7.54942602578373"><ele>552.0</ele><time>2026-05-02T09:00:07.849Z</time></trkpt><trkpt lat="44.35975947280048" lon="7.549476390513575"><ele>552.0</ele><time>2026-05-02T09:00:08.849Z</time></trkpt><trkpt lat="44.35993092456341" lon="7.549533887434009"><ele>552.3333333333334</ele><time>2026-05-02T09:00:09.849Z</time></trkpt><trkpt lat="44.360098296092225" lon="7.549597079020728"><ele>552.6666666666667</ele><time>2026-05-02T09:00:10.849Z</time></trkpt><trkpt lat="44.36027272915051" lon="7.54965204413161"><ele>553.0</ele><time>2026-05-02T09:00:11.849Z</time></trkpt><trkpt lat="44.36044745280444" lon="7.549707319820695"><ele>551.3333333333334</ele><time>2026-05-02T09:00:12.849Z</time></trkpt><trkpt lat="44.36062523633597" lon="7.549766980388503"><ele>549.6666666666666</ele><time>2026-05-02T09:00:13.848Z</time></trkpt><trkpt lat="44.360808330430196" lon="7.549826913305615"><ele>548.0</ele><time>2026-05-02T09:00:14.848Z</time></trkpt><trkpt lat="44.360993117281595" lon="7.549881570731941"><ele>548.0</ele><time>2026-05-02T09:00:15.848Z</time></trkpt><trkpt lat="44.36117595169284" lon="7.549941120618781"><ele>548.0</ele><time>2026-05-02T09:00:16.848Z</time></trkpt><trkpt lat="44.36135766699512" lon="7.549993777276416"><ele>548.0</ele><time>2026-05-02T09:00:17.848Z</time></trkpt><trkpt lat="44.36153172752623" lon="7.550044921526794"><ele>548.0</ele><time>2026-05-02T09:00:18.848Z</time></trkpt><trkpt lat="44.36171078133156" lon="7.550104117925471"><ele>548.0</ele><time>2026-05-02T09:00:19.848Z</time></trkpt><trkpt lat="44.361887421914524" lon="7.550164884581328"><ele>548.0</ele><time>2026-05-02T09:00:20.848Z</time></trkpt><trkpt lat="44.36207091849065" lon="7.550225193440608"><ele>548.0</ele><time>2026-05-02T09:00:21.848Z</time></trkpt><trkpt lat="44.36225195529777" lon="7.550285160508124"><ele>548.0</ele><time>2026-05-02T09:00:22.848Z</time></trkpt><trkpt lat="44.36243316961604" lon="7.550347705051102"><ele>548.0</ele><time>2026-05-02T09:00:23.848Z</time></trkpt><trkpt lat="44.362621373861884" lon="7.550407971699355"><ele>547.3333333333333</ele><time>2026-05-02T09:00:24.848Z</time></trkpt><trkpt lat="44.36279732631586" lon="7.550466050443383"><ele>546.6666666666666</ele><time>2026-05-02T09:00:25.848Z</time></trkpt><trkpt lat="44.36297463149681" lon="7.5505244432469105"><ele>546.0</ele><time>2026-05-02T09:00:26.848Z</time></trkpt><trkpt lat="44.36315485490609" lon="7.550589364376654"><ele>545.6666666666666</ele><time>2026-05-02T09:00:27.848Z</time></trkpt><trkpt lat="44.36333943983738" lon="7.550642372175958"><ele>545.3333333333333</ele><time>2026-05-02T09:00:28.848Z</time></trkpt><trkpt lat="44.36352709478879" lon="7.5507058256236546"><ele>545.0</ele><time>2026-05-02T09:00:29.848Z</time></trkpt><trkpt lat="44.36370499409087" lon="7.550758667218794"><ele>545.3333333333333</ele><time>2026-05-02T09:00:30.848Z</time></trkpt><trkpt lat="44.36387893444001" lon="7.550813547517931"><ele>545.6666666666666</ele><time>2026-05-02T09:00:31.848Z</time></trkpt><trkpt lat="44.36404919351221" lon="7.5508647380486185"><ele>546.0</ele><time>2026-05-02T09:00:32.848Z</time></trkpt><trkpt lat="44.364207017500306" lon="7.550921825273384"><ele>546.0</ele><time>2026-05-02T09:00:33.848Z</time></trkpt><trkpt lat="44.364362108713166" lon="7.550970928734067"><ele>546.0</ele><time>2026-05-02T09:00:34.848Z</time></trkpt><trkpt lat="44.36451948370488" lon="7.551019890862693"><ele>546.0</ele><time>2026-05-02T09:00:35.848Z</time></trkpt><trkpt lat="44.36467938763884" lon="7.5510760715561815"><ele>545.0</ele><time>2026-05-02T09:00:36.848Z</time></trkpt><trkpt lat="44.364840524154516" lon="7.551131665214841"><ele>544.0</ele><time>2026-05-02T09:00:37.848Z</time></trkpt><trkpt lat="44.365005384828365" lon="7.551186404496422"><ele>543.0</ele><time>2026-05-02T09:00:38.848Z</time></trkpt><trkpt lat="44.36516655619349" lon="7.5512412672234825"><ele>543.0</ele><time>2026-05-02T09:00:39.848Z</time></trkpt><trkpt lat="44.36532915169447" lon="7.551295740948089"><ele>543.0</ele><time>2026-05-02T09:00:40.848Z</time></trkpt><trkpt lat="44.36547885873008" lon="7.551346662258908"><ele>543.0</ele><time>2026-05-02T09:00:41.848Z</time></trkpt><trkpt lat="44.36561816196273" lon="7.551397206736059"><ele>543.25</ele><time>2026-05-02T09:00:42.848Z</time></trkpt><trkpt lat="44.365754529772474" lon="7.551467274635353"><ele>543.5</ele><time>2026-05-02T09:00:43.848Z</time></trkpt><trkpt lat="44.36588141975854" lon="7.5515306470725765"><ele>543.75</ele><time>2026-05-02T09:00:44.848Z</time></trkpt><trkpt lat="44.36600052946166" lon="7.5515824492468715"><ele>544.0</ele><time>2026-05-02T09:00:45.848Z</time></trkpt><trkpt lat="44.36613141626619" lon="7.55163479410241"><ele>544.0</ele><time>2026-05-02T09:00:46.848Z</time></trkpt><trkpt lat="44.366258578248924" lon="7.551686811925437"><ele>544.0</ele><time>2026-05-02T09:00:47.848Z</time></trkpt><trkpt lat="44.36639786549007" lon="7.551744641407868"><ele>544.0</ele><time>2026-05-02T09:00:48.848Z</time></trkpt><trkpt lat="44.36654707790614" lon="7.551799805177012"><ele>544.0</ele><time>2026-05-02T09:00:49.848Z</time></trkpt><trkpt lat="44.36670628273414" lon="7.551856397015399"><ele>542.6666666666667</ele><time>2026-05-02T09:00:50.848Z</time></trkpt><trkpt lat="44.36687143217472" lon="7.551916610822415"><ele>541.3333333333334</ele><time>2026-05-02T09:00:51.848Z</time></trkpt><trkpt lat="44.367046534115346" lon="7.551962291587164"><ele>540.0</ele><time>2026-05-02T09:00:52.848Z</time></trkpt><trkpt lat="44.36720398533731" lon="7.552022016400573"><ele>540.0</ele><time>2026-05-02T09:00:53.848Z</time></trkpt><trkpt lat="44.367352376450626" lon="7.552087095357362"><ele>540.0</ele><time>2026-05-02T09:00:54.848Z</time></trkpt><trkpt lat="44.36749287130858" lon="7.552138116561285"><ele>540.0</ele><time>2026-05-02T09:00:55.848Z</time></trkpt><trkpt lat="44.36761567900757" lon="7.552194471557177"><ele>540.0</ele><time>2026-05-02T09:00:56.848Z</time></trkpt><trkpt lat="44.36771400409662" lon="7.552246575104546"><ele>540.0</ele><time>2026-05-02T09:00:57.848Z</time></trkpt><trkpt lat="44.36779050796135" lon="7.55229831629412"><ele>540.0</ele><time>2026-05-02T09:00:58.848Z</time></trkpt><trkpt lat="44.36784845131166" lon="7.5523465105109535"><ele>540.0</ele><time>2026-05-02T09:00:59.848Z</time></trkpt><trkpt lat="44.367901668489125" lon="7.552407214061809"><ele>540.0</ele><time>2026-05-02T09:01:00.847Z</time></trkpt><trkpt lat="44.367956355155684" lon="7.55248390544553"><ele>540.0</ele><time>2026-05-02T09:01:01.847Z</time></trkpt><trkpt lat="44.36800137705557" lon="7.552596796412436"><ele>540.0</ele><time>2026-05-02T09:01:02.847Z</time></trkpt><trkpt lat="44.368096374455284" lon="7.552657263582916"><ele>539.8</ele><time>2026-05-02T09:01:03.847Z</time></trkpt><trkpt lat="44.36819430322315" lon="7.552713403929434"><ele>539.6</ele><time>2026-05-02T09:01:04.847Z</time></trkpt><trkpt lat="44.36830075804813" lon="7.552736203466451"><ele>539.4</ele><time>2026-05-02T09:01:05.847Z</time></trkpt><trkpt lat="44.3684088876882" lon="7.55271881920752"><ele>539.2</ele><time>2026-05-02T09:01:06.847Z</time></trkpt><trkpt lat="44.368483737234094" lon="7.552617119456539"><ele>539.0</ele><time>2026-05-02T09:01:07.847Z</time></trkpt><trkpt lat="44.36857202563045" lon="7.552620990993751"><ele>539.0</ele><time>2026-05-02T09:01:08.847Z</time></trkpt><trkpt lat="44.3686951252974" lon="7.552588530096019"><ele>539.0</ele><time>2026-05-02T09:01:10.847Z</time></trkpt><trkpt lat="44.368794990473454" lon="7.552607885569413"><ele>539.0</ele><time>2026-05-02T09:01:11.847Z</time></trkpt><trkpt lat="44.36891414891605" lon="7.552631895674727"><ele>539.0</ele><time>2026-05-02T09:01:12.847Z</time></trkpt><trkpt lat="44.36905297756557" lon="7.55265592779896"><ele>538.6666666666666</ele><time>2026-05-02T09:01:13.847Z</time></trkpt><trkpt lat="44.36919964315372" lon="7.552688691358141"><ele>538.3333333333334</ele><time>2026-05-02T09:01:14.847Z</time></trkpt><trkpt lat="44.36935269589271" lon="7.5527257357030315"><ele>538.0</ele><time>2026-05-02T09:01:15.847Z</time></trkpt><trkpt lat="44.36951124550941" lon="7.55277124497951"><ele>538.0</ele><time>2026-05-02T09:01:16.847Z</time></trkpt><trkpt lat="44.36967506209722" lon="7.552819560490493"><ele>538.0</ele><time>2026-05-02T09:01:17.847Z</time></trkpt><trkpt lat="44.36983673549308" lon="7.552876898996367"><ele>538.0</ele><time>2026-05-02T09:01:18.847Z</time></trkpt><trkpt lat="44.37000418814423" lon="7.552929316597941"><ele>537.3333333333334</ele><time>2026-05-02T09:01:19.847Z</time></trkpt><trkpt lat="44.370174548801096" lon="7.552983768459579"><ele>536.6666666666666</ele><time>2026-05-02T09:01:20.847Z</time></trkpt><trkpt lat="44.37035307291716" lon="7.553034702325737"><ele>536.0</ele><time>2026-05-02T09:01:21.847Z</time></trkpt><trkpt lat="44.37053608493035" lon="7.553090151541891"><ele>535.6666666666666</ele><time>2026-05-02T09:01:22.847Z</time></trkpt><trkpt lat="44.37070970303567" lon="7.553142004121202"><ele>535.3333333333334</ele><time>2026-05-02T09:01:23.847Z</time></trkpt><trkpt lat="44.370880383361204" lon="7.553184362823895"><ele>535.0</ele><time>2026-05-02T09:01:24.847Z</time></trkpt><trkpt lat="44.37104930197888" lon="7.553227882645574"><ele>535.0</ele><time>2026-05-02T09:01:25.847Z</time></trkpt><trkpt lat="44.37121315307653" lon="7.553213471782583"><ele>535.0</ele><time>2026-05-02T09:01:26.847Z</time></trkpt><trkpt lat="44.37138947075935" lon="7.553312490769631"><ele>535.0</ele><time>2026-05-02T09:01:27.847Z</time></trkpt><trkpt lat="44.371559599704575" lon="7.553353029868989"><ele>533.3333333333334</ele><time>2026-05-02T09:01:28.847Z</time></trkpt><trkpt lat="44.371727903200465" lon="7.553402412281773"><ele>531.6666666666666</ele><time>2026-05-02T09:01:29.847Z</time></trkpt><trkpt lat="44.37190107349485" lon="7.553445222385702"><ele>530.0</ele><time>2026-05-02T09:01:30.847Z</time></trkpt><trkpt lat="44.37207566907104" lon="7.553496527581923"><ele>530.3333333333333</ele><time>2026-05-02T09:01:31.847Z</time></trkpt><trkpt lat="44.372256559905196" lon="7.553551617132542"><ele>530.6666666666666</ele><time>2026-05-02T09:01:32.847Z</time></trkpt><trkpt lat="44.37244457662523" lon="7.553616048344087"><ele>531.0</ele><time>2026-05-02T09:01:33.847Z</time></trkpt><trkpt lat="44.372627574873945" lon="7.553675854045771"><ele>530.6666666666666</ele><time>2026-05-02T09:01:34.849Z</time></trkpt><trkpt lat="44.37281904901685" lon="7.5537358591009705"><ele>530.3333333333333</ele><time>2026-05-02T09:01:35.849Z</time></trkpt><trkpt lat="44.37301873306632" lon="7.5538099270846955"><ele>530.0</ele><time>2026-05-02T09:01:36.849Z</time></trkpt><trkpt lat="44.37322339097946" lon="7.553887399691397"><ele>530.0</ele><time>2026-05-02T09:01:37.849Z</time></trkpt><trkpt lat="44.3734312512842" lon="7.553972099632952"><ele>530.0</ele><time>2026-05-02T09:01:38.849Z</time></trkpt><trkpt lat="44.37365175127711" lon="7.554070271369029"><ele>530.0</ele><time>2026-05-02T09:01:39.849Z</time></trkpt><trkpt lat="44.373857612507564" lon="7.55416512997252"><ele>529.3333333333333</ele><time>2026-05-02T09:01:40.849Z</time></trkpt><trkpt lat="44.37406533076245" lon="7.554260857794709"><ele>528.6666666666666</ele><time>2026-05-02T09:01:41.849Z</time></trkpt><trkpt lat="44.37427329992766" lon="7.5543538109083785"><ele>528.0</ele><time>2026-05-02T09:01:42.849Z</time></trkpt><trkpt lat="44.37448627956796" lon="7.5544544606071975"><ele>527.3333333333334</ele><time>2026-05-02T09:01:43.85Z</time></trkpt><trkpt lat="44.374695934344714" lon="7.554568571379736"><ele>526.6666666666667</ele><time>2026-05-02T09:01:44.849Z</time></trkpt><trkpt lat="44.374905708838256" lon="7.554679780087877"><ele>526.0</ele><time>2026-05-02T09:01:45.849Z</time></trkpt><trkpt lat="44.37511295619207" lon="7.554797264260803"><ele>526.0</ele><time>2026-05-02T09:01:46.849Z</time></trkpt><trkpt lat="44.3753191302041" lon="7.554917002443338"><ele>526.0</ele><time>2026-05-02T09:01:47.849Z</time></trkpt><trkpt lat="44.37551919132383" lon="7.555040857584274"><ele>526.0</ele><time>2026-05-02T09:01:48.849Z</time></trkpt><trkpt lat="44.37571703478507" lon="7.555165439959998"><ele>526.0</ele><time>2026-05-02T09:01:49.849Z</time></trkpt><trkpt lat="44.37590582950071" lon="7.555288284901587"><ele>526.0</ele><time>2026-05-02T09:01:50.849Z</time></trkpt><trkpt lat="44.37608749340564" lon="7.555406668408445"><ele>526.0</ele><time>2026-05-02T09:01:51.849Z</time></trkpt><trkpt lat="44.37625462870927" lon="7.555520815993482"><ele>525.3333333333334</ele><time>2026-05-02T09:01:52.849Z</time></trkpt><trkpt lat="44.376414312302245" lon="7.555633042952377"><ele>524.6666666666666</ele><time>2026-05-02T09:01:53.849Z</time></trkpt><trkpt lat="44.37656938107381" lon="7.555744702291742"><ele>524.0</ele><time>2026-05-02T09:01:54.849Z</time></trkpt><trkpt lat="44.37672338505045" lon="7.555857391965714"><ele>524.0</ele><time>2026-05-02T09:01:55.849Z</time></trkpt><trkpt lat="44.37687939328466" lon="7.555969916726319"><ele>524.0</ele><time>2026-05-02T09:01:56.849Z</time></trkpt><trkpt lat="44.37703288992693" lon="7.556088034107239"><ele>524.0</ele><time>2026-05-02T09:01:57.849Z</time></trkpt><trkpt lat="44.37717555935983" lon="7.556201211918639"><ele>523.3333333333333</ele><time>2026-05-02T09:01:58.849Z</time></trkpt><trkpt lat="44.37730725546409" lon="7.556312884942615"><ele>522.6666666666666</ele><time>2026-05-02T09:01:59.849Z</time></trkpt><trkpt lat="44.377441025661305" lon="7.556422891706015"><ele>522.0</ele><time>2026-05-02T09:02:00.849Z</time></trkpt><trkpt lat="44.37757987179522" lon="7.556534396326261"><ele>522.0</ele><time>2026-05-02T09:02:01.849Z</time></trkpt><trkpt lat="44.37771863550036" lon="7.556647529433422"><ele>522.0</ele><time>2026-05-02T09:02:02.849Z</time></trkpt><trkpt lat="44.377853829328515" lon="7.5567597734367125"><ele>522.0</ele><time>2026-05-02T09:02:03.849Z</time></trkpt><trkpt lat="44.37799127150031" lon="7.55686956215044"><ele>521.3333333333334</ele><time>2026-05-02T09:02:04.849Z</time></trkpt><trkpt lat="44.378129171855754" lon="7.556986431953842"><ele>520.6666666666667</ele><time>2026-05-02T09:02:05.849Z</time></trkpt><trkpt lat="44.378262691242185" lon="7.557100057044008"><ele>520.0</ele><time>2026-05-02T09:02:06.849Z</time></trkpt><trkpt lat="44.37840355472789" lon="7.557211871092642"><ele>521.3333333333334</ele><time>2026-05-02T09:02:07.849Z</time></trkpt><trkpt lat="44.37853775637029" lon="7.557333563675715"><ele>522.6666666666666</ele><time>2026-05-02T09:02:08.849Z</time></trkpt><trkpt lat="44.37868544716367" lon="7.557450372842238"><ele>524.0</ele><time>2026-05-02T09:02:09.849Z</time></trkpt><trkpt lat="44.378834083486964" lon="7.557566907157938"><ele>523.3333333333333</ele><time>2026-05-02T09:02:10.849Z</time></trkpt><trkpt lat="44.378983211265606" lon="7.557692350612142"><ele>522.6666666666666</ele><time>2026-05-02T09:02:11.849Z</time></trkpt><trkpt lat="44.379132579325905" lon="7.557810964640096"><ele>522.0</ele><time>2026-05-02T09:02:12.849Z</time></trkpt><trkpt lat="44.3792756779744" lon="7.557933787186004"><ele>522.0</ele><time>2026-05-02T09:02:13.849Z</time></trkpt><trkpt lat="44.37940534898215" lon="7.558038268415899"><ele>522.0</ele><time>2026-05-02T09:02:14.849Z</time></trkpt><trkpt lat="44.37953043186625" lon="7.558137560728656"><ele>522.0</ele><time>2026-05-02T09:02:15.849Z</time></trkpt><trkpt lat="44.37966225013227" lon="7.558243524415655"><ele>522.0</ele><time>2026-05-02T09:02:16.849Z</time></trkpt><trkpt lat="44.37979052719617" lon="7.5583485073569765"><ele>521.75</ele><time>2026-05-02T09:02:17.848Z</time></trkpt><trkpt lat="44.37991485671486" lon="7.558458432658552"><ele>521.5</ele><time>2026-05-02T09:02:18.848Z</time></trkpt><trkpt lat="44.380042362333526" lon="7.5585643812066055"><ele>521.25</ele><time>2026-05-02T09:02:19.848Z</time></trkpt><trkpt lat="44.38016804411327" lon="7.5586654199125505"><ele>521.0</ele><time>2026-05-02T09:02:20.848Z</time></trkpt><trkpt lat="44.38029863504955" lon="7.55876720480986"><ele>521.0</ele><time>2026-05-02T09:02:21.848Z</time></trkpt><trkpt lat="44.38041711496923" lon="7.558866716743825"><ele>521.0</ele><time>2026-05-02T09:02:22.848Z</time></trkpt><trkpt lat="44.380534570147844" lon="7.558966989243515"><ele>521.0</ele><time>2026-05-02T09:02:23.848Z</time></trkpt><trkpt lat="44.380654119941376" lon="7.559065833207862"><ele>521.0</ele><time>2026-05-02T09:02:24.848Z</time></trkpt><trkpt lat="44.38076362929463" lon="7.559156693385496"><ele>521.0</ele><time>2026-05-02T09:02:25.848Z</time></trkpt><trkpt lat="44.38086463948848" lon="7.559238624998543"><ele>521.0</ele><time>2026-05-02T09:02:26.848Z</time></trkpt><trkpt lat="44.38096138393322" lon="7.5593152098582665"><ele>521.0</ele><time>2026-05-02T09:02:27.848Z</time></trkpt><trkpt lat="44.38106071145561" lon="7.559392442001735"><ele>521.0</ele><time>2026-05-02T09:02:28.848Z</time></trkpt><trkpt lat="44.38116001729309" lon="7.559474347344963"><ele>521.0</ele><time>2026-05-02T09:02:29.848Z</time></trkpt><trkpt lat="44.38126706600677" lon="7.559562011255386"><ele>521.0</ele><time>2026-05-02T09:02:30.848Z</time></trkpt><trkpt lat="44.38137504055225" lon="7.559656082101741"><ele>521.0</ele><time>2026-05-02T09:02:31.848Z</time></trkpt><trkpt lat="44.38148469408899" lon="7.559736377968075"><ele>521.0</ele><time>2026-05-02T09:02:32.848Z</time></trkpt><trkpt lat="44.381589989493875" lon="7.5598191176756115"><ele>520.6</ele><time>2026-05-02T09:02:33.848Z</time></trkpt><trkpt lat="44.381680293201946" lon="7.559898245911017"><ele>520.2</ele><time>2026-05-02T09:02:34.848Z</time></trkpt><trkpt lat="44.381770619746305" lon="7.559953878419132"><ele>519.8</ele><time>2026-05-02T09:02:35.848Z</time></trkpt><trkpt lat="44.38184713321275" lon="7.560021195035513"><ele>519.4</ele><time>2026-05-02T09:02:36.848Z</time></trkpt><trkpt lat="44.38192418596401" lon="7.560090958706753"><ele>519.0</ele><time>2026-05-02T09:02:37.848Z</time></trkpt><trkpt lat="44.382004250747" lon="7.560161175548573"><ele>519.0</ele><time>2026-05-02T09:02:38.848Z</time></trkpt><trkpt lat="44.382081025814855" lon="7.5602261514020315"><ele>519.0</ele><time>2026-05-02T09:02:39.848Z</time></trkpt><trkpt lat="44.382166304705784" lon="7.560288796038789"><ele>519.0</ele><time>2026-05-02T09:02:40.848Z</time></trkpt><trkpt lat="44.38223181068546" lon="7.560358335690242"><ele>519.0</ele><time>2026-05-02T09:02:41.848Z</time></trkpt><trkpt lat="44.38230245247789" lon="7.560435221814751"><ele>519.0</ele><time>2026-05-02T09:02:42.848Z</time></trkpt><trkpt lat="44.382352506030685" lon="7.560521714295323"><ele>519.0</ele><time>2026-05-02T09:02:43.848Z</time></trkpt><trkpt lat="44.382396063812344" lon="7.56061929088717"><ele>518.4</ele><time>2026-05-02T09:02:44.848Z</time></trkpt><trkpt lat="44.38243794130674" lon="7.560742334068378"><ele>517.8</ele><time>2026-05-02T09:02:45.848Z</time></trkpt><trkpt lat="44.382467992264985" lon="7.560863340344633"><ele>517.2</ele><time>2026-05-02T09:02:46.848Z</time></trkpt><trkpt lat="44.38251209990944" lon="7.560980818850502"><ele>516.6</ele><time>2026-05-02T09:02:47.848Z</time></trkpt><trkpt lat="44.382581502415725" lon="7.561070552237899"><ele>516.0</ele><time>2026-05-02T09:02:48.848Z</time></trkpt><trkpt lat="44.38265438733164" lon="7.561156903102029"><ele>516.0</ele><time>2026-05-02T09:02:49.848Z</time></trkpt><trkpt lat="44.38275418574541" lon="7.561180005129843"><ele>516.0</ele><time>2026-05-02T09:02:50.848Z</time></trkpt><trkpt lat="44.38284812254347" lon="7.561173221155157"><ele>516.0</ele><time>2026-05-02T09:02:51.848Z</time></trkpt><trkpt lat="44.38294142690688" lon="7.561119559559573"><ele>516.0</ele><time>2026-05-02T09:02:52.848Z</time></trkpt><trkpt lat="44.38303305382879" lon="7.561088397331314"><ele>516.0</ele><time>2026-05-02T09:02:53.848Z</time></trkpt><trkpt lat="44.38314545415721" lon="7.5610993346818"><ele>516.0</ele><time>2026-05-02T09:02:54.848Z</time></trkpt><trkpt lat="44.383261621678386" lon="7.5611341759432555"><ele>516.0</ele><time>2026-05-02T09:02:55.848Z</time></trkpt><trkpt lat="44.383362441363424" lon="7.561250909425647"><ele>516.0</ele><time>2026-05-02T09:02:56.848Z</time></trkpt><trkpt lat="44.38346302884869" lon="7.5613426370295524"><ele>516.0</ele><time>2026-05-02T09:02:57.848Z</time></trkpt><trkpt lat="44.383565551844306" lon="7.561440096734118"><ele>515.75</ele><time>2026-05-02T09:02:58.848Z</time></trkpt><trkpt lat="44.38367232889778" lon="7.561531466910201"><ele>515.5</ele><time>2026-05-02T09:02:59.848Z</time></trkpt><trkpt lat="44.38378389340697" lon="7.561610237538994"><ele>515.25</ele><time>2026-05-02T09:03:00.848Z</time></trkpt><trkpt lat="44.38388221266867" lon="7.561686137127494"><ele>515.0</ele><time>2026-05-02T09:03:01.848Z</time></trkpt><trkpt lat="44.38397959177477" lon="7.561753867022598"><ele>515.0</ele><time>2026-05-02T09:03:02.848Z</time></trkpt><trkpt lat="44.384056373395396" lon="7.561822468573392"><ele>515.0</ele><time>2026-05-02T09:03:03.848Z</time></trkpt><trkpt lat="44.384120883936745" lon="7.561871851767278"><ele>515.0</ele><time>2026-05-02T09:03:04.847Z</time></trkpt><trkpt lat="44.38418504573097" lon="7.561922697721437"><ele>515.0</ele><time>2026-05-02T09:03:05.847Z</time></trkpt><trkpt lat="44.3842445309932" lon="7.561977590683153"><ele>515.0</ele><time>2026-05-02T09:03:06.847Z</time></trkpt><trkpt lat="44.384308195602806" lon="7.5620291131538435"><ele>515.0</ele><time>2026-05-02T09:03:07.847Z</time></trkpt><trkpt lat="44.38436726571659" lon="7.5620783530129385"><ele>515.0</ele><time>2026-05-02T09:03:08.847Z</time></trkpt><trkpt lat="44.38443195665098" lon="7.562124454235193"><ele>515.0</ele><time>2026-05-02T09:03:09.847Z</time></trkpt><trkpt lat="44.38449611074035" lon="7.5621729895376895"><ele>515.0</ele><time>2026-05-02T09:03:10.847Z</time></trkpt><trkpt lat="44.38455958260283" lon="7.5622468249584935"><ele>515.0</ele><time>2026-05-02T09:03:11.847Z</time></trkpt><trkpt lat="44.384635197343556" lon="7.5623098676996525"><ele>515.0</ele><time>2026-05-02T09:03:12.847Z</time></trkpt><trkpt lat="44.384715151705" lon="7.5623887322647585"><ele>515.0</ele><time>2026-05-02T09:03:13.847Z</time></trkpt><trkpt lat="44.38479954291045" lon="7.562463516580236"><ele>515.0</ele><time>2026-05-02T09:03:14.847Z</time></trkpt><trkpt lat="44.384895145048596" lon="7.562544236726947"><ele>515.0</ele><time>2026-05-02T09:03:15.847Z</time></trkpt><trkpt lat="44.38500401412288" lon="7.562630094660934"><ele>515.0</ele><time>2026-05-02T09:03:16.847Z</time></trkpt><trkpt lat="44.38512187375533" lon="7.562733904532205"><ele>515.0</ele><time>2026-05-02T09:03:17.847Z</time></trkpt><trkpt lat="44.38521888359648" lon="7.562823212669587"><ele>514.8333333333333</ele><time>2026-05-02T09:03:18.847Z</time></trkpt><trkpt lat="44.3853117539536" lon="7.5628864530748325"><ele>514.6666666666666</ele><time>2026-05-02T09:03:19.847Z</time></trkpt><trkpt lat="44.38539522455506" lon="7.562951402756369"><ele>514.5</ele><time>2026-05-02T09:03:20.847Z</time></trkpt><trkpt lat="44.38545645610882" lon="7.563018394352941"><ele>514.3333333333334</ele><time>2026-05-02T09:03:21.847Z</time></trkpt><trkpt lat="44.38552316580666" lon="7.563057416735444"><ele>514.1666666666667</ele><time>2026-05-02T09:03:22.847Z</time></trkpt><trkpt lat="44.38558234540953" lon="7.563092759899278"><ele>514.0</ele><time>2026-05-02T09:03:23.847Z</time></trkpt><trkpt lat="44.38565121609546" lon="7.563150634222338"><ele>513.6666666666667</ele><time>2026-05-02T09:03:25.847Z</time></trkpt><trkpt lat="44.38571895579279" lon="7.563203352765471"><ele>513.3333333333334</ele><time>2026-05-02T09:03:27.847Z</time></trkpt><trkpt lat="44.38577332751712" lon="7.563264033340759"><ele>513.0</ele><time>2026-05-02T09:03:28.847Z</time></trkpt><trkpt lat="44.385852616549286" lon="7.563342964327163"><ele>512.6666666666666</ele><time>2026-05-02T09:03:29.847Z</time></trkpt><trkpt lat="44.38594268702023" lon="7.563415561693431"><ele>512.3333333333333</ele><time>2026-05-02T09:03:30.847Z</time></trkpt><trkpt lat="44.38603069366483" lon="7.563475458505596"><ele>512.0</ele><time>2026-05-02T09:03:31.847Z</time></trkpt><trkpt lat="44.38612343196296" lon="7.563542649698501"><ele>512.0</ele><time>2026-05-02T09:03:32.847Z</time></trkpt><trkpt lat="44.38621542310823" lon="7.5636142468038825"><ele>512.0</ele><time>2026-05-02T09:03:33.847Z</time></trkpt><trkpt lat="44.38631133295045" lon="7.563687953163166"><ele>512.0</ele><time>2026-05-02T09:03:34.847Z</time></trkpt><trkpt lat="44.38639409950457" lon="7.563758359042777"><ele>512.0</ele><time>2026-05-02T09:03:35.847Z</time></trkpt><trkpt lat="44.38647988794715" lon="7.563817159948058"><ele>512.0</ele><time>2026-05-02T09:03:36.847Z</time></trkpt><trkpt lat="44.386568593081826" lon="7.56387003702346"><ele>512.0</ele><time>2026-05-02T09:03:37.847Z</time></trkpt><trkpt lat="44.386668947220016" lon="7.56392590014777"><ele>512.0</ele><time>2026-05-02T09:03:38.847Z</time></trkpt><trkpt lat="44.38677249956851" lon="7.563989528524932"><ele>512.0</ele><time>2026-05-02T09:03:39.847Z</time></trkpt><trkpt lat="44.38687340823276" lon="7.564044283922315"><ele>512.0</ele><time>2026-05-02T09:03:40.849Z</time></trkpt><trkpt lat="44.386980800016495" lon="7.564093280313276"><ele>512.0</ele><time>2026-05-02T09:03:41.849Z</time></trkpt><trkpt lat="44.38709097237377" lon="7.564142855070255"><ele>511.40000000000003</ele><time>2026-05-02T09:03:42.849Z</time></trkpt><trkpt lat="44.38720710309654" lon="7.56417985076572"><ele>510.80000000000007</ele><time>2026-05-02T09:03:43.849Z</time></trkpt><trkpt lat="44.38732172011694" lon="7.564214285835361"><ele>510.2</ele><time>2026-05-02T09:03:44.849Z</time></trkpt><trkpt lat="44.38742487652216" lon="7.564255351166565"><ele>509.6</ele><time>2026-05-02T09:03:45.848Z</time></trkpt><trkpt lat="44.38752642615591" lon="7.564275990621653"><ele>509.0</ele><time>2026-05-02T09:03:46.849Z</time></trkpt><trkpt lat="44.38761142055804" lon="7.564291138769974"><ele>508.99999999999994</ele><time>2026-05-02T09:03:47.849Z</time></trkpt><trkpt lat="44.38768015941678" lon="7.5643115193351695"><ele>509.0</ele><time>2026-05-02T09:03:48.849Z</time></trkpt><trkpt lat="44.38775824157918" lon="7.564342532873668"><ele>509.0</ele><time>2026-05-02T09:03:50.848Z</time></trkpt><trkpt lat="44.38774842630385" lon="7.564503481382233"><ele>509.0</ele><time>2026-05-02T09:03:52.848Z</time></trkpt><trkpt lat="44.387731918496584" lon="7.564603196303631"><ele>508.99999999999994</ele><time>2026-05-02T09:03:53.849Z</time></trkpt><trkpt lat="44.387719502156294" lon="7.5647095160571665"><ele>509.0</ele><time>2026-05-02T09:03:54.849Z</time></trkpt><trkpt lat="44.387716387980966" lon="7.5648277524811505"><ele>509.16666666666663</ele><time>2026-05-02T09:03:55.849Z</time></trkpt><trkpt lat="44.38771527297499" lon="7.564957738874612"><ele>509.3333333333333</ele><time>2026-05-02T09:03:56.849Z</time></trkpt><trkpt lat="44.38775465943893" lon="7.565061634835206"><ele>509.5</ele><time>2026-05-02T09:03:57.849Z</time></trkpt><trkpt lat="44.387803274387345" lon="7.565147063959467"><ele>509.66666666666663</ele><time>2026-05-02T09:03:58.849Z</time></trkpt><trkpt lat="44.38787536551071" lon="7.565220452037802"><ele>509.8333333333333</ele><time>2026-05-02T09:03:59.849Z</time></trkpt><trkpt lat="44.3879637579262" lon="7.565294332843106"><ele>510.0</ele><time>2026-05-02T09:04:00.849Z</time></trkpt><trkpt lat="44.388056121361494" lon="7.565356977413956"><ele>509.6</ele><time>2026-05-02T09:04:01.849Z</time></trkpt><trkpt lat="44.388136588269546" lon="7.565420037409987"><ele>509.2</ele><time>2026-05-02T09:04:02.849Z</time></trkpt><trkpt lat="44.38821682532642" lon="7.565486426309188"><ele>508.79999999999995</ele><time>2026-05-02T09:04:03.849Z</time></trkpt><trkpt lat="44.388297662848935" lon="7.5655516045102456"><ele>508.4</ele><time>2026-05-02T09:04:04.848Z</time></trkpt><trkpt lat="44.38837712923081" lon="7.565613108598155"><ele>508.0</ele><time>2026-05-02T09:04:05.848Z</time></trkpt><trkpt lat="44.38845623437575" lon="7.565656837373388"><ele>508.0</ele><time>2026-05-02T09:04:06.848Z</time></trkpt><trkpt lat="44.38851261198804" lon="7.565714698893396"><ele>507.99999999999994</ele><time>2026-05-02T09:04:07.848Z</time></trkpt><trkpt lat="44.388576798693414" lon="7.5657968443830494"><ele>507.99999999999994</ele><time>2026-05-02T09:04:09.848Z</time></trkpt><trkpt lat="44.38854094883115" lon="7.565970894590916"><ele>508.0</ele><time>2026-05-02T09:04:11.848Z</time></trkpt><trkpt lat="44.38850518897956" lon="7.5660905204229705"><ele>508.0</ele><time>2026-05-02T09:04:12.848Z</time></trkpt><trkpt lat="44.38848659199519" lon="7.5661950106081415"><ele>508.0</ele><time>2026-05-02T09:04:13.848Z</time></trkpt><trkpt lat="44.38844778036722" lon="7.56631708955007"><ele>508.0</ele><time>2026-05-02T09:04:15.848Z</time></trkpt><trkpt lat="44.38831187627079" lon="7.566317218204444"><ele>508.0</ele><time>2026-05-02T09:04:21.848Z</time></trkpt><trkpt lat="44.38820051351406" lon="7.566301875078563"><ele>508.0</ele><time>2026-05-02T09:04:23.848Z</time></trkpt><trkpt lat="44.38808168101833" lon="7.566292033378841"><ele>508.2</ele><time>2026-05-02T09:04:25.848Z</time></trkpt><trkpt lat="44.38796039979977" lon="7.566278680082502"><ele>508.4</ele><time>2026-05-02T09:04:27.848Z</time></trkpt><trkpt lat="44.38784249059596" lon="7.5662650144901065"><ele>508.59999999999997</ele><time>2026-05-02T09:04:29.848Z</time></trkpt><trkpt lat="44.38777941394572" lon="7.566263850342951"><ele>508.79999999999995</ele><time>2026-05-02T09:04:30.848Z</time></trkpt><trkpt lat="44.38765891379569" lon="7.566245516092164"><ele>509.0</ele><time>2026-05-02T09:04:32.848Z</time></trkpt><trkpt lat="44.387594872554956" lon="7.5662293544677794"><ele>509.0</ele><time>2026-05-02T09:04:33.848Z</time></trkpt><trkpt lat="44.38749619235704" lon="7.566205843010759"><ele>509.0</ele><time>2026-05-02T09:04:35.848Z</time></trkpt><trkpt lat="44.38743307581912" lon="7.5662188419249405"><ele>509.0</ele><time>2026-05-02T09:04:42.848Z</time></trkpt><trkpt lat="44.38734551579947" lon="7.5661699791912875"><ele>509.0</ele><time>2026-05-02T09:04:46.848Z</time></trkpt><trkpt lat="44.38727248181615" lon="7.566214564439566"><ele>509.0</ele><time>2026-05-02T09:04:48.848Z</time></trkpt><trkpt lat="44.38729712909229" lon="7.566406959222359"><ele>509.0</ele><time>2026-05-02T09:04:50.848Z</time></trkpt><trkpt lat="44.38728379548441" lon="7.56651161462795"><ele>509.0</ele><time>2026-05-02T09:04:51.847Z</time></trkpt><trkpt lat="44.38728782374464" lon="7.566621924034583"><ele>509.0</ele><time>2026-05-02T09:04:52.847Z</time></trkpt><trkpt lat="44.38728260880525" lon="7.566719562410112"><ele>509.0</ele><time>2026-05-02T09:04:53.847Z</time></trkpt><trkpt lat="44.387277712269736" lon="7.566870772818189"><ele>509.0</ele><time>2026-05-02T09:04:55.847Z</time></trkpt><trkpt lat="44.387189451885384" lon="7.5669983003773424"><ele>509.49999999999994</ele><time>2026-05-02T09:04:58.847Z</time></trkpt><trkpt lat="44.387090896179906" lon="7.566987816681683"><ele>510.0</ele><time>2026-05-02T09:05:00.847Z</time></trkpt><trkpt lat="44.38701989920023" lon="7.566987279024513"><ele>510.5</ele><time>2026-05-02T09:05:03.847Z</time></trkpt><trkpt lat="44.38694928804593" lon="7.56697275336126"><ele>511.0</ele><time>2026-05-02T09:05:05.847Z</time></trkpt><trkpt lat="44.386884714239855" lon="7.5669607051808105"><ele>511.49999999999994</ele><time>2026-05-02T09:05:07.847Z</time></trkpt><trkpt lat="44.386964201567395" lon="7.566992404315705"><ele>512.0</ele><time>2026-05-02T09:05:15.847Z</time></trkpt><trkpt lat="44.38703426838169" lon="7.566990021528829"><ele>511.99999999999994</ele><time>2026-05-02T09:05:16.847Z</time></trkpt><trkpt lat="44.387098720370716" lon="7.56700236772758"><ele>512.0</ele><time>2026-05-02T09:05:17.847Z</time></trkpt><trkpt lat="44.38720116782727" lon="7.567023097784945"><ele>512.0</ele><time>2026-05-02T09:05:19.847Z</time></trkpt><trkpt lat="44.387253742117544" lon="7.567132870142358"><ele>512.0</ele><time>2026-05-02T09:05:23.847Z</time></trkpt><trkpt lat="44.38724325425128" lon="7.567241829614193"><ele>511.99999999999994</ele><time>2026-05-02T09:05:26.847Z</time></trkpt><trkpt lat="44.387228233773726" lon="7.567345898146089"><ele>512.0</ele><time>2026-05-02T09:05:31.847Z</time></trkpt><trkpt lat="44.387234448236754" lon="7.567475062714237"><ele>511.8</ele><time>2026-05-02T09:05:33.847Z</time></trkpt><trkpt lat="44.38720455916841" lon="7.567578123965406"><ele>511.6</ele><time>2026-05-02T09:05:35.847Z</time></trkpt><trkpt lat="44.38709560183338" lon="7.567616966085577"><ele>511.40000000000003</ele><time>2026-05-02T09:05:38.846Z</time></trkpt><trkpt lat="44.387000205729336" lon="7.567666067406987"><ele>511.20000000000005</ele><time>2026-05-02T09:05:40.846Z</time></trkpt><trkpt lat="44.38692202773425" lon="7.5676705822419805"><ele>511.0</ele><time>2026-05-02T09:05:42.846Z</time></trkpt><trkpt lat="44.38701815166881" lon="7.567643891252778"><ele>511.0</ele><time>2026-05-02T09:06:05.849Z</time></trkpt><trkpt lat="44.387090859314746" lon="7.567623702332255"><ele>511.0</ele><time>2026-05-02T09:06:07.848Z</time></trkpt><trkpt lat="44.38715347321866" lon="7.56760631643122"><ele>511.0</ele><time>2026-05-02T09:06:10.848Z</time></trkpt><trkpt lat="44.3872087130317" lon="7.56755661151219"><ele>511.0</ele><time>2026-05-02T09:07:03.847Z</time></trkpt><trkpt lat="44.38722054978366" lon="7.567467936107908"><ele>511.0</ele><time>2026-05-02T09:07:13.847Z</time></trkpt><trkpt lat="44.387214803323396" lon="7.567373324732345"><ele>511.0</ele><time>2026-05-02T09:07:19.847Z</time></trkpt><trkpt lat="44.38718181390318" lon="7.567297692666545"><ele>511.0</ele><time>2026-05-02T09:07:25.847Z</time></trkpt><trkpt lat="44.387116274726246" lon="7.567318688274578"><ele>511.0</ele><time>2026-05-02T09:07:31.847Z</time></trkpt><trkpt lat="44.38705445517162" lon="7.567364222683385"><ele>511.0</ele><time>2026-05-02T09:07:37.847Z</time></trkpt><trkpt lat="44.38698766264264" lon="7.567386683696063"><ele>511.0</ele><time>2026-05-02T09:07:44.846Z</time></trkpt><trkpt lat="44.3869251268046" lon="7.567398844301213"><ele>511.0</ele><time>2026-05-02T09:07:50.846Z</time></trkpt><trkpt lat="44.386857513167726" lon="7.567411792091298"><ele>511.0</ele><time>2026-05-02T09:07:56.848Z</time></trkpt><trkpt lat="44.38678952986278" lon="7.5674386787528825"><ele>511.0</ele><time>2026-05-02T09:08:02.848Z</time></trkpt><trkpt lat="44.386683806224625" lon="7.567459323928736"><ele>511.0</ele><time>2026-05-02T09:08:21.848Z</time></trkpt><trkpt lat="44.38661952897729" lon="7.567465029028687"><ele>511.0</ele><time>2026-05-02T09:08:51.847Z</time></trkpt><trkpt lat="44.38654735324774" lon="7.567470124645316"><ele>511.0</ele><time>2026-05-02T09:08:58.847Z</time></trkpt><trkpt lat="44.3866135630126" lon="7.567395034589917"><ele>511.0</ele><time>2026-05-02T09:12:39.946Z</time></trkpt><trkpt lat="44.38668595144978" lon="7.567340057241928"><ele>511.0</ele><time>2026-05-02T09:13:40.951Z</time></trkpt><trkpt lat="44.386634375153534" lon="7.567284518762309"><ele>511.0</ele><time>2026-05-02T09:14:27.95Z</time></trkpt><trkpt lat="44.38656504216739" lon="7.5673258794687985"><ele>511.0</ele><time>2026-05-02T09:14:32.95Z</time></trkpt><trkpt lat="44.38649839018437" lon="7.567347887079029"><ele>511.0</ele><time>2026-05-02T09:15:06.807Z</time></trkpt><trkpt lat="44.386459652052814" lon="7.567420524215429"><ele>511.0</ele><time>2026-05-02T09:15:12.807Z</time></trkpt><trkpt lat="44.38644275260255" lon="7.567505572278399"><ele>511.0</ele><time>2026-05-02T09:15:20.807Z</time></trkpt><trkpt lat="44.386495586767545" lon="7.567452425592757"><ele>511.0</ele><time>2026-05-02T09:16:18.805Z</time></trkpt><trkpt lat="44.38655834623344" lon="7.567407971573128"><ele>511.0</ele><time>2026-05-02T09:18:30.948Z</time></trkpt><trkpt lat="44.3865232624652" lon="7.567495531820791"><ele>511.0</ele><time>2026-05-02T09:18:39.804Z</time></trkpt><trkpt lat="44.3865190061877" lon="7.567584321699348"><ele>511.0</ele><time>2026-05-02T09:18:44.804Z</time></trkpt><trkpt lat="44.38656477151395" lon="7.567450392457133"><ele>511.0</ele><time>2026-05-02T09:18:52.804Z</time></trkpt><trkpt lat="44.38662828954535" lon="7.567464331120001"><ele>511.00000000000006</ele><time>2026-05-02T09:18:57.804Z</time></trkpt><trkpt lat="44.38673176434181" lon="7.567484295589905"><ele>511.0</ele><time>2026-05-02T09:19:08.804Z</time></trkpt><trkpt lat="44.386801367640786" lon="7.567504629778026"><ele>511.0</ele><time>2026-05-02T09:19:13.803Z</time></trkpt><trkpt lat="44.38687774137458" lon="7.567464496107295"><ele>511.0</ele><time>2026-05-02T09:19:35.803Z</time></trkpt><trkpt lat="44.38682485199929" lon="7.567395218351193"><ele>511.00000000000006</ele><time>2026-05-02T09:26:12.759Z</time></trkpt><trkpt lat="44.38675420140579" lon="7.567402674411941"><ele>511.0</ele><time>2026-05-02T09:26:32.758Z</time></trkpt><trkpt lat="44.38669274678406" lon="7.567450302839629"><ele>511.0</ele><time>2026-05-02T09:27:06.756Z</time></trkpt><trkpt lat="44.38663689495625" lon="7.567404629921391"><ele>511.0</ele><time>2026-05-02T09:27:11.756Z</time></trkpt><trkpt lat="44.3865684814969" lon="7.567410980575673"><ele>511.0</ele><time>2026-05-02T09:27:16.756Z</time></trkpt><trkpt lat="44.386492849621064" lon="7.567408176079388"><ele>511.0</ele><time>2026-05-02T09:28:17.755Z</time></trkpt><trkpt lat="44.386491881681266" lon="7.56730004941017"><ele>511.0</ele><time>2026-05-02T09:28:36.892Z</time></trkpt><trkpt lat="44.38649844617238" lon="7.567205314872711"><ele>511.0</ele><time>2026-05-02T09:28:55.893Z</time></trkpt><trkpt lat="44.386573364088775" lon="7.56725990906146"><ele>511.0</ele><time>2026-05-02T09:33:29.893Z</time></trkpt><trkpt lat="44.3865417459793" lon="7.567181708086049"><ele>511.0</ele><time>2026-05-02T09:36:05.745Z</time></trkpt><trkpt lat="44.386575620199956" lon="7.567093757546987"><ele>511.0</ele><time>2026-05-02T09:36:10.745Z</time></trkpt><trkpt lat="44.386611976966165" lon="7.566988526824711"><ele>512.0</ele><time>2026-05-02T09:36:11.745Z</time></trkpt><trkpt lat="44.38665227520868" lon="7.567067932946239"><ele>511.0</ele><time>2026-05-02T09:39:06.882Z</time></trkpt><trkpt lat="44.38662691065846" lon="7.567155391156824"><ele>511.0</ele><time>2026-05-02T09:39:24.892Z</time></trkpt><trkpt lat="44.38658535976794" lon="7.5673369616669985"><ele>511.0</ele><time>2026-05-02T09:41:23.871Z</time></trkpt></trkseg></trk></gpx>